# Wetter Temperatur Luftdruck Luftfeuchtigkeit Sichtweite Windgeschwindigkeit Windrichtung Zeit
1 Clouds -7 1004 78 6000 14.4 170 09:40 29.01.2020
2 Clouds -7 1004 78 6000 14.4 170 09:21 29.01.2020
3 Clouds -7 1005 78 10000 13.9 170 08:57 29.01.2020
4 Clouds -7 1005 78 10000 13.9 170 08:38 29.01.2020
5 Clouds -6 1005 72 10000 16.5 160 08:20 29.01.2020
6 Clouds -6 1005 72 10000 18.5 160 07:44 29.01.2020
7 Clouds -8 1005 72 10000 18.5 150 07:24 29.01.2020
8 Clouds -9 1005 78 10000 19.5 160 06:54 29.01.2020
9 Clouds -9 1005 78 10000 20.1 150 06:36 29.01.2020
10 Clouds -9 1005 78 10000 20.1 150 06:18 29.01.2020
11 Snow -9 1005 78 10000 20.6 150 05:43 29.01.2020
12 Clouds -10 1006 78 10000 15.9 150 05:25 29.01.2020
13 Clouds -10 1006 78 10000 13.9 140 04:37 29.01.2020
14 Snow -11 1006 78 10000 17 140 02:43 29.01.2020
15 Clouds -11 1006 72 10000 19 140 02:18 29.01.2020
16 Snow -11 1007 66 10000 17 130 00:43 29.01.2020
17 Clouds -11 1007 66 10000 17.5 130 00:24 29.01.2020
18 Clouds -11 1007 61 10000 16.5 130 23:56 28.01.2020
19 Clouds -11 1007 61 10000 19.5 130 23:37 28.01.2020
20 Clouds -9 1007 61 10000 19.5 130 23:18 28.01.2020
21 Clouds -8 1007 61 10000 20.1 130 22:40 28.01.2020
22 Clouds -8 1007 72 9000 20.1 130 22:21 28.01.2020
23 Clouds -8 1007 72 10000 17.5 130 21:42 28.01.2020
24 Clouds -8 1007 72 10000 18.5 130 21:22 28.01.2020
25 Clouds -9 1008 72 8000 18.5 130 20:58 28.01.2020
26 Clouds -9 1008 72 8000 18.5 130 20:40 28.01.2020
27 Clouds -8 1008 72 10000 19 130 20:21 28.01.2020
28 Clouds -9 1008 72 10000 19 130 19:39 28.01.2020
29 Clouds -9 1008 66 8000 21.1 130 19:20 28.01.2020
30 Clouds -8 1007 61 9000 24.2 140 18:58 28.01.2020
31 Clouds -8 1007 61 9000 24.2 140 18:58 28.01.2020
32 Clouds -8 1007 61 9000 24.2 140 18:39 28.01.2020
33 Clouds -10 1008 66 10000 22.1 140 18:21 28.01.2020
34 Clouds -10 1008 66 10000 22.1 140 18:21 28.01.2020
35 Clouds -9 1008 66 10000 22.1 140 17:57 28.01.2020
36 Clouds -9 1007 61 10000 21.6 140 17:37 28.01.2020
37 Clouds -9 1007 61 10000 21.6 140 17:19 28.01.2020
38 Clouds -9 1008 66 10000 22.1 140 16:54 28.01.2020
39 Clouds -9 1008 66 10000 21.6 140 16:36 28.01.2020
40 Clouds -9 1008 66 10000 21.6 140 16:18 28.01.2020
41 Clouds -9 1008 72 10000 22.1 140 15:41 28.01.2020
42 Clouds -9 1008 72 10000 22.1 140 15:19 28.01.2020
43 Clouds -9 1008 72 10000 22.1 140 15:19 28.01.2020
44 Clouds -9 1008 72 10000 19.5 140 14:54 28.01.2020
45 Clouds -10 1008 78 10000 19.5 150 14:36 28.01.2020
46 Clouds -9 1008 78 10000 19.5 150 14:18 28.01.2020
47 Clouds -10 1008 78 10000 20.6 140 13:39 28.01.2020
48 Clouds -9 1008 78 10000 20.6 140 13:21 28.01.2020
49 Clear -10 1009 72 10000 17 150 12:42 28.01.2020
50 Clear -10 1009 72 10000 14.4 140 12:23 28.01.2020
51 Clear -10 1009 72 10000 16.5 140 11:48 28.01.2020
52 Clear -9 1009 72 10000 12.9 150 11:23 28.01.2020
53 Clear -10 1009 78 10000 10.8 140 10:59 28.01.2020
54 Clear -10 1009 78 10000 10.8 140 10:40 28.01.2020
55 Clear -10 1009 78 10000 11.8 160 10:20 28.01.2020
56 Clear -10 1009 71 10000 13.9 160 09:55 28.01.2020
57 Clear -10 1009 78 10000 12.9 160 09:36 28.01.2020
58 Clear -10 1009 78 10000 12.9 160 09:18 28.01.2020
59 Clear -10 1009 78 10000 15.4 160 08:40 28.01.2020
60 Clear -10 1009 78 10000 14.9 160 08:19 28.01.2020
61 Clear -13 1009 78 9000 14.9 150 07:38 28.01.2020
62 Clear -13 1009 71 10000 13.9 140 06:51 28.01.2020
63 Clear -13 1010 71 10000 10.8 130 06:28 28.01.2020
64 Clear -13 1010 71 10000 8.2 120 05:55 28.01.2020
65 Clear -13 1010 71 10000 8.2 120 05:27 28.01.2020
66 Clouds -13 1010 71 10000 7.7 160 04:30 28.01.2020
67 Clouds -13 1011 71 10000 6.2 180 02:58 28.01.2020
68 Clouds -13 1011 71 10000 6.2 180 02:25 28.01.2020
69 Clouds -13 1011 71 10000 6.2 180 02:25 28.01.2020
70 Clouds -13 1011 71 10000 8.7 160 01:57 28.01.2020
71 Clouds -13 1011 71 10000 8.7 160 01:32 28.01.2020
72 Clouds -12 1011 72 10000 10.8 160 00:51 28.01.2020
73 Clouds -13 1011 71 10000 10.3 150 00:29 28.01.2020
74 Clouds -12 1011 72 10000 12.9 150 23:51 27.01.2020
75 Clouds -12 1011 66 10000 11.3 160 23:30 27.01.2020
76 Clouds -10 1012 66 10000 10.8 170 22:59 27.01.2020
77 Clouds -10 1012 66 10000 12.3 170 22:40 27.01.2020
78 Clouds -10 1012 66 10000 12.3 170 22:19 27.01.2020
79 Clouds -10 1012 71 10000 9.3 170 21:55 27.01.2020
80 Clouds -10 1012 66 10000 11.3 160 21:37 27.01.2020
81 Clouds -9 1012 66 10000 11.3 160 21:18 27.01.2020
82 Clouds -10 1012 66 10000 8.2 170 20:43 27.01.2020
83 Clouds -10 1012 66 10000 8.2 170 20:22 27.01.2020
84 Clouds -9 1012 72 10000 9.8 160 19:59 27.01.2020
85 Clouds -9 1012 72 10000 5.7 170 19:41 27.01.2020
86 Clouds -9 1012 72 10000 5.7 170 19:22 27.01.2020
87 Clouds -9 1012 72 10000 10.8 160 18:56 27.01.2020
88 Clouds -9 1012 66 10000 12.3 150 18:38 27.01.2020
89 Clouds -9 1012 66 10000 12.3 150 18:19 27.01.2020
90 Clouds -9 1012 66 10000 11.8 150 17:39 27.01.2020
91 Clouds -9 1012 66 10000 12.3 150 17:21 27.01.2020
92 Clouds -9 1012 66 10000 12.3 150 16:59 27.01.2020
93 Clouds -9 1012 66 10000 12.3 150 16:41 27.01.2020
94 Clouds -9 1012 72 10000 12.9 150 16:23 27.01.2020
95 Clouds -9 1012 72 10000 9.3 150 15:55 27.01.2020
96 Clouds -9 1012 72 10000 7.2 160 15:37 27.01.2020
97 Clouds -9 1012 72 10000 7.2 160 15:37 27.01.2020
98 Clouds -9 1012 72 10000 7.2 160 15:18 27.01.2020
99 Clouds -8 1012 66 10000 6.7 170 14:42 27.01.2020
100 Clouds -8 1013 66 10000 8.2 160 14:22 27.01.2020
101 Clouds -10 1013 66 10000 7.2 170 13:58 27.01.2020
102 Clouds -10 1013 66 10000 7.2 170 13:39 27.01.2020
103 Clouds -9 1013 66 10000 6.7 160 13:19 27.01.2020
104 Clouds -8 1013 61 10000 5.7 170 12:54 27.01.2020
105 Clouds -8 1013 61 10000 8.7 150 12:36 27.01.2020
106 Clouds -8 1013 61 10000 8.7 150 12:18 27.01.2020
107 Clouds -9 1013 66 10000 8.7 150 11:41 27.01.2020
108 Clouds -8 1013 61 10000 9.8 150 11:20 27.01.2020
109 Clouds -8 1013 56 10000 9.3 140 10:43 27.01.2020
110 Clouds -8 1013 56 10000 9.8 150 10:24 27.01.2020
111 Clouds -8 1013 56 10000 9.8 140 09:56 27.01.2020
112 Clouds -11 1013 61 10000 7.7 140 09:38 27.01.2020
113 Clouds -9 1013 61 10000 7.7 140 09:18 27.01.2020
114 Clouds -9 1012 61 10000 6.7 130 08:42 27.01.2020
115 Clouds -8 1012 61 10000 6.7 130 08:20 27.01.2020
116 Clouds -8 1013 66 10000 7.2 150 07:54 27.01.2020
117 Clouds -8 1013 66 10000 7.2 150 07:54 27.01.2020
118 Clouds -10 1013 61 10000 5.1 130 07:33 27.01.2020
119 Clouds -8 1012 67 10000 4.6 120 06:52 27.01.2020
120 Clouds -7 1013 62 10000 3.1 130 06:24 27.01.2020
121 Clouds -8 1012 72 10000 4.6 130 05:23 27.01.2020
122 Clouds -8 1013 85 10000 3.6 190 03:47 27.01.2020
123 Clouds -9 1013 78 10000 2.6 180 02:36 27.01.2020
124 Clouds -12 1012 92 10000 3.1 130 01:29 27.01.2020
125 Clouds -10 1013 92 10000 3.1 140 00:44 27.01.2020
126 Snow -9 1013 85 1500 2.1 140 00:26 27.01.2020
127 Snow -9 1012 92 10000 1.5 170 00:00 27.01.2020
128 Snow -9 1012 92 10000 1.5 170 23:59 26.01.2020
129 Snow -9 1012 92 10000 1.5 170 23:41 26.01.2020
130 Snow -9 1012 92 10000 1.5 170 23:41 26.01.2020
131 Snow -9 1012 92 10000 1.5 170 23:41 26.01.2020
132 Clouds -9 1012 92 10000 3.6 140 23:18 26.01.2020
133 Snow -9 1012 92 10000 2.1 120 22:54 26.01.2020
134 Snow -8 1012 85 10000 2.1 150 22:36 26.01.2020
135 Snow -8 1012 85 10000 2.1 150 22:18 26.01.2020
136 Snow -8 1012 85 10000 1.5 0 21:55 26.01.2020
137 Clouds -9 1012 85 10000 2.1 140 21:36 26.01.2020
138 Clouds -9 1012 85 10000 2.1 140 21:18 26.01.2020
139 Clouds -9 1012 92 10000 6.2 50 20:55 26.01.2020
140 Snow -9 1011 92 10000 3.1 40 20:36 26.01.2020
141 Snow -9 1011 92 10000 3.1 40 20:18 26.01.2020
142 Rain -9 1011 92 10000 2.1 100 19:41 26.01.2020
143 Snow -8 1011 85 10000 1.5 0 19:21 26.01.2020
144 Snow -8 1011 92 3000 1.5 110 18:59 26.01.2020
145 Snow -8 1011 92 3000 1.5 110 18:40 26.01.2020
146 Snow -8 1011 85 10000 1.5 130 18:22 26.01.2020
147 Snow -8 1011 85 10000 6.2 70 17:58 26.01.2020
148 Snow -8 1011 85 10000 6.2 70 17:58 26.01.2020
149 Snow -8 1010 78 4000 3.1 360 17:38 26.01.2020
150 Snow -8 1010 78 4000 3.1 360 17:18 26.01.2020
151 Rain -8 1010 78 10000 4.6 50 16:58 26.01.2020
152 Rain -8 1010 78 10000 6.2 20 16:39 26.01.2020
153 Rain -8 1010 78 10000 6.2 20 16:20 26.01.2020
154 Snow -12 1011 96 0 1.58 149 15:55 26.01.2020
155 Snow -12 1011 96 0 1.58 149 15:37 26.01.2020
156 Snow -12 1011 96 0 1.58 149 15:18 26.01.2020
157 Snow -12 1011 96 0 1.58 149 14:40 26.01.2020
158 Snow -11 1011 92 0 1.25 106 14:19 26.01.2020
159 Snow -11 1011 92 0 1.25 106 14:19 26.01.2020
160 Snow -11 1011 92 0 1.25 106 13:42 26.01.2020
161 Snow -12 1010 93 0 1.48 167 13:20 26.01.2020
162 Snow -12 1010 93 0 1.48 167 12:58 26.01.2020
163 Snow -12 1010 93 0 1.48 167 12:39 26.01.2020
164 Snow -12 1010 93 0 1.48 167 12:21 26.01.2020
165 Snow -12 1010 93 0 1.48 167 12:21 26.01.2020
166 Snow -12 1010 93 0 1.48 167 11:57 26.01.2020
167 Snow -12 1010 93 0 1.48 167 11:57 26.01.2020
168 Snow -12 1010 93 0 1.48 167 11:38 26.01.2020
169 Snow -7 1007 73 10000 9.8 30 11:18 26.01.2020
170 Snow -7 1007 73 10000 9.8 30 10:58 26.01.2020
171 Snow -7 1007 73 10000 9.8 30 10:38 26.01.2020
172 Snow -7 1007 73 10000 9.8 30 10:38 26.01.2020
173 Snow -7 1007 73 10000 9.8 30 10:38 26.01.2020
174 Snow -7 1007 73 10000 9.8 30 10:20 26.01.2020
175 Snow -7 1007 73 10000 9.8 30 10:20 26.01.2020
176 Snow -7 1007 85 10000 6.7 50 09:56 26.01.2020
177 Snow -6 1006 67 10000 10.8 30 09:38 26.01.2020
178 Snow -6 1006 67 10000 10.8 30 09:20 26.01.2020
179 Snow -7 1006 79 10000 8.2 50 08:42 26.01.2020
180 Mist -7 1006 85 10000 9.3 50 08:22 26.01.2020
181 Snow -7 1005 79 2200 10.8 20 07:56 26.01.2020
182 Snow -7 1005 79 2900 9.8 40 07:38 26.01.2020
183 Snow -7 1005 79 2900 9.8 40 07:19 26.01.2020
184 Rain -6 1005 67 10000 9.8 10 06:29 26.01.2020
185 Rain -7 1004 73 10000 11.3 30 05:30 26.01.2020
186 Snow -7 1003 62 4500 11.8 20 04:44 26.01.2020
187 Snow -7 1002 73 9000 14.4 20 02:38 26.01.2020
188 Snow -7 1002 73 10000 12.9 20 01:46 26.01.2020
189 Snow -7 1001 79 6000 14.9 20 01:23 26.01.2020
190 Snow -6 1001 73 10000 12.3 30 00:44 26.01.2020
191 Snow -6 1001 79 1500 14.9 20 00:26 26.01.2020
192 Snow -8 1004 89 0 5.04 35 23:40 25.01.2020
193 Snow -8 1003 96 0 5.32 50 23:21 25.01.2020
194 Snow -8 1003 96 0 5.32 50 22:56 25.01.2020
195 Snow -8 1003 96 0 5.32 50 22:37 25.01.2020
196 Snow -8 1003 96 0 5.32 50 22:18 25.01.2020
197 Snow -8 1003 96 0 5.32 50 21:55 25.01.2020
198 Snow -8 1003 96 0 5.32 50 21:37 25.01.2020
199 Snow -8 1003 96 0 5.32 50 21:19 25.01.2020
200 Snow -8 1003 96 0 5.32 50 20:43 25.01.2020
201 Snow -8 1003 96 0 5.32 50 20:24 25.01.2020
202 Snow -9 1001 76 0 6.26 349 19:48 25.01.2020
203 Snow -10 1001 89 0 5.49 317 19:20 25.01.2020
204 Snow -10 1001 89 0 5.49 317 18:59 25.01.2020
205 Snow -10 1001 89 0 5.49 317 18:41 25.01.2020
206 Snow -10 1001 89 0 5.49 317 18:21 25.01.2020
207 Snow -10 1001 89 0 5.49 317 17:56 25.01.2020
208 Snow -10 1001 89 0 5.49 317 17:37 25.01.2020
209 Snow -9 1000 89 0 7.08 11 17:18 25.01.2020
210 Snow -10 1000 91 0 6.31 3 16:42 25.01.2020
211 Snow -10 1000 91 0 6.31 3 16:42 25.01.2020
212 Snow -10 1000 91 0 6.31 3 16:23 25.01.2020
213 Snow -10 1000 91 0 6.31 3 15:56 25.01.2020
214 Snow -10 1000 91 0 6.31 3 15:38 25.01.2020
215 Snow -10 1000 91 0 6.31 3 15:19 25.01.2020
216 Snow -10 1000 91 0 6.31 3 14:42 25.01.2020
217 Snow -8 998 91 0 6.44 15 14:19 25.01.2020
218 Snow -8 998 91 0 6.44 15 13:45 25.01.2020
219 Snow -8 998 91 0 6.44 15 13:26 25.01.2020
220 Snow -8 998 92 0 7.15 11 12:57 25.01.2020
221 Rain -5 995 73 10000 11.8 20 12:38 25.01.2020
222 Rain -5 995 73 10000 11.8 20 12:19 25.01.2020
223 Rain -5 995 73 10000 11.8 20 12:19 25.01.2020
224 Rain -5 995 73 10000 11.8 20 11:40 25.01.2020
225 Rain -5 995 73 10000 11.8 20 11:40 25.01.2020
226 Rain -5 994 79 10000 13.9 10 11:19 25.01.2020
227 Rain -4 994 79 10000 14.9 20 10:55 25.01.2020
228 Snow -5 993 92 2000 10.3 30 10:37 25.01.2020
229 Snow -5 993 92 2000 10.3 30 10:18 25.01.2020
230 Snow -5 993 85 2000 9.8 50 09:40 25.01.2020
231 Snow -5 993 92 1800 9.3 40 09:19 25.01.2020
232 Rain -3 992 68 10000 7.7 40 08:43 25.01.2020
233 Snow -3 991 73 10000 8.2 70 07:58 25.01.2020
234 Snow -4 990 85 10000 9.8 90 07:36 25.01.2020
235 Rain -6 990 85 8000 7.2 90 06:33 25.01.2020
236 Snow -5 989 79 3000 4.1 80 05:57 25.01.2020
237 Clouds -7 989 79 10000 5.1 90 05:38 25.01.2020
238 Snow -8 988 72 10000 6.7 90 04:19 25.01.2020
239 Snow -8 987 78 10000 7.7 90 03:49 25.01.2020
240 Snow -6 986 79 10000 10.8 100 02:37 25.01.2020
241 Clouds -6 985 79 10000 11.8 90 01:57 25.01.2020
242 Clouds -6 985 79 10000 12.3 100 01:23 25.01.2020
243 Clouds -5 985 79 10000 10.8 90 00:41 25.01.2020
244 Clouds -4 985 85 10000 8.7 90 00:22 25.01.2020
245 Clouds -3 984 85 10000 8.7 100 23:42 24.01.2020
246 Clouds -3 984 85 10000 8.7 100 23:42 24.01.2020
247 Rain -3 983 85 10000 8.2 100 23:24 24.01.2020
248 Snow -2 983 92 10000 10.3 90 22:47 24.01.2020
249 Snow -2 983 100 4000 8.2 90 22:28 24.01.2020
250 Snow -2 982 92 1000 7.2 80 21:59 24.01.2020
251 Snow -2 982 92 1000 7.2 80 21:40 24.01.2020
252 Snow -1 982 100 2000 9.3 80 21:19 24.01.2020
253 Clouds 0 982 93 10000 6.7 290 20:44 24.01.2020
254 Clouds 0 982 84 10000 6.2 290 20:22 24.01.2020
255 Clouds 0 981 84 10000 7.7 280 19:58 24.01.2020
256 Clouds 0 981 84 10000 7.7 280 19:58 24.01.2020
257 Clouds 0 981 84 10000 7.7 280 19:40 24.01.2020
258 Clouds 0 981 84 10000 7.2 270 19:22 24.01.2020
259 Clouds 0 981 84 10000 7.2 280 18:56 24.01.2020
260 Clouds 0 981 84 10000 7.7 270 18:37 24.01.2020
261 Clouds 0 981 84 10000 7.7 270 18:19 24.01.2020
262 Clouds 0 981 84 10000 6.7 290 17:42 24.01.2020
263 Clouds 0 981 86 10000 6.7 290 17:21 24.01.2020
264 Clouds 0 981 86 10000 6.7 290 17:21 24.01.2020
265 Clouds 0 981 86 10000 7.2 280 16:55 24.01.2020
266 Clouds 0 981 86 10000 6.7 270 16:36 24.01.2020
267 Clouds 0 981 86 10000 7.7 280 16:18 24.01.2020
268 Clouds 0 981 86 10000 6.7 270 16:18 24.01.2020
269 Clouds 0 981 86 10000 7.7 280 15:40 24.01.2020
270 Clouds 0 981 86 10000 7.7 270 15:20 24.01.2020
271 Clouds 0 981 86 10000 7.7 280 14:42 24.01.2020
272 Clouds 0 981 84 10000 7.7 270 14:23 24.01.2020
273 Clouds 0 981 84 10000 7.2 280 13:57 24.01.2020
274 Clouds 0 981 84 10000 7.2 280 13:39 24.01.2020
275 Snow -1 981 92 10000 9.3 280 13:19 24.01.2020
276 Snow -1 981 92 10000 9.3 280 13:19 24.01.2020
277 Rain 0 982 83 10000 7.7 310 12:41 24.01.2020
278 Clouds 1 982 83 10000 11.3 290 12:18 24.01.2020
279 Snow 1 981 74 10000 10.3 280 11:43 24.01.2020
280 Rain 1 981 74 10000 8.7 290 11:19 24.01.2020
281 Clouds 1 981 74 10000 8.2 310 10:43 24.01.2020
282 Clouds 1 981 74 10000 11.3 270 10:23 24.01.2020
283 Clouds 1 981 74 10000 11.8 270 09:57 24.01.2020
284 Clouds 1 981 74 10000 11.8 270 09:57 24.01.2020
285 Clouds 1 981 74 10000 11.8 270 09:39 24.01.2020
286 Clouds 1 981 80 10000 10.8 270 09:21 24.01.2020
287 Clouds 1 981 83 10000 8.2 270 08:41 24.01.2020
288 Rain 1 981 79 9000 7.7 290 08:20 24.01.2020
289 Snow 1 981 78 2000 8.7 310 07:52 24.01.2020
290 Rain 1 980 86 10000 11.8 250 07:34 24.01.2020
291 Rain 0 980 78 10000 9.3 260 06:48 24.01.2020
292 Snow 1 980 78 9000 8.7 270 06:29 24.01.2020
293 Clouds 0 981 78 10000 7.7 250 05:58 24.01.2020
294 Clouds 0 981 82 2800 11.8 280 04:57 24.01.2020
295 Clouds -1 981 80 10000 6.7 220 02:53 24.01.2020
296 Clouds -1 981 80 10000 6.7 220 02:26 24.01.2020
297 Clouds -2 981 86 10000 7.7 220 01:46 24.01.2020
298 Snow -2 981 86 9000 7.2 220 01:28 24.01.2020
299 Clouds -2 981 86 10000 6.7 220 00:25 24.01.2020
300 Clouds -1 982 86 10000 7.2 210 23:49 23.01.2020
301 Clouds -1 982 86 10000 6.7 210 23:31 23.01.2020
302 Clouds -1 982 86 10000 6.7 210 22:59 23.01.2020
303 Snow -1 982 86 9000 6.7 210 22:38 23.01.2020
304 Clouds -2 982 86 10000 2.6 180 22:19 23.01.2020
305 Clouds -2 982 86 10000 2.6 180 21:57 23.01.2020
306 Clouds -2 982 86 10000 2.6 180 21:39 23.01.2020
307 Snow -2 982 92 7000 4.1 200 21:20 23.01.2020
308 Snow -2 982 92 1800 6.2 210 20:59 23.01.2020
309 Snow -2 982 86 3000 7.2 210 20:38 23.01.2020
310 Snow -2 982 86 3000 7.2 210 20:19 23.01.2020
311 Snow -2 983 86 8000 8.2 200 19:56 23.01.2020
312 Snow -3 983 85 4000 9.8 200 19:38 23.01.2020
313 Snow -3 983 85 4000 9.8 200 19:19 23.01.2020
314 Snow -2 983 79 10000 11.3 190 18:43 23.01.2020
315 Clouds -2 984 79 10000 9.8 190 18:21 23.01.2020
316 Clouds -3 984 73 10000 12.9 190 17:58 23.01.2020
317 Clouds -3 984 73 10000 12.9 190 17:40 23.01.2020
318 Clouds -3 985 79 10000 14.9 190 17:20 23.01.2020
319 Snow -3 985 79 10000 14.9 190 16:56 23.01.2020
320 Clouds -2 986 73 10000 13.4 180 16:37 23.01.2020
321 Clouds -2 986 73 10000 13.4 180 16:18 23.01.2020
322 Clouds -2 986 73 10000 11.8 180 15:55 23.01.2020
323 Clouds -3 988 79 10000 14.4 180 15:37 23.01.2020
324 Clouds -3 988 79 10000 14.4 180 15:18 23.01.2020
325 Clouds -2 989 79 10000 13.4 180 14:55 23.01.2020
326 Clouds -2 989 79 10000 13.4 180 14:55 23.01.2020
327 Clouds -2 990 73 10000 12.9 180 14:37 23.01.2020
328 Clouds -2 990 73 10000 12.9 180 14:19 23.01.2020
329 Clouds -3 991 73 10000 13.4 170 13:40 23.01.2020
330 Clouds -2 992 73 10000 12.9 170 13:20 23.01.2020
331 Clouds -4 993 79 10000 13.4 170 12:47 23.01.2020
332 Clouds -3 994 73 10000 14.4 160 12:26 23.01.2020
333 Clouds -2 995 68 10000 10.3 160 11:59 23.01.2020
334 Clouds -2 995 68 10000 10.3 160 11:59 23.01.2020
335 Clouds -3 997 67 10000 9.3 170 11:39 23.01.2020
336 Clouds -3 997 67 10000 9.3 170 11:20 23.01.2020
337 Clouds -3 997 67 10000 9.3 170 11:20 23.01.2020
338 Clouds -4 998 73 10000 13.9 160 10:55 23.01.2020
339 Clouds -5 998 73 10000 14.9 160 10:36 23.01.2020
340 Clouds -5 998 73 10000 14.9 160 10:18 23.01.2020
341 Clouds -5 1000 79 10000 9.8 140 09:39 23.01.2020
342 Clouds -5 1000 79 10000 9.8 140 09:20 23.01.2020
343 Clouds -4 1001 73 10000 8.2 150 08:43 23.01.2020
344 Clouds -4 1001 73 10000 5.1 150 08:24 23.01.2020
345 Clouds -6 1002 78 10000 3.6 150 07:49 23.01.2020
346 Clouds -8 1003 72 10000 2.6 150 07:27 23.01.2020
347 Clouds -6 1003 67 10000 1.5 170 06:54 23.01.2020
348 Clouds -7 1004 73 10000 1.5 70 06:24 23.01.2020
349 Rain -7 1004 73 10000 1.5 10 05:58 23.01.2020
350 Rain -4 1006 68 10000 6.2 340 04:24 23.01.2020
351 Snow -5 1007 73 10000 8.7 330 02:48 23.01.2020
352 Snow -5 1008 79 10000 9.8 330 01:50 23.01.2020
353 Rain -4 1008 62 10000 11.3 330 00:29 23.01.2020
354 Snow -5 1008 85 9000 12.3 330 23:57 22.01.2020
355 Snow -4 1008 73 8000 12.9 330 23:38 22.01.2020
356 Snow -4 1008 73 8000 12.9 330 23:20 22.01.2020
357 Snow -4 1008 79 7000 13.4 330 22:42 22.01.2020
358 Snow -4 1008 79 9000 15.9 340 22:23 22.01.2020
359 Rain -4 1008 62 10000 16.5 340 21:56 22.01.2020
360 Rain -4 1008 68 10000 15.9 340 21:36 22.01.2020
361 Rain -4 1008 68 10000 15.9 340 21:18 22.01.2020
362 Rain -3 1008 73 10000 17 340 20:41 22.01.2020
363 Snow -3 1008 68 6000 17.5 340 20:23 22.01.2020
364 Rain -3 1008 62 10000 18 330 19:58 22.01.2020
365 Rain -3 1008 62 10000 18 330 19:39 22.01.2020
366 Rain -3 1008 73 10000 20.1 340 19:19 22.01.2020
367 Snow -3 1007 73 2300 19.5 340 18:57 22.01.2020
368 Rain -3 1007 68 10000 19.5 330 18:38 22.01.2020
369 Rain -3 1007 68 10000 19.5 330 18:20 22.01.2020
370 Snow -4 1007 79 10000 18.5 320 17:55 22.01.2020
371 Rain -3 1007 62 10000 19.5 330 17:37 22.01.2020
372 Rain -3 1007 62 10000 19.5 330 17:19 22.01.2020
373 Rain -3 1006 68 10000 20.6 340 16:43 22.01.2020
374 Rain -4 1006 73 9000 18 330 16:23 22.01.2020
375 Snow -3 1006 73 10000 17.5 330 15:59 22.01.2020
376 Snow -3 1006 73 10000 17.5 330 15:41 22.01.2020
377 Snow -4 1006 73 5000 17 330 15:22 22.01.2020
378 Snow -4 1006 79 8000 18.5 320 14:58 22.01.2020
379 Snow -4 1006 79 9000 15.9 320 14:37 22.01.2020
380 Snow -4 1006 79 9000 15.9 320 14:19 22.01.2020
381 Snow -4 1006 85 1800 19 320 13:55 22.01.2020
382 Rain -3 1005 73 10000 19.5 340 13:36 22.01.2020
383 Rain -3 1005 73 10000 19.5 340 13:18 22.01.2020
384 Snow -4 1005 79 8000 18.5 320 12:56 22.01.2020
385 Snow -5 1005 73 1000 20.6 330 12:37 22.01.2020
386 Snow -4 1005 73 1000 20.6 330 12:18 22.01.2020
387 Rain -4 1004 73 10000 18.5 330 11:56 22.01.2020
388 Rain -5 1004 92 7000 19.5 330 11:38 22.01.2020
389 Rain -5 1004 92 7000 19.5 330 11:18 22.01.2020
390 Snow -4 1004 73 800 20.1 330 10:44 22.01.2020
391 Snow -4 1003 85 600 18.5 320 10:21 22.01.2020
392 Snow -4 1003 79 800 19.5 330 09:45 22.01.2020
393 Snow -4 1002 73 10000 22.6 340 09:26 22.01.2020
394 Snow -4 1001 67 10000 21.6 340 08:59 22.01.2020
395 Rain -4 1001 79 10000 19.5 320 08:40 22.01.2020
396 Rain -4 1001 79 10000 19.5 320 08:21 22.01.2020
397 Snow -5 1001 73 3200 18.5 320 07:59 22.01.2020
398 Snow -5 1001 73 3200 18.5 320 07:40 22.01.2020
399 Snow -5 1000 73 6000 19 340 07:21 22.01.2020
400 Snow -4 999 73 6000 18.5 340 06:31 22.01.2020
401 Snow -5 998 85 2500 15.4 340 05:42 22.01.2020
402 Snow -3 996 68 9000 17 340 04:23 22.01.2020
403 Clouds -2 996 68 6000 18 340 03:26 22.01.2020
404 Rain -1 995 58 10000 15.9 340 02:32 22.01.2020
405 Snow -2 992 79 8000 15.9 350 00:46 22.01.2020
406 Snow -2 992 86 2500 12.9 360 00:27 22.01.2020
407 Snow -2 991 74 10000 16.5 360 23:55 21.01.2020
408 Snow -2 990 79 8000 11.8 20 23:36 21.01.2020
409 Snow -2 990 79 8000 11.8 20 23:18 21.01.2020
410 Snow -2 989 86 9000 9.8 20 22:39 21.01.2020
411 Snow -1 988 74 10000 12.3 20 22:20 21.01.2020
412 Snow -1 988 74 10000 12.3 20 22:20 21.01.2020
413 Snow 0 987 74 10000 13.9 20 21:56 21.01.2020
414 Snow 0 986 86 10000 14.4 20 21:38 21.01.2020
415 Snow 0 986 86 10000 14.4 20 21:19 21.01.2020
416 Rain 0 985 80 10000 11.8 20 20:56 21.01.2020
417 Snow 0 984 92 6000 13.4 20 20:37 21.01.2020
418 Snow 0 984 92 6000 13.4 20 20:18 21.01.2020
419 Snow 0 983 92 3000 12.3 30 19:56 21.01.2020
420 Snow 0 982 92 3000 11.8 30 19:37 21.01.2020
421 Snow 0 982 92 3000 11.8 30 19:19 21.01.2020
422 Snow 0 982 92 1800 6.7 360 18:55 21.01.2020
423 Snow 0 982 92 500 10.3 360 18:36 21.01.2020
424 Snow 1 982 92 500 10.3 360 18:18 21.01.2020
425 Clouds 1 981 92 2000 18 310 17:43 21.01.2020
426 Snow 2 981 80 10000 15.9 300 17:20 21.01.2020
427 Snow 0 981 73 10000 18.5 290 16:58 21.01.2020
428 Clouds 1 981 74 10000 16.5 300 16:37 21.01.2020
429 Clouds 1 981 74 10000 16.5 300 16:18 21.01.2020
430 Rain 1 981 73 10000 19.5 300 15:41 21.01.2020
431 Rain 1 980 74 10000 19 290 15:21 21.01.2020
432 Rain 2 980 74 10000 16.5 300 14:59 21.01.2020
433 Rain 1 980 73 10000 17 290 14:37 21.01.2020
434 Rain 1 980 71 10000 17 290 14:19 21.01.2020
435 Clouds 1 980 71 10000 18 290 13:40 21.01.2020
436 Clouds 1 980 70 10000 18 290 13:19 21.01.2020
437 Rain 1 980 70 10000 17.5 290 12:43 21.01.2020
438 Rain 1 980 70 10000 12.9 280 12:25 21.01.2020
439 Snow 0 980 92 1000 13.4 290 11:57 21.01.2020
440 Rain 1 980 70 10000 12.9 270 11:38 21.01.2020
441 Rain 1 980 84 10000 12.9 270 11:20 21.01.2020
442 Clouds 0 980 84 10000 11.8 280 10:44 21.01.2020
443 Clouds 0 980 84 10000 11.8 280 10:24 21.01.2020
444 Snow 0 980 84 3000 11.3 280 09:59 21.01.2020
445 Snow 0 980 84 3000 11.3 280 09:41 21.01.2020
446 Clouds 0 980 84 10000 12.3 290 09:22 21.01.2020
447 Clouds 0 981 84 10000 17.5 290 08:48 21.01.2020
448 Clouds 1 981 86 10000 17 290 08:29 21.01.2020
449 Clouds 1 981 76 10000 12.3 290 07:59 21.01.2020
450 Clouds 1 981 76 10000 12.3 290 07:39 21.01.2020
451 Rain 0 981 76 10000 11.8 290 07:21 21.01.2020
452 Rain 0 981 76 10000 10.3 290 06:48 21.01.2020
453 Snow 0 980 76 9000 6.7 280 06:25 21.01.2020
454 Snow 0 980 76 1700 5.7 320 05:42 21.01.2020
455 Snow 0 981 78 600 7.7 260 04:39 21.01.2020
456 Snow 1 982 80 3600 15.4 270 02:56 21.01.2020
457 Snow 2 982 69 10000 15.9 290 01:51 21.01.2020
458 Snow 2 982 69 10000 20.6 290 01:18 21.01.2020
459 Clouds 3 982 59 10000 23.7 280 00:36 21.01.2020
460 Clouds 3 982 64 10000 22.1 290 23:58 20.01.2020
461 Rain 3 982 74 10000 23.1 290 23:37 20.01.2020
462 Rain 3 982 74 10000 23.1 290 23:19 20.01.2020
463 Rain 3 982 74 10000 23.1 290 23:19 20.01.2020
464 Rain 1 982 100 10000 8.2 250 22:56 20.01.2020
465 Rain 1 981 100 10000 7.7 240 22:37 20.01.2020
466 Rain 1 981 100 10000 7.7 240 22:19 20.01.2020
467 Clouds 2 982 98 9000 9.8 240 21:57 20.01.2020
468 Drizzle 2 981 98 10000 13.9 260 21:37 20.01.2020
469 Drizzle 2 981 98 10000 13.9 260 21:37 20.01.2020
470 Drizzle 2 981 98 10000 13.9 260 21:18 20.01.2020
471 Rain 3 981 86 10000 11.8 270 20:55 20.01.2020
472 Rain 2 982 98 10000 10.8 270 20:36 20.01.2020
473 Rain 2 982 98 10000 10.8 270 20:18 20.01.2020
474 Rain 2 982 98 10000 10.8 270 20:18 20.01.2020
475 Drizzle 3 982 86 10000 15.4 270 19:56 20.01.2020
476 Rain 3 982 86 10000 13.4 270 19:37 20.01.2020
477 Rain 3 982 86 10000 13.4 270 19:18 20.01.2020
478 Rain 3 984 86 10000 12.3 250 18:42 20.01.2020
479 Rain 3 984 86 10000 12.3 250 18:21 20.01.2020
480 Rain 2 985 93 10000 11.3 250 17:40 20.01.2020
481 Rain 2 985 93 10000 11.3 250 17:19 20.01.2020
482 Rain 3 986 86 10000 13.4 270 16:58 20.01.2020
483 Rain 4 986 80 10000 11.3 260 16:37 20.01.2020
484 Rain 4 986 80 10000 11.3 260 16:18 20.01.2020
485 Rain 3 986 93 10000 10.3 270 15:54 20.01.2020
486 Rain 4 987 80 10000 14.4 270 15:36 20.01.2020
487 Rain 4 987 80 10000 14.4 270 15:18 20.01.2020
488 Clouds 4 987 80 10000 15.9 260 14:41 20.01.2020
489 Rain 4 988 80 10000 12.9 270 14:22 20.01.2020
490 Clouds 4 988 86 10000 15.4 270 13:57 20.01.2020
491 Rain 3 988 93 10000 12.3 260 13:39 20.01.2020
492 Rain 3 988 93 10000 12.3 260 13:20 20.01.2020
493 Snow 2 989 96 6000 9.8 230 12:45 20.01.2020
494 Snow 1 989 96 2200 9.3 220 12:26 20.01.2020
495 Snow 2 990 96 4000 6.7 200 11:57 20.01.2020
496 Snow 2 990 96 2200 7.7 200 11:38 20.01.2020
497 Snow 2 990 93 2200 7.7 200 11:19 20.01.2020
498 Rain 1 990 93 10000 9.8 210 10:47 20.01.2020
499 Rain 0 991 93 10000 8.2 210 10:21 20.01.2020
500 Rain 0 991 93 10000 8.2 210 10:21 20.01.2020
501 Clouds 0 991 93 10000 8.2 220 09:54 20.01.2020
502 Snow 1 992 93 10000 8.2 200 09:36 20.01.2020
503 Snow 1 992 93 10000 8.2 200 09:18 20.01.2020
504 Clouds 1 992 93 10000 9.3 190 08:42 20.01.2020
505 Clouds 1 993 87 10000 7.2 180 08:24 20.01.2020
506 Clouds 1 993 87 10000 7.7 150 07:42 20.01.2020
507 Clouds 1 993 87 10000 7.7 150 07:42 20.01.2020
508 Clouds 1 994 74 10000 5.7 180 07:22 20.01.2020
509 Clouds 1 996 74 10000 7.7 190 06:45 20.01.2020
510 Clouds 1 996 74 10000 7.7 190 06:25 20.01.2020
511 Clouds 1 998 74 10000 5.7 200 05:41 20.01.2020
512 Clouds 1 998 74 10000 5.7 200 05:21 20.01.2020
513 Clouds 1 1000 80 10000 6.2 200 04:33 20.01.2020
514 Clouds 1 1003 93 10000 8.7 250 02:55 20.01.2020
515 Rain 1 1004 97 10000 11.3 270 01:42 20.01.2020
516 Rain 1 1004 96 10000 11.3 270 01:23 20.01.2020
517 Drizzle 1 1004 96 10000 11.8 250 00:43 20.01.2020
518 Snow 2 1004 80 9000 10.3 240 00:22 20.01.2020
519 Clouds 1 1004 74 10000 8.2 220 23:39 19.01.2020
520 Clouds 1 1004 74 10000 8.2 220 23:19 19.01.2020
521 Clouds 1 1004 74 10000 8.2 210 22:56 19.01.2020
522 Clouds 1 1005 69 10000 8.2 210 22:38 19.01.2020
523 Clouds 1 1005 69 10000 8.2 210 22:19 19.01.2020
524 Clouds 1 1005 74 10000 10.3 220 21:56 19.01.2020
525 Clouds 1 1005 74 10000 9.8 210 21:38 19.01.2020
526 Clouds 1 1005 74 10000 9.8 210 21:19 19.01.2020
527 Clouds 1 1006 88 10000 8.7 210 20:57 19.01.2020
528 Clouds 0 1007 88 10000 9.3 200 20:38 19.01.2020
529 Clouds 0 1007 86 10000 9.3 200 20:20 19.01.2020
530 Clouds 0 1007 86 10000 8.7 210 19:56 19.01.2020
531 Clouds 0 1007 86 10000 8.7 210 19:38 19.01.2020
532 Clouds 0 1007 86 10000 8.7 210 19:20 19.01.2020
533 Clouds 0 1008 86 10000 8.2 210 18:56 19.01.2020
534 Snow 0 1008 86 10000 7.7 210 18:37 19.01.2020
535 Snow 0 1008 86 10000 7.7 210 18:19 19.01.2020
536 Clouds 0 1009 86 10000 9.8 220 17:58 19.01.2020
537 Clouds 0 1009 86 10000 9.8 220 17:58 19.01.2020
538 Clouds 0 1009 86 10000 9.8 220 17:39 19.01.2020
539 Clouds -1 1008 68 10000 9.3 210 17:20 19.01.2020
540 Clouds -1 1009 74 10000 9.8 210 16:57 19.01.2020
541 Clouds -1 1009 68 10000 11.8 220 16:38 19.01.2020
542 Clouds -1 1009 68 10000 11.8 220 16:20 19.01.2020
543 Clouds -2 1008 74 10000 8.2 200 15:58 19.01.2020
544 Clouds -2 1009 79 10000 9.3 210 15:37 19.01.2020
545 Clouds -2 1009 79 10000 9.3 210 15:19 19.01.2020
546 Clouds -2 1009 74 10000 7.7 200 14:57 19.01.2020
547 Clouds -3 1009 73 10000 8.2 210 14:38 19.01.2020
548 Clouds -3 1009 73 10000 8.2 210 14:38 19.01.2020
549 Clouds -3 1010 73 10000 8.7 210 14:18 19.01.2020
550 Clouds -3 1009 73 10000 8.2 210 14:18 19.01.2020
551 Clouds -3 1010 73 10000 8.7 210 13:56 19.01.2020
552 Clouds -3 1010 73 10000 8.2 210 13:37 19.01.2020
553 Clouds -3 1010 73 10000 8.2 210 13:19 19.01.2020
554 Clear -3 1009 73 10000 8.7 200 12:55 19.01.2020
555 Clear -3 1009 73 10000 9.3 200 12:36 19.01.2020
556 Clear -3 1009 73 10000 9.3 200 12:18 19.01.2020
557 Clear -3 1009 73 10000 10.3 200 11:42 19.01.2020
558 Clouds -3 1009 73 10000 10.8 200 11:20 19.01.2020
559 Clouds -3 1008 73 10000 11.3 200 10:56 19.01.2020
560 Clouds -3 1008 73 10000 12.3 200 10:38 19.01.2020
561 Clouds -3 1008 73 10000 12.3 200 10:19 19.01.2020
562 Clouds -4 1009 79 10000 14.9 200 09:55 19.01.2020
563 Clouds -4 1009 73 10000 13.9 190 09:36 19.01.2020
564 Clouds -4 1009 73 10000 13.9 190 09:18 19.01.2020
565 Clouds -4 1008 79 10000 13.9 190 08:44 19.01.2020
566 Clouds -4 1008 73 10000 15.4 190 08:26 19.01.2020
567 Clouds -4 1008 79 10000 16.5 190 07:42 19.01.2020
568 Clouds -4 1008 79 10000 14.9 190 07:22 19.01.2020
569 Clouds -4 1008 79 10000 14.4 190 06:53 19.01.2020
570 Clouds -4 1008 73 10000 13.9 190 06:21 19.01.2020
571 Clouds -4 1008 68 10000 14.4 170 02:47 19.01.2020
572 Clouds -4 1008 68 10000 12.3 180 02:24 19.01.2020
573 Clouds -4 1007 68 10000 11.8 170 01:25 19.01.2020
574 Clouds -4 1007 68 10000 10.3 180 00:54 19.01.2020
575 Clouds -4 1007 73 10000 9.3 180 00:29 19.01.2020
576 Clouds -4 1007 73 10000 9.3 180 23:59 18.01.2020
577 Clouds -4 1007 73 10000 9.3 180 23:41 18.01.2020
578 Clouds -4 1007 68 10000 9.8 160 23:23 18.01.2020
579 Clouds -5 1007 73 10000 11.8 150 22:55 18.01.2020
580 Clouds -4 1007 68 10000 10.8 170 22:37 18.01.2020
581 Clouds -4 1007 68 10000 10.8 170 22:19 18.01.2020
582 Clouds -4 1007 68 10000 14.4 160 21:57 18.01.2020
583 Clouds -6 1008 67 10000 12.9 160 21:38 18.01.2020
584 Clouds -6 1008 67 10000 12.9 160 21:19 18.01.2020
585 Clouds -6 1008 73 10000 13.9 150 20:43 18.01.2020
586 Clouds -5 1008 67 10000 12.9 150 20:21 18.01.2020
587 Clouds -7 1008 73 10000 13.4 140 19:59 18.01.2020
588 Clouds -7 1008 73 10000 13.4 140 19:41 18.01.2020
589 Clouds -6 1008 67 10000 14.9 150 19:22 18.01.2020
590 Clouds -7 1008 73 10000 15.9 160 18:42 18.01.2020
591 Clouds -7 1008 67 10000 10.8 160 18:22 18.01.2020
592 Clouds -7 1008 67 10000 3.6 120 17:56 18.01.2020
593 Clouds -7 1008 67 10000 8.2 150 17:37 18.01.2020
594 Clouds -7 1008 67 10000 8.2 150 17:19 18.01.2020
595 Clouds -8 1008 72 10000 5.7 150 16:55 18.01.2020
596 Clouds -8 1008 72 10000 5.7 150 16:55 18.01.2020
597 Clouds -8 1008 67 10000 6.2 150 16:36 18.01.2020
598 Clouds -8 1008 67 10000 6.2 150 16:18 18.01.2020
599 Clouds -8 1008 67 10000 6.2 160 15:41 18.01.2020
600 Clouds -8 1009 61 10000 8.7 170 15:23 18.01.2020
601 Clouds -8 1009 61 10000 8.7 170 14:57 18.01.2020
602 Clouds -8 1009 67 10000 9.3 170 14:39 18.01.2020
603 Clouds -8 1009 67 10000 9.3 170 14:18 18.01.2020
604 Clouds -8 1009 67 10000 7.7 160 13:43 18.01.2020
605 Clouds -7 1009 62 10000 6.2 180 13:24 18.01.2020
606 Clouds -7 1010 62 10000 10.8 130 12:57 18.01.2020
607 Clouds -7 1010 62 10000 10.8 130 12:57 18.01.2020
608 Clouds -8 1010 61 10000 11.3 140 12:38 18.01.2020
609 Clouds -8 1010 61 10000 11.3 140 12:20 18.01.2020
610 Clouds -7 1010 62 10000 10.8 130 11:44 18.01.2020
611 Clouds -7 1010 62 10000 12.9 140 11:22 18.01.2020
612 Clouds -7 1010 62 10000 12.9 140 10:57 18.01.2020
613 Clouds -7 1010 62 10000 13.4 140 10:38 18.01.2020
614 Clouds -7 1010 62 10000 13.4 140 10:20 18.01.2020
615 Clouds -7 1010 62 10000 12.3 150 09:46 18.01.2020
616 Clouds -7 1010 57 10000 11.3 160 09:28 18.01.2020
617 Clouds -7 1010 57 10000 10.8 160 08:56 18.01.2020
618 Clouds -6 1010 57 10000 8.7 170 08:38 18.01.2020
619 Clear -6 1010 57 10000 8.7 170 08:19 18.01.2020
620 Clear -6 1010 57 10000 10.3 160 07:47 18.01.2020
621 Clear -6 1010 57 10000 9.8 160 07:29 18.01.2020
622 Clear -6 1010 57 10000 6.7 170 06:47 18.01.2020
623 Clear -6 1010 57 10000 6.2 180 05:59 18.01.2020
624 Clear -6 1010 57 10000 6.2 180 05:21 18.01.2020
625 Clear -6 1011 73 10000 5.1 180 02:55 18.01.2020
626 Clear -6 1011 67 10000 7.7 190 01:54 18.01.2020
627 Clear -6 1011 67 10000 7.7 190 01:30 18.01.2020
628 Clear -6 1012 67 10000 9.8 190 00:37 18.01.2020
629 Clear -6 1012 67 10000 9.8 190 00:37 18.01.2020
630 Clear -6 1012 67 10000 9.8 190 00:37 18.01.2020
631 Clear -6 1012 67 10000 9.8 190 00:18 18.01.2020
632 Clear -6 1012 67 10000 8.2 190 23:41 17.01.2020
633 Clear -5 1012 67 10000 8.7 190 23:20 17.01.2020
634 Clear -6 1012 67 10000 8.7 190 22:46 17.01.2020
635 Clear -6 1012 61 10000 6.2 190 22:22 17.01.2020
636 Clear -6 1013 61 10000 4.1 180 21:59 17.01.2020
637 Clear -6 1013 61 10000 4.1 180 21:41 17.01.2020
638 Clear -5 1013 57 10000 3.6 180 21:22 17.01.2020
639 Clear -5 1013 67 10000 3.1 180 20:58 17.01.2020
640 Clouds -8 1013 78 10000 3.6 190 20:38 17.01.2020
641 Clouds -7 1013 78 10000 3.6 190 20:20 17.01.2020
642 Clouds -6 1013 67 10000 3.6 190 19:55 17.01.2020
643 Clouds -6 1013 67 10000 3.6 190 19:55 17.01.2020
644 Clouds -6 1013 72 10000 3.6 190 19:37 17.01.2020
645 Clouds -6 1013 72 10000 3.6 190 19:19 17.01.2020
646 Clouds -7 1013 72 10000 3.6 200 18:56 17.01.2020
647 Clouds -6 1013 79 10000 3.1 190 18:36 17.01.2020
648 Clouds -6 1013 79 10000 3.1 190 18:18 17.01.2020
649 Clouds -7 1013 79 10000 1.5 180 17:39 17.01.2020
650 Clouds -7 1013 79 10000 1.5 180 17:20 17.01.2020
651 Clouds -7 1013 72 10000 1.5 160 16:43 17.01.2020
652 Clouds -5 1012 73 10000 2.1 160 16:21 17.01.2020
653 Clouds -6 1013 85 10000 2.1 150 15:58 17.01.2020
654 Clouds -9 1012 72 10000 2.1 140 15:39 17.01.2020
655 Clouds -9 1012 72 10000 2.1 140 15:20 17.01.2020
656 Clouds -8 1012 79 10000 2.6 80 14:43 17.01.2020
657 Clouds -7 1012 85 10000 3.1 80 14:24 17.01.2020
658 Rain -7 1012 85 10000 3.6 90 13:43 17.01.2020
659 Rain -6 1012 79 10000 3.6 90 13:23 17.01.2020
660 Clouds -5 1011 73 10000 4.6 50 12:47 17.01.2020
661 Clouds -4 1011 79 10000 6.2 20 12:23 17.01.2020
662 Clouds -3 1011 49 10000 3.6 30 11:43 17.01.2020
663 Clouds -3 1010 53 10000 2.6 20 11:20 17.01.2020
664 Clouds -3 1010 58 10000 4.1 30 10:57 17.01.2020
665 Clouds -3 1010 58 10000 4.1 30 10:57 17.01.2020
666 Clouds -3 1010 58 10000 4.1 30 10:57 17.01.2020
667 Clouds -3 1010 53 10000 3.6 360 10:39 17.01.2020
668 Clouds -3 1010 53 10000 3.6 360 10:20 17.01.2020
669 Clouds -3 1009 58 10000 5.1 30 09:56 17.01.2020
670 Clouds -3 1009 58 10000 5.7 10 09:37 17.01.2020
671 Clouds -3 1009 58 10000 5.7 10 09:18 17.01.2020
672 Clouds -4 1009 58 10000 5.1 360 08:42 17.01.2020
673 Clouds -4 1008 58 10000 8.2 360 08:23 17.01.2020
674 Snow -4 1008 62 10000 8.7 10 07:49 17.01.2020
675 Clouds -4 1007 62 10000 7.7 20 07:30 17.01.2020
676 Clouds -5 1007 73 10000 8.7 20 06:56 17.01.2020
677 Snow -5 1006 79 10000 8.2 30 06:36 17.01.2020
678 Snow -4 1005 85 10000 9.3 40 05:22 17.01.2020
679 Clouds -10 1005 94 0 1.83 69 03:38 17.01.2020
680 Clouds -10 1005 94 0 1.83 69 02:42 17.01.2020
681 Clouds -10 1004 90 0 1.42 120 01:45 17.01.2020
682 Clouds -10 1004 90 0 1.42 120 01:27 17.01.2020
683 Clouds -10 1003 90 0 1.66 128 00:43 17.01.2020
684 Clouds -6 1001 79 10000 5.7 110 00:19 17.01.2020
685 Clouds -6 1001 79 10000 5.7 110 23:41 16.01.2020
686 Clouds -6 1001 79 10000 5.7 110 23:23 16.01.2020
687 Clouds -5 1001 79 10000 5.7 120 22:43 16.01.2020
688 -273 0 0 0 0 0 22:22 16.01.2020
689 Clouds -5 1001 79 10000 5.1 130 21:57 16.01.2020
690 Clouds -4 1001 79 10000 5.7 120 21:38 16.01.2020
691 Clouds -4 1001 79 10000 5.7 120 21:19 16.01.2020
692 Clouds -4 1001 73 10000 4.6 90 20:58 16.01.2020
693 Clouds -4 1001 79 10000 6.2 130 20:39 16.01.2020
694 Clouds -4 1001 79 10000 6.2 130 20:20 16.01.2020
695 Clouds -4 1000 79 10000 5.1 110 19:56 16.01.2020
696 Clouds -4 1000 79 10000 5.1 110 19:56 16.01.2020
697 Clouds -5 1000 79 10000 6.2 100 19:38 16.01.2020
698 Clouds -5 1000 79 10000 6.2 100 19:38 16.01.2020
699 Clouds -5 1000 79 10000 6.2 100 19:20 16.01.2020
700 Clouds -5 1000 85 10000 5.7 120 18:56 16.01.2020
701 Clouds -4 1000 73 10000 6.2 120 18:37 16.01.2020
702 Clouds -4 1000 73 10000 6.2 120 18:18 16.01.2020
703 Clouds -4 1000 73 10000 6.2 120 18:18 16.01.2020
704 Clouds -3 1000 73 10000 5.1 120 17:55 16.01.2020
705 Clouds -3 1000 73 10000 6.7 120 17:37 16.01.2020
706 Clouds -3 1000 73 10000 6.7 120 17:18 16.01.2020
707 Clouds -3 1000 79 10000 9.8 140 16:40 16.01.2020
708 Snow -3 1000 73 10000 7.2 130 16:21 16.01.2020
709 Clouds -4 1000 79 10000 5.7 110 15:55 16.01.2020
710 Snow -4 1000 79 10000 7.7 120 15:37 16.01.2020
711 Snow -4 1000 79 10000 7.7 120 15:18 16.01.2020
712 Clouds -4 1000 79 10000 6.7 120 14:41 16.01.2020
713 Clouds -4 1000 79 10000 6.2 120 14:23 16.01.2020
714 Rain -4 1000 79 10000 7.2 110 13:47 16.01.2020
715 Rain -4 1000 79 10000 7.7 100 13:28 16.01.2020
716 Snow -4 1000 79 10000 8.7 110 12:57 16.01.2020
717 Snow -4 1000 79 10000 8.7 110 12:39 16.01.2020
718 Rain -4 1000 85 10000 8.7 110 12:20 16.01.2020
719 Snow -4 1000 79 10000 9.8 110 11:42 16.01.2020
720 Snow -4 1000 79 10000 8.7 110 11:23 16.01.2020
721 Snow -3 1000 79 10000 9.3 110 10:56 16.01.2020
722 Snow -4 1000 85 10000 9.8 100 10:37 16.01.2020
723 Snow -4 1000 85 10000 9.8 100 10:19 16.01.2020
724 Snow -4 999 79 10000 9.8 100 09:43 16.01.2020
725 Snow -4 999 79 10000 10.3 110 09:24 16.01.2020
726 Clouds -4 999 79 10000 11.8 100 08:58 16.01.2020
727 Clouds -4 999 79 10000 11.8 100 08:40 16.01.2020
728 Snow -4 998 79 10000 11.3 100 08:20 16.01.2020
729 Clouds -4 998 79 10000 11.3 100 07:42 16.01.2020
730 Clouds -5 998 79 10000 12.3 100 07:24 16.01.2020
731 Clouds -5 998 79 10000 12.9 100 06:54 16.01.2020
732 Clouds -5 997 85 10000 12.9 100 06:34 16.01.2020
733 Clouds -4 996 79 10000 12.3 90 05:49 16.01.2020
734 Snow -8 998 91 0 2.44 99 04:51 16.01.2020
735 Clouds -4 995 73 10000 7.7 60 03:57 16.01.2020
736 Clouds -4 995 73 10000 7.7 60 03:27 16.01.2020
737 Clouds -4 994 73 10000 6.7 70 02:21 16.01.2020
738 Snow -4 993 79 10000 8.7 80 00:43 16.01.2020
739 Snow -4 993 85 10000 9.8 80 00:23 16.01.2020
740 Snow -4 993 85 10000 8.2 70 23:45 15.01.2020
741 Snow -4 992 85 9000 9.3 80 23:22 15.01.2020
742 Snow -3 992 92 9000 9.3 70 22:57 15.01.2020
743 Snow -3 991 85 9000 7.7 80 22:38 15.01.2020
744 Snow -3 991 85 9000 7.7 80 22:18 15.01.2020
745 Snow -3 991 92 4000 9.3 80 21:56 15.01.2020
746 Snow -3 991 92 4000 9.3 80 21:56 15.01.2020
747 Snow -3 990 92 4000 9.8 80 21:37 15.01.2020
748 Snow -3 990 92 4000 9.8 80 21:19 15.01.2020
749 Snow -3 990 92 4300 9.8 80 20:56 15.01.2020
750 Snow -3 989 92 9000 10.3 90 20:38 15.01.2020
751 Snow -3 989 92 9000 10.3 90 20:19 15.01.2020
752 Snow -3 989 92 3500 11.8 80 19:54 15.01.2020
753 Snow -4 989 92 3000 12.9 80 19:36 15.01.2020
754 Snow -3 989 92 3000 12.9 80 19:18 15.01.2020
755 Snow -3 988 92 5000 13.4 80 18:56 15.01.2020
756 Snow -2 988 86 3000 13.4 80 18:37 15.01.2020
757 Snow -2 988 86 3000 13.4 80 18:37 15.01.2020
758 Snow -2 988 86 3000 13.4 80 18:19 15.01.2020
759 Snow -2 988 86 4000 12.9 80 17:55 15.01.2020
760 Snow -2 987 86 3000 14.4 80 17:36 15.01.2020
761 Snow -2 987 86 3000 14.4 80 17:18 15.01.2020
762 Snow -2 986 92 3500 14.9 80 16:40 15.01.2020
763 Snow -2 986 92 3500 14.9 80 16:21 15.01.2020
764 Snow -2 986 92 4000 13.9 80 15:56 15.01.2020
765 Snow -2 986 92 4000 13.9 80 15:38 15.01.2020
766 Snow -2 986 92 4000 13.9 80 15:18 15.01.2020
767 Snow -2 986 86 1100 14.9 80 14:42 15.01.2020
768 Snow -2 985 86 2300 14.9 80 14:19 15.01.2020
769 Snow -2 985 86 10000 14.9 80 13:46 15.01.2020
770 Snow -1 985 92 10000 15.4 80 13:26 15.01.2020
771 Snow -1 985 92 4500 15.4 80 12:59 15.01.2020
772 Snow -1 985 92 4500 15.4 80 12:39 15.01.2020
773 Snow -1 984 86 8000 15.4 80 12:19 15.01.2020
774 Snow -1 984 86 8000 15.4 80 12:19 15.01.2020
775 Snow -1 984 86 8000 13.4 80 11:56 15.01.2020
776 Snow -1 984 86 8000 15.9 90 11:37 15.01.2020
777 Snow -1 984 86 8000 15.9 90 11:19 15.01.2020
778 Snow -1 983 86 9000 15.4 90 10:43 15.01.2020
779 Snow -1 983 92 5000 14.9 90 10:25 15.01.2020
780 Snow -1 983 86 5000 15.4 90 09:44 15.01.2020
781 Snow -1 983 86 9000 15.9 90 09:23 15.01.2020
782 Clouds -1 982 86 10000 18.5 90 08:58 15.01.2020
783 Clouds -1 982 86 10000 18.5 90 08:39 15.01.2020
784 Snow -1 982 86 8000 19 90 08:21 15.01.2020
785 Snow -1 982 86 5000 19 90 07:51 15.01.2020
786 Snow -2 981 86 10000 14.9 90 07:31 15.01.2020
787 Snow -2 981 79 10000 14.4 100 06:46 15.01.2020
788 Snow -2 981 79 10000 15.9 110 06:20 15.01.2020
789 Snow -3 981 86 6000 18.5 100 04:44 15.01.2020
790 Snow -4 982 85 5000 14.4 100 02:38 15.01.2020
791 Snow -4 982 85 10000 15.9 100 01:28 15.01.2020
792 Clouds -4 982 79 10000 14.4 110 00:47 15.01.2020
793 Clouds -4 983 79 10000 13.4 100 00:27 15.01.2020
794 Clouds -4 983 79 10000 12.3 90 23:57 14.01.2020
795 Clouds -4 983 79 10000 11.8 100 23:38 14.01.2020
796 Clouds -2 983 79 10000 11.8 100 23:19 14.01.2020
797 Clouds -2 984 79 10000 10.3 90 22:41 14.01.2020
798 Clouds -2 984 79 10000 10.3 90 22:19 14.01.2020
799 Clouds -3 985 79 10000 10.8 100 21:58 14.01.2020
800 Clouds -3 986 79 10000 11.8 110 21:40 14.01.2020
801 Clouds -3 986 79 10000 11.8 110 21:21 14.01.2020
802 Clouds -3 986 79 10000 11.3 110 20:59 14.01.2020
803 Clouds -3 986 79 10000 11.3 110 20:40 14.01.2020
804 Clouds -3 986 79 10000 11.3 110 20:40 14.01.2020
805 Clouds -3 987 73 10000 10.8 100 20:20 14.01.2020
806 Clouds -3 987 73 10000 10.8 100 20:20 14.01.2020
807 Clouds -3 987 73 10000 10.8 100 19:56 14.01.2020
808 Clouds -3 988 73 10000 10.3 110 19:38 14.01.2020
809 Clouds -3 988 73 10000 10.3 110 19:19 14.01.2020
810 Clouds -5 988 79 10000 9.3 100 18:56 14.01.2020
811 Clouds -5 989 79 10000 9.3 110 18:37 14.01.2020
812 Clouds -5 989 79 10000 9.3 110 18:19 14.01.2020
813 Clouds -3 990 79 10000 10.3 120 17:39 14.01.2020
814 Clouds -3 990 79 10000 10.3 120 17:19 14.01.2020
815 Clouds -3 990 85 10000 8.7 130 16:55 14.01.2020
816 Clouds -3 991 85 10000 8.7 130 16:37 14.01.2020
817 Clouds -3 991 85 10000 8.7 130 16:19 14.01.2020
818 Clouds -3 991 85 10000 5.1 90 15:43 14.01.2020
819 Clouds -3 992 79 10000 5.7 80 15:19 14.01.2020
820 Clouds -2 992 85 10000 5.7 70 14:57 14.01.2020
821 Clouds -5 992 85 10000 6.7 80 14:39 14.01.2020
822 Clouds -5 992 85 10000 6.7 80 14:18 14.01.2020
823 Clouds -5 992 85 10000 5.7 70 13:42 14.01.2020
824 Clouds -5 992 85 10000 5.7 70 13:19 14.01.2020
825 Clouds -5 992 85 10000 6.2 70 12:43 14.01.2020
826 Rain -5 993 85 10000 6.7 50 12:25 14.01.2020
827 Rain -4 993 79 10000 6.2 80 11:59 14.01.2020
828 Rain -4 993 79 10000 6.2 80 11:40 14.01.2020
829 Rain -4 993 79 10000 6.2 80 11:40 14.01.2020
830 Rain -4 993 79 10000 7.7 80 11:22 14.01.2020
831 Rain -4 992 79 10000 7.2 70 10:56 14.01.2020
832 Clouds -3 992 79 10000 7.2 60 10:37 14.01.2020
833 Clouds -3 992 79 10000 7.2 60 10:19 14.01.2020
834 Snow -3 992 85 10000 8.2 70 09:43 14.01.2020
835 Snow -3 992 85 10000 8.2 70 09:43 14.01.2020
836 Snow -3 992 85 10000 8.2 70 09:24 14.01.2020
837 Snow -3 992 85 5000 9.3 70 08:59 14.01.2020
838 Snow -3 992 85 5000 9.3 70 08:40 14.01.2020
839 Snow -2 991 85 9000 9.3 70 08:21 14.01.2020
840 Snow -2 991 92 8000 8.7 60 07:51 14.01.2020
841 Snow -4 991 92 8000 9.8 60 07:24 14.01.2020
842 Snow -4 990 92 9000 9.3 60 06:43 14.01.2020
843 Snow -3 989 92 4000 12.9 80 05:58 14.01.2020
844 Snow -2 987 92 3000 14.4 90 04:51 14.01.2020
845 Snow -2 986 86 3000 9.8 90 03:47 14.01.2020
846 Snow -2 985 86 5000 10.3 90 02:39 14.01.2020
847 Snow -2 983 92 7000 5.1 70 01:31 14.01.2020
848 Snow -1 983 92 10000 5.1 80 00:48 14.01.2020
849 Snow -2 982 92 10000 4.6 70 00:22 14.01.2020
850 Snow 0 982 100 4000 2.1 60 23:47 13.01.2020
851 Snow 0 982 92 8000 1.5 80 23:19 13.01.2020
852 Snow 0 982 92 10000 1 0 22:58 13.01.2020
853 Snow 0 982 92 10000 1 0 22:39 13.01.2020
854 Snow 0 981 80 10000 1 0 22:20 13.01.2020
855 Rain 0 981 86 10000 1 0 21:56 13.01.2020
856 Rain 1 981 93 10000 4.1 210 21:37 13.01.2020
857 Rain 1 981 93 10000 4.1 210 21:18 13.01.2020
858 Snow 1 981 93 9000 6.2 210 20:56 13.01.2020
859 Clouds 0 980 74 10000 2.6 200 20:38 13.01.2020
860 Clouds 0 980 74 10000 2.6 200 20:19 13.01.2020
861 Clouds 0 980 71 10000 5.7 210 19:42 13.01.2020
862 Clouds -2 980 74 10000 3.1 210 19:22 13.01.2020
863 Clouds -1 980 74 10000 2.1 190 18:59 13.01.2020
864 Clouds 0 980 71 10000 3.1 200 18:40 13.01.2020
865 Clouds 0 980 71 10000 3.1 200 18:20 13.01.2020
866 Clouds 0 980 71 10000 3.1 200 18:20 13.01.2020
867 Clouds 0 980 71 10000 3.1 200 18:20 13.01.2020
868 Clouds 0 980 71 10000 5.1 210 17:59 13.01.2020
869 Clouds 1 980 71 10000 4.1 190 17:40 13.01.2020
870 Clouds 1 980 79 10000 4.1 190 17:21 13.01.2020
871 Clouds 1 980 79 10000 4.1 190 17:21 13.01.2020
872 Clouds 0 980 74 10000 5.1 200 16:55 13.01.2020
873 Snow -4 982 79 0 2.61 162 16:36 13.01.2020
874 Snow -4 982 79 0 2.61 162 16:18 13.01.2020
875 Snow -4 982 79 0 2.61 162 15:41 13.01.2020
876 Snow -4 982 79 0 2.61 162 15:21 13.01.2020
877 Snow -4 982 79 0 2.61 162 14:56 13.01.2020
878 Snow -4 982 79 0 2.61 162 14:36 13.01.2020
879 Clouds -5 983 66 0 4.51 187 14:18 13.01.2020
880 Clouds -5 983 66 0 4.51 187 13:40 13.01.2020
881 Clouds -4 983 72 0 5.42 189 13:22 13.01.2020
882 Clouds -4 983 72 0 5.42 189 12:58 13.01.2020
883 Clouds 0 981 72 10000 6.2 210 12:40 13.01.2020
884 Clouds 0 981 72 10000 6.2 210 12:21 13.01.2020
885 Clouds 0 981 72 10000 6.2 210 11:54 13.01.2020
886 Clouds 0 981 72 10000 6.7 220 11:36 13.01.2020
887 Clouds 2 981 76 10000 6.7 220 11:18 13.01.2020
888 Clouds 1 981 76 10000 6.7 210 10:55 13.01.2020
889 Clouds 1 981 76 10000 6.2 200 10:36 13.01.2020
890 Clouds 1 981 76 10000 6.2 200 10:18 13.01.2020
891 Clouds 2 981 76 10000 7.7 220 09:40 13.01.2020
892 Clouds 1 981 76 10000 6.7 210 09:40 13.01.2020
893 Clouds 2 981 76 10000 7.7 220 09:22 13.01.2020
894 Clouds 2 980 76 10000 6.2 240 08:42 13.01.2020
895 Clouds 2 980 80 10000 5.1 260 08:21 13.01.2020
896 Clouds 2 980 80 10000 7.7 280 07:54 13.01.2020
897 Clouds 1 980 74 10000 8.7 230 07:35 13.01.2020
898 Clouds 0 980 84 10000 7.2 220 06:51 13.01.2020
899 Clouds 1 980 80 10000 9.3 260 06:22 13.01.2020
900 Snow 1 981 86 10000 13.4 260 05:36 13.01.2020
901 Clouds 1 980 86 10000 8.7 250 04:25 13.01.2020
902 Clouds 1 981 86 10000 14.4 270 03:26 13.01.2020
903 Clouds 1 980 80 10000 7.2 230 02:47 13.01.2020
904 Clouds 1 980 80 10000 7.2 230 02:29 13.01.2020
905 Snow 2 980 80 10000 10.8 280 01:22 13.01.2020
906 Snow 2 980 80 10000 10.8 280 01:22 13.01.2020
907 Clouds 1 980 86 10000 10.3 270 00:42 13.01.2020
908 Clouds 2 980 80 10000 11.3 270 00:24 13.01.2020
909 Clouds 2 980 80 10000 11.8 260 23:55 12.01.2020
910 Clouds 1 979 92 10000 11.3 260 23:36 12.01.2020
911 Clouds 2 979 89 10000 11.3 260 23:18 12.01.2020
912 Clouds 2 979 89 10000 11.3 260 23:18 12.01.2020
913 Snow 2 979 89 10000 11.3 260 22:42 12.01.2020
914 Clouds 1 979 89 10000 5.7 210 22:24 12.01.2020
915 Clouds 1 979 89 10000 5.7 210 22:24 12.01.2020
916 Snow 2 979 89 10000 4.1 230 21:57 12.01.2020
917 Snow 1 979 100 10000 3.1 220 21:38 12.01.2020
918 Snow 1 979 100 10000 3.1 220 21:19 12.01.2020
919 Snow 1 979 100 4500 2.1 220 20:57 12.01.2020
920 Snow -1 979 100 800 2.6 220 20:38 12.01.2020
921 Snow -1 979 100 800 2.6 220 20:20 12.01.2020
922 Snow -1 979 92 800 2.1 220 19:56 12.01.2020
923 Snow -2 979 92 500 1 0 19:38 12.01.2020
924 Snow -2 979 92 500 1 0 19:19 12.01.2020
925 Snow -2 979 100 500 3.1 170 18:57 12.01.2020
926 Snow 1 979 92 600 7.2 130 18:39 12.01.2020
927 Snow 1 979 92 600 7.2 130 18:21 12.01.2020
928 Snow 1 979 92 1800 8.2 100 17:55 12.01.2020
929 Snow -1 979 92 1800 9.3 110 17:37 12.01.2020
930 Snow -1 979 92 1800 9.3 110 17:18 12.01.2020
931 Snow -1 979 92 1500 9.3 130 16:54 12.01.2020
932 Snow -1 979 92 1800 8.7 150 16:36 12.01.2020
933 Snow -1 979 92 1800 8.7 150 16:18 12.01.2020
934 Snow -1 979 92 2700 8.7 150 15:42 12.01.2020
935 Snow -1 979 92 2700 8.7 150 15:23 12.01.2020
936 Snow -1 978 92 2700 10.3 140 14:55 12.01.2020
937 Snow -1 978 92 3200 7.7 130 14:36 12.01.2020
938 Snow -1 978 92 3200 7.7 130 14:18 12.01.2020
939 Snow -2 978 92 3300 7.7 120 13:42 12.01.2020
940 Snow -2 978 86 3200 7.7 130 13:23 12.01.2020
941 Snow -2 977 92 2200 7.7 120 12:58 12.01.2020
942 Snow -3 977 92 3500 9.3 120 12:38 12.01.2020
943 Snow -3 977 92 3500 9.3 120 12:20 12.01.2020
944 Snow -3 977 92 4400 8.7 120 11:57 12.01.2020
945 Snow -3 977 92 4300 8.7 110 11:38 12.01.2020
946 Snow -3 977 92 4300 8.7 110 11:19 12.01.2020
947 Snow -3 977 92 3200 9.8 120 10:41 12.01.2020
948 Snow -3 977 92 3700 10.3 120 10:21 12.01.2020
949 Snow -3 976 92 4700 10.3 110 09:57 12.01.2020
950 Snow -3 976 92 2700 10.8 120 09:38 12.01.2020
951 Snow -3 976 92 2700 10.8 120 09:18 12.01.2020
952 Snow -3 976 86 2100 10.8 120 08:44 12.01.2020
953 Snow -3 976 86 4800 9.8 110 08:20 12.01.2020
954 Snow -2 976 79 7000 9.8 110 07:40 12.01.2020
955 Snow -3 976 86 9000 9.8 110 07:22 12.01.2020
956 Snow -3 976 86 9000 9.8 110 06:48 12.01.2020
957 Snow -4 975 92 6000 10.8 110 06:29 12.01.2020
958 Snow -3 975 79 10000 8.7 110 05:24 12.01.2020
959 Snow -3 976 86 10000 10.8 110 03:55 12.01.2020
960 Snow -3 976 86 10000 9.8 110 03:23 12.01.2020
961 Clouds -3 976 79 10000 13.4 120 02:33 12.01.2020
962 Clouds -3 977 86 10000 12.3 130 01:44 12.01.2020
963 Clouds -3 977 86 10000 12.3 130 01:22 12.01.2020
964 Clouds -3 977 79 10000 10.3 120 00:41 12.01.2020
965 Snow -3 978 86 10000 11.8 120 00:20 12.01.2020
966 Snow -3 978 86 7000 12.3 120 23:42 11.01.2020
967 Snow -3 978 86 7000 12.3 120 23:20 11.01.2020
968 Snow -3 979 86 5000 12.9 140 22:58 11.01.2020
969 Snow -3 979 86 5000 12.9 140 22:58 11.01.2020
970 Snow -3 979 86 5000 12.9 140 22:40 11.01.2020
971 Snow -3 979 86 10000 10.8 140 22:20 11.01.2020
972 Clouds -3 980 86 10000 8.2 140 21:58 11.01.2020
973 Clouds -3 980 79 10000 5.7 100 21:40 11.01.2020
974 Clouds -3 980 79 10000 5.7 100 21:18 11.01.2020
975 Clouds -2 980 79 10000 7.2 100 20:41 11.01.2020
976 Clouds -2 981 79 10000 6.7 110 20:22 11.01.2020
977 Clouds -2 981 74 10000 7.2 110 19:58 11.01.2020
978 Clouds -2 982 74 10000 5.7 120 19:39 11.01.2020
979 Clouds -2 982 74 10000 5.7 120 19:21 11.01.2020
980 Clouds -2 983 79 10000 5.1 150 18:59 11.01.2020
981 Clouds -2 984 79 10000 5.1 120 18:39 11.01.2020
982 Clouds -2 984 79 10000 5.1 120 18:20 11.01.2020
983 Clouds -2 985 74 10000 5.7 150 17:58 11.01.2020
984 Clouds -2 985 74 10000 5.7 150 17:40 11.01.2020
985 Clouds -2 985 74 10000 6.2 150 17:20 11.01.2020
986 Clouds -1 985 74 10000 4.6 140 16:46 11.01.2020
987 Clouds -2 986 79 10000 4.6 140 16:28 11.01.2020
988 Clouds -1 987 68 10000 5.1 120 15:59 11.01.2020
989 Clouds -1 987 68 10000 5.1 120 15:41 11.01.2020
990 Clouds -2 988 74 10000 4.6 110 15:22 11.01.2020
991 Clouds -1 989 68 10000 3.6 110 14:58 11.01.2020
992 Clouds -1 989 68 10000 3.6 110 14:58 11.01.2020
993 Clouds -1 989 68 10000 3.6 110 14:39 11.01.2020
994 Clouds -1 989 68 10000 3.6 110 14:39 11.01.2020
995 Clouds -1 990 74 10000 4.6 140 14:21 11.01.2020
996 Clouds 0 991 80 10000 4.1 150 13:55 11.01.2020
997 Clouds 0 991 77 10000 4.6 160 13:36 11.01.2020
998 Clouds 0 991 77 10000 4.6 160 13:18 11.01.2020
999 Clouds 0 992 77 10000 2.6 180 12:41 11.01.2020
1000 Clouds 0 993 77 10000 6.2 200 12:23 11.01.2020
1001 Clouds -1 993 80 10000 2.6 190 11:48 11.01.2020
1002 Clouds 0 994 83 10000 6.7 210 11:27 11.01.2020
1003 Clouds 0 994 83 10000 8.2 200 10:55 11.01.2020
1004 Clouds 0 994 83 10000 6.7 200 10:37 11.01.2020
1005 Clouds 0 994 83 10000 6.7 200 10:37 11.01.2020
1006 Clouds 0 994 83 10000 6.7 200 10:18 11.01.2020
1007 Rain 1 995 80 10000 5.1 210 09:39 11.01.2020
1008 Rain 1 995 80 10000 5.1 210 09:20 11.01.2020
1009 Rain 1 995 80 10000 5.1 210 09:20 11.01.2020
1010 Rain 0 995 83 10000 7.2 250 08:42 11.01.2020
1011 Snow 1 995 80 10000 10.8 260 08:22 11.01.2020
1012 Clouds 1 995 80 10000 11.3 260 07:44 11.01.2020
1013 Clouds 0 995 74 10000 12.3 270 07:26 11.01.2020
1014 Rain 1 995 74 10000 10.8 260 06:52 11.01.2020
1015 Rain 1 995 74 10000 10.8 260 06:52 11.01.2020
1016 Rain 1 995 74 10000 10.8 260 06:19 11.01.2020
1017 Snow 0 996 73 5000 9.3 250 04:48 11.01.2020
1018 Snow 0 996 73 5000 9.3 250 04:29 11.01.2020
1019 Snow 0 997 73 1000 13.4 270 03:28 11.01.2020
1020 Rain 1 996 74 10000 9.3 260 02:40 11.01.2020
1021 Snow 0 997 77 2000 20.1 280 01:44 11.01.2020
1022 Snow 1 996 80 8000 21.6 270 01:20 11.01.2020
1023 Clouds 0 996 75 10000 16.5 260 00:44 11.01.2020
1024 Snow 0 996 75 3500 18.5 270 00:20 11.01.2020
1025 Snow 1 996 75 5000 22.1 270 23:41 10.01.2020
1026 Clouds 1 996 75 7000 13.9 270 23:41 10.01.2020
1027 Clouds 1 996 75 7000 13.9 270 23:22 10.01.2020
1028 Rain 1 996 95 10000 7.2 210 22:59 10.01.2020
1029 Rain 1 996 95 10000 7.2 210 22:40 10.01.2020
1030 Snow 1 996 95 6000 9.8 240 22:21 10.01.2020
1031 Snow 2 996 95 10000 6.2 190 21:57 10.01.2020
1032 Snow 2 996 95 4000 6.7 190 21:38 10.01.2020
1033 Snow 2 996 95 4000 6.7 190 21:19 10.01.2020
1034 Clouds -1 996 100 10000 3.1 160 20:55 10.01.2020
1035 Clouds -1 996 100 10000 2.1 230 20:37 10.01.2020
1036 Clouds -1 996 100 10000 2.1 230 20:18 10.01.2020
1037 Snow 1 997 92 4200 1 0 19:39 10.01.2020
1038 Snow 1 997 92 4200 1 0 19:20 10.01.2020
1039 Snow 2 997 92 5000 4.1 0 18:44 10.01.2020
1040 Clouds 3 997 80 10000 3.6 240 18:20 10.01.2020
1041 Snow 3 997 69 10000 2.6 140 17:58 10.01.2020
1042 Snow 3 997 69 10000 1 0 17:40 10.01.2020
1043 Clouds 3 997 69 10000 1 0 17:21 10.01.2020
1044 Clouds 3 996 64 10000 3.1 40 16:59 10.01.2020
1045 Clouds 3 996 64 10000 3.1 40 16:41 10.01.2020
1046 Clouds 3 996 64 10000 3.1 40 16:21 10.01.2020
1047 Clouds 2 996 64 10000 3.1 80 15:56 10.01.2020
1048 Clouds 3 996 69 10000 7.2 250 15:37 10.01.2020
1049 Clouds 3 996 69 10000 7.2 250 15:19 10.01.2020
1050 Clouds 3 996 74 10000 6.7 240 14:56 10.01.2020
1051 Rain 3 995 80 10000 5.7 260 14:38 10.01.2020
1052 Rain 3 995 80 10000 5.7 260 14:19 10.01.2020
1053 Snow 3 995 73 10000 5.7 280 13:45 10.01.2020
1054 Rain 3 995 75 10000 6.7 280 13:26 10.01.2020
1055 Rain 3 995 75 10000 5.7 280 12:59 10.01.2020
1056 Rain 2 995 75 10000 6.7 270 12:40 10.01.2020
1057 Rain 2 995 75 10000 6.7 270 12:21 10.01.2020
1058 Rain 2 995 75 9000 6.7 270 11:57 10.01.2020
1059 Snow 2 994 75 1500 5.7 0 11:39 10.01.2020
1060 Snow 2 994 95 1500 5.7 0 11:19 10.01.2020
1061 Snow 2 994 95 10000 4.1 280 10:58 10.01.2020
1062 Snow 2 993 86 3000 5.1 270 10:38 10.01.2020
1063 Snow 2 993 86 3000 5.1 270 10:18 10.01.2020
1064 Rain 3 992 80 10000 2.1 0 09:45 10.01.2020
1065 Drizzle 3 992 95 10000 5.7 270 09:26 10.01.2020
1066 Rain 3 991 74 10000 4.1 0 08:56 10.01.2020
1067 Rain 3 991 95 10000 4.1 0 08:37 10.01.2020
1068 Rain 3 991 96 10000 4.1 0 08:18 10.01.2020
1069 Clouds 2 990 96 10000 5.1 0 07:41 10.01.2020
1070 Clouds 2 990 96 10000 5.1 0 07:19 10.01.2020
1071 Clouds 2 989 96 10000 7.7 270 06:41 10.01.2020
1072 Snow 2 989 96 3000 8.7 270 06:23 10.01.2020
1073 Snow 2 988 97 8000 9.8 270 05:19 10.01.2020
1074 Rain 2 986 80 9000 23.7 280 03:32 10.01.2020
1075 Snow 3 985 74 10000 26.7 280 02:53 10.01.2020
1076 Snow 3 985 74 10000 26.7 280 02:33 10.01.2020
1077 Clouds 2 985 93 10000 27.8 300 01:33 10.01.2020
1078 Clouds 1 984 97 8000 23.1 300 00:53 10.01.2020
1079 Rain 3 983 86 8000 21.1 300 00:35 10.01.2020
1080 Rain 2 983 93 10000 9.8 270 23:57 09.01.2020
1081 Clouds 3 983 97 10000 8.2 270 23:37 09.01.2020
1082 Clouds 3 983 94 10000 8.2 270 23:19 09.01.2020
1083 Clouds 3 982 94 10000 15.9 300 22:56 09.01.2020
1084 Clouds 3 982 74 10000 12.9 300 22:37 09.01.2020
1085 Clouds 3 982 74 10000 12.9 300 22:18 09.01.2020
1086 Rain 2 981 94 10000 14.4 310 21:55 09.01.2020
1087 Clouds 2 984 100 4000 12.9 290 21:37 09.01.2020
1088 Clouds 2 984 100 4000 12.9 290 21:18 09.01.2020
1089 Rain 3 979 86 10000 13.9 330 20:55 09.01.2020
1090 Rain 3 979 86 10000 13.9 330 20:37 09.01.2020
1091 Rain 4 978 94 10000 17 330 20:18 09.01.2020
1092 Rain 4 977 86 10000 19.5 340 19:39 09.01.2020
1093 Rain 4 975 86 10000 20.6 330 19:21 09.01.2020
1094 Rain 4 975 86 10000 20.6 330 18:59 09.01.2020
1095 Rain 4 974 93 10000 18 320 18:40 09.01.2020
1096 Rain 4 973 86 6000 18.5 310 18:21 09.01.2020
1097 Rain 4 971 86 10000 20.6 290 17:58 09.01.2020
1098 Rain 4 971 86 10000 20.6 290 17:40 09.01.2020
1099 Rain 3 971 93 10000 23.1 290 17:18 09.01.2020
1100 Snow 4 970 86 6000 22.1 280 16:46 09.01.2020
1101 Snow 3 970 93 7000 20.6 270 16:22 09.01.2020
1102 Clouds 3 969 97 5000 26.7 270 15:44 09.01.2020
1103 Rain 4 969 86 10000 29.3 270 15:25 09.01.2020
1104 Rain 4 969 86 10000 29.3 270 14:59 09.01.2020
1105 Snow 4 968 97 2000 19.5 240 14:41 09.01.2020
1106 Clouds 4 968 86 7000 14.9 240 14:19 09.01.2020
1107 Clouds 3 968 93 5000 20.6 260 13:57 09.01.2020
1108 Clouds 3 968 93 5000 20.6 260 13:38 09.01.2020
1109 Clouds 3 967 93 7000 13.9 240 13:19 09.01.2020
1110 Clouds 2 967 100 8000 15.9 240 12:57 09.01.2020
1111 Clouds 2 967 100 8000 15.9 240 12:38 09.01.2020
1112 Clouds 3 967 95 3000 18 250 12:18 09.01.2020
1113 Clouds 3 967 95 5000 10.3 230 11:43 09.01.2020
1114 Snow 1 967 95 4000 8.7 210 11:25 09.01.2020
1115 Snow 1 967 98 4000 8.7 210 10:59 09.01.2020
1116 Snow 1 967 98 1000 9.3 210 10:41 09.01.2020
1117 Snow 2 966 86 7000 8.7 200 10:21 09.01.2020
1118 Clouds 1 966 69 10000 10.8 200 09:49 09.01.2020
1119 Clouds 2 965 69 10000 9.8 190 09:25 09.01.2020
1120 Clouds 2 965 69 10000 9.8 190 08:59 09.01.2020
1121 Clouds 3 965 64 10000 9.3 190 08:40 09.01.2020
1122 Clouds 2 965 69 10000 6.2 180 08:22 09.01.2020
1123 Clouds 3 965 64 10000 6.2 160 07:55 09.01.2020
1124 Clouds 3 965 64 10000 6.2 160 07:35 09.01.2020
1125 Snow 1 966 64 10000 7.2 200 06:54 09.01.2020
1126 Snow 1 966 64 10000 7.2 200 06:32 09.01.2020
1127 Clouds 1 965 55 10000 8.2 200 05:52 09.01.2020
1128 Clouds 1 965 55 10000 8.2 200 05:28 09.01.2020
1129 Clouds 0 965 75 10000 5.1 180 04:41 09.01.2020
1130 Clouds 0 966 75 10000 4.6 170 03:28 09.01.2020
1131 Clouds 0 966 75 10000 3.6 170 02:47 09.01.2020
1132 Clouds 1 966 55 10000 2.6 180 01:53 09.01.2020
1133 Clouds 1 966 55 10000 2.6 180 01:33 09.01.2020
1134 Clouds 2 966 59 10000 6.2 190 00:40 09.01.2020
1135 Clouds 2 966 64 10000 6.7 190 00:19 09.01.2020
1136 Clouds 3 966 69 10000 7.7 190 23:41 08.01.2020
1137 Clouds 3 966 69 10000 3.6 180 23:23 08.01.2020
1138 Clouds 3 967 74 10000 6.7 200 22:56 08.01.2020
1139 Clouds 3 967 74 10000 6.7 200 22:38 08.01.2020
1140 Clouds 3 967 74 10000 6.2 200 22:19 08.01.2020
1141 Clouds 1 967 80 10000 4.6 190 21:55 08.01.2020
1142 Clouds 3 967 80 10000 4.6 190 21:37 08.01.2020
1143 Clouds 3 967 80 10000 4.6 190 21:18 08.01.2020
1144 Clouds 3 967 81 10000 5.7 210 20:56 08.01.2020
1145 Clouds 3 967 81 10000 5.7 210 20:37 08.01.2020
1146 Clouds 3 968 74 10000 8.2 230 20:19 08.01.2020
1147 Clouds 4 968 78 10000 6.2 240 19:39 08.01.2020
1148 Clouds 5 968 69 10000 6.7 270 19:20 08.01.2020
1149 Clouds 5 968 69 10000 6.7 270 18:59 08.01.2020
1150 Clouds 5 968 69 10000 8.2 260 18:40 08.01.2020
1151 Clouds 4 968 78 10000 7.2 270 18:19 08.01.2020
1152 Clouds 4 968 78 10000 7.2 270 18:19 08.01.2020
1153 Clouds 4 968 78 10000 7.2 270 18:19 08.01.2020
1154 Clouds 4 968 78 10000 7.2 270 17:59 08.01.2020
1155 Clouds 4 968 78 10000 9.8 280 17:40 08.01.2020
1156 Clouds 5 968 83 10000 9.8 280 17:22 08.01.2020
1157 Clouds 5 968 83 10000 11.8 270 16:57 08.01.2020
1158 Clouds 5 968 83 10000 11.8 270 16:38 08.01.2020
1159 Clouds 4 968 93 10000 10.3 260 16:19 08.01.2020
1160 Rain 4 967 93 10000 8.2 250 15:55 08.01.2020
1161 Rain 4 967 93 10000 8.2 250 15:37 08.01.2020
1162 Rain 4 968 93 10000 6.2 230 15:18 08.01.2020
1163 Rain 4 967 93 8000 11.8 270 14:40 08.01.2020
1164 Rain 3 967 90 10000 7.7 260 14:21 08.01.2020
1165 Clouds 3 967 90 10000 3.6 230 13:42 08.01.2020
1166 Clouds 3 967 92 10000 7.2 210 13:24 08.01.2020
1167 Clouds 3 967 92 10000 7.2 210 12:59 08.01.2020
1168 Rain 4 967 74 10000 6.7 220 12:40 08.01.2020
1169 Rain 3 966 74 10000 5.1 200 12:18 08.01.2020
1170 Clouds 4 966 74 10000 4.6 190 11:48 08.01.2020
1171 Clouds 4 966 69 10000 4.1 170 11:20 08.01.2020
1172 Clouds 4 966 69 10000 4.6 170 10:59 08.01.2020
1173 Clouds 4 966 69 10000 4.6 170 10:41 08.01.2020
1174 Clouds 4 966 74 10000 4.6 160 10:22 08.01.2020
1175 Clouds 3 967 74 10000 4.6 160 09:58 08.01.2020
1176 Clouds 3 967 74 10000 4.6 160 09:38 08.01.2020
1177 Clouds 3 967 80 10000 6.2 170 09:18 08.01.2020
1178 Clouds 4 967 74 10000 6.7 180 08:42 08.01.2020
1179 Clouds 4 968 74 10000 11.3 200 08:23 08.01.2020
1180 Clouds 4 968 74 10000 11.3 200 07:59 08.01.2020
1181 Clouds 4 968 74 10000 15.9 200 07:41 08.01.2020
1182 Clouds 3 968 74 10000 18 190 07:20 08.01.2020
1183 Clouds 3 969 74 10000 21.1 190 06:42 08.01.2020
1184 Clouds 2 970 80 10000 20.6 190 05:57 08.01.2020
1185 Clouds 2 972 74 10000 22.6 190 05:27 08.01.2020
1186 Clouds 2 973 74 10000 22.1 190 04:37 08.01.2020
1187 Clouds 1 976 74 10000 19 190 02:48 08.01.2020
1188 Clouds 1 976 74 10000 19 190 02:30 08.01.2020
1189 Clouds 3 978 59 10000 15.9 180 01:58 08.01.2020
1190 Clouds 3 980 59 10000 11.3 180 01:39 08.01.2020
1191 Clouds 2 980 69 10000 11.3 160 00:52 08.01.2020
1192 Clouds 3 981 69 10000 5.7 170 00:24 08.01.2020
1193 Clouds 3 982 74 10000 6.2 170 23:46 07.01.2020
1194 Clouds 3 983 80 10000 6.2 180 23:21 07.01.2020
1195 Clouds 3 984 81 10000 6.7 180 22:57 07.01.2020
1196 Clouds 3 984 81 10000 6.7 180 22:38 07.01.2020
1197 Clouds 3 985 81 10000 7.7 190 22:19 07.01.2020
1198 Clouds 3 985 81 10000 7.7 190 22:19 07.01.2020
1199 Clouds 3 985 81 10000 4.6 170 21:42 07.01.2020
1200 Clouds 3 985 93 10000 4.6 180 21:23 07.01.2020
1201 Clouds 3 985 93 10000 4.6 180 20:59 07.01.2020
1202 Clouds 2 986 81 10000 2.6 180 20:41 07.01.2020
1203 Clouds 2 986 83 10000 4.6 200 20:22 07.01.2020
1204 Clouds 3 987 93 10000 5.1 210 19:58 07.01.2020
1205 Clouds 3 987 93 10000 5.1 210 19:38 07.01.2020
1206 Clouds 3 987 93 10000 5.1 210 19:19 07.01.2020
1207 Clouds 3 987 93 10000 4.1 220 18:57 07.01.2020
1208 Clouds 3 987 93 10000 4.1 220 18:38 07.01.2020
1209 Clouds 3 988 89 10000 5.1 230 18:18 07.01.2020
1210 Clouds 3 988 93 10000 4.1 240 17:57 07.01.2020
1211 Clouds 3 988 93 10000 4.1 240 17:37 07.01.2020
1212 Clouds 3 988 93 10000 4.1 230 17:19 07.01.2020
1213 Drizzle 3 988 93 10000 4.6 220 16:55 07.01.2020
1214 Drizzle 3 988 93 10000 4.6 220 16:37 07.01.2020
1215 Rain 3 988 93 10000 5.1 210 16:18 07.01.2020
1216 Rain 3 988 93 9000 5.1 210 15:43 07.01.2020
1217 Drizzle 3 988 93 10000 5.7 220 15:24 07.01.2020
1218 Drizzle 3 988 93 10000 5.7 220 15:24 07.01.2020
1219 Drizzle 3 988 93 10000 5.7 220 15:24 07.01.2020
1220 Drizzle 3 988 93 10000 5.7 220 14:59 07.01.2020
1221 Drizzle 3 988 93 10000 7.7 220 14:41 07.01.2020
1222 -273 0 0 0 0 0 14:22 07.01.2020
1223 Drizzle 3 988 96 10000 7.7 210 13:55 07.01.2020
1224 Drizzle 4 988 96 10000 7.7 210 13:37 07.01.2020
1225 Drizzle 4 988 98 10000 8.2 210 13:18 07.01.2020
1226 Drizzle 4 988 98 10000 11.8 200 12:40 07.01.2020
1227 Drizzle 4 988 98 10000 9.8 200 12:19 07.01.2020
1228 Drizzle 4 988 98 10000 8.2 190 11:42 07.01.2020
1229 Drizzle 4 988 98 10000 7.7 180 11:23 07.01.2020
1230 Clouds 4 989 87 10000 7.2 180 10:58 07.01.2020
1231 Clouds 4 989 87 10000 7.2 180 10:39 07.01.2020
1232 Rain 3 989 87 10000 9.3 190 10:21 07.01.2020
1233 Clouds 5 989 75 10000 7.7 170 09:55 07.01.2020
1234 Clouds 5 989 75 10000 7.7 170 09:37 07.01.2020
1235 Clouds 4 990 75 10000 6.2 180 09:19 07.01.2020
1236 Drizzle 4 990 75 10000 8.7 190 08:41 07.01.2020
1237 Clouds 4 990 85 10000 4.1 180 08:20 07.01.2020
1238 Rain 4 991 85 10000 7.2 190 07:49 07.01.2020
1239 Clouds 2 991 80 10000 4.6 160 07:23 07.01.2020
1240 Clouds 2 991 80 10000 6.7 190 06:52 07.01.2020
1241 Clouds 2 991 80 10000 6.7 190 06:32 07.01.2020
1242 Clouds 2 992 80 10000 7.7 210 05:42 07.01.2020
1243 Clouds 2 992 74 10000 12.9 190 03:52 07.01.2020
1244 Clouds 2 992 74 10000 12.9 190 03:52 07.01.2020
1245 Clouds 2 992 74 10000 12.9 190 03:25 07.01.2020
1246 Clouds 3 993 64 10000 10.3 190 02:20 07.01.2020
1247 Clouds 3 993 64 10000 9.3 170 01:40 07.01.2020
1248 Clouds 3 993 64 10000 9.3 170 01:40 07.01.2020
1249 Clouds 3 993 64 10000 9.3 170 01:18 07.01.2020
1250 Clouds 2 995 69 10000 8.7 150 00:21 07.01.2020
1251 Clouds 2 995 80 10000 5.7 160 23:58 06.01.2020
1252 Clouds 2 995 80 10000 5.7 160 23:38 06.01.2020
1253 Clouds 3 995 80 10000 4.6 170 23:20 06.01.2020
1254 Clouds 2 995 80 10000 4.1 170 22:55 06.01.2020
1255 Clouds 2 995 80 10000 4.1 170 22:37 06.01.2020
1256 Clouds 1 996 86 10000 4.6 180 22:18 06.01.2020
1257 Clouds 2 996 74 10000 5.1 190 21:54 06.01.2020
1258 Clouds 2 996 74 10000 5.1 190 21:36 06.01.2020
1259 Clouds 3 996 80 10000 6.2 200 21:18 06.01.2020
1260 Clouds 2 996 80 10000 6.2 200 20:54 06.01.2020
1261 Clouds 2 996 80 10000 6.2 200 20:36 06.01.2020
1262 Clouds 2 996 80 10000 6.2 200 20:18 06.01.2020
1263 Clouds 2 996 80 10000 6.2 200 20:18 06.01.2020
1264 Clouds 2 996 89 10000 6.7 210 19:54 06.01.2020
1265 Clouds 2 996 89 10000 6.7 210 19:36 06.01.2020
1266 Clouds 2 996 86 10000 6.2 210 19:18 06.01.2020
1267 Clouds 2 996 86 10000 6.2 210 18:41 06.01.2020
1268 Clouds 2 996 86 10000 6.7 210 18:19 06.01.2020
1269 Clouds 2 996 86 10000 5.1 210 17:39 06.01.2020
1270 Snow 2 996 86 10000 5.1 210 17:19 06.01.2020
1271 Clouds 2 996 86 10000 5.1 210 16:55 06.01.2020
1272 Clouds 2 996 86 10000 5.1 210 16:37 06.01.2020
1273 Rain 2 996 80 10000 6.2 250 16:18 06.01.2020
1274 Clouds 1 995 95 10000 5.7 230 15:42 06.01.2020
1275 Rain 0 995 95 10000 5.1 220 15:21 06.01.2020
1276 Rain 0 995 95 10000 5.1 220 14:59 06.01.2020
1277 Snow 0 995 95 10000 5.7 220 14:41 06.01.2020
1278 Snow 0 995 95 10000 6.7 220 14:22 06.01.2020
1279 Clouds 1 994 86 10000 5.7 220 13:58 06.01.2020
1280 Clouds 1 994 86 10000 5.7 220 13:38 06.01.2020
1281 Rain 0 994 86 10000 5.7 220 13:20 06.01.2020
1282 Clouds 0 994 86 10000 5.7 230 12:44 06.01.2020
1283 Clouds 0 994 86 10000 5.7 210 12:21 06.01.2020
1284 Clouds 0 994 86 10000 5.7 210 11:59 06.01.2020
1285 Rain 0 994 86 10000 6.2 210 11:41 06.01.2020
1286 Snow -1 994 86 10000 5.1 200 11:23 06.01.2020
1287 Snow -1 993 79 10000 3.1 190 10:58 06.01.2020
1288 Snow -1 993 79 10000 3.1 190 10:40 06.01.2020
1289 Snow -1 994 79 10000 3.6 190 10:20 06.01.2020
1290 Rain -1 993 73 10000 5.1 200 09:39 06.01.2020
1291 Snow -1 993 73 10000 3.6 200 09:20 06.01.2020
1292 Clouds -2 993 79 10000 3.1 200 08:51 06.01.2020
1293 Clouds -2 993 79 10000 3.1 200 08:33 06.01.2020
1294 Clouds -2 992 79 10000 3.1 200 07:56 06.01.2020
1295 Clouds -2 992 79 10000 3.1 200 07:33 06.01.2020
1296 Clouds -3 992 68 10000 3.6 220 06:46 06.01.2020
1297 Clouds -3 992 68 10000 3.6 200 06:23 06.01.2020
1298 Clouds -4 992 68 10000 3.6 210 05:45 06.01.2020
1299 Clouds -4 992 68 10000 4.6 210 04:52 06.01.2020
1300 Clouds -4 992 68 10000 4.6 210 04:19 06.01.2020
1301 Clouds -4 992 68 10000 10.8 200 02:56 06.01.2020
1302 Clouds -4 992 68 10000 10.8 200 02:24 06.01.2020
1303 Clouds -4 991 68 10000 10.3 200 01:45 06.01.2020
1304 Clouds -4 991 68 10000 7.2 180 01:26 06.01.2020
1305 Clouds -4 992 68 10000 7.2 180 00:42 06.01.2020
1306 Clouds -4 992 68 10000 10.8 180 00:23 06.01.2020
1307 Clouds -1 992 62 10000 8.2 180 23:43 05.01.2020
1308 Clouds -1 992 62 10000 8.2 180 23:23 05.01.2020
1309 Clouds -2 993 62 10000 8.2 170 22:58 05.01.2020
1310 Clouds -2 993 62 10000 8.2 170 22:39 05.01.2020
1311 Clouds -2 994 62 10000 8.7 170 22:20 05.01.2020
1312 Clouds -1 994 63 10000 8.7 140 21:55 05.01.2020
1313 Clouds -1 994 63 10000 8.7 140 21:37 05.01.2020
1314 Clouds -1 994 63 10000 8.7 140 21:37 05.01.2020
1315 Clouds -1 995 73 10000 9.8 140 21:19 05.01.2020
1316 Clouds -1 995 73 10000 8.2 150 20:55 05.01.2020
1317 Clouds -1 995 73 10000 8.2 150 20:37 05.01.2020
1318 Clouds -4 996 79 10000 6.7 170 20:19 05.01.2020
1319 Clouds -3 997 86 10000 4.6 180 19:56 05.01.2020
1320 Clouds -3 997 86 10000 4.6 180 19:37 05.01.2020
1321 Rain -3 997 86 10000 5.1 180 19:19 05.01.2020
1322 Rain -3 997 92 10000 3.6 170 18:55 05.01.2020
1323 Rain -3 997 92 10000 3.6 170 18:36 05.01.2020
1324 Snow -3 998 92 5000 3.1 180 18:18 05.01.2020
1325 Snow -4 998 92 10000 2.6 210 17:57 05.01.2020
1326 Snow -2 998 92 10000 2.6 210 17:37 05.01.2020
1327 Snow -2 998 92 8000 1.5 200 17:19 05.01.2020
1328 Snow -2 999 92 4000 2.1 280 16:55 05.01.2020
1329 Snow -2 999 92 4000 2.1 280 16:37 05.01.2020
1330 Rain -3 999 92 10000 3.6 300 16:19 05.01.2020
1331 Rain -3 999 92 10000 3.6 300 16:19 05.01.2020
1332 Snow -2 999 92 9000 4.6 300 15:37 05.01.2020
1333 Snow -2 999 92 1000 3.6 290 15:18 05.01.2020
1334 Rain -1 1000 86 10000 5.7 300 14:55 05.01.2020
1335 Rain -1 1000 86 10000 5.7 300 14:37 05.01.2020
1336 Snow -2 1000 86 2000 7.7 320 14:18 05.01.2020
1337 Rain -2 1000 86 10000 11.3 330 13:40 05.01.2020
1338 Rain -3 1000 92 10000 7.7 300 13:21 05.01.2020
1339 Snow -3 1000 92 8000 8.7 310 12:58 05.01.2020
1340 Snow -3 1000 92 8000 8.7 310 12:39 05.01.2020
1341 Snow -3 1000 92 8000 8.7 310 12:39 05.01.2020
1342 Snow -2 1000 86 1500 8.7 330 12:21 05.01.2020
1343 Rain -3 1000 92 10000 11.3 310 11:58 05.01.2020
1344 Rain -3 1000 92 10000 11.3 310 11:39 05.01.2020
1345 Rain -3 1000 92 10000 11.3 310 11:39 05.01.2020
1346 Snow -3 1001 92 2300 12.9 310 11:19 05.01.2020
1347 Snow -3 1001 92 2300 12.9 310 11:19 05.01.2020
1348 Snow -3 1000 86 10000 11.8 310 10:56 05.01.2020
1349 Snow -3 1000 86 10000 11.8 310 10:36 05.01.2020
1350 Snow -3 1000 86 10000 11.8 310 10:36 05.01.2020
1351 Snow -3 1000 86 10000 11.8 310 10:36 05.01.2020
1352 Snow -3 1001 86 500 13.4 310 10:18 05.01.2020
1353 Snow -3 1001 86 7000 13.4 310 09:41 05.01.2020
1354 Snow -3 1001 92 500 15.9 310 09:21 05.01.2020
1355 Snow -2 1000 74 10000 14.9 320 08:48 05.01.2020
1356 Snow -2 1000 74 10000 14.9 320 08:29 05.01.2020
1357 Snow -4 1001 85 9000 17.5 310 07:55 05.01.2020
1358 Snow -4 1001 85 9000 17.5 310 07:36 05.01.2020
1359 Mist -4 1000 79 9000 16.5 310 06:59 05.01.2020
1360 Snow -3 1000 79 8000 18.5 310 05:58 05.01.2020
1361 Snow -3 1000 79 8000 18.5 310 05:30 05.01.2020
1362 Mist -3 1000 73 10000 19 320 04:43 05.01.2020
1363 Snow -4 999 92 5000 17.5 300 03:52 05.01.2020
1364 Snow -3 998 79 4800 21.1 310 02:46 05.01.2020
1365 Snow -4 998 85 1900 21.6 310 02:22 05.01.2020
1366 Snow -4 998 85 2800 18.5 320 01:46 05.01.2020
1367 Snow -4 997 92 1100 20.1 320 01:18 05.01.2020
1368 Snow -3 997 86 4000 16.5 320 00:41 05.01.2020
1369 Snow -3 997 86 4000 16.5 320 00:41 05.01.2020
1370 Snow -3 997 79 5000 16.5 320 00:22 05.01.2020
1371 Snow -3 997 79 5000 16.5 320 23:59 04.01.2020
1372 Snow -3 996 86 5000 15.4 330 23:39 04.01.2020
1373 Snow -3 997 73 10000 15.4 320 23:19 04.01.2020
1374 Snow -4 997 92 250 17.5 320 22:39 04.01.2020
1375 Snow -4 996 85 450 15.9 310 22:21 04.01.2020
1376 Snow -3 995 68 10000 12.3 320 21:57 04.01.2020
1377 Snow -3 995 68 10000 12.3 320 21:38 04.01.2020
1378 Snow -4 995 85 10000 9.8 320 21:20 04.01.2020
1379 Snow -4 994 85 10000 9.8 310 20:58 04.01.2020
1380 Snow -4 994 85 10000 9.8 310 20:39 04.01.2020
1381 Snow -4 994 85 2600 14.9 300 20:21 04.01.2020
1382 Snow -4 993 73 5000 14.4 320 19:56 04.01.2020
1383 Snow -4 993 73 5000 14.4 320 19:37 04.01.2020
1384 Snow -4 993 68 10000 15.9 320 19:18 04.01.2020
1385 Snow -4 993 62 10000 15.9 320 18:54 04.01.2020
1386 Snow -4 993 62 10000 15.9 320 18:36 04.01.2020
1387 Snow -5 993 62 10000 16.5 320 18:18 04.01.2020
1388 Snow -5 992 73 10000 19.5 330 17:40 04.01.2020
1389 Mist -5 992 67 8000 17 320 17:22 04.01.2020
1390 Snow -6 991 85 1100 19 330 16:55 04.01.2020
1391 Snow -6 991 85 1100 19 330 16:36 04.01.2020
1392 Snow -6 990 85 5000 15.9 330 16:18 04.01.2020
1393 Rain -5 989 73 7000 16.5 330 15:42 04.01.2020
1394 Snow -6 988 85 3000 16.5 330 15:20 04.01.2020
1395 Snow -5 987 73 2500 19 340 14:59 04.01.2020
1396 Snow -6 988 85 3000 16.5 330 14:59 04.01.2020
1397 Snow -6 988 85 3000 16.5 330 14:59 04.01.2020
1398 Snow -5 987 73 2500 19 340 14:40 04.01.2020
1399 Rain -5 987 79 6000 17 340 14:20 04.01.2020
1400 Snow -6 986 92 4000 18 360 13:58 04.01.2020
1401 Snow -6 986 92 4000 18 360 13:37 04.01.2020
1402 Snow -6 986 92 4000 18 360 13:37 04.01.2020
1403 Snow -4 984 79 4600 19 350 13:19 04.01.2020
1404 Snow -5 983 92 2000 22.6 360 12:56 04.01.2020
1405 Snow -5 983 92 2000 22.6 360 12:38 04.01.2020
1406 Rain -4 982 79 8000 20.1 360 12:18 04.01.2020
1407 Rain -3 980 79 6000 22.1 360 11:55 04.01.2020
1408 Rain -3 980 79 6000 22.1 360 11:36 04.01.2020
1409 Snow -3 979 86 5000 20.1 10 11:18 04.01.2020
1410 Snow -3 978 92 1400 19.5 360 10:40 04.01.2020
1411 Snow -2 976 92 900 22.6 10 10:21 04.01.2020
1412 Snow -2 975 92 1000 22.1 10 09:44 04.01.2020
1413 Snow -2 972 100 250 25.7 20 09:25 04.01.2020
1414 Snow -1 969 100 300 24.2 30 08:49 04.01.2020
1415 Clouds 0 967 94 800 7.2 20 08:29 04.01.2020
1416 Clouds -1 966 86 10000 4.1 320 07:55 04.01.2020
1417 Clouds -1 966 86 10000 4.1 320 07:55 04.01.2020
1418 Clouds -1 966 86 10000 4.1 320 07:37 04.01.2020
1419 Clouds 0 965 98 10000 1 0 06:43 04.01.2020
1420 Clouds 1 964 98 10000 6.2 250 05:57 04.01.2020
1421 Clouds 0 963 89 10000 7.2 270 04:51 04.01.2020
1422 Clouds 0 963 89 10000 7.2 270 04:30 04.01.2020
1423 Rain 0 962 89 10000 8.7 270 03:28 04.01.2020
1424 Snow 0 962 89 10000 11.3 270 02:49 04.01.2020
1425 Clouds 0 962 93 10000 9.3 280 02:18 04.01.2020
1426 Rain 0 962 93 10000 9.8 290 01:42 04.01.2020
1427 Snow 1 961 80 10000 12.3 280 01:23 04.01.2020
1428 Rain 0 961 93 10000 12.3 270 00:29 04.01.2020
1429 Snow 0 960 93 10000 12.3 270 23:57 03.01.2020
1430 Snow 0 960 93 10000 12.3 270 23:37 03.01.2020
1431 Snow 0 960 91 3700 11.3 280 23:18 03.01.2020
1432 Snow 1 960 91 1800 9.8 280 22:40 03.01.2020
1433 Snow 1 960 91 1000 11.3 280 22:19 03.01.2020
1434 Snow 1 960 91 6000 11.3 270 21:57 03.01.2020
1435 Snow 1 960 91 6000 11.3 270 21:38 03.01.2020
1436 Snow 1 960 91 3000 12.3 270 21:19 03.01.2020
1437 Snow 1 960 91 4000 11.3 270 20:55 03.01.2020
1438 Snow 1 960 91 4000 11.3 270 20:37 03.01.2020
1439 Snow 0 960 87 3500 8.2 260 20:18 03.01.2020
1440 Snow 0 960 96 10000 8.7 260 19:55 03.01.2020
1441 Snow 0 960 96 10000 8.7 260 19:37 03.01.2020
1442 Rain 0 960 96 10000 6.7 230 19:18 03.01.2020
1443 Clouds 1 960 80 10000 6.2 250 18:40 03.01.2020
1444 Clouds 1 960 74 10000 5.7 230 18:21 03.01.2020
1445 Snow 0 960 96 10000 6.7 230 17:54 03.01.2020
1446 Snow 1 960 96 10000 6.7 230 17:36 03.01.2020
1447 Clouds 1 960 81 10000 4.6 220 17:18 03.01.2020
1448 Clouds 0 960 80 10000 5.7 210 16:42 03.01.2020
1449 Clouds 0 960 74 10000 5.1 200 16:22 03.01.2020
1450 Clouds 2 960 81 10000 3.6 180 15:43 03.01.2020
1451 Clouds 1 960 74 10000 1.5 0 15:19 03.01.2020
1452 Clouds 1 960 74 10000 1.5 0 15:19 03.01.2020
1453 Clouds 2 961 81 10000 2.6 190 14:56 03.01.2020
1454 Clouds 2 961 81 10000 2.6 190 14:37 03.01.2020
1455 Clouds 2 961 84 10000 4.6 200 14:19 03.01.2020
1456 Clouds 1 961 84 10000 4.6 190 13:41 03.01.2020
1457 Clouds 2 962 80 10000 6.7 190 13:23 03.01.2020
1458 Clouds 2 962 80 10000 5.7 190 12:56 03.01.2020
1459 Clouds 2 962 80 10000 5.7 190 12:38 03.01.2020
1460 Clouds 2 962 80 10000 6.2 190 12:19 03.01.2020
1461 Clouds 1 962 80 10000 7.2 240 11:42 03.01.2020
1462 Clouds 3 962 69 10000 8.2 260 11:18 03.01.2020
1463 Clouds 3 963 74 10000 5.1 260 10:43 03.01.2020
1464 Clouds 3 963 80 10000 5.1 230 10:24 03.01.2020
1465 Clouds 3 963 74 10000 7.7 260 09:57 03.01.2020
1466 Clouds 3 963 74 10000 7.7 260 09:38 03.01.2020
1467 Clouds 3 963 80 10000 4.1 240 09:20 03.01.2020
1468 Snow 2 964 77 7000 5.1 250 08:54 03.01.2020
1469 Snow 2 964 77 7000 5.1 250 08:36 03.01.2020
1470 Clouds 2 963 97 10000 8.2 270 08:18 03.01.2020
1471 Clouds 2 963 96 10000 5.1 210 07:39 03.01.2020
1472 Clouds 1 963 86 10000 4.6 220 07:18 03.01.2020
1473 Clouds 2 962 80 10000 4.1 200 06:42 03.01.2020
1474 Snow 1 963 86 10000 2.6 180 06:23 03.01.2020
1475 Clouds 3 963 69 10000 5.1 210 05:20 03.01.2020
1476 Clouds 4 963 64 10000 6.7 190 03:45 03.01.2020
1477 Clouds 4 964 69 10000 5.1 200 02:55 03.01.2020
1478 Clouds 4 965 69 10000 8.7 260 01:57 03.01.2020
1479 Clouds 4 965 69 10000 8.7 260 01:36 03.01.2020
1480 Clouds 5 965 60 10000 11.8 260 00:46 03.01.2020
1481 Clouds 5 965 56 10000 14.9 260 00:26 03.01.2020
1482 Clouds 5 965 60 10000 13.4 270 23:55 02.01.2020
1483 Clouds 5 965 60 10000 13.4 270 23:37 02.01.2020
1484 Clouds 6 965 56 10000 16.5 260 23:18 02.01.2020
1485 Clouds 6 965 60 10000 17 270 22:42 02.01.2020
1486 Clouds 6 965 79 10000 14.4 260 22:20 02.01.2020
1487 Clouds 5 965 80 10000 16.5 260 21:57 02.01.2020
1488 Clouds 5 965 80 10000 16.5 260 21:38 02.01.2020
1489 Clouds 4 965 93 10000 5.7 220 21:20 02.01.2020
1490 Clouds 4 965 79 10000 10.3 200 20:56 02.01.2020
1491 Clouds 4 965 79 10000 10.3 200 20:38 02.01.2020
1492 Snow 4 964 94 6000 9.8 190 20:20 02.01.2020
1493 Snow 4 964 86 2500 6.2 180 19:55 02.01.2020
1494 Snow 4 964 86 2500 6.2 180 19:36 02.01.2020
1495 Clouds 2 964 86 10000 8.2 170 19:18 02.01.2020
1496 Snow 0 965 92 8000 10.3 160 18:54 02.01.2020
1497 Snow 0 965 92 8000 10.3 160 18:36 02.01.2020
1498 Snow 0 966 86 2300 17 130 18:18 02.01.2020
1499 Snow -1 967 92 2000 17 130 17:55 02.01.2020
1500 Snow -1 967 92 2000 17 130 17:36 02.01.2020
1501 Snow -1 967 92 1700 14.9 140 17:18 02.01.2020
1502 Snow 0 968 86 3000 10.8 150 16:42 02.01.2020
1503 Snow 0 969 86 9000 9.8 160 16:21 02.01.2020
1504 Snow 0 969 86 9000 9.8 160 15:59 02.01.2020
1505 Snow 0 970 86 10000 10.3 160 15:41 02.01.2020
1506 Clouds 0 971 86 10000 7.2 170 15:23 02.01.2020
1507 Clouds 0 972 86 10000 10.3 170 14:57 02.01.2020
1508 Clouds 0 972 86 10000 10.3 170 14:37 02.01.2020
1509 Clouds 0 973 80 10000 5.7 170 14:18 02.01.2020
1510 Clouds -1 974 79 10000 7.7 150 13:55 02.01.2020
1511 Clouds -1 974 79 10000 7.7 150 13:36 02.01.2020
1512 Clouds -2 975 79 10000 5.7 150 12:58 02.01.2020
1513 Clouds -2 975 79 10000 5.7 150 12:39 02.01.2020
1514 Snow -2 977 79 10000 4.6 160 12:20 02.01.2020
1515 Snow -2 977 79 10000 4.6 160 11:41 02.01.2020
1516 Snow -3 978 79 10000 6.2 160 11:20 02.01.2020
1517 Snow -2 978 79 10000 5.1 150 10:45 02.01.2020
1518 Clouds -3 979 85 10000 2.6 160 10:27 02.01.2020
1519 Clouds -4 979 85 10000 3.1 120 09:56 02.01.2020
1520 Clouds -4 979 85 10000 3.1 120 09:35 02.01.2020
1521 Snow -3 979 85 10000 2.1 100 08:53 02.01.2020
1522 Snow -3 979 85 10000 2.1 100 08:32 02.01.2020
1523 Clouds -3 979 85 10000 1.5 0 07:58 02.01.2020
1524 Snow -5 979 92 9000 3.1 80 07:31 02.01.2020
1525 Snow -5 979 92 9000 3.1 80 06:58 02.01.2020
1526 Snow -5 979 92 4000 2.6 110 06:39 02.01.2020
1527 Snow -5 979 92 1000 2.1 110 05:38 02.01.2020
1528 Snow -4 978 92 1800 2.1 110 04:34 02.01.2020
1529 Snow -5 977 92 1300 2.1 70 03:29 02.01.2020
1530 Rain -5 976 85 10000 3.6 150 02:21 02.01.2020
1531 Snow -4 976 79 10000 7.2 170 01:49 02.01.2020
1532 Clouds -5 976 85 7000 3.1 90 01:25 02.01.2020
1533 Clouds -5 976 85 8000 6.7 170 00:38 02.01.2020
1534 Rain -5 976 85 10000 7.2 150 00:20 02.01.2020
1535 Clouds -3 976 85 10000 8.7 150 23:42 01.01.2020
1536 Clouds -3 977 85 10000 9.8 160 23:21 01.01.2020
1537 Clouds -3 977 85 10000 9.8 160 23:21 01.01.2020
1538 Clouds -3 977 79 10000 9.8 160 22:39 01.01.2020
1539 Clouds -3 977 79 10000 9.8 160 22:39 01.01.2020
1540 Clouds -2 977 79 10000 9.3 150 22:20 01.01.2020
1541 Clouds -2 977 79 10000 9.3 150 22:20 01.01.2020
1542 Clouds -2 977 79 10000 9.3 150 21:58 01.01.2020
1543 Clouds -2 977 73 10000 10.3 140 21:39 01.01.2020
1544 Clouds -2 977 73 10000 10.3 140 21:39 01.01.2020
1545 Clouds -2 978 79 10000 12.9 140 21:20 01.01.2020
1546 Clouds -2 979 85 10000 15.4 150 20:57 01.01.2020
1547 Clouds -2 979 85 10000 15.4 150 20:38 01.01.2020
1548 Clouds -4 979 79 10000 17 150 20:20 01.01.2020
1549 Clouds -4 980 85 10000 13.4 150 19:56 01.01.2020
1550 Clouds -4 980 85 10000 13.4 150 19:37 01.01.2020
1551 Clouds -4 980 79 10000 11.8 170 19:19 01.01.2020
1552 Clouds -4 981 79 10000 11.3 180 18:56 01.01.2020
1553 Clouds -4 981 79 10000 11.3 180 18:37 01.01.2020
1554 Clouds -5 982 85 10000 9.3 180 18:19 01.01.2020
1555 Clouds -5 982 79 10000 9.8 170 17:57 01.01.2020
1556 Clouds -3 982 79 10000 9.8 170 17:39 01.01.2020
1557 Clouds -3 983 79 10000 8.7 160 17:19 01.01.2020
1558 Clouds -3 984 73 10000 8.2 160 16:56 01.01.2020
1559 Clouds -3 984 73 10000 8.2 160 16:37 01.01.2020
1560 Clouds -3 985 79 10000 7.2 150 16:19 01.01.2020
1561 Clouds -3 985 79 10000 7.2 150 16:19 01.01.2020
1562 Clouds -3 985 68 10000 6.7 150 15:54 01.01.2020
1563 Clouds -3 985 68 10000 6.7 150 15:36 01.01.2020
1564 Clouds -3 986 79 10000 5.1 170 15:18 01.01.2020
1565 Clouds -3 987 73 10000 5.7 160 14:41 01.01.2020
1566 Clouds -6 987 73 10000 4.6 150 14:23 01.01.2020
1567 Clouds -6 988 73 10000 3.6 150 13:57 01.01.2020
1568 Clouds -6 988 73 10000 3.6 150 13:38 01.01.2020
1569 Clouds -5 988 73 10000 4.1 180 13:19 01.01.2020
1570 Clouds -5 989 73 10000 5.1 150 12:57 01.01.2020
1571 Clouds -5 989 73 10000 5.1 150 12:39 01.01.2020
1572 Clouds -4 989 73 10000 3.1 160 12:19 01.01.2020
1573 Clouds -4 990 73 10000 5.1 180 11:56 01.01.2020
1574 Clouds -4 990 73 10000 5.1 180 11:37 01.01.2020
1575 Clouds -4 990 85 10000 5.7 190 11:18 01.01.2020
1576 Clouds -4 990 85 10000 4.6 190 10:54 01.01.2020
1577 Clouds -4 990 85 10000 4.6 190 10:36 01.01.2020
1578 Clouds -3 990 86 10000 5.1 190 10:18 01.01.2020
1579 Clouds -3 990 86 10000 4.6 190 09:38 01.01.2020
1580 Clouds -2 990 79 10000 4.1 230 09:19 01.01.2020
1581 Clouds -3 990 86 10000 3.6 230 08:56 01.01.2020
1582 Clouds -3 990 86 10000 3.6 230 08:37 01.01.2020
1583 Clouds -3 990 86 10000 3.6 230 08:37 01.01.2020
1584 Snow -3 990 86 10000 4.1 260 08:19 01.01.2020
1585 Snow -2 990 86 10000 4.6 240 07:55 01.01.2020
1586 Snow -2 990 86 10000 4.6 240 07:37 01.01.2020
1587 Snow -2 990 86 10000 4.6 240 07:37 01.01.2020
1588 Snow -2 991 86 10000 4.6 250 06:45 01.01.2020
1589 Snow -3 991 86 10000 5.1 240 06:22 01.01.2020
1590 Snow -2 991 86 10000 5.7 270 05:45 01.01.2020
1591 Snow -3 992 92 1200 3.1 230 03:47 01.01.2020
1592 Snow -3 992 92 10000 4.1 220 03:24 01.01.2020
1593 Snow -3 992 92 10000 4.1 220 02:59 01.01.2020
1594 Snow -4 992 92 1200 2.6 230 02:40 01.01.2020
1595 Snow -5 992 92 8000 2.6 230 02:21 01.01.2020
1596 Snow -4 992 100 5000 2.6 240 01:39 01.01.2020
1597 Mist -5 992 92 2700 3.1 240 01:21 01.01.2020
1598 Snow -5 992 92 10000 2.6 260 00:44 01.01.2020
1599 Snow -3 992 92 1600 3.1 290 00:26 01.01.2020
1600 Snow -3 992 92 350 5.1 290 23:42 31.12.2019
1601 Snow -2 992 86 9000 7.2 330 23:22 31.12.2019
1602 Snow -2 992 86 9000 7.2 330 22:59 31.12.2019
1603 Snow -2 992 86 10000 4.1 240 22:39 31.12.2019
1604 Snow -2 992 86 10000 6.2 280 22:20 31.12.2019
1605 Snow -1 992 58 10000 6.2 340 21:59 31.12.2019
1606 Snow -1 992 58 10000 6.2 340 21:40 31.12.2019
1607 Snow -2 991 68 10000 6.7 360 21:22 31.12.2019
1608 Snow -2 991 63 10000 7.2 350 20:57 31.12.2019
1609 Snow -2 991 63 10000 7.2 350 20:37 31.12.2019
1610 Snow -2 991 63 10000 7.2 350 20:19 31.12.2019
1611 Snow -2 990 63 10000 7.2 350 19:55 31.12.2019
1612 Snow -2 990 63 10000 7.2 350 19:36 31.12.2019
1613 Snow -2 990 68 10000 8.7 360 19:18 31.12.2019
1614 Snow -2 990 79 10000 8.7 10 18:54 31.12.2019
1615 Snow -2 990 79 10000 8.7 10 18:36 31.12.2019
1616 Snow -3 989 92 10000 6.2 360 18:18 31.12.2019
1617 Snow -3 989 92 1600 9.3 10 17:54 31.12.2019
1618 Snow -1 989 92 1600 9.3 10 17:36 31.12.2019
1619 Snow -1 989 92 450 9.8 360 17:18 31.12.2019
1620 Snow -1 988 86 2000 9.8 10 16:55 31.12.2019
1621 Snow -1 988 86 2000 9.8 10 16:36 31.12.2019
1622 Rain 0 987 80 10000 12.3 310 16:18 31.12.2019
1623 Rain -1 987 74 10000 14.4 300 15:55 31.12.2019
1624 Rain -1 987 74 10000 14.4 300 15:37 31.12.2019
1625 Snow -1 987 86 7000 17.5 300 15:18 31.12.2019
1626 Rain -1 986 74 10000 14.4 310 14:55 31.12.2019
1627 Rain -1 986 74 10000 14.4 310 14:36 31.12.2019
1628 Snow -2 986 86 10000 17.5 320 14:18 31.12.2019
1629 Snow -1 985 74 10000 18.5 300 13:54 31.12.2019
1630 Snow -1 985 74 10000 18.5 300 13:36 31.12.2019
1631 Rain -1 985 74 2400 19.5 290 13:18 31.12.2019
1632 Snow -2 985 86 1200 18 290 12:54 31.12.2019
1633 Snow -2 985 86 1200 18 290 12:36 31.12.2019
1634 Snow -1 985 86 9000 21.1 290 12:18 31.12.2019
1635 Snow -2 985 100 3000 18 300 11:54 31.12.2019
1636 Snow -2 985 100 3000 18 300 11:36 31.12.2019
1637 Snow -2 985 92 7000 20.6 290 11:18 31.12.2019
1638 Snow -2 985 100 2000 15.4 270 10:54 31.12.2019
1639 Snow -2 985 100 2000 15.4 270 10:36 31.12.2019
1640 Snow -2 985 100 3000 14.4 260 10:18 31.12.2019
1641 Snow -2 985 92 500 14.4 230 09:54 31.12.2019
1642 Snow -2 985 92 500 14.4 230 09:36 31.12.2019
1643 Snow -2 985 74 1500 8.7 210 09:18 31.12.2019
1644 Clouds -2 986 86 10000 12.3 230 08:41 31.12.2019
1645 Clouds -2 986 86 10000 13.4 240 08:21 31.12.2019
1646 Clouds -1 987 58 10000 12.9 260 07:44 31.12.2019
1647 Clouds -1 987 63 10000 12.9 250 07:22 31.12.2019
1648 Clouds -1 987 58 10000 11.8 250 06:51 31.12.2019
1649 Clouds -1 988 58 10000 9.8 250 06:23 31.12.2019
1650 Clouds -1 988 58 10000 9.8 250 06:23 31.12.2019
1651 Snow -2 989 58 10000 7.2 260 04:54 31.12.2019
1652 Clouds -2 989 63 10000 6.2 280 04:21 31.12.2019
1653 Snow -2 989 58 10000 9.3 320 02:57 31.12.2019
1654 Clouds -2 989 58 10000 9.3 320 02:20 31.12.2019
1655 Snow -2 989 54 10000 10.3 330 01:49 31.12.2019
1656 Snow -2 989 54 10000 10.3 330 01:31 31.12.2019
1657 Clouds -3 989 53 10000 13.9 340 00:48 31.12.2019
1658 Clouds -3 989 58 10000 12.9 330 00:24 31.12.2019
1659 Clouds -2 989 54 10000 12.3 340 23:58 30.12.2019
1660 Clouds -2 989 54 10000 12.3 340 23:39 30.12.2019
1661 Clouds -2 989 54 10000 12.3 340 23:21 30.12.2019
1662 Clouds -2 988 54 10000 12.9 340 22:59 30.12.2019
1663 Clouds -2 988 54 10000 12.9 340 22:41 30.12.2019
1664 Clouds -2 988 58 10000 11.3 340 22:21 30.12.2019
1665 Clouds -3 988 63 10000 11.8 350 21:57 30.12.2019
1666 Clouds -3 988 63 10000 11.8 350 21:39 30.12.2019
1667 Clouds -3 987 73 10000 12.3 350 21:20 30.12.2019
1668 Clouds -3 987 73 10000 12.3 350 20:58 30.12.2019
1669 Clouds -3 987 73 10000 10.8 360 20:40 30.12.2019
1670 Clouds -3 986 68 10000 11.8 10 20:20 30.12.2019
1671 Clouds -3 986 68 10000 11.8 10 19:58 30.12.2019
1672 Clouds -3 986 73 10000 11.3 10 19:39 30.12.2019
1673 Clouds -3 986 73 10000 11.3 10 19:39 30.12.2019
1674 Clouds -2 986 63 10000 11.3 10 19:19 30.12.2019
1675 Clouds -2 985 63 10000 10.8 360 18:59 30.12.2019
1676 Clouds -2 985 63 10000 10.8 360 18:40 30.12.2019
1677 Snow -2 985 74 8000 9.3 360 18:20 30.12.2019
1678 Snow -3 985 86 8000 11.3 350 17:57 30.12.2019
1679 Snow -3 985 86 8000 11.3 350 17:39 30.12.2019
1680 Clouds 0 984 68 10000 10.8 360 17:19 30.12.2019
1681 Snow -1 984 74 10000 11.8 360 16:58 30.12.2019
1682 Snow -1 984 74 10000 11.8 360 16:37 30.12.2019
1683 Clouds 0 983 68 10000 13.4 360 16:19 30.12.2019
1684 Clouds -1 983 79 10000 9.8 10 15:56 30.12.2019
1685 Clouds -1 983 79 10000 9.8 10 15:37 30.12.2019
1686 Snow 0 983 63 4000 10.3 360 15:18 30.12.2019
1687 Rain 0 983 63 10000 10.3 360 14:43 30.12.2019
1688 Snow -1 983 74 10000 8.7 10 14:20 30.12.2019
1689 Snow -1 983 74 10000 8.7 10 13:58 30.12.2019
1690 Snow -1 983 68 10000 9.8 360 13:40 30.12.2019
1691 Rain 0 983 63 10000 7.7 360 13:21 30.12.2019
1692 Rain 0 982 68 10000 7.2 30 12:56 30.12.2019
1693 Rain 0 982 68 10000 7.2 30 12:37 30.12.2019
1694 Clouds 0 982 68 10000 7.2 20 12:18 30.12.2019
1695 Clouds -1 982 68 10000 6.2 10 11:45 30.12.2019
1696 Clouds -1 982 63 10000 8.7 20 11:20 30.12.2019
1697 Clouds -1 982 74 10000 4.1 30 10:58 30.12.2019
1698 Clouds -1 982 74 10000 4.1 30 10:40 30.12.2019
1699 Clouds -1 981 68 10000 5.1 60 10:19 30.12.2019
1700 Clouds -1 981 68 10000 6.2 20 09:42 30.12.2019
1701 Clouds -1 981 74 10000 6.7 20 09:20 30.12.2019
1702 Clouds -1 981 74 10000 7.2 40 08:56 30.12.2019
1703 Clouds -1 981 74 10000 7.2 40 08:38 30.12.2019
1704 Clouds 0 981 68 10000 5.7 50 08:18 30.12.2019
1705 Clouds 0 981 63 10000 6.2 40 07:42 30.12.2019
1706 Clouds -1 981 63 10000 6.2 40 06:59 30.12.2019
1707 Clouds -1 981 68 10000 6.7 30 06:24 30.12.2019
1708 Clouds -1 982 74 10000 8.2 20 04:23 30.12.2019
1709 Clouds 0 982 96 10000 6.7 40 03:42 30.12.2019
1710 Clouds 0 982 96 10000 6.2 50 02:41 30.12.2019
1711 Clouds 0 982 97 10000 6.2 50 02:20 30.12.2019
1712 Clouds 0 983 97 10000 7.7 20 01:26 30.12.2019
1713 Clouds 0 984 95 10000 8.2 10 00:47 30.12.2019
1714 Clouds 0 984 95 10000 7.7 10 00:26 30.12.2019
1715 Clouds 0 984 95 10000 6.7 360 23:40 29.12.2019
1716 Rain 1 984 98 10000 6.7 360 23:22 29.12.2019
1717 Snow 1 985 98 10000 6.7 350 22:57 29.12.2019
1718 Snow 1 985 98 10000 6.7 350 22:38 29.12.2019
1719 Snow 1 985 98 10000 6.7 350 22:38 29.12.2019
1720 Snow 1 985 98 5000 5.7 340 22:20 29.12.2019
1721 Snow 1 986 74 10000 5.1 340 21:55 29.12.2019
1722 Snow 1 986 74 10000 5.1 340 21:36 29.12.2019
1723 Snow 1 986 74 10000 6.2 310 21:18 29.12.2019
1724 Clouds 2 986 69 10000 6.2 330 20:55 29.12.2019
1725 Clouds 2 986 69 10000 6.2 330 20:55 29.12.2019
1726 Clouds 2 986 69 10000 6.2 330 20:37 29.12.2019
1727 Clouds 2 986 74 10000 8.2 310 20:18 29.12.2019
1728 Clouds 1 986 94 10000 8.2 310 19:55 29.12.2019
1729 Clouds 1 986 94 10000 8.2 310 19:37 29.12.2019
1730 Clouds 1 986 94 10000 8.2 310 19:37 29.12.2019
1731 Clouds 2 987 80 10000 8.2 310 19:18 29.12.2019
1732 Rain 2 987 94 10000 3.6 260 18:54 29.12.2019
1733 Rain 2 987 94 10000 3.6 260 18:36 29.12.2019
1734 Snow 2 987 94 10000 3.6 0 18:18 29.12.2019
1735 Drizzle 2 987 93 10000 5.7 270 17:54 29.12.2019
1736 Drizzle 2 987 93 10000 5.7 270 17:36 29.12.2019
1737 Snow 2 988 93 10000 14.9 300 17:18 29.12.2019
1738 Snow 2 988 93 10000 13.4 290 16:54 29.12.2019
1739 Snow 2 988 93 10000 13.4 290 16:36 29.12.2019
1740 Snow 2 988 93 10000 12.9 300 16:18 29.12.2019
1741 Snow 2 988 93 8000 15.4 290 15:54 29.12.2019
1742 Snow 2 988 93 8000 15.4 290 15:36 29.12.2019
1743 Rain 3 988 93 10000 15.4 290 15:18 29.12.2019
1744 Rain 3 988 86 10000 16.5 290 14:46 29.12.2019
1745 Rain 3 988 93 10000 15.4 290 14:19 29.12.2019
1746 Rain 3 988 93 10000 15.4 290 13:59 29.12.2019
1747 Rain 4 988 86 10000 19.5 290 13:40 29.12.2019
1748 Rain 4 988 86 10000 20.6 300 13:22 29.12.2019
1749 Rain 4 988 86 10000 20.6 300 13:22 29.12.2019
1750 Rain 4 987 86 10000 22.1 290 12:58 29.12.2019
1751 Rain 4 987 86 10000 22.1 290 12:39 29.12.2019
1752 Rain 3 987 93 10000 20.1 290 12:21 29.12.2019
1753 Rain 4 986 86 10000 19.5 290 11:43 29.12.2019
1754 Snow 4 986 86 10000 22.6 290 11:22 29.12.2019
1755 Snow 4 986 86 10000 18 270 10:59 29.12.2019
1756 Snow 4 986 86 10000 18 270 10:40 29.12.2019
1757 Snow 4 985 86 10000 20.1 270 10:18 29.12.2019
1758 Drizzle 4 985 86 10000 21.1 270 09:46 29.12.2019
1759 Drizzle 4 985 86 10000 22.1 270 09:28 29.12.2019
1760 Drizzle 4 985 86 10000 22.1 270 08:59 29.12.2019
1761 Drizzle 4 985 86 10000 20.1 270 08:40 29.12.2019
1762 Snow 4 985 80 10000 20.6 270 08:21 29.12.2019
1763 Snow 4 985 80 10000 11.8 250 07:45 29.12.2019
1764 Snow 3 985 74 10000 12.3 240 07:26 29.12.2019
1765 Snow 3 985 69 10000 11.3 220 06:42 29.12.2019
1766 Snow 2 986 74 10000 12.3 200 06:19 29.12.2019
1767 Snow 3 986 69 10000 12.3 200 05:44 29.12.2019
1768 Clouds 3 988 69 10000 12.3 200 04:33 29.12.2019
1769 Clouds 3 989 69 10000 15.9 200 03:36 29.12.2019
1770 Clouds 3 991 69 10000 14.9 190 02:30 29.12.2019
1771 Clouds 3 991 69 10000 14.9 190 02:30 29.12.2019
1772 Snow 2 993 74 10000 14.9 190 01:52 29.12.2019
1773 Snow 2 993 74 10000 14.9 190 01:29 29.12.2019
1774 Clouds 1 995 74 10000 14.4 200 00:47 29.12.2019
1775 Clouds 3 996 69 10000 10.3 210 00:25 29.12.2019
1776 Clouds 3 997 69 10000 10.8 220 23:56 28.12.2019
1777 Clouds 3 997 69 10000 10.8 220 23:37 28.12.2019
1778 Clouds 3 997 74 10000 10.8 220 23:18 28.12.2019
1779 Clouds 3 997 74 10000 10.8 220 23:18 28.12.2019
1780 Clouds 3 997 74 10000 10.8 220 23:18 28.12.2019
1781 Clouds 3 997 74 10000 10.8 220 23:18 28.12.2019
1782 Clouds 3 997 74 10000 10.8 220 23:18 28.12.2019
1783 Clouds 3 998 69 10000 11.3 220 22:38 28.12.2019
1784 Clouds 3 999 69 10000 10.3 210 22:19 28.12.2019
1785 Clouds 3 999 69 10000 11.3 220 21:57 28.12.2019
1786 Clouds 3 999 69 10000 11.3 220 21:38 28.12.2019
1787 Clouds 3 999 74 10000 11.3 220 21:19 28.12.2019
1788 Clouds 4 1000 69 10000 11.3 230 20:55 28.12.2019
1789 Clouds 4 1000 69 10000 11.3 230 20:36 28.12.2019
1790 Snow 3 1000 93 10000 13.4 250 20:18 28.12.2019
1791 Snow 3 1000 74 10000 14.9 230 19:54 28.12.2019
1792 Snow 3 1000 74 10000 14.9 230 19:36 28.12.2019
1793 Snow 4 1001 93 10000 14.9 240 19:18 28.12.2019
1794 Snow 4 1001 93 10000 15.4 250 18:42 28.12.2019
1795 Snow 3 1001 93 10000 12.9 230 18:20 28.12.2019
1796 Snow 3 1001 93 10000 12.9 230 17:59 28.12.2019
1797 Drizzle 2 1002 93 10000 12.3 230 17:40 28.12.2019
1798 Rain 2 1002 83 10000 11.3 220 17:21 28.12.2019
1799 Rain 0 1002 83 10000 12.3 210 16:51 28.12.2019
1800 Clouds 1 1003 80 10000 10.8 210 16:27 28.12.2019
1801 Clouds -1 1003 86 10000 12.3 210 15:58 28.12.2019
1802 Clouds -1 1003 86 10000 12.3 210 15:39 28.12.2019
1803 Clouds -1 1004 80 10000 13.4 200 15:21 28.12.2019
1804 Clouds -1 1004 80 10000 13.4 200 15:21 28.12.2019
1805 Clouds -1 1004 80 10000 13.4 200 15:21 28.12.2019
1806 Clouds -2 1004 79 10000 15.4 200 14:47 28.12.2019
1807 Snow -3 1005 86 6000 13.4 200 14:26 28.12.2019
1808 Snow -3 1005 86 6000 13.4 200 13:58 28.12.2019
1809 Snow -4 1006 79 5000 12.9 190 13:39 28.12.2019
1810 Snow -3 1006 68 8000 13.9 190 13:20 28.12.2019
1811 Snow -3 1006 68 8000 13.9 190 13:20 28.12.2019
1812 Snow -3 1007 63 10000 13.4 200 12:56 28.12.2019
1813 Snow -3 1007 63 10000 13.4 200 12:37 28.12.2019
1814 Clouds -2 1008 54 10000 8.2 190 12:19 28.12.2019
1815 Clouds -3 1009 58 10000 10.3 190 11:40 28.12.2019
1816 Clouds -3 1009 58 10000 10.3 210 11:21 28.12.2019
1817 Clouds -3 1009 58 10000 8.7 210 10:56 28.12.2019
1818 Clouds -3 1009 58 10000 8.7 210 10:37 28.12.2019
1819 Clouds -3 1010 58 10000 10.8 210 10:18 28.12.2019
1820 Clouds -3 1010 58 10000 10.8 210 10:18 28.12.2019
1821 Clouds -4 1010 62 10000 10.8 200 09:45 28.12.2019
1822 Clouds -4 1011 68 10000 10.3 210 09:23 28.12.2019
1823 Clouds -4 1011 68 10000 10.3 210 08:58 28.12.2019
1824 Clouds -3 1012 63 10000 9.8 210 08:39 28.12.2019
1825 Clouds -3 1013 63 10000 11.3 210 08:20 28.12.2019
1826 Clouds -3 1013 68 10000 9.8 210 07:43 28.12.2019
1827 Clouds -2 1015 63 10000 11.3 200 06:59 28.12.2019
1828 Clouds -1 1018 68 10000 9.3 190 05:43 28.12.2019
1829 Clouds -1 1020 74 10000 8.2 200 03:48 28.12.2019
1830 Clouds -1 1023 68 10000 9.3 210 02:50 28.12.2019
1831 Clouds -1 1023 68 10000 9.3 210 02:20 28.12.2019
1832 Clouds -1 1023 68 10000 9.8 210 01:54 28.12.2019
1833 Clouds -1 1023 68 10000 10.3 210 01:22 28.12.2019
1834 Clouds -1 1024 68 10000 10.8 200 00:44 28.12.2019
1835 Clouds 0 1024 65 10000 8.2 200 00:26 28.12.2019
1836 Clouds 0 1024 65 10000 7.7 200 23:57 27.12.2019
1837 Clouds 0 1024 65 10000 7.7 200 23:37 27.12.2019
1838 Clouds -1 1025 68 10000 6.7 200 23:18 27.12.2019
1839 Clouds -1 1025 68 10000 7.7 200 22:55 27.12.2019
1840 Clouds -1 1025 68 10000 7.7 200 22:37 27.12.2019
1841 Clouds 0 1026 68 10000 5.7 200 22:19 27.12.2019
1842 Clouds 0 1026 68 10000 6.7 200 21:41 27.12.2019
1843 Clouds 0 1026 68 10000 7.2 200 21:23 27.12.2019
1844 Clouds 0 1027 68 10000 7.2 200 20:44 27.12.2019
1845 Clouds 0 1027 68 10000 7.7 210 20:26 27.12.2019
1846 Clouds -2 1027 74 10000 7.2 210 19:58 27.12.2019
1847 Clouds -2 1027 74 10000 7.2 210 19:40 27.12.2019
1848 Clouds -1 1027 68 10000 7.7 210 19:19 27.12.2019
1849 Clouds -1 1027 68 10000 7.2 200 18:55 27.12.2019
1850 Clouds -1 1027 68 10000 7.2 200 18:36 27.12.2019
1851 Clouds -2 1028 74 10000 6.2 200 18:18 27.12.2019
1852 Clouds -1 1028 68 10000 5.7 200 17:55 27.12.2019
1853 Clouds 0 1028 68 10000 5.7 200 17:37 27.12.2019
1854 Clouds 0 1028 68 10000 6.2 210 17:18 27.12.2019
1855 Clouds -1 1028 74 10000 6.2 210 16:41 27.12.2019
1856 Clouds -1 1028 74 10000 6.2 210 16:23 27.12.2019
1857 Clouds 0 1028 63 10000 6.2 210 15:57 27.12.2019
1858 Clouds 0 1028 63 10000 6.2 210 15:37 27.12.2019
1859 Clouds 0 1028 63 10000 6.2 210 15:37 27.12.2019
1860 Clouds 0 1028 63 10000 6.2 210 15:19 27.12.2019
1861 Clouds -1 1028 68 10000 6.2 200 14:56 27.12.2019
1862 Clouds -1 1028 68 10000 6.2 200 14:37 27.12.2019
1863 Clouds -2 1028 63 10000 3.1 240 14:19 27.12.2019
1864 Clouds -2 1028 63 10000 3.1 240 14:19 27.12.2019
1865 Clouds -3 1028 63 10000 6.7 200 13:46 27.12.2019
1866 Clouds -4 1028 68 10000 7.2 200 13:23 27.12.2019
1867 Clouds -4 1028 68 10000 6.2 200 12:49 27.12.2019
1868 Clouds -4 1028 68 10000 6.2 200 12:29 27.12.2019
1869 Clouds -4 1029 68 10000 5.7 200 11:59 27.12.2019
1870 Clouds -4 1029 73 10000 7.2 220 11:41 27.12.2019
1871 Clouds -4 1029 73 10000 6.7 220 11:20 27.12.2019
1872 Clouds -3 1029 68 10000 6.7 200 10:47 27.12.2019
1873 Clouds -3 1028 68 10000 8.2 210 10:24 27.12.2019
1874 Clouds -3 1028 68 10000 8.2 210 09:58 27.12.2019
1875 Clouds -3 1028 68 10000 8.2 210 09:39 27.12.2019
1876 Clouds -3 1028 68 10000 8.2 200 09:21 27.12.2019
1877 Clouds -3 1028 68 10000 8.2 200 08:49 27.12.2019
1878 Clouds -3 1028 68 10000 8.2 200 08:30 27.12.2019
1879 Clouds -3 1028 73 10000 5.1 180 07:48 27.12.2019
1880 Clouds -4 1028 79 10000 4.1 180 07:26 27.12.2019
1881 Clouds -4 1028 73 10000 4.6 180 06:33 27.12.2019
1882 Clouds -3 1028 73 10000 4.6 190 04:51 27.12.2019
1883 Clouds -3 1028 79 10000 4.1 190 02:49 27.12.2019
1884 Clouds -4 1028 85 10000 3.6 200 01:56 27.12.2019
1885 Clouds -4 1028 85 10000 3.6 200 01:23 27.12.2019
1886 Clouds -4 1028 85 10000 4.1 200 00:53 27.12.2019
1887 Clouds -4 1028 85 10000 4.1 200 00:34 27.12.2019
1888 Clouds -4 1027 79 10000 4.6 210 23:59 26.12.2019
1889 Clouds -5 1027 85 10000 2.6 200 23:40 26.12.2019
1890 Clouds -4 1027 85 10000 1.5 170 23:21 26.12.2019
1891 Clouds -3 1027 79 10000 1.5 160 22:43 26.12.2019
1892 Rain -2 1027 86 10000 1.5 140 22:21 26.12.2019
1893 Rain -2 1027 86 10000 1.5 140 21:58 26.12.2019
1894 Clouds -2 1027 86 10000 2.6 140 21:38 26.12.2019
1895 Snow -2 1027 92 9000 2.6 130 21:20 26.12.2019
1896 Clouds -3 1026 73 10000 3.6 40 20:45 26.12.2019
1897 Clouds -2 1026 79 10000 3.6 40 20:23 26.12.2019
1898 Clouds -2 1026 79 10000 3.6 40 19:59 26.12.2019
1899 Clouds -1 1026 80 10000 2.1 60 19:39 26.12.2019
1900 Rain -1 1026 80 10000 2.1 70 19:21 26.12.2019
1901 Rain -1 1026 74 10000 4.1 50 18:57 26.12.2019
1902 Rain -1 1026 74 10000 4.1 50 18:38 26.12.2019
1903 Clouds -1 1026 68 10000 4.6 50 18:19 26.12.2019
1904 Clouds -1 1025 68 10000 6.2 40 17:43 26.12.2019
1905 Rain -3 1025 68 10000 7.7 20 17:22 26.12.2019
1906 Rain -3 1025 68 10000 7.7 20 16:59 26.12.2019
1907 Snow -3 1025 68 10000 5.7 40 16:41 26.12.2019
1908 Rain -3 1025 68 10000 5.7 30 16:21 26.12.2019
1909 Rain -2 1025 68 10000 5.7 30 15:55 26.12.2019
1910 Rain -2 1025 68 10000 5.7 30 15:37 26.12.2019
1911 Snow -2 1025 79 10000 6.2 40 15:18 26.12.2019
1912 Snow -4 1024 86 10000 7.2 20 14:39 26.12.2019
1913 Snow -1 1024 80 7000 7.7 20 14:21 26.12.2019
1914 Snow -1 1024 80 10000 7.2 20 13:43 26.12.2019
1915 Clouds -2 1024 79 10000 5.1 30 13:21 26.12.2019
1916 Clouds -2 1024 79 10000 5.1 30 12:58 26.12.2019
1917 Rain -2 1024 92 10000 7.2 30 12:39 26.12.2019
1918 Rain -1 1023 74 10000 5.1 360 12:20 26.12.2019
1919 Rain -2 1024 86 10000 5.7 350 11:57 26.12.2019
1920 Rain -2 1024 86 10000 5.7 350 11:38 26.12.2019
1921 Clouds -1 1023 86 10000 6.7 20 11:20 26.12.2019
1922 Clouds -1 1023 68 10000 6.7 350 10:42 26.12.2019
1923 Clouds 0 1023 87 10000 7.2 350 10:19 26.12.2019
1924 Clouds 0 1023 87 10000 5.1 330 09:50 26.12.2019
1925 Clouds 0 1023 87 10000 5.1 330 09:31 26.12.2019
1926 Snow -1 1023 68 10000 6.2 350 08:43 26.12.2019
1927 Snow -1 1023 63 10000 3.6 10 08:25 26.12.2019
1928 Snow -1 1023 63 10000 3.1 10 07:53 26.12.2019
1929 Snow -1 1023 63 10000 3.1 10 07:28 26.12.2019
1930 Snow -1 1022 68 10000 7.2 10 06:54 26.12.2019
1931 Snow -1 1022 68 10000 7.2 10 06:32 26.12.2019
1932 Snow -1 1022 63 10000 4.1 10 05:46 26.12.2019
1933 Snow -1 1022 68 10000 7.7 360 04:59 26.12.2019
1934 Snow -1 1022 68 10000 7.7 360 04:30 26.12.2019
1935 Snow -1 1022 68 10000 7.2 350 02:58 26.12.2019
1936 Snow -1 1022 68 10000 5.1 10 02:34 26.12.2019
1937 Clouds -1 1021 63 10000 6.7 360 01:51 26.12.2019
1938 Clouds -1 1021 63 10000 6.7 360 01:33 26.12.2019
1939 Clouds -1 1021 68 10000 5.1 30 00:50 26.12.2019
1940 Clouds -1 1021 68 10000 7.7 20 00:27 26.12.2019
1941 Clouds -1 1021 68 10000 7.7 20 00:27 26.12.2019
1942 Clouds -1 1021 68 10000 7.7 20 23:59 25.12.2019
1943 Clouds -1 1021 68 10000 7.2 20 23:40 25.12.2019
1944 Clouds -1 1021 63 10000 8.2 20 23:21 25.12.2019
1945 Clouds -1 1021 63 10000 8.2 20 22:59 25.12.2019
1946 Clouds -1 1021 68 10000 9.8 360 22:40 25.12.2019
1947 Clouds -1 1020 68 10000 7.7 10 22:22 25.12.2019
1948 Clouds -1 1020 68 10000 7.7 10 21:59 25.12.2019
1949 Clouds -1 1020 68 10000 8.2 20 21:39 25.12.2019
1950 Clouds -1 1020 68 10000 8.7 20 21:20 25.12.2019
1951 Clouds -1 1020 68 10000 8.2 20 20:56 25.12.2019
1952 Clouds -1 1020 68 10000 8.2 20 20:38 25.12.2019
1953 Clouds -1 1020 68 10000 8.7 20 20:18 25.12.2019
1954 Clouds -1 1019 68 10000 9.3 10 19:43 25.12.2019
1955 Clouds 0 1019 78 10000 8.7 10 19:25 25.12.2019
1956 Clouds 0 1019 78 10000 8.7 10 18:58 25.12.2019
1957 Clouds -1 1019 68 10000 10.3 20 18:37 25.12.2019
1958 Clouds 0 1018 78 10000 10.8 20 18:19 25.12.2019
1959 Clouds 0 1018 78 10000 10.8 20 17:42 25.12.2019
1960 Snow 0 1018 79 10000 10.3 20 17:20 25.12.2019
1961 Snow 0 1018 79 10000 10.8 10 16:58 25.12.2019
1962 Snow 0 1018 79 10000 10.8 10 16:37 25.12.2019
1963 Snow 0 1018 79 10000 11.8 20 16:18 25.12.2019
1964 Snow 0 1017 79 10000 10.3 10 15:57 25.12.2019
1965 Snow 0 1017 79 10000 10.3 10 15:39 25.12.2019
1966 Snow 0 1017 79 10000 10.3 20 15:20 25.12.2019
1967 Clouds 1 1016 69 10000 11.3 20 14:57 25.12.2019
1968 Clouds 1 1016 69 10000 11.3 20 14:39 25.12.2019
1969 Clouds 1 1016 74 10000 10.8 10 14:20 25.12.2019
1970 Clouds 1 1016 74 10000 15.4 10 13:45 25.12.2019
1971 Snow 1 1015 74 10000 12.9 10 13:21 25.12.2019
1972 Snow 1 1015 74 10000 12.9 10 12:57 25.12.2019
1973 Snow 1 1015 74 10000 12.9 10 12:38 25.12.2019
1974 Snow 1 1015 69 10000 13.9 360 12:20 25.12.2019
1975 Snow 1 1015 74 10000 16.5 360 11:43 25.12.2019
1976 Snow 1 1015 80 10000 15.9 360 11:23 25.12.2019
1977 Snow 1 1015 80 10000 15.9 360 10:59 25.12.2019
1978 Snow 1 1014 86 10000 14.9 360 10:37 25.12.2019
1979 Snow 1 1014 80 10000 15.4 360 10:19 25.12.2019
1980 Clouds 1 1013 97 10000 15.4 350 09:49 25.12.2019
1981 Clouds 1 1013 97 10000 15.4 350 09:30 25.12.2019
1982 Rain 1 1013 86 10000 9.8 360 08:47 25.12.2019
1983 Rain 1 1013 86 10000 9.8 360 08:29 25.12.2019
1984 Snow 2 1011 80 10000 7.2 20 07:49 25.12.2019
1985 Snow 2 1011 80 10000 7.2 20 07:31 25.12.2019
1986 Snow 2 1011 98 10000 6.7 350 06:50 25.12.2019
1987 Rain 2 1010 98 10000 17.5 360 06:22 25.12.2019
1988 Snow 2 1009 93 6000 10.8 20 05:18 25.12.2019
1989 Rain 2 1009 93 9000 13.4 360 04:39 25.12.2019
1990 Rain 2 1009 93 5000 12.3 360 04:18 25.12.2019
1991 Rain 2 1008 100 6000 12.9 360 03:40 25.12.2019
1992 Drizzle 3 1008 93 4900 8.7 360 02:51 25.12.2019
1993 Rain 2 1007 100 10000 6.7 360 02:20 25.12.2019
1994 Drizzle 2 1007 100 4300 5.1 280 01:25 25.12.2019
1995 Mist 3 1006 93 9000 5.7 270 00:52 25.12.2019
1996 Mist 3 1006 93 9000 5.7 270 00:29 25.12.2019
1997 Drizzle 3 1006 93 7000 7.2 260 23:56 24.12.2019
1998 Drizzle 3 1006 93 7000 7.2 260 23:38 24.12.2019
1999 Clouds 3 1006 93 10000 8.2 260 23:20 24.12.2019
2000 Clouds 3 1005 86 10000 8.2 270 22:40 24.12.2019
2001 Drizzle 3 1005 86 10000 7.7 270 22:21 24.12.2019
2002 Clouds 3 1005 86 10000 7.2 260 21:43 24.12.2019
2003 Clouds 3 1005 86 10000 8.2 260 21:23 24.12.2019
2004 Clouds 3 1005 86 10000 8.2 260 21:23 24.12.2019
2005 Clouds 2 1004 93 10000 7.2 260 20:55 24.12.2019
2006 Clouds 2 1004 93 10000 7.2 260 20:36 24.12.2019
2007 Clouds 2 1004 93 10000 7.2 250 20:18 24.12.2019
2008 Clouds 2 1004 93 10000 7.2 240 19:43 24.12.2019
2009 Clouds 2 1003 93 10000 7.2 230 19:19 24.12.2019
2010 Clouds 1 1003 100 10000 7.2 220 18:43 24.12.2019
2011 Clouds 1 1003 91 10000 6.7 220 18:24 24.12.2019
2012 Clouds 1 1003 91 10000 6.7 220 17:58 24.12.2019
2013 Rain 1 1003 91 10000 8.2 220 17:38 24.12.2019
2014 Drizzle 0 1003 92 10000 7.2 220 17:20 24.12.2019
2015 Rain 1 1003 92 10000 6.7 220 16:55 24.12.2019
2016 Rain 1 1003 92 10000 6.7 220 16:37 24.12.2019
2017 Snow 0 1003 92 7000 6.7 220 16:19 24.12.2019
2018 Snow 0 1003 92 7000 6.7 220 16:19 24.12.2019
2019 Snow 0 1002 92 4400 5.7 220 15:55 24.12.2019
2020 Snow 0 1002 92 4400 5.7 220 15:36 24.12.2019
2021 Snow 0 1002 92 3000 6.2 210 15:18 24.12.2019
2022 Snow 0 1002 92 4100 2.6 230 14:55 24.12.2019
2023 Snow 0 1002 92 4100 2.6 230 14:36 24.12.2019
2024 Snow 0 1002 95 4400 5.1 210 14:18 24.12.2019
2025 Snow 0 1002 95 4700 6.2 220 13:55 24.12.2019
2026 Snow 0 1002 95 4700 6.2 220 13:37 24.12.2019
2027 Snow 1 1002 80 7000 6.2 220 13:18 24.12.2019
2028 Snow 1 1002 80 10000 6.2 220 12:55 24.12.2019
2029 Snow 1 1002 80 10000 6.2 220 12:36 24.12.2019
2030 Snow 1 1002 80 10000 6.2 210 12:18 24.12.2019
2031 Snow 1 1001 74 10000 7.2 210 11:54 24.12.2019
2032 Snow 1 1001 74 10000 7.2 210 11:36 24.12.2019
2033 Snow 1 1001 74 10000 7.2 210 11:36 24.12.2019
2034 Snow 1 1001 74 10000 6.7 220 11:18 24.12.2019
2035 Clouds 0 1001 96 10000 6.7 210 10:55 24.12.2019
2036 Clouds 0 1001 96 10000 6.7 210 10:36 24.12.2019
2037 Clouds 0 1001 96 10000 6.2 210 10:18 24.12.2019
2038 Snow 0 1001 96 10000 6.2 210 09:54 24.12.2019
2039 Snow 0 1001 96 10000 6.2 210 09:36 24.12.2019
2040 Clouds 0 1000 96 10000 6.2 210 09:18 24.12.2019
2041 Clouds 0 1000 96 10000 6.7 210 08:42 24.12.2019
2042 Clouds 0 1000 94 10000 7.2 210 08:20 24.12.2019
2043 Clouds 0 1000 94 10000 6.7 210 07:45 24.12.2019
2044 Clouds 0 1000 94 10000 6.2 200 07:24 24.12.2019
2045 Snow 0 1000 94 10000 6.7 210 06:44 24.12.2019
2046 Snow 0 1000 94 10000 6.7 210 06:22 24.12.2019
2047 Snow 0 1000 94 10000 5.1 200 05:57 24.12.2019
2048 Snow 0 1000 95 10000 6.7 200 05:20 24.12.2019
2049 Clouds -1 1000 80 10000 6.2 210 04:36 24.12.2019
2050 Clouds 0 999 95 10000 5.7 200 03:50 24.12.2019
2051 Clouds 0 999 95 10000 6.7 200 02:59 24.12.2019
2052 Clouds 0 999 91 10000 5.1 190 02:19 24.12.2019
2053 Clouds 0 999 91 10000 5.7 190 01:42 24.12.2019
2054 Clouds 0 999 91 10000 6.7 190 01:20 24.12.2019
2055 Clouds 0 999 91 10000 6.7 200 00:43 24.12.2019
2056 Clouds -1 999 80 10000 4.1 200 00:23 24.12.2019
2057 Clouds -2 999 79 10000 4.6 190 23:55 23.12.2019
2058 Clouds -2 999 79 10000 4.6 190 23:37 23.12.2019
2059 Clouds -1 999 74 10000 5.7 200 23:19 23.12.2019
2060 Clouds -1 999 74 10000 5.1 200 22:55 23.12.2019
2061 Clouds -1 999 74 10000 5.1 200 22:55 23.12.2019
2062 Clouds -1 999 74 10000 5.1 200 22:36 23.12.2019
2063 Clouds -1 999 74 10000 5.1 200 22:36 23.12.2019
2064 Clouds -1 999 74 10000 4.1 190 22:18 23.12.2019
2065 Clouds -1 998 74 10000 3.6 180 21:55 23.12.2019
2066 Clouds -1 998 74 10000 3.6 180 21:36 23.12.2019
2067 Clouds -1 998 74 10000 3.6 180 21:36 23.12.2019
2068 Clouds -1 998 74 10000 6.7 200 21:18 23.12.2019
2069 Clouds -1 998 80 10000 7.2 200 20:56 23.12.2019
2070 Clouds -1 998 80 10000 7.2 200 20:56 23.12.2019
2071 Clouds -1 998 80 10000 7.2 200 20:38 23.12.2019
2072 Clouds 0 998 88 10000 8.2 200 20:18 23.12.2019
2073 Clouds -1 998 80 10000 8.7 200 19:55 23.12.2019
2074 Clouds -1 998 80 10000 8.7 200 19:36 23.12.2019
2075 Clouds -1 998 80 10000 8.2 190 19:18 23.12.2019
2076 Clouds -1 998 74 10000 8.2 180 18:55 23.12.2019
2077 Clouds -1 998 74 10000 8.2 180 18:36 23.12.2019
2078 Clouds -1 998 74 10000 8.7 190 18:18 23.12.2019
2079 Clouds -1 998 74 10000 9.8 180 17:55 23.12.2019
2080 Clouds 1 998 74 10000 9.8 180 17:37 23.12.2019
2081 Clouds 1 998 74 10000 9.8 180 17:18 23.12.2019
2082 Clouds 1 998 74 10000 11.8 180 16:42 23.12.2019
2083 Clouds 1 998 74 10000 6.7 170 16:19 23.12.2019
2084 Clouds 1 998 74 10000 6.7 170 15:59 23.12.2019
2085 Clouds 1 998 74 10000 9.8 170 15:38 23.12.2019
2086 Clouds 1 998 80 10000 11.3 180 15:20 23.12.2019
2087 Clouds 1 998 80 10000 11.3 180 14:59 23.12.2019
2088 Clouds 1 998 80 10000 10.3 180 14:41 23.12.2019
2089 Clouds 1 998 80 10000 12.9 190 14:22 23.12.2019
2090 Clouds 1 998 80 10000 12.9 190 13:58 23.12.2019
2091 Rain 1 998 74 10000 13.9 190 13:40 23.12.2019
2092 Rain 1 998 74 10000 15.9 190 13:22 23.12.2019
2093 Snow 1 998 74 10000 17.5 200 12:56 23.12.2019
2094 Snow 1 998 74 10000 17.5 200 12:37 23.12.2019
2095 Snow 1 998 74 10000 15.9 190 12:19 23.12.2019
2096 Snow 1 998 80 10000 11.8 180 11:44 23.12.2019
2097 Snow 1 998 80 4500 9.3 170 11:26 23.12.2019
2098 Snow 1 998 80 4500 9.3 170 10:59 23.12.2019
2099 Snow 0 998 86 4000 12.9 180 10:40 23.12.2019
2100 Rain 1 998 74 10000 16.5 190 10:21 23.12.2019
2101 Rain 1 998 74 10000 16.5 190 09:59 23.12.2019
2102 Snow 1 998 74 10000 16.5 190 09:40 23.12.2019
2103 Snow 1 997 80 8000 13.9 180 09:21 23.12.2019
2104 Snow 1 997 80 8000 12.3 180 08:56 23.12.2019
2105 Snow 1 997 80 8000 12.3 180 08:38 23.12.2019
2106 Snow 1 997 80 7000 14.4 180 08:20 23.12.2019
2107 Snow 1 997 80 10000 13.9 180 07:43 23.12.2019
2108 Clouds -1 998 74 10000 14.4 180 07:20 23.12.2019
2109 Snow -1 998 74 10000 14.9 180 06:53 23.12.2019
2110 Snow -1 998 74 10000 12.3 170 06:25 23.12.2019
2111 Clouds -1 998 74 10000 13.4 170 05:50 23.12.2019
2112 Clouds -1 998 74 10000 13.4 170 05:28 23.12.2019
2113 Clouds -1 998 74 10000 11.8 160 04:31 23.12.2019
2114 Clouds -1 998 74 10000 14.9 160 03:18 23.12.2019
2115 Clouds -1 998 74 10000 14.4 160 02:40 23.12.2019
2116 Clouds -1 998 74 10000 14.4 160 02:19 23.12.2019
2117 Clouds -1 999 74 10000 15.4 150 01:42 23.12.2019
2118 Clouds -2 999 74 10000 15.9 150 01:20 23.12.2019
2119 Clouds -2 999 74 10000 15.4 150 00:43 23.12.2019
2120 Clouds -2 999 74 10000 15.4 150 00:22 23.12.2019
2121 Clouds 0 999 74 10000 14.9 150 23:39 22.12.2019
2122 Clouds 0 1000 68 10000 15.4 150 23:21 22.12.2019
2123 Clouds 0 1000 74 10000 15.9 150 22:58 22.12.2019
2124 Clouds 0 1000 74 10000 15.9 150 22:58 22.12.2019
2125 Clouds 0 1000 74 10000 15.9 150 22:40 22.12.2019
2126 Clouds 0 1000 68 10000 17 150 22:20 22.12.2019
2127 Clouds 0 1000 68 10000 17 150 21:58 22.12.2019
2128 Clouds 0 1000 74 10000 13.9 150 21:40 22.12.2019
2129 Clouds 0 1000 74 10000 16.5 140 21:21 22.12.2019
2130 Clouds 0 1000 74 10000 16.5 140 20:58 22.12.2019
2131 Clouds 0 1000 74 10000 16.5 150 20:39 22.12.2019
2132 Clouds -2 1000 74 10000 20.1 150 20:18 22.12.2019
2133 Clouds -2 1000 68 10000 21.6 150 19:56 22.12.2019
2134 Clouds -2 1000 68 10000 21.6 150 19:37 22.12.2019
2135 Clouds -2 1000 68 10000 19 140 19:19 22.12.2019
2136 Clouds -2 999 68 10000 13.9 130 18:41 22.12.2019
2137 Clouds -2 1000 74 10000 13.9 130 18:23 22.12.2019
2138 Clouds 0 1000 74 10000 15.4 130 17:56 22.12.2019
2139 Clouds -1 1000 74 10000 15.4 130 17:37 22.12.2019
2140 Clouds -1 1000 74 10000 15.4 130 17:19 22.12.2019
2141 Clouds -1 1000 79 10000 13.9 130 16:57 22.12.2019
2142 Clouds -1 1000 79 10000 13.9 130 16:38 22.12.2019
2143 Clouds -1 1000 74 10000 13.4 130 16:20 22.12.2019
2144 Clouds -1 1000 74 10000 12.3 130 15:56 22.12.2019
2145 Clouds -1 1000 74 10000 12.3 130 15:37 22.12.2019
2146 Clouds 0 1000 68 10000 13.4 150 15:19 22.12.2019
2147 Clouds 0 1000 74 10000 8.2 110 14:55 22.12.2019
2148 Clouds 0 1000 74 10000 8.2 110 14:36 22.12.2019
2149 Clouds -1 1000 74 10000 8.2 100 14:18 22.12.2019
2150 Clouds -2 1000 74 10000 7.7 110 13:55 22.12.2019
2151 Clouds -2 1000 74 10000 7.7 110 13:36 22.12.2019
2152 Clouds -1 1000 74 10000 9.3 110 13:18 22.12.2019
2153 Clouds -1 1000 74 10000 9.3 110 13:18 22.12.2019
2154 Clouds -2 1000 79 10000 8.2 110 12:55 22.12.2019
2155 Clouds -2 1000 79 10000 8.2 110 12:37 22.12.2019
2156 Clouds -2 1000 79 10000 8.2 110 12:37 22.12.2019
2157 Clouds -3 1000 79 10000 7.7 120 12:18 22.12.2019
2158 Clouds -3 1000 79 10000 7.7 110 11:54 22.12.2019
2159 Clouds -3 1000 79 10000 7.7 110 11:36 22.12.2019
2160 Clouds -3 1000 79 10000 8.7 110 11:18 22.12.2019
2161 Clouds -2 1000 74 10000 8.2 120 10:54 22.12.2019
2162 Clouds -2 1000 74 10000 8.2 120 10:36 22.12.2019
2163 Clouds -2 1000 79 10000 10.3 110 10:18 22.12.2019
2164 Clouds -2 1000 79 10000 10.8 110 09:40 22.12.2019
2165 Clouds -4 1000 79 10000 9.8 110 09:22 22.12.2019
2166 Clouds -4 1000 79 10000 9.8 110 08:59 22.12.2019
2167 Clouds -2 1000 74 10000 10.3 110 08:38 22.12.2019
2168 Clouds -4 999 79 10000 9.8 120 08:20 22.12.2019
2169 Clouds -4 999 79 10000 8.7 110 07:38 22.12.2019
2170 Clouds -4 999 79 10000 7.2 100 07:20 22.12.2019
2171 Clouds -5 999 85 10000 7.7 100 06:40 22.12.2019
2172 Clouds -3 999 73 10000 8.7 100 05:54 22.12.2019
2173 Clouds -6 999 73 10000 9.3 110 05:21 22.12.2019
2174 Clouds -6 999 73 10000 8.7 120 04:29 22.12.2019
2175 Clouds -6 999 73 10000 8.7 110 03:53 22.12.2019
2176 Clouds -8 999 72 10000 7.7 120 02:42 22.12.2019
2177 Clouds -8 999 72 10000 8.7 110 01:51 22.12.2019
2178 Clouds -8 999 72 10000 8.7 110 01:30 22.12.2019
2179 Clouds -7 999 73 10000 5.1 100 00:47 22.12.2019
2180 Clouds -7 999 79 10000 5.7 100 00:24 22.12.2019
2181 Clouds -8 999 72 10000 5.7 110 23:57 21.12.2019
2182 Clouds -8 999 72 10000 5.7 110 23:38 21.12.2019
2183 Clear -7 998 73 10000 6.7 110 23:19 21.12.2019
2184 Clear -6 999 79 10000 6.7 100 22:41 21.12.2019
2185 Clear -6 998 85 10000 6.7 100 22:19 21.12.2019
2186 Clear -6 998 79 10000 5.1 100 21:57 21.12.2019
2187 Clear -6 998 79 10000 5.1 100 21:38 21.12.2019
2188 Clear -9 999 92 10000 4.6 100 21:20 21.12.2019
2189 Clear -9 999 92 10000 4.6 100 20:59 21.12.2019
2190 Clear -8 998 85 10000 5.1 100 20:39 21.12.2019
2191 Clear -7 998 85 10000 4.1 100 20:21 21.12.2019
2192 Clear -7 998 85 10000 4.1 100 19:58 21.12.2019
2193 Clear -7 998 85 10000 4.1 100 19:40 21.12.2019
2194 Clear -6 998 85 10000 3.6 100 19:19 21.12.2019
2195 Clear -7 998 79 10000 3.6 100 18:45 21.12.2019
2196 Clear -7 998 85 10000 3.1 80 18:24 21.12.2019
2197 Clear -6 998 85 10000 1.5 100 17:58 21.12.2019
2198 Clear -6 998 85 10000 1.5 100 17:39 21.12.2019
2199 Clear -5 998 85 10000 1 110 17:21 21.12.2019
2200 Clear -5 998 85 10000 1 110 16:59 21.12.2019
2201 Clear -5 998 85 10000 2.33 136 16:41 21.12.2019
2202 Clear -5 998 85 10000 2.33 136 16:41 21.12.2019
2203 Clear -6 998 92 10000 2.1 190 16:19 21.12.2019
2204 Clear -6 998 92 10000 2.1 190 16:19 21.12.2019
2205 Clear -7 998 85 10000 0.5 0 15:57 21.12.2019
2206 Clear -7 998 85 10000 0.5 0 15:38 21.12.2019
2207 Clear -7 998 85 10000 0.5 0 15:38 21.12.2019
2208 Clear -7 998 85 10000 2.1 240 15:19 21.12.2019
2209 Clear -8 998 85 10000 1 0 14:57 21.12.2019
2210 Clear -8 998 85 10000 1 0 14:38 21.12.2019
2211 Clear -7 998 92 10000 1.7 133 14:18 21.12.2019
2212 Clear -8 999 85 10000 1 20 13:55 21.12.2019
2213 Clear -8 999 85 10000 1 20 13:37 21.12.2019
2214 Clear -7 999 92 10000 1.67 135 13:18 21.12.2019
2215 Clear -7 999 85 10000 1.67 135 12:54 21.12.2019
2216 Clear -7 999 85 10000 1.67 135 12:36 21.12.2019
2217 Clear -8 999 85 10000 0.5 160 12:18 21.12.2019
2218 Clear -7 999 92 10000 1.5 90 11:42 21.12.2019
2219 Clear -8 999 85 10000 3.1 70 11:24 21.12.2019
2220 Clear -9 999 72 10000 1.5 90 10:56 21.12.2019
2221 Clear -9 999 72 10000 1.5 90 10:38 21.12.2019
2222 Clear -8 999 78 10000 1.5 90 10:19 21.12.2019
2223 Clear -7 999 79 10000 2.1 90 09:43 21.12.2019
2224 Clear -8 999 85 10000 3.1 70 09:21 21.12.2019
2225 Clear -8 999 85 10000 3.1 70 08:59 21.12.2019
2226 Clear -8 999 85 10000 2.6 80 08:39 21.12.2019
2227 Clear -9 999 85 10000 3.1 70 08:21 21.12.2019
2228 Clear -8 999 85 10000 3.6 60 07:44 21.12.2019
2229 Clear -8 999 78 10000 2.6 80 07:22 21.12.2019
2230 Clear -9 999 78 10000 4.1 60 06:45 21.12.2019
2231 Clear -9 999 78 10000 4.1 60 06:26 21.12.2019
2232 Clear -6 999 79 10000 3.1 60 05:51 21.12.2019
2233 Clear -7 999 79 10000 2.1 90 04:58 21.12.2019
2234 Clear -9 1001 75 0 3.37 170 03:57 21.12.2019
2235 Clouds -5 999 73 10000 2.6 90 03:18 21.12.2019
2236 Clouds -7 999 79 10000 1.5 0 01:59 21.12.2019
2237 Clouds -7 999 79 10000 1.5 0 01:38 21.12.2019
2238 Clouds -7 999 73 10000 1.5 0 01:20 21.12.2019
2239 Clouds -6 999 73 10000 1.5 100 00:37 21.12.2019
2240 Clouds -8 1000 85 10000 1.5 180 00:18 21.12.2019
2241 Clouds -7 1000 79 10000 1.5 190 23:38 20.12.2019
2242 Clouds -2 1000 73 10000 1.5 150 23:19 20.12.2019
2243 Clouds -3 1000 85 10000 1 0 22:43 20.12.2019
2244 Clouds -4 1000 78 10000 4.61 176 22:21 20.12.2019
2245 Clouds -4 1000 78 10000 4.61 176 21:59 20.12.2019
2246 Clouds -4 1000 73 10000 2.1 140 21:40 20.12.2019
2247 Clouds -4 1000 67 10000 2.1 160 21:20 20.12.2019
2248 Clouds -4 1000 67 10000 2.6 180 20:55 20.12.2019
2249 Clouds -4 1000 67 10000 2.6 180 20:36 20.12.2019
2250 Clear -4 1000 73 10000 2.6 200 20:18 20.12.2019
2251 Clear -3 1001 73 10000 3.1 200 19:41 20.12.2019
2252 Clear -4 1001 72 10000 2.6 200 19:20 20.12.2019
2253 Clear -3 1001 73 10000 3.1 190 18:56 20.12.2019
2254 Clear -3 1001 73 10000 3.1 190 18:56 20.12.2019
2255 Clear -3 1001 73 10000 3.1 190 18:56 20.12.2019
2256 Clear -3 1001 73 10000 3.1 190 18:38 20.12.2019
2257 Clear -4 1001 73 10000 4.1 200 18:20 20.12.2019
2258 Clear -4 1001 73 10000 5.1 210 17:54 20.12.2019
2259 Clear -4 1001 73 10000 5.1 210 17:36 20.12.2019
2260 Clear -4 1001 73 10000 5.1 210 17:18 20.12.2019
2261 Clear -5 1002 78 10000 5.7 210 16:40 20.12.2019
2262 Clear -5 1002 78 10000 5.7 210 16:20 20.12.2019
2263 Clear -5 1002 78 10000 5.7 210 16:20 20.12.2019
2264 Clear -5 1002 72 10000 5.1 200 15:57 20.12.2019
2265 Clear -5 1002 67 10000 4.1 200 15:39 20.12.2019
2266 Clear -5 1002 67 10000 4.1 200 15:20 20.12.2019
2267 Clear -4 1002 79 10000 4.6 200 14:59 20.12.2019
2268 Clear -4 1002 79 10000 4.6 200 14:40 20.12.2019
2269 Clear -5 1003 85 10000 5.1 220 14:22 20.12.2019
2270 Clear -4 1003 79 10000 5.1 220 13:55 20.12.2019
2271 Clear -5 1003 79 10000 4.6 210 13:36 20.12.2019
2272 Clear -5 1003 79 10000 4.6 210 13:18 20.12.2019
2273 Clear -5 1003 78 10000 4.1 220 12:41 20.12.2019
2274 Clear -5 1003 78 10000 4.1 220 12:19 20.12.2019
2275 Clear -5 1003 78 10000 5.1 210 11:59 20.12.2019
2276 Clear -5 1003 85 10000 4.1 210 11:40 20.12.2019
2277 Clear -6 1003 85 10000 4.1 210 11:21 20.12.2019
2278 Clear -5 1004 78 10000 3.6 210 10:59 20.12.2019
2279 Clear -5 1004 78 10000 3.6 210 10:41 20.12.2019
2280 Clear -5 1004 78 10000 4.1 210 10:21 20.12.2019
2281 Clear -5 1004 79 10000 5.1 200 09:58 20.12.2019
2282 Clear -4 1004 79 10000 4.6 200 09:40 20.12.2019
2283 Clear -4 1004 79 10000 4.6 200 09:20 20.12.2019
2284 Clear -5 1004 72 10000 3.6 200 08:44 20.12.2019
2285 Clear -4 1004 67 10000 5.1 190 08:26 20.12.2019
2286 Clear -4 1004 73 10000 6.7 200 07:59 20.12.2019
2287 Clear -7 1004 67 10000 5.7 190 07:41 20.12.2019
2288 Clear -7 1004 67 10000 5.7 190 07:20 20.12.2019
2289 Clear -6 1004 62 10000 5.7 200 06:52 20.12.2019
2290 Clear -4 1004 62 10000 3.6 190 06:33 20.12.2019
2291 Clear -6 1005 73 10000 4.6 180 05:56 20.12.2019
2292 Clear -5 1005 67 10000 5.7 190 05:37 20.12.2019
2293 Clear -5 1005 67 10000 5.7 190 05:37 20.12.2019
2294 Clear -6 1005 73 10000 3.6 190 04:33 20.12.2019
2295 Clear -5 1005 73 10000 5.1 200 03:31 20.12.2019
2296 Clouds -4 1005 73 10000 5.1 200 02:44 20.12.2019
2297 Clouds -4 1005 79 10000 5.7 210 01:54 20.12.2019
2298 Clouds -3 1006 79 10000 6.2 210 01:34 20.12.2019
2299 Clouds -4 1006 79 10000 5.7 210 00:49 20.12.2019
2300 Clouds -3 1006 79 10000 5.7 210 00:30 20.12.2019
2301 Clouds -3 1006 79 10000 4.6 220 23:56 19.12.2019
2302 Clouds -4 1006 85 10000 4.6 220 23:38 19.12.2019
2303 Clouds -2 1006 85 10000 4.6 220 23:18 19.12.2019
2304 Clouds -2 1006 92 10000 4.1 220 22:38 19.12.2019
2305 Clouds -2 1006 92 10000 4.1 220 22:20 19.12.2019
2306 Snow -1 1006 92 7000 4.1 230 21:56 19.12.2019
2307 Snow -1 1006 92 1800 4.6 260 21:38 19.12.2019
2308 Snow -1 1006 92 1800 4.6 260 21:19 19.12.2019
2309 Clouds -1 1006 86 10000 4.1 230 20:56 19.12.2019
2310 Clouds -2 1006 86 10000 4.1 230 20:37 19.12.2019
2311 Clouds -2 1006 86 10000 4.1 230 20:37 19.12.2019
2312 Clouds -2 1006 86 10000 4.1 230 20:18 19.12.2019
2313 Clouds -2 1006 86 10000 4.1 230 20:18 19.12.2019
2314 Clouds -2 1005 92 10000 3.6 240 19:57 19.12.2019
2315 Clouds -2 1005 92 10000 3.6 240 19:57 19.12.2019
2316 Clouds -3 1005 100 10000 2.6 240 19:39 19.12.2019
2317 Clouds -3 1005 100 10000 2.6 240 19:19 19.12.2019
2318 Rain -2 1005 92 10000 2.6 260 18:55 19.12.2019
2319 Rain -2 1005 92 10000 2.6 270 18:37 19.12.2019
2320 Rain -2 1005 92 10000 2.6 270 18:18 19.12.2019
2321 Rain -2 1005 92 10000 4.6 280 17:54 19.12.2019
2322 Snow -2 1005 86 10000 6.2 300 17:36 19.12.2019
2323 Snow -2 1005 86 10000 6.2 300 17:18 19.12.2019
2324 Snow -2 1005 79 10000 6.7 290 16:54 19.12.2019
2325 Rain -2 1005 74 10000 6.7 290 16:36 19.12.2019
2326 Rain -2 1005 74 10000 6.7 290 16:18 19.12.2019
2327 Clouds -1 1005 74 10000 8.7 290 15:54 19.12.2019
2328 Rain -2 1005 68 10000 8.7 290 15:36 19.12.2019
2329 Rain -2 1005 68 10000 8.7 290 15:18 19.12.2019
2330 Rain -2 1004 74 10000 8.2 300 14:42 19.12.2019
2331 Snow -1 1004 68 10000 8.7 310 14:20 19.12.2019
2332 Rain -1 1004 74 10000 8.7 300 13:58 19.12.2019
2333 Rain -1 1004 63 10000 9.3 310 13:38 19.12.2019
2334 Rain -2 1004 63 10000 9.3 310 13:19 19.12.2019
2335 Clouds -2 1003 68 10000 10.3 300 12:57 19.12.2019
2336 Rain -2 1003 68 10000 10.3 310 12:38 19.12.2019
2337 Rain -2 1003 68 10000 10.3 310 12:19 19.12.2019
2338 Snow -1 1003 68 10000 10.8 290 11:57 19.12.2019
2339 Rain -1 1003 68 10000 10.8 290 11:39 19.12.2019
2340 Rain -1 1003 68 10000 10.8 290 11:18 19.12.2019
2341 Rain -1 1003 68 10000 10.8 290 11:18 19.12.2019
2342 Clouds -2 1002 68 10000 9.3 310 10:55 19.12.2019
2343 Clouds -1 1002 68 10000 11.8 310 10:37 19.12.2019
2344 Clouds -1 1002 68 10000 11.8 310 10:18 19.12.2019
2345 Snow -2 1001 79 10000 12.3 310 09:40 19.12.2019
2346 Snow -2 1001 79 10000 12.3 310 09:40 19.12.2019
2347 Snow -2 1001 79 10000 12.3 310 09:21 19.12.2019
2348 Snow -2 1001 79 10000 13.4 310 08:58 19.12.2019
2349 Snow -1 1000 68 10000 12.3 300 08:40 19.12.2019
2350 Snow -1 1000 68 10000 12.3 300 08:19 19.12.2019
2351 Snow -1 1000 74 10000 11.3 310 07:57 19.12.2019
2352 Snow -1 1000 74 10000 12.9 310 07:38 19.12.2019
2353 Snow -1 1000 74 10000 12.9 310 07:19 19.12.2019
2354 Snow -1 999 74 10000 14.4 310 06:50 19.12.2019
2355 Clouds -1 999 74 10000 13.4 310 06:29 19.12.2019
2356 Snow -1 998 80 9000 14.4 310 05:55 19.12.2019
2357 Snow -1 998 80 9000 14.4 310 05:36 19.12.2019
2358 Snow -2 998 98 0 6.07 308 04:52 19.12.2019
2359 Snow 0 996 98 7000 16.5 330 03:21 19.12.2019
2360 Snow 1 995 86 9000 15.9 340 02:22 19.12.2019
2361 Snow 0 994 98 1500 11.3 340 01:22 19.12.2019
2362 Rain 0 994 98 10000 9.3 350 00:43 19.12.2019
2363 Snow 0 994 98 8000 8.7 330 00:24 19.12.2019
2364 Clouds 1 994 86 3000 11.3 320 23:57 18.12.2019
2365 Rain 1 993 86 10000 6.7 360 23:38 18.12.2019
2366 Rain 1 993 86 10000 6.7 360 23:18 18.12.2019
2367 Rain 1 993 86 10000 6.2 360 22:55 18.12.2019
2368 Rain 1 993 98 10000 7.2 350 22:37 18.12.2019
2369 Rain 1 993 98 10000 7.2 350 22:19 18.12.2019
2370 Rain 1 993 86 10000 7.2 360 21:56 18.12.2019
2371 Rain 1 993 86 10000 7.2 360 21:56 18.12.2019
2372 Snow 1 993 98 10000 9.3 10 21:37 18.12.2019
2373 Snow 1 993 98 10000 9.3 10 21:19 18.12.2019
2374 Clouds 1 992 98 10000 9.3 360 20:55 18.12.2019
2375 Clouds 1 992 98 10000 9.3 360 20:55 18.12.2019
2376 Rain 1 992 86 10000 7.2 360 20:37 18.12.2019
2377 Rain 1 992 86 10000 7.2 360 20:19 18.12.2019
2378 Snow 1 992 86 10000 6.7 360 19:55 18.12.2019
2379 Snow 1 991 86 10000 5.7 360 19:37 18.12.2019
2380 Snow 1 991 86 10000 5.7 360 19:18 18.12.2019
2381 Snow 1 991 86 10000 5.7 360 19:18 18.12.2019
2382 Rain 1 991 86 10000 6.2 10 18:44 18.12.2019
2383 Snow 1 991 86 10000 7.2 360 18:25 18.12.2019
2384 Snow 1 991 86 10000 7.2 360 18:25 18.12.2019
2385 Snow 1 991 86 10000 7.7 320 17:57 18.12.2019
2386 Snow 0 991 92 10000 4.1 330 17:39 18.12.2019
2387 Snow 0 991 92 10000 4.1 330 17:19 18.12.2019
2388 Snow 1 991 96 5000 7.2 310 16:56 18.12.2019
2389 Snow 1 991 96 5000 7.2 310 16:38 18.12.2019
2390 Snow 0 991 92 10000 5.7 320 16:20 18.12.2019
2391 Snow 0 991 92 2000 7.2 350 15:55 18.12.2019
2392 Snow 0 991 92 2000 7.2 350 15:37 18.12.2019
2393 Clouds 0 991 96 10000 5.1 360 15:18 18.12.2019
2394 Rain 0 991 96 10000 6.7 10 14:42 18.12.2019
2395 Rain 0 991 92 10000 5.7 360 14:22 18.12.2019
2396 Rain 0 991 92 10000 6.7 360 13:57 18.12.2019
2397 Rain 0 991 92 10000 6.7 360 13:38 18.12.2019
2398 Snow 0 991 100 10000 5.1 10 13:20 18.12.2019
2399 Snow 1 990 92 800 4.1 360 12:57 18.12.2019
2400 Snow 1 990 92 800 4.1 360 12:38 18.12.2019
2401 Snow 1 990 92 10000 3.6 360 12:19 18.12.2019
2402 Rain 0 990 92 10000 4.6 360 11:56 18.12.2019
2403 Rain 0 990 92 10000 4.6 360 11:37 18.12.2019
2404 Rain 1 990 92 6000 5.1 360 11:19 18.12.2019
2405 Rain 1 990 92 10000 6.2 360 10:55 18.12.2019
2406 Rain 1 990 92 10000 6.2 360 10:37 18.12.2019
2407 Snow 1 990 92 4000 8.2 300 10:19 18.12.2019
2408 Clouds 0 990 92 10000 6.7 310 09:50 18.12.2019
2409 Clouds 0 990 92 10000 6.7 310 09:50 18.12.2019
2410 Snow 0 990 92 7000 7.7 290 09:18 18.12.2019
2411 Snow 0 990 92 2700 6.7 290 08:41 18.12.2019
2412 Snow 0 990 94 1700 7.2 280 08:22 18.12.2019
2413 Snow 0 990 94 4500 7.2 280 07:43 18.12.2019
2414 Snow 0 990 94 10000 6.2 270 07:23 18.12.2019
2415 Rain -2 991 92 10000 5.1 270 06:56 18.12.2019
2416 Clouds -2 991 92 10000 4.6 270 06:27 18.12.2019
2417 Rain -2 991 86 10000 4.1 260 05:54 18.12.2019
2418 Clouds -3 991 92 10000 3.1 260 04:59 18.12.2019
2419 Clouds -3 991 86 10000 1.5 20 02:55 18.12.2019
2420 Clouds -3 991 86 10000 1.5 20 02:37 18.12.2019
2421 Clouds -2 991 86 10000 1.5 20 02:18 18.12.2019
2422 Clouds -4 991 92 10000 1 0 01:41 18.12.2019
2423 Clouds -3 992 86 10000 1 0 01:22 18.12.2019
2424 Clouds -3 992 86 10000 1 0 00:41 18.12.2019
2425 Clouds -3 992 86 10000 1.5 70 00:23 18.12.2019
2426 Clouds -3 992 86 10000 1 0 23:57 17.12.2019
2427 Clouds -1 992 86 10000 1 0 23:39 17.12.2019
2428 Clouds -1 991 79 10000 1.5 0 23:19 17.12.2019
2429 Clouds -1 991 86 10000 1 0 22:56 17.12.2019
2430 Clouds -1 991 86 10000 1 0 22:38 17.12.2019
2431 Clouds -1 992 86 10000 1.5 230 22:19 17.12.2019
2432 Clouds -1 991 86 10000 1.5 200 21:55 17.12.2019
2433 Clouds -1 991 86 10000 1.5 200 21:37 17.12.2019
2434 Clouds -1 991 79 10000 1.5 130 21:19 17.12.2019
2435 Clouds -1 991 79 10000 2.6 130 20:57 17.12.2019
2436 Clouds -1 991 79 10000 2.6 130 20:38 17.12.2019
2437 Clouds -1 991 86 10000 2.1 130 20:18 17.12.2019
2438 Clouds -2 991 92 10000 1.5 130 19:56 17.12.2019
2439 Clouds -2 991 92 10000 1.5 130 19:38 17.12.2019
2440 Clouds -1 991 86 10000 1.5 0 19:18 17.12.2019
2441 Clouds -1 991 92 10000 2.1 170 18:54 17.12.2019
2442 Clouds -1 991 92 10000 2.1 170 18:36 17.12.2019
2443 Clouds 0 991 86 10000 2.6 150 18:18 17.12.2019
2444 Clouds -1 991 92 10000 2.6 140 17:42 17.12.2019
2445 Clouds -1 991 92 10000 2.6 140 17:42 17.12.2019
2446 Clouds -1 991 92 10000 2.6 140 17:42 17.12.2019
2447 Clouds -1 991 86 10000 1 0 17:21 17.12.2019
2448 Clouds -1 991 86 10000 1 0 17:21 17.12.2019
2449 Clouds -1 991 92 10000 1 180 16:57 17.12.2019
2450 Clouds -1 991 92 10000 1 180 16:57 17.12.2019
2451 Clouds -1 991 92 10000 1 180 16:38 17.12.2019
2452 Clouds 0 991 92 10000 2.1 200 16:19 17.12.2019
2453 Clouds 0 991 92 10000 2.1 200 15:59 17.12.2019
2454 Clouds 0 991 92 10000 2.6 210 15:38 17.12.2019
2455 Clouds 0 991 92 10000 2.1 190 15:19 17.12.2019
2456 Clouds 0 991 92 10000 2.1 210 14:56 17.12.2019
2457 Clouds 0 991 92 10000 2.1 210 14:38 17.12.2019
2458 Clouds 0 991 92 10000 1.5 220 14:19 17.12.2019
2459 Clouds -1 991 100 10000 1 0 13:56 17.12.2019
2460 Clouds -1 991 100 10000 1 0 13:38 17.12.2019
2461 Rain -1 991 100 10000 2.76 186 13:19 17.12.2019
2462 Snow -1 991 100 10000 1.83 223 12:56 17.12.2019
2463 Snow -1 991 100 10000 1.83 223 12:37 17.12.2019
2464 Snow -1 991 100 10000 1.83 223 12:18 17.12.2019
2465 Snow -1 991 100 5000 1 140 11:56 17.12.2019
2466 Snow -1 991 100 5000 1 140 11:36 17.12.2019
2467 Snow -1 992 100 4600 2.6 120 11:18 17.12.2019
2468 Snow -1 992 100 4600 2.6 120 11:18 17.12.2019
2469 Snow -1 992 100 4600 2.6 120 11:18 17.12.2019
2470 Snow -1 992 92 4500 3.1 110 10:55 17.12.2019
2471 Snow -1 992 92 4500 3.1 110 10:37 17.12.2019
2472 Snow -1 992 92 4500 2.6 110 10:18 17.12.2019
2473 Snow -1 992 92 3600 2.1 110 09:42 17.12.2019
2474 Snow -1 992 92 10000 1.5 140 09:21 17.12.2019
2475 Snow 0 992 92 7000 1 120 08:58 17.12.2019
2476 Snow 0 992 92 7000 1 120 08:40 17.12.2019
2477 Snow 0 992 86 8000 1 110 08:21 17.12.2019
2478 Snow 0 992 86 10000 3.1 130 07:58 17.12.2019
2479 Snow 0 992 86 10000 3.1 130 07:39 17.12.2019
2480 Snow -1 992 86 10000 3.1 110 07:20 17.12.2019
2481 Clouds -1 992 80 10000 3.6 120 06:42 17.12.2019
2482 Clouds -1 992 86 10000 5.1 140 06:24 17.12.2019
2483 Clouds -1 992 80 10000 5.1 130 05:41 17.12.2019
2484 Clouds -1 992 80 10000 4.6 130 04:51 17.12.2019
2485 Clouds 0 993 86 10000 6.7 140 03:50 17.12.2019
2486 Clouds 0 993 86 10000 11.3 150 02:25 17.12.2019
2487 Clouds -1 993 80 10000 10.3 140 01:21 17.12.2019
2488 Clouds 0 993 90 10000 6.7 130 00:47 17.12.2019
2489 Clouds 0 993 90 10000 8.2 120 00:21 17.12.2019
2490 Clouds 0 993 90 10000 8.2 120 00:21 17.12.2019
2491 Clouds 0 993 90 10000 8.2 120 00:21 17.12.2019
2492 Clouds 0 993 90 10000 10.8 130 23:57 16.12.2019
2493 Clouds 0 993 90 10000 10.8 130 23:38 16.12.2019
2494 Clouds 2 994 90 10000 11.3 130 23:18 16.12.2019
2495 Clouds 1 994 90 10000 9.8 140 22:54 16.12.2019
2496 Clouds 1 994 90 10000 9.8 140 22:36 16.12.2019
2497 Clouds 1 994 90 10000 8.2 140 22:18 16.12.2019
2498 Snow 1 994 90 10000 6.7 120 21:54 16.12.2019
2499 Snow 1 994 90 10000 6.7 120 21:36 16.12.2019
2500 Snow 1 994 90 10000 7.2 120 21:18 16.12.2019
2501 Snow 1 994 90 10000 7.7 120 20:54 16.12.2019
2502 Snow 1 994 90 10000 7.7 120 20:36 16.12.2019
2503 Snow 0 994 90 10000 7.2 120 20:18 16.12.2019
2504 Snow 0 995 90 10000 7.7 120 19:54 16.12.2019
2505 Snow 0 995 90 10000 7.7 120 19:36 16.12.2019
2506 Snow 0 995 90 10000 7.7 120 19:18 16.12.2019
2507 Snow 0 995 90 10000 7.7 120 19:18 16.12.2019
2508 Snow 0 995 90 10000 8.2 120 18:42 16.12.2019
2509 Snow 1 995 80 10000 7.2 120 18:20 16.12.2019
2510 Snow 1 995 80 10000 7.2 120 18:20 16.12.2019
2511 Snow 0 995 90 10000 8.2 120 17:59 16.12.2019
2512 Snow 1 995 90 10000 8.2 120 17:40 16.12.2019
2513 Clouds 1 995 91 10000 7.2 140 17:21 16.12.2019
2514 Clouds 1 995 91 10000 7.2 120 16:58 16.12.2019
2515 Clouds 1 995 91 10000 7.2 120 16:39 16.12.2019
2516 Clouds 2 995 80 10000 6.2 120 16:20 16.12.2019
2517 Clouds 2 995 91 10000 7.2 110 15:59 16.12.2019
2518 Clouds 2 995 91 10000 7.2 110 15:39 16.12.2019
2519 Clouds 2 995 91 10000 7.2 110 15:39 16.12.2019
2520 Clouds 2 996 91 10000 8.7 110 15:21 16.12.2019
2521 Clouds 1 995 91 10000 6.2 100 14:58 16.12.2019
2522 Clouds 1 995 91 10000 6.2 100 14:38 16.12.2019
2523 Clouds 1 995 87 10000 3.1 110 14:20 16.12.2019
2524 Clouds 2 995 69 10000 3.1 140 13:58 16.12.2019
2525 Clouds 2 995 69 10000 3.1 140 13:38 16.12.2019
2526 Clouds 2 996 74 10000 5.7 180 13:20 16.12.2019
2527 Clouds 1 996 87 10000 5.1 160 12:58 16.12.2019
2528 Clouds 1 996 85 10000 5.1 160 12:40 16.12.2019
2529 Clouds 1 996 87 10000 3.6 160 12:20 16.12.2019
2530 Clouds 2 996 87 10000 6.7 140 11:59 16.12.2019
2531 Clouds 2 996 87 10000 6.7 140 11:41 16.12.2019
2532 Clouds 2 996 87 10000 7.2 130 11:21 16.12.2019
2533 Clouds 0 996 87 10000 7.2 140 10:58 16.12.2019
2534 Clouds 2 996 87 10000 7.2 140 10:40 16.12.2019
2535 Clouds 2 996 74 10000 6.2 130 10:20 16.12.2019
2536 Clouds 2 996 74 10000 7.7 160 09:46 16.12.2019
2537 Clouds 2 996 74 10000 12.3 140 09:28 16.12.2019
2538 Clouds 2 996 74 10000 7.7 170 08:58 16.12.2019
2539 Clouds 2 996 74 10000 7.7 170 08:58 16.12.2019
2540 Clouds 2 996 74 10000 7.7 170 08:38 16.12.2019
2541 Clouds 2 996 74 10000 8.7 160 08:19 16.12.2019
2542 Clouds 2 996 74 10000 7.2 180 07:49 16.12.2019
2543 Clouds 2 996 74 10000 7.2 180 07:30 16.12.2019
2544 Clouds 0 996 88 10000 9.3 180 06:46 16.12.2019
2545 Clouds 0 996 88 10000 9.3 170 06:26 16.12.2019
2546 Clouds 0 996 88 10000 10.3 160 05:56 16.12.2019
2547 Clouds 0 996 88 10000 10.3 160 05:35 16.12.2019
2548 Clouds 0 996 88 10000 9.8 170 04:33 16.12.2019
2549 Clouds 0 996 88 10000 11.8 180 02:49 16.12.2019
2550 Clouds 1 996 69 10000 9.3 170 01:45 16.12.2019
2551 Clouds 1 997 69 10000 10.8 170 00:55 16.12.2019
2552 Clouds 1 997 69 10000 10.8 170 00:36 16.12.2019
2553 Clouds 1 997 74 10000 9.3 150 00:18 16.12.2019
2554 Clouds 2 997 74 10000 13.9 180 23:40 15.12.2019
2555 Clouds 2 997 85 10000 9.8 150 23:21 15.12.2019
2556 Clouds 2 997 85 10000 13.4 160 22:56 15.12.2019
2557 Clouds 2 997 85 10000 13.4 160 22:38 15.12.2019
2558 Clouds 2 997 85 10000 10.8 170 22:19 15.12.2019
2559 Clouds 2 997 85 10000 14.4 160 21:57 15.12.2019
2560 Clouds 2 997 85 10000 14.4 160 21:38 15.12.2019
2561 Clouds 2 997 74 10000 12.9 150 21:19 15.12.2019
2562 Clouds 2 997 85 10000 12.9 160 20:57 15.12.2019
2563 Clouds 2 997 85 10000 12.9 160 20:38 15.12.2019
2564 Clouds 1 997 74 10000 13.9 170 20:19 15.12.2019
2565 Clouds 1 997 74 10000 13.4 170 19:57 15.12.2019
2566 Clouds 1 997 74 10000 13.4 170 19:39 15.12.2019
2567 Clouds 1 997 74 10000 14.9 180 19:19 15.12.2019
2568 Clouds 1 997 74 10000 12.3 170 18:57 15.12.2019
2569 Clouds 1 997 74 10000 12.3 170 18:38 15.12.2019
2570 Clouds 1 997 74 10000 12.3 170 18:38 15.12.2019
2571 Clouds 1 998 74 10000 14.9 180 18:18 15.12.2019
2572 Clouds 1 998 74 10000 10.3 180 17:56 15.12.2019
2573 Clouds 2 998 74 10000 10.3 180 17:37 15.12.2019
2574 Clouds 2 998 74 10000 10.8 180 17:19 15.12.2019
2575 Clouds 2 998 74 10000 11.8 170 16:57 15.12.2019
2576 Clouds 2 998 74 10000 11.8 170 16:39 15.12.2019
2577 Clouds 2 998 74 10000 11.3 170 16:20 15.12.2019
2578 Clouds 2 998 74 10000 11.8 170 15:55 15.12.2019
2579 Clouds 2 998 74 10000 11.8 170 15:37 15.12.2019
2580 Clouds 2 998 69 10000 12.9 170 15:18 15.12.2019
2581 Clouds 2 998 69 10000 16.5 160 14:55 15.12.2019
2582 Clouds 2 998 69 10000 16.5 160 14:55 15.12.2019
2583 Clouds 2 998 69 10000 16.5 160 14:36 15.12.2019
2584 Clouds 1 998 69 10000 12.3 170 14:18 15.12.2019
2585 Clouds 1 998 74 10000 12.3 180 13:55 15.12.2019
2586 Clouds 1 998 74 10000 12.3 180 13:36 15.12.2019
2587 Clouds 1 998 74 10000 14.9 190 13:18 15.12.2019
2588 Clouds 1 998 74 10000 14.9 190 13:18 15.12.2019
2589 Clouds 1 998 74 10000 13.4 180 12:56 15.12.2019
2590 Clouds 1 998 74 10000 13.4 180 12:37 15.12.2019
2591 Clouds 1 998 74 10000 13.4 180 12:19 15.12.2019
2592 Clouds 1 998 74 10000 17 190 11:38 15.12.2019
2593 Clouds 1 998 80 10000 14.4 180 11:20 15.12.2019
2594 Clouds 1 998 80 10000 12.3 180 10:58 15.12.2019
2595 Clouds 1 998 80 10000 12.3 180 10:40 15.12.2019
2596 Clouds 1 999 80 10000 13.4 190 10:20 15.12.2019
2597 Clouds 1 999 80 10000 13.9 180 09:59 15.12.2019
2598 Clouds 1 999 80 10000 13.9 180 09:38 15.12.2019
2599 Clouds 1 999 74 10000 13.4 180 09:20 15.12.2019
2600 Clouds 1 999 74 10000 13.4 180 08:55 15.12.2019
2601 Clouds 1 999 74 10000 13.4 180 08:37 15.12.2019
2602 Clouds 1 999 74 10000 12.3 180 08:19 15.12.2019
2603 Clouds 1 999 74 10000 13.4 170 07:53 15.12.2019
2604 Clouds 1 999 74 10000 13.4 170 07:32 15.12.2019
2605 Clouds 1 999 80 10000 8.7 180 06:30 15.12.2019
2606 Clouds 1 999 74 10000 10.3 180 05:50 15.12.2019
2607 Clouds 0 999 86 10000 9.8 180 05:23 15.12.2019
2608 Clouds 0 999 89 10000 9.3 180 04:24 15.12.2019
2609 Clouds 0 1000 89 10000 10.8 190 02:59 15.12.2019
2610 Clouds 0 1000 89 10000 10.8 190 02:32 15.12.2019
2611 Clouds 1 1000 74 10000 9.8 190 01:42 15.12.2019
2612 Clouds 1 1000 74 10000 8.2 190 01:20 15.12.2019
2613 Clouds 1 1000 74 10000 8.2 200 00:51 15.12.2019
2614 Clouds 1 1000 74 10000 8.2 200 00:33 15.12.2019
2615 Clouds 1 1000 74 10000 9.8 200 23:56 14.12.2019
2616 Clouds 1 1000 74 10000 9.8 200 23:38 14.12.2019
2617 Clouds 1 999 69 10000 9.8 200 23:18 14.12.2019
2618 Clouds 0 999 88 10000 7.7 190 22:56 14.12.2019
2619 Clouds 0 999 88 10000 7.7 190 22:37 14.12.2019
2620 Clouds 0 999 88 10000 8.7 200 22:19 14.12.2019
2621 Clouds 0 999 88 10000 6.7 200 21:55 14.12.2019
2622 Clouds 0 999 88 10000 6.7 200 21:37 14.12.2019
2623 Clouds 0 999 88 10000 6.7 200 21:18 14.12.2019
2624 Clouds 0 999 88 10000 7.2 200 20:42 14.12.2019
2625 Clouds 0 999 84 10000 9.8 200 20:20 14.12.2019
2626 Clouds -1 999 74 10000 9.3 190 19:59 14.12.2019
2627 Clouds -1 999 74 10000 9.3 190 19:39 14.12.2019
2628 Clouds -1 999 68 10000 7.2 190 19:21 14.12.2019
2629 Clouds -1 999 63 10000 7.2 190 18:57 14.12.2019
2630 Clouds -1 999 63 10000 7.2 190 18:38 14.12.2019
2631 Clouds -1 999 63 10000 7.2 190 18:38 14.12.2019
2632 Clouds -4 999 73 10000 6.7 200 18:20 14.12.2019
2633 Clouds -6 998 67 10000 3.1 170 17:57 14.12.2019
2634 Clouds -6 998 67 10000 3.1 170 17:38 14.12.2019
2635 Clouds -3 998 68 10000 3.6 180 17:20 14.12.2019
2636 Clouds -6 998 73 10000 3.6 190 16:41 14.12.2019
2637 Clouds -4 998 68 10000 4.1 200 16:19 14.12.2019
2638 Clouds -3 998 68 10000 3.6 190 15:55 14.12.2019
2639 Clouds -3 998 68 10000 3.6 190 15:37 14.12.2019
2640 Clouds -4 998 73 10000 4.6 200 15:19 14.12.2019
2641 Clouds -4 998 79 10000 3.1 200 14:54 14.12.2019
2642 Clouds -4 998 79 10000 3.1 200 14:36 14.12.2019
2643 Clouds -5 997 79 10000 3.1 190 14:18 14.12.2019
2644 Clouds -4 997 73 10000 4.6 200 13:42 14.12.2019
2645 Clouds -5 997 79 10000 6.2 210 13:19 14.12.2019
2646 Clouds -5 997 79 10000 6.2 210 13:19 14.12.2019
2647 Clouds -4 997 85 10000 5.1 210 12:57 14.12.2019
2648 Clouds -4 997 85 10000 5.1 210 12:38 14.12.2019
2649 Clouds -4 997 85 10000 5.1 210 12:38 14.12.2019
2650 Clouds -4 997 79 10000 4.1 200 12:20 14.12.2019
2651 Clouds -4 997 73 10000 3.1 170 11:56 14.12.2019
2652 Clouds -4 997 73 10000 3.1 170 11:38 14.12.2019
2653 Clouds -3 996 79 10000 2.6 190 11:19 14.12.2019
2654 Clouds -2 996 79 10000 6.2 190 10:56 14.12.2019
2655 Clouds -2 996 79 10000 6.2 190 10:38 14.12.2019
2656 Clouds -3 996 73 10000 6.2 190 10:20 14.12.2019
2657 Clouds -4 996 73 10000 6.7 200 09:43 14.12.2019
2658 Clouds -4 996 79 10000 5.7 200 09:23 14.12.2019
2659 Clouds -3 996 79 10000 5.7 200 08:59 14.12.2019
2660 Clouds -3 996 79 10000 5.7 200 08:59 14.12.2019
2661 Clouds -3 996 79 10000 5.7 200 08:40 14.12.2019
2662 Clear -3 995 79 10000 5.7 200 08:19 14.12.2019
2663 Clear -4 995 79 10000 5.7 200 07:41 14.12.2019
2664 Clear -3 995 73 10000 4.6 200 07:22 14.12.2019
2665 Clear -2 995 79 10000 5.1 200 06:55 14.12.2019
2666 Clear -2 995 79 10000 5.1 200 06:36 14.12.2019
2667 Clear -1 994 74 10000 5.1 210 05:56 14.12.2019
2668 Clear -2 994 74 10000 5.7 200 04:35 14.12.2019
2669 Clear -2 993 68 10000 5.1 200 02:25 14.12.2019
2670 Clear 0 993 88 10000 5.1 200 01:46 14.12.2019
2671 Clear 0 993 88 10000 5.7 210 01:28 14.12.2019
2672 Clear -1 993 74 10000 5.7 200 00:44 14.12.2019
2673 Clear -1 992 74 10000 5.1 190 00:26 14.12.2019
2674 Clear 2 992 68 10000 7.7 200 23:43 13.12.2019
2675 Clear 2 992 86 10000 6.2 200 23:22 13.12.2019
2676 Clear 2 992 86 10000 6.7 210 22:59 13.12.2019
2677 Clear 2 992 86 10000 6.7 210 22:40 13.12.2019
2678 Clear 1 991 86 10000 6.2 200 22:19 13.12.2019
2679 Clear 0 991 74 10000 6.7 200 21:55 13.12.2019
2680 Clear 0 991 74 10000 6.7 200 21:36 13.12.2019
2681 Clear 1 991 74 10000 5.7 210 21:18 13.12.2019
2682 Clear 0 991 73 10000 5.1 200 20:40 13.12.2019
2683 Clear 0 990 73 10000 4.6 200 20:21 13.12.2019
2684 Clear 0 990 73 10000 4.6 200 19:58 13.12.2019
2685 Clear 0 990 74 10000 1.5 140 19:40 13.12.2019
2686 Clear 0 990 74 10000 1.5 140 19:21 13.12.2019
2687 Clear 0 990 74 10000 2.1 180 18:58 13.12.2019
2688 Clear -2 990 74 10000 3.1 200 18:40 13.12.2019
2689 Clear -2 990 74 10000 3.1 200 18:19 13.12.2019
2690 Clear -1 989 74 10000 3.6 210 17:43 13.12.2019
2691 Clouds -1 989 74 10000 4.1 220 17:20 13.12.2019
2692 Clouds -1 989 74 10000 4.1 220 17:20 13.12.2019
2693 Clouds 0 989 74 10000 3.1 210 16:59 13.12.2019
2694 Clouds 1 989 82 10000 3.1 200 16:39 13.12.2019
2695 Clouds 1 989 82 10000 3.1 200 16:20 13.12.2019
2696 Clouds 0 988 74 10000 3.6 210 15:58 13.12.2019
2697 Clouds -1 988 74 10000 4.1 210 15:37 13.12.2019
2698 Clouds -1 988 74 10000 4.1 210 15:18 13.12.2019
2699 Clouds -1 988 79 10000 5.1 210 14:41 13.12.2019
2700 Clear -3 988 79 10000 4.1 220 14:20 13.12.2019
2701 Clear 0 987 83 10000 5.1 210 13:57 13.12.2019
2702 Clear 0 987 83 10000 5.1 210 13:38 13.12.2019
2703 Clear 0 987 83 10000 5.1 210 13:19 13.12.2019
2704 Clear 0 987 83 10000 5.7 190 12:42 13.12.2019
2705 Clear 0 987 69 10000 6.2 200 12:20 13.12.2019
2706 Clear 1 987 69 10000 7.2 200 11:57 13.12.2019
2707 Clear 1 986 64 10000 7.7 200 11:39 13.12.2019
2708 Clear 1 986 64 10000 7.7 200 11:21 13.12.2019
2709 Clear 1 986 69 10000 6.7 200 10:42 13.12.2019
2710 Clear 0 986 82 10000 5.7 200 10:23 13.12.2019
2711 Clear 0 986 82 10000 4.6 190 09:59 13.12.2019
2712 Clear 1 986 82 10000 3.1 180 09:39 13.12.2019
2713 Clear 1 986 82 10000 3.1 180 09:18 13.12.2019
2714 Clear 1 985 82 10000 5.7 180 08:41 13.12.2019
2715 Clouds 1 985 82 10000 5.7 180 08:23 13.12.2019
2716 Clear 1 985 74 10000 7.2 190 07:46 13.12.2019
2717 Clear 1 985 81 10000 6.7 190 07:21 13.12.2019
2718 Clear 0 985 81 10000 6.7 190 06:55 13.12.2019
2719 Clear 0 985 81 10000 6.2 190 06:29 13.12.2019
2720 Clear 1 985 74 10000 6.2 190 05:46 13.12.2019
2721 Clear 1 985 74 10000 7.7 190 05:27 13.12.2019
2722 Clear 1 985 69 10000 5.1 190 04:35 13.12.2019
2723 Clear 1 985 69 10000 5.7 190 03:46 13.12.2019
2724 Clear 1 985 69 10000 11.3 190 02:34 13.12.2019
2725 Clear 1 985 69 10000 13.9 190 01:47 13.12.2019
2726 Clear 1 985 69 10000 13.4 190 00:57 13.12.2019
2727 Clear 1 986 69 10000 15.9 190 00:37 13.12.2019
2728 Clear 1 986 64 10000 14.9 190 23:59 12.12.2019
2729 Clear 1 985 64 10000 12.9 190 23:40 12.12.2019
2730 Clouds 2 985 64 10000 12.9 190 23:22 12.12.2019
2731 Clouds 2 985 64 10000 11.3 190 22:56 12.12.2019
2732 Clouds 1 986 81 10000 12.9 190 22:37 12.12.2019
2733 Clouds 1 986 81 10000 12.9 190 22:19 12.12.2019
2734 Clouds 1 987 81 10000 11.3 180 21:55 12.12.2019
2735 Clouds 1 987 81 10000 11.8 190 21:37 12.12.2019
2736 Clouds 1 987 81 10000 11.8 190 21:18 12.12.2019
2737 Clouds 0 986 81 10000 10.8 190 20:56 12.12.2019
2738 Clouds 0 987 81 10000 10.3 190 20:38 12.12.2019
2739 Clear 0 987 83 10000 10.3 190 20:20 12.12.2019
2740 Clear -1 987 74 10000 9.3 180 19:43 12.12.2019
2741 Clear 0 987 83 10000 11.8 190 19:23 12.12.2019
2742 Clear 0 987 83 10000 13.9 190 18:58 12.12.2019
2743 Clear 0 987 83 10000 11.3 190 18:40 12.12.2019
2744 Clear 0 987 83 10000 11.3 190 18:21 12.12.2019
2745 Clear -1 987 74 10000 10.8 180 17:59 12.12.2019
2746 Clear 1 987 74 10000 12.3 190 17:40 12.12.2019
2747 Clear 1 987 74 10000 12.3 190 17:21 12.12.2019
2748 Clear 1 987 74 10000 10.8 180 16:59 12.12.2019
2749 Clear 1 987 74 10000 13.4 180 16:41 12.12.2019
2750 Clear 1 987 74 10000 13.4 180 16:21 12.12.2019
2751 Clear 1 988 74 10000 10.8 190 15:58 12.12.2019
2752 Clear 1 988 74 10000 15.9 190 15:40 12.12.2019
2753 Clear 1 988 74 10000 15.9 190 15:19 12.12.2019
2754 Clear 1 987 68 10000 10.8 170 14:56 12.12.2019
2755 Clear 1 987 68 10000 10.8 170 14:56 12.12.2019
2756 Clear -1 987 63 10000 10.3 160 14:36 12.12.2019
2757 Clear -1 987 63 10000 10.3 160 14:18 12.12.2019
2758 Clear -1 987 68 10000 10.3 170 13:54 12.12.2019
2759 Clear -1 988 63 10000 9.8 180 13:36 12.12.2019
2760 Clouds -1 988 63 10000 9.8 180 13:18 12.12.2019
2761 Clouds -1 988 63 10000 8.2 190 12:41 12.12.2019
2762 Clouds 1 988 63 10000 8.2 190 12:22 12.12.2019
2763 Clouds 1 988 83 10000 4.1 170 11:59 12.12.2019
2764 Clouds 1 988 83 10000 4.1 170 11:40 12.12.2019
2765 Clear 1 988 73 10000 4.1 170 11:21 12.12.2019
2766 Clear 1 988 64 10000 3.6 130 10:58 12.12.2019
2767 Clear 2 988 64 10000 7.2 200 10:40 12.12.2019
2768 Clear 2 988 64 10000 7.2 200 10:21 12.12.2019
2769 Clear 3 987 59 10000 3.1 170 09:56 12.12.2019
2770 Clear 4 987 59 10000 4.1 190 09:38 12.12.2019
2771 Clear 4 987 59 10000 4.1 190 09:19 12.12.2019
2772 Clear 4 987 55 10000 5.7 200 08:47 12.12.2019
2773 Clouds 4 987 55 10000 5.7 200 08:28 12.12.2019
2774 Clouds 4 987 64 10000 6.7 200 07:55 12.12.2019
2775 Clouds 3 987 64 10000 6.7 190 07:36 12.12.2019
2776 Clouds 3 987 64 10000 6.7 190 07:18 12.12.2019
2777 Clouds 4 986 60 10000 5.7 200 06:41 12.12.2019
2778 Clouds 4 986 60 10000 5.7 200 06:21 12.12.2019
2779 Clouds 3 986 69 10000 7.2 200 05:28 12.12.2019
2780 Clouds 3 986 64 10000 7.7 200 04:46 12.12.2019
2781 Clouds 2 984 69 10000 7.7 200 02:42 12.12.2019
2782 Clouds 3 984 69 10000 8.7 200 02:24 12.12.2019
2783 Clouds 2 983 80 10000 8.7 210 01:59 12.12.2019
2784 Clouds 2 983 80 10000 8.7 210 01:36 12.12.2019
2785 Clouds 1 983 80 10000 9.3 220 00:49 12.12.2019
2786 Clouds 1 982 80 10000 8.7 210 00:22 12.12.2019
2787 Clouds 0 982 81 10000 7.2 210 23:58 11.12.2019
2788 Rain -1 982 92 10000 6.7 210 23:37 11.12.2019
2789 Rain 0 982 92 10000 6.7 210 23:18 11.12.2019
2790 Rain 0 982 86 10000 7.7 210 22:56 11.12.2019
2791 Clouds 0 981 86 10000 7.2 200 22:38 11.12.2019
2792 Clouds 0 981 86 10000 7.2 200 22:18 11.12.2019
2793 Clouds 0 981 86 10000 7.2 200 22:18 11.12.2019
2794 Snow -1 981 92 10000 6.2 190 21:54 11.12.2019
2795 Snow -1 981 92 10000 6.2 190 21:36 11.12.2019
2796 Snow -1 981 92 10000 6.2 190 21:18 11.12.2019
2797 Snow -1 980 86 7000 7.7 190 20:55 11.12.2019
2798 Snow -2 980 86 10000 7.7 190 20:36 11.12.2019
2799 Snow -2 980 86 10000 7.7 190 20:18 11.12.2019
2800 Snow -2 980 86 8000 9.8 190 19:42 11.12.2019
2801 Snow -3 980 86 6000 11.8 190 19:23 11.12.2019
2802 Snow -3 980 86 6000 13.4 190 18:59 11.12.2019
2803 Snow -4 980 85 5000 13.4 180 18:40 11.12.2019
2804 Snow -4 980 85 5000 13.4 180 18:20 11.12.2019
2805 Snow -4 981 85 5000 12.9 180 17:56 11.12.2019
2806 Snow -2 981 79 4000 15.4 170 17:38 11.12.2019
2807 Snow -2 981 79 4000 15.4 170 17:18 11.12.2019
2808 Snow -2 982 79 9000 22.1 160 16:56 11.12.2019
2809 Snow -2 982 79 9000 21.1 160 16:37 11.12.2019
2810 Snow -2 982 79 9000 21.1 160 16:19 11.12.2019
2811 Snow -2 983 79 7000 19.5 160 15:57 11.12.2019
2812 Snow -3 984 85 5000 21.1 160 15:37 11.12.2019
2813 Snow -3 984 85 5000 21.1 160 15:19 11.12.2019
2814 Snow -3 985 79 5000 19 170 14:55 11.12.2019
2815 Snow -3 985 79 10000 19 170 14:37 11.12.2019
2816 Snow -3 985 79 10000 19 170 14:18 11.12.2019
2817 Snow -3 986 79 10000 18.5 170 13:44 11.12.2019
2818 Snow -3 986 79 10000 15.9 170 13:23 11.12.2019
2819 Clouds -2 987 73 10000 17 170 12:58 11.12.2019
2820 Clouds -2 988 73 10000 17.5 170 12:39 11.12.2019
2821 Clouds -2 988 73 10000 17.5 170 12:21 11.12.2019
2822 Rain -2 989 73 10000 17.5 170 11:58 11.12.2019
2823 Rain -2 989 73 10000 14.9 170 11:39 11.12.2019
2824 Rain -2 989 73 10000 14.9 170 11:19 11.12.2019
2825 Rain -3 990 79 10000 15.9 170 10:59 11.12.2019
2826 Clouds -3 990 79 10000 19.5 160 10:39 11.12.2019
2827 Clouds -3 990 79 10000 19.5 160 10:21 11.12.2019
2828 Clouds -4 991 85 10000 17.5 160 09:56 11.12.2019
2829 Clouds -4 992 73 10000 17.5 160 09:38 11.12.2019
2830 Clouds -4 992 73 10000 17.5 160 09:19 11.12.2019
2831 Clouds -4 993 67 10000 20.6 170 08:55 11.12.2019
2832 Clouds -5 993 72 10000 18.5 160 08:36 11.12.2019
2833 Clouds -5 993 72 10000 18.5 160 08:18 11.12.2019
2834 Clouds -5 994 67 10000 18 160 07:43 11.12.2019
2835 Clouds -7 994 67 10000 13.9 170 07:23 11.12.2019
2836 Clouds -7 995 67 10000 15.4 160 06:46 11.12.2019
2837 Clouds -6 995 67 10000 13.9 160 06:24 11.12.2019
2838 Clouds -6 996 62 10000 10.8 150 05:54 11.12.2019
2839 Clouds -7 997 67 10000 12.3 150 05:35 11.12.2019
2840 Clouds -11 999 77 0 5.11 145 04:51 11.12.2019
2841 Clouds -6 999 67 10000 4.1 160 03:26 11.12.2019
2842 Clouds -5 1000 79 10000 6.7 180 02:35 11.12.2019
2843 Clouds -5 1000 73 10000 5.7 190 01:22 11.12.2019
2844 Clouds -4 1001 73 10000 7.2 200 00:38 11.12.2019
2845 Clouds -4 1001 73 10000 7.2 200 00:19 11.12.2019
2846 Clouds -5 1001 85 10000 5.7 200 23:45 10.12.2019
2847 Snow -4 1001 92 10000 4.1 220 23:26 10.12.2019
2848 Snow -3 1001 79 10000 4.6 200 22:57 10.12.2019
2849 Snow -3 1001 85 9000 4.1 210 22:39 10.12.2019
2850 Snow -3 1001 85 9000 4.1 210 22:20 10.12.2019
2851 Clouds -5 1001 85 10000 5.7 200 21:54 10.12.2019
2852 Clouds -3 1001 79 10000 5.1 200 21:36 10.12.2019
2853 Clouds -3 1001 79 10000 5.1 200 21:18 10.12.2019
2854 Clouds -4 1001 79 10000 4.1 240 20:55 10.12.2019
2855 Clouds -3 1001 73 10000 7.2 260 20:36 10.12.2019
2856 Clouds -3 1001 73 10000 7.2 260 20:18 10.12.2019
2857 Clouds -3 1000 68 10000 4.6 300 19:44 10.12.2019
2858 Clouds -3 1000 68 10000 4.6 300 19:44 10.12.2019
2859 Clouds -3 1000 53 10000 5.7 320 19:26 10.12.2019
2860 Clouds -3 1000 53 10000 5.7 320 19:26 10.12.2019
2861 Clouds -3 1000 53 10000 5.1 310 18:59 10.12.2019
2862 Clouds -3 1000 53 10000 7.2 340 18:39 10.12.2019
2863 Clouds -3 1000 53 10000 7.2 340 18:20 10.12.2019
2864 Clouds -4 1000 53 10000 8.7 320 17:55 10.12.2019
2865 Clouds -4 1000 53 10000 7.7 330 17:37 10.12.2019
2866 Clouds -4 1000 53 10000 7.7 330 17:19 10.12.2019
2867 Clouds -4 1000 58 10000 10.3 340 16:42 10.12.2019
2868 Clouds -4 999 58 10000 10.8 340 16:20 10.12.2019
2869 Clouds -4 999 58 10000 10.8 340 16:20 10.12.2019
2870 Clouds -4 999 58 10000 11.3 340 15:55 10.12.2019
2871 Snow -4 999 63 10000 8.7 330 15:37 10.12.2019
2872 Snow -4 999 63 10000 8.7 330 15:18 10.12.2019
2873 Snow -4 999 63 10000 8.7 330 15:18 10.12.2019
2874 Snow -4 999 92 10000 8.7 320 14:55 10.12.2019
2875 Snow -4 999 85 1800 5.7 310 14:36 10.12.2019
2876 Snow -4 999 85 1800 5.7 310 14:18 10.12.2019
2877 Rain -3 998 73 10000 7.7 310 13:56 10.12.2019
2878 Rain -3 998 85 10000 9.8 320 13:37 10.12.2019
2879 Rain -3 998 85 10000 9.8 320 13:18 10.12.2019
2880 Snow -4 998 92 10000 10.8 320 12:40 10.12.2019
2881 Snow -4 998 92 10000 10.8 320 12:22 10.12.2019
2882 Rain -3 997 49 10000 11.8 330 11:42 10.12.2019
2883 Rain -3 997 49 10000 11.8 330 11:24 10.12.2019
2884 Clouds -4 997 49 10000 13.9 320 10:57 10.12.2019
2885 Clouds -3 997 49 10000 16.5 330 10:38 10.12.2019
2886 Clouds -3 997 49 10000 16.5 330 10:20 10.12.2019
2887 Snow -3 996 58 10000 17.5 320 09:56 10.12.2019
2888 Snow -3 996 58 10000 17.5 330 09:38 10.12.2019
2889 Snow -3 996 58 10000 17.5 330 09:19 10.12.2019
2890 Snow -3 996 68 10000 18.5 320 08:54 10.12.2019
2891 Snow -3 995 68 10000 19 330 08:36 10.12.2019
2892 Snow -3 995 68 10000 19 330 08:36 10.12.2019
2893 Snow -3 995 68 10000 19 330 08:18 10.12.2019
2894 Snow -3 995 68 10000 18.5 330 07:43 10.12.2019
2895 Snow -3 995 68 10000 18.5 330 07:43 10.12.2019
2896 Snow -4 995 62 10000 17 330 07:25 10.12.2019
2897 Clouds -4 994 62 6000 18 330 06:47 10.12.2019
2898 Snow -4 994 62 7000 19 330 06:21 10.12.2019
2899 Snow -4 993 73 7000 18 330 05:55 10.12.2019
2900 Snow -4 992 79 3800 18.5 330 04:55 10.12.2019
2901 Snow -4 991 85 4700 21.6 310 03:39 10.12.2019
2902 Snow -3 989 73 5000 19 320 02:46 10.12.2019
2903 Snow -3 989 79 10000 21.6 320 01:45 10.12.2019
2904 Snow -3 988 86 10000 18.5 330 01:24 10.12.2019
2905 Snow -3 987 79 10000 19.5 320 00:42 10.12.2019
2906 Snow -3 987 79 10000 18.5 320 00:22 10.12.2019
2907 Snow -4 986 92 10000 20.1 330 23:42 09.12.2019
2908 Snow -3 987 86 10000 22.1 340 23:42 09.12.2019
2909 Snow -4 986 92 10000 20.1 330 23:24 09.12.2019
2910 Snow -2 985 68 10000 18 330 22:58 09.12.2019
2911 Snow -2 985 86 6000 17.5 310 22:40 09.12.2019
2912 Snow -2 985 86 6000 17.5 310 22:20 09.12.2019
2913 Snow -3 984 68 10000 18 330 21:57 09.12.2019
2914 Snow -2 984 68 7000 19.5 320 21:39 09.12.2019
2915 Snow -2 984 68 7000 19.5 320 21:39 09.12.2019
2916 Snow -2 984 68 7000 19.5 320 21:19 09.12.2019
2917 Snow -2 984 74 10000 19 320 20:57 09.12.2019
2918 Snow -1 983 79 10000 19 330 20:39 09.12.2019
2919 Snow -1 983 79 10000 19 330 20:20 09.12.2019
2920 Rain -1 983 68 10000 20.1 330 19:56 09.12.2019
2921 Rain -1 982 74 10000 19.5 340 19:38 09.12.2019
2922 Rain -1 982 74 10000 19.5 340 19:19 09.12.2019
2923 Rain -1 982 68 8000 20.6 340 18:58 09.12.2019
2924 Snow -1 982 74 10000 20.6 350 18:39 09.12.2019
2925 Snow -1 982 74 10000 20.6 350 18:20 09.12.2019
2926 Rain -1 981 74 10000 21.1 340 17:58 09.12.2019
2927 Snow -1 980 74 10000 20.6 350 17:40 09.12.2019
2928 Snow -1 980 74 10000 20.6 350 17:21 09.12.2019
2929 Snow -1 979 86 10000 20.6 340 16:56 09.12.2019
2930 Snow -1 979 86 10000 20.6 340 16:56 09.12.2019
2931 Snow -1 978 92 1500 7.7 290 16:38 09.12.2019
2932 Snow -1 978 92 1500 7.7 290 16:20 09.12.2019
2933 Snow -2 978 100 900 12.9 250 15:56 09.12.2019
2934 Snow -3 979 86 1500 12.9 250 15:37 09.12.2019
2935 Snow -3 979 86 1500 12.9 250 15:19 09.12.2019
2936 Snow -3 978 74 10000 12.3 250 14:57 09.12.2019
2937 Rain -1 979 68 10000 11.3 240 14:39 09.12.2019
2938 Rain -1 979 68 10000 11.3 240 14:18 09.12.2019
2939 Rain -2 979 73 10000 10.8 240 13:40 09.12.2019
2940 Rain -2 979 73 10000 10.8 240 13:20 09.12.2019
2941 Rain -3 979 73 10000 8.7 220 12:58 09.12.2019
2942 Rain -3 979 73 10000 8.7 220 12:40 09.12.2019
2943 Rain -3 979 79 10000 7.2 210 12:21 09.12.2019
2944 Clouds -5 979 79 10000 7.2 210 11:59 09.12.2019
2945 Clouds -6 979 85 10000 5.7 200 11:40 09.12.2019
2946 Clouds -4 979 85 10000 5.7 200 11:21 09.12.2019
2947 Clouds -4 979 73 10000 6.2 200 10:57 09.12.2019
2948 Clouds -4 979 73 10000 5.7 200 10:38 09.12.2019
2949 Clouds -4 979 73 10000 5.7 200 10:19 09.12.2019
2950 Clouds -4 979 79 10000 5.7 200 09:43 09.12.2019
2951 Clouds -4 979 79 10000 5.7 200 09:23 09.12.2019
2952 Clouds -4 979 73 10000 5.7 190 08:57 09.12.2019
2953 Clouds -4 979 79 10000 5.1 190 08:38 09.12.2019
2954 Clouds -4 979 79 10000 5.1 190 08:20 09.12.2019
2955 Snow -4 978 79 10000 4.6 200 07:48 09.12.2019
2956 Snow -6 978 85 10000 3.6 200 07:30 09.12.2019
2957 Clouds -6 978 85 10000 3.6 210 06:55 09.12.2019
2958 Clouds -5 978 79 10000 3.1 210 06:29 09.12.2019
2959 Rain -7 978 85 10000 1 0 05:31 09.12.2019
2960 Clouds -5 978 79 10000 2.1 340 04:58 09.12.2019
2961 Clouds -5 978 79 10000 2.1 340 04:27 09.12.2019
2962 Clouds -5 978 79 10000 2.1 340 04:27 09.12.2019
2963 Snow -3 978 79 10000 3.6 320 02:28 09.12.2019
2964 Clouds -3 978 73 10000 5.1 310 01:46 09.12.2019
2965 Clouds -5 978 73 10000 5.1 280 00:57 09.12.2019
2966 Clouds -5 978 73 10000 4.6 280 00:33 09.12.2019
2967 Clouds -4 978 68 10000 5.7 290 23:55 08.12.2019
2968 Clouds -4 978 68 10000 5.7 290 23:55 08.12.2019
2969 Clouds -3 978 63 10000 6.2 290 23:37 08.12.2019
2970 Clouds -3 978 63 10000 6.2 290 23:18 08.12.2019
2971 Clouds -3 979 63 10000 6.7 310 22:56 08.12.2019
2972 Clouds -3 979 58 10000 7.2 300 22:38 08.12.2019
2973 Clouds -3 979 58 10000 7.2 300 22:38 08.12.2019
2974 Clouds -3 979 58 10000 7.2 300 22:18 08.12.2019
2975 Clouds -4 979 63 10000 8.2 300 21:55 08.12.2019
2976 Clouds -3 979 54 10000 8.2 320 21:37 08.12.2019
2977 Clouds -3 979 54 10000 8.2 320 21:19 08.12.2019
2978 Clouds -2 979 63 10000 9.3 310 20:55 08.12.2019
2979 Clouds -2 979 58 10000 8.7 310 20:37 08.12.2019
2980 Clouds -2 979 58 10000 8.7 310 20:18 08.12.2019
2981 Clouds -2 979 58 10000 7.2 310 19:55 08.12.2019
2982 Clouds -3 979 63 10000 6.7 320 19:36 08.12.2019
2983 Clouds -3 979 63 10000 6.7 320 19:18 08.12.2019
2984 Clouds -2 979 58 10000 8.2 320 18:54 08.12.2019
2985 Clouds -2 979 63 10000 8.2 320 18:36 08.12.2019
2986 Clouds -2 979 63 10000 8.2 320 18:18 08.12.2019
2987 Clouds -2 979 58 10000 8.2 340 17:54 08.12.2019
2988 Clouds -1 979 58 10000 8.7 350 17:36 08.12.2019
2989 Clouds -1 979 58 10000 8.7 350 17:18 08.12.2019
2990 Clouds -1 979 63 10000 8.2 350 16:42 08.12.2019
2991 Clouds -1 979 63 10000 9.3 360 16:24 08.12.2019
2992 Clouds -1 979 63 10000 9.3 350 15:59 08.12.2019
2993 Clouds -1 979 63 10000 11.8 350 15:37 08.12.2019
2994 Clouds -1 979 63 10000 11.8 350 15:18 08.12.2019
2995 Clouds -1 979 58 10000 10.8 360 14:57 08.12.2019
2996 Clouds -1 979 58 10000 10.8 360 14:57 08.12.2019
2997 Clouds -2 979 63 10000 11.8 360 14:37 08.12.2019
2998 Clouds -2 979 63 10000 11.8 360 14:19 08.12.2019
2999 Clouds -2 979 63 10000 11.8 360 14:19 08.12.2019
3000 Clouds -1 979 58 10000 14.9 350 13:41 08.12.2019
3001 Clouds -1 979 58 10000 14.9 350 13:41 08.12.2019
3002 Clouds -1 979 54 10000 13.9 360 13:22 08.12.2019
3003 Clouds -1 979 58 10000 13.4 360 12:59 08.12.2019
3004 Clouds -1 979 58 10000 13.4 360 12:41 08.12.2019
3005 Clouds -1 979 63 10000 14.4 360 12:22 08.12.2019
3006 Clouds -1 979 63 10000 10.3 10 11:59 08.12.2019
3007 Snow -1 979 58 10000 12.3 360 11:38 08.12.2019
3008 Snow -1 979 58 10000 12.3 360 11:19 08.12.2019
3009 Snow -1 979 68 10000 12.3 360 10:57 08.12.2019
3010 Snow -1 979 63 10000 11.8 360 10:38 08.12.2019
3011 Snow -1 979 63 10000 11.8 360 10:19 08.12.2019
3012 Snow -1 979 63 10000 12.9 360 09:55 08.12.2019
3013 Snow -1 979 68 10000 12.9 360 09:37 08.12.2019
3014 Snow -1 979 68 10000 12.9 360 09:18 08.12.2019
3015 Snow -1 979 74 10000 7.2 10 08:43 08.12.2019
3016 Snow -2 979 63 10000 10.3 20 08:43 08.12.2019
3017 Snow -2 979 63 10000 10.3 20 08:23 08.12.2019
3018 Snow -1 979 58 10000 10.3 10 07:58 08.12.2019
3019 Snow -1 979 63 10000 9.3 20 07:40 08.12.2019
3020 Snow -1 979 63 10000 9.3 20 07:19 08.12.2019
3021 Snow -2 979 86 10000 9.8 20 06:41 08.12.2019
3022 Snow -2 979 86 10000 9.8 20 06:21 08.12.2019
3023 Snow -1 979 86 1800 3.6 360 05:27 08.12.2019
3024 Snow -1 979 86 10000 7.7 50 04:54 08.12.2019
3025 Snow -2 979 92 5000 11.3 30 03:41 08.12.2019
3026 Snow -4 980 92 10000 4.6 340 02:52 08.12.2019
3027 Snow -4 980 85 5000 4.1 10 02:27 08.12.2019
3028 Clouds -4 980 85 10000 2.6 30 01:48 08.12.2019
3029 Clouds -3 980 79 10000 2.6 90 00:56 08.12.2019
3030 Clouds -3 980 86 10000 4.6 100 00:37 08.12.2019
3031 Clouds -3 980 86 10000 4.6 100 00:18 08.12.2019
3032 Clouds -3 980 86 10000 6.7 90 23:39 07.12.2019
3033 Snow -3 980 86 10000 6.7 90 23:20 07.12.2019
3034 Snow -3 980 79 10000 7.2 90 22:56 07.12.2019
3035 Snow -3 980 79 10000 8.2 100 22:37 07.12.2019
3036 Snow -3 980 79 10000 8.2 100 22:19 07.12.2019
3037 Snow -3 980 79 10000 8.2 100 21:56 07.12.2019
3038 Snow -3 980 79 10000 8.7 100 21:37 07.12.2019
3039 Snow -3 980 79 10000 8.7 100 21:19 07.12.2019
3040 Snow -3 980 79 10000 8.7 100 20:54 07.12.2019
3041 Clouds -3 980 79 10000 10.3 100 20:36 07.12.2019
3042 Clouds -3 980 79 10000 10.3 100 20:18 07.12.2019
3043 Clouds -3 980 79 10000 9.3 100 19:54 07.12.2019
3044 Clouds -3 980 79 10000 9.3 100 19:36 07.12.2019
3045 Clouds -3 980 79 10000 9.3 100 19:18 07.12.2019
3046 Snow -3 980 79 10000 9.3 110 18:42 07.12.2019
3047 Clouds -4 980 85 10000 7.2 110 18:18 07.12.2019
3048 Clouds -4 980 85 10000 7.2 110 17:56 07.12.2019
3049 Snow -4 980 85 10000 8.2 110 17:37 07.12.2019
3050 Snow -4 980 85 10000 8.2 110 17:19 07.12.2019
3051 Clouds -4 980 85 10000 6.2 110 16:56 07.12.2019
3052 Clouds -4 980 85 10000 5.7 120 16:37 07.12.2019
3053 Clouds -4 980 85 10000 5.7 120 16:18 07.12.2019
3054 Clouds -4 980 85 10000 4.6 110 15:41 07.12.2019
3055 Clouds -4 980 85 10000 5.7 120 15:23 07.12.2019
3056 Snow -4 980 85 10000 6.7 120 14:57 07.12.2019
3057 Snow -4 980 85 10000 8.2 110 14:38 07.12.2019
3058 Snow -4 980 85 10000 8.2 110 14:18 07.12.2019
3059 Clouds -4 980 85 10000 9.8 110 13:41 07.12.2019
3060 Clouds -4 980 85 10000 9.8 110 13:21 07.12.2019
3061 Clouds -4 980 79 10000 9.8 110 12:56 07.12.2019
3062 Clouds -4 981 79 10000 10.3 110 12:38 07.12.2019
3063 Clouds -4 981 79 10000 10.3 110 12:20 07.12.2019
3064 Clouds -5 981 79 10000 8.2 110 11:56 07.12.2019
3065 Clouds -5 981 79 10000 7.2 110 11:37 07.12.2019
3066 Clouds -5 981 79 10000 7.2 110 11:19 07.12.2019
3067 Clouds -4 981 73 10000 8.7 130 10:37 07.12.2019
3068 Clouds -4 981 73 10000 8.7 130 10:19 07.12.2019
3069 Clouds -4 981 73 10000 10.3 140 09:41 07.12.2019
3070 Clouds -4 981 79 10000 9.8 130 09:22 07.12.2019
3071 Clouds -4 981 79 10000 10.8 140 08:47 07.12.2019
3072 Clouds -4 981 79 10000 12.3 140 08:26 07.12.2019
3073 Clouds -4 980 79 10000 8.7 120 07:58 07.12.2019
3074 Clouds -4 980 79 10000 10.3 100 07:39 07.12.2019
3075 Clouds -4 980 79 10000 10.3 100 07:21 07.12.2019
3076 Clouds -4 980 79 10000 10.3 100 07:21 07.12.2019
3077 Clouds -3 980 79 10000 11.8 100 06:45 07.12.2019
3078 Clouds -3 980 79 10000 11.8 100 06:24 07.12.2019
3079 Clouds -2 980 74 10000 12.3 100 04:52 07.12.2019
3080 Clouds -2 980 74 10000 14.9 110 03:54 07.12.2019
3081 Clouds -2 980 74 10000 14.9 110 02:56 07.12.2019
3082 Clouds -2 980 74 10000 14.9 110 02:21 07.12.2019
3083 Clouds -2 980 74 10000 15.4 110 01:34 07.12.2019
3084 Clouds -2 980 74 10000 15.9 110 00:52 07.12.2019
3085 Clouds -2 980 74 10000 14.4 110 00:19 07.12.2019
3086 Clouds 1 980 68 10000 13.9 110 23:49 06.12.2019
3087 Clouds 0 980 74 10000 14.4 110 23:25 06.12.2019
3088 Clouds 0 980 74 10000 14.4 110 22:59 06.12.2019
3089 Clouds 0 980 74 10000 14.9 110 22:37 06.12.2019
3090 Clouds 0 980 74 10000 14.9 110 22:19 06.12.2019
3091 Clouds 0 980 74 10000 14.4 110 21:57 06.12.2019
3092 Clouds 0 980 74 10000 12.3 110 21:38 06.12.2019
3093 Clouds 0 980 74 10000 12.3 110 21:19 06.12.2019
3094 Clouds 0 979 74 10000 12.9 120 20:42 06.12.2019
3095 Clouds 0 979 74 10000 12.9 120 20:42 06.12.2019
3096 Clouds 0 979 80 10000 12.9 110 20:23 06.12.2019
3097 Clouds 0 979 74 10000 12.3 110 19:59 06.12.2019
3098 Snow -1 979 80 10000 14.4 110 19:40 06.12.2019
3099 Snow 1 979 80 10000 14.4 110 19:21 06.12.2019
3100 Clouds 1 979 80 10000 15.9 110 18:55 06.12.2019
3101 Clouds 1 978 80 10000 13.9 110 18:37 06.12.2019
3102 Clouds 1 978 80 10000 13.9 110 18:19 06.12.2019
3103 Clouds 1 978 86 10000 14.4 100 17:55 06.12.2019
3104 Clouds 1 978 86 10000 13.9 100 17:37 06.12.2019
3105 Clouds 1 978 86 10000 13.9 100 17:19 06.12.2019
3106 Clouds 1 977 86 10000 13.9 100 16:42 06.12.2019
3107 Snow 1 977 92 10000 13.4 100 16:24 06.12.2019
3108 Snow 1 977 92 10000 13.4 100 15:57 06.12.2019
3109 Snow 0 977 92 10000 12.3 100 15:39 06.12.2019
3110 Snow 0 977 92 10000 12.3 100 15:18 06.12.2019
3111 Snow 0 977 95 10000 11.8 100 14:56 06.12.2019
3112 Snow 0 977 95 10000 10.8 100 14:37 06.12.2019
3113 Snow 0 977 95 10000 10.8 100 14:18 06.12.2019
3114 Snow 0 976 95 10000 9.8 100 13:42 06.12.2019
3115 Clouds 0 976 97 10000 9.8 100 13:24 06.12.2019
3116 Rain 0 976 97 10000 7.2 110 12:42 06.12.2019
3117 Rain 0 976 97 10000 7.2 110 12:22 06.12.2019
3118 Clouds 0 975 97 10000 7.7 110 11:57 06.12.2019
3119 Clouds 1 975 97 10000 7.7 100 11:39 06.12.2019
3120 Clouds 1 975 97 10000 7.7 100 11:19 06.12.2019
3121 Rain 1 975 97 10000 7.2 110 10:43 06.12.2019
3122 Rain 0 974 97 10000 8.7 90 10:21 06.12.2019
3123 Snow 0 974 97 6000 7.2 90 09:57 06.12.2019
3124 Snow 0 974 97 3000 4.6 90 09:37 06.12.2019
3125 Snow 0 974 97 3000 4.6 90 09:37 06.12.2019
3126 Snow 0 974 97 3000 4.6 90 09:37 06.12.2019
3127 Snow 0 974 97 3000 4.6 90 09:19 06.12.2019
3128 Snow 0 973 97 5000 2.1 260 08:45 06.12.2019
3129 Snow 1 973 97 4000 2.6 290 08:26 06.12.2019
3130 Clouds 0 973 92 10000 2.6 260 07:44 06.12.2019
3131 Clouds -2 972 86 10000 2.6 250 07:24 06.12.2019
3132 Clouds -3 972 86 10000 1.5 90 06:59 06.12.2019
3133 Snow -2 972 79 10000 1 0 06:28 06.12.2019
3134 Snow -3 971 79 10000 1 40 05:53 06.12.2019
3135 Clouds -3 971 79 10000 1 40 05:21 06.12.2019
3136 Clouds 0 970 83 10000 3.1 100 02:19 06.12.2019
3137 Clouds -1 970 86 10000 2.6 100 01:29 06.12.2019
3138 Clouds 0 970 81 10000 4.1 110 00:40 06.12.2019
3139 Clouds 1 970 86 10000 3.6 100 00:20 06.12.2019
3140 Clouds -1 969 86 10000 5.1 90 23:41 05.12.2019
3141 Clear 2 969 79 10000 4.6 90 23:18 05.12.2019
3142 Clear 2 970 80 10000 5.1 90 22:56 05.12.2019
3143 Clear 2 969 80 10000 5.7 90 22:37 05.12.2019
3144 Clear 2 969 80 10000 5.7 90 22:18 05.12.2019
3145 Clear 2 969 80 10000 5.7 90 22:18 05.12.2019
3146 Clear 2 969 79 10000 5.7 90 21:43 05.12.2019
3147 Clear 2 969 86 10000 4.6 90 21:25 05.12.2019
3148 Clear 2 969 86 10000 4.6 100 20:59 05.12.2019
3149 Clear 2 969 86 10000 4.6 100 20:40 05.12.2019
3150 Clouds 2 969 85 10000 4.6 100 20:20 05.12.2019
3151 Clouds 2 969 80 10000 4.6 100 20:20 05.12.2019
3152 Clouds 2 969 85 10000 4.6 100 20:20 05.12.2019
3153 Clouds 2 969 85 10000 4.6 100 20:20 05.12.2019
3154 Clouds 0 969 85 10000 4.6 90 19:57 05.12.2019
3155 Clouds 0 969 85 10000 4.6 90 19:57 05.12.2019
3156 Clouds 0 969 85 10000 4.6 90 19:39 05.12.2019
3157 Clouds -1 969 92 10000 4.1 80 19:20 05.12.2019
3158 Clouds 1 969 85 10000 4.6 70 18:57 05.12.2019
3159 Clouds 1 969 85 10000 4.6 70 18:37 05.12.2019
3160 Clouds 3 969 86 10000 3.6 70 18:19 05.12.2019
3161 Clouds 3 969 86 10000 3.6 70 18:19 05.12.2019
3162 Clouds 2 970 86 10000 2.1 80 17:39 05.12.2019
3163 Clouds 2 970 86 10000 1.5 0 17:20 05.12.2019
3164 Clouds 1 970 92 10000 1.5 180 16:57 05.12.2019
3165 Clouds 2 970 92 10000 1.5 180 16:39 05.12.2019
3166 Clouds 2 970 86 10000 1.5 190 16:21 05.12.2019
3167 Clouds 2 970 86 10000 1 0 15:57 05.12.2019
3168 Clouds 2 970 86 10000 1 0 15:38 05.12.2019
3169 Clouds 3 970 92 10000 1 220 15:20 05.12.2019
3170 Clouds 3 970 86 10000 3.7 175 14:55 05.12.2019
3171 Clouds 3 970 86 10000 3.7 175 14:37 05.12.2019
3172 Clouds 3 971 86 10000 0.5 0 14:19 05.12.2019
3173 Clouds 2 971 91 10000 2.6 270 13:56 05.12.2019
3174 Clouds 3 971 91 10000 2.6 270 13:38 05.12.2019
3175 Clouds 3 971 86 10000 4.6 270 13:19 05.12.2019
3176 Clouds 3 971 93 10000 4.1 260 12:56 05.12.2019
3177 -273 0 0 0 0 0 12:38 05.12.2019
3178 Clouds 4 971 86 10000 4.6 260 12:19 05.12.2019
3179 Clouds 4 971 94 10000 5.1 260 11:39 05.12.2019
3180 Rain 4 971 96 10000 6.2 280 11:20 05.12.2019
3181 Rain 4 971 93 10000 8.2 260 10:58 05.12.2019
3182 Rain 4 971 93 10000 8.2 260 10:40 05.12.2019
3183 Rain 5 972 86 10000 11.8 280 10:19 05.12.2019
3184 Rain 5 971 80 10000 5.7 210 09:55 05.12.2019
3185 Rain 5 971 80 10000 5.7 210 09:36 05.12.2019
3186 Clouds 5 971 80 10000 5.7 200 09:18 05.12.2019
3187 Clouds 4 972 86 10000 4.1 170 08:39 05.12.2019
3188 Clouds 4 972 80 10000 5.7 170 08:20 05.12.2019
3189 Rain 5 972 80 10000 6.7 180 07:57 05.12.2019
3190 Rain 5 972 80 10000 6.7 180 07:38 05.12.2019
3191 Drizzle 3 972 86 10000 11.8 150 07:20 05.12.2019
3192 Rain 3 973 86 10000 14.9 150 06:45 05.12.2019
3193 Rain 4 973 80 10000 12.9 140 06:23 05.12.2019
3194 Rain 4 974 80 10000 11.3 150 05:48 05.12.2019
3195 Clouds 4 974 80 10000 8.7 120 05:24 05.12.2019
3196 Clouds 4 975 80 10000 7.2 130 04:27 05.12.2019
3197 Clouds 4 975 80 10000 7.2 130 04:27 05.12.2019
3198 Clouds 2 976 83 10000 1.5 170 03:31 05.12.2019
3199 Clouds 3 977 86 10000 4.6 250 02:40 05.12.2019
3200 Clouds 3 977 86 10000 4.6 250 02:21 05.12.2019
3201 Clouds 5 978 80 10000 8.7 270 01:49 05.12.2019
3202 Clouds 5 978 80 10000 8.7 270 01:21 05.12.2019
3203 Clouds 5 979 80 10000 8.7 260 00:38 05.12.2019
3204 Clouds 5 979 75 10000 11.8 270 00:19 05.12.2019
3205 Clouds 6 979 80 10000 15.4 270 23:45 04.12.2019
3206 Clouds 6 979 80 10000 13.4 260 23:22 04.12.2019
3207 Rain 5 979 93 10000 17.5 250 22:57 04.12.2019
3208 Rain 5 979 93 10000 17.5 250 22:37 04.12.2019
3209 Clouds 6 979 86 10000 12.3 270 22:19 04.12.2019
3210 Rain 6 979 86 10000 10.8 240 21:56 04.12.2019
3211 Rain 6 979 86 10000 10.8 240 21:37 04.12.2019
3212 Rain 5 978 86 10000 9.3 200 21:18 04.12.2019
3213 Rain 4 978 86 10000 9.8 200 20:56 04.12.2019
3214 Rain 4 978 86 10000 9.8 200 20:38 04.12.2019
3215 Rain 4 978 86 10000 10.3 200 20:19 04.12.2019
3216 Rain 4 978 86 10000 9.3 200 19:42 04.12.2019
3217 Rain 4 979 86 10000 10.8 200 19:24 04.12.2019
3218 Rain 4 979 86 10000 10.8 200 18:59 04.12.2019
3219 Rain 4 979 86 10000 9.3 200 18:41 04.12.2019
3220 Rain 4 979 86 10000 10.3 200 18:22 04.12.2019
3221 Rain 3 979 86 10000 8.2 200 17:58 04.12.2019
3222 Rain 3 979 86 10000 8.2 200 17:39 04.12.2019
3223 Rain 3 980 93 10000 7.7 210 17:19 04.12.2019
3224 Rain 3 980 93 10000 8.2 210 16:56 04.12.2019
3225 Rain 3 980 93 10000 8.2 210 16:38 04.12.2019
3226 Rain 3 980 93 10000 8.2 210 16:38 04.12.2019
3227 Rain 3 980 93 10000 8.7 220 16:19 04.12.2019
3228 Rain 3 980 93 10000 8.7 220 16:19 04.12.2019
3229 Rain 3 980 93 10000 8.2 230 15:55 04.12.2019
3230 Rain 3 980 93 10000 8.2 230 15:36 04.12.2019
3231 Rain 3 980 93 10000 8.2 220 15:18 04.12.2019
3232 Rain 4 980 100 10000 8.2 220 14:42 04.12.2019
3233 Rain 4 980 93 10000 9.3 220 14:23 04.12.2019
3234 Rain 3 980 93 10000 8.7 220 13:57 04.12.2019
3235 Rain 3 980 93 10000 8.7 220 13:37 04.12.2019
3236 Clouds 3 980 92 9000 11.8 210 13:19 04.12.2019
3237 Snow 3 981 92 7000 4.1 230 12:44 04.12.2019
3238 Snow 2 981 92 3300 4.6 230 12:24 04.12.2019
3239 Snow 1 981 92 3000 5.1 220 11:55 04.12.2019
3240 Snow 1 981 92 3000 5.1 220 11:36 04.12.2019
3241 Snow 1 980 100 3300 2.6 220 11:18 04.12.2019
3242 Snow 1 981 100 2200 3.1 170 10:42 04.12.2019
3243 Snow 0 980 100 2000 4.1 190 10:22 04.12.2019
3244 Snow 1 980 100 2000 4.6 190 09:55 04.12.2019
3245 Snow 1 980 100 2000 4.6 190 09:36 04.12.2019
3246 Snow 0 980 92 2000 3.6 190 09:18 04.12.2019
3247 Snow 0 980 92 2000 3.6 190 09:18 04.12.2019
3248 Snow 0 980 92 1800 3.6 190 08:39 04.12.2019
3249 Snow 0 980 100 1800 4.6 190 08:19 04.12.2019
3250 Snow 0 980 100 1800 3.6 170 07:47 04.12.2019
3251 Snow 0 980 100 1800 3.6 170 07:47 04.12.2019
3252 Snow 0 980 100 1800 3.6 170 07:29 04.12.2019
3253 Snow -2 980 92 5000 5.1 170 06:34 04.12.2019
3254 Snow -2 981 86 4000 6.7 170 05:48 04.12.2019
3255 Snow -1 982 80 10000 9.8 160 04:58 04.12.2019
3256 Snow -5 984 91 0 5.28 156 03:56 04.12.2019
3257 Snow -1 983 80 8000 4.6 180 02:38 04.12.2019
3258 Clouds -1 983 80 10000 4.1 180 00:51 04.12.2019
3259 Clouds -1 983 74 10000 3.6 150 00:25 04.12.2019
3260 Snow -2 984 79 10000 4.1 160 23:58 03.12.2019
3261 Snow 0 984 79 10000 4.1 160 23:40 03.12.2019
3262 Snow 0 984 74 10000 5.1 160 23:19 03.12.2019
3263 Clouds 0 985 74 10000 3.6 140 22:40 03.12.2019
3264 Clouds 1 985 74 10000 4.1 160 22:19 03.12.2019
3265 Clouds 1 985 74 10000 4.1 160 21:58 03.12.2019
3266 Clouds 1 985 74 10000 4.6 160 21:38 03.12.2019
3267 Clouds 1 985 74 10000 4.6 170 21:19 03.12.2019
3268 Clouds 0 986 74 10000 4.1 140 20:58 03.12.2019
3269 Clouds 0 986 74 10000 4.1 140 20:39 03.12.2019
3270 Clouds 0 986 74 10000 5.1 160 20:18 03.12.2019
3271 Clouds 0 986 74 10000 5.7 150 19:55 03.12.2019
3272 Clouds 0 986 74 10000 5.7 150 19:37 03.12.2019
3273 Clouds 0 986 74 10000 5.1 140 19:18 03.12.2019
3274 Clouds 0 986 68 10000 5.1 150 18:56 03.12.2019
3275 Clouds 0 986 68 10000 5.1 150 18:37 03.12.2019
3276 Clouds 1 987 68 10000 5.1 160 18:19 03.12.2019
3277 Clouds 1 987 68 10000 5.1 160 18:19 03.12.2019
3278 Clouds 0 987 68 10000 5.7 170 17:55 03.12.2019
3279 Clouds 0 987 68 10000 5.7 170 17:36 03.12.2019
3280 Clouds 0 987 79 10000 7.7 160 17:18 03.12.2019
3281 Clouds 0 988 68 10000 6.7 170 16:56 03.12.2019
3282 Clouds 0 988 68 10000 6.7 170 16:36 03.12.2019
3283 Clouds 1 989 68 10000 5.7 160 16:18 03.12.2019
3284 Clouds 0 989 74 10000 4.6 170 15:40 03.12.2019
3285 Clouds 0 989 74 10000 3.6 180 15:20 03.12.2019
3286 Clouds 0 989 74 10000 3.6 180 14:59 03.12.2019
3287 Clouds 0 990 74 10000 4.1 170 14:41 03.12.2019
3288 Clouds 0 990 86 10000 3.6 170 14:19 03.12.2019
3289 Clouds 0 990 86 10000 3.6 170 13:39 03.12.2019
3290 Rain 0 991 86 10000 3.6 160 13:21 03.12.2019
3291 Rain 0 991 86 10000 3.6 160 12:59 03.12.2019
3292 Rain 0 991 86 10000 3.6 160 12:59 03.12.2019
3293 Rain -1 991 92 10000 3.1 180 12:38 03.12.2019
3294 Snow -1 991 92 10000 3.1 170 12:18 03.12.2019
3295 Snow -1 992 92 6000 3.1 180 11:58 03.12.2019
3296 Snow -1 992 92 6000 3.1 180 11:38 03.12.2019
3297 Snow -1 992 92 4000 3.1 200 11:20 03.12.2019
3298 Snow -1 992 100 3500 2.1 200 10:57 03.12.2019
3299 Snow -1 992 100 3500 2.1 200 10:38 03.12.2019
3300 Snow -1 992 100 3500 2.1 200 10:38 03.12.2019
3301 Snow -1 992 92 10000 2.6 240 10:19 03.12.2019
3302 Snow -1 993 92 10000 2.6 270 09:45 03.12.2019
3303 Snow -1 993 92 8000 3.6 310 09:25 03.12.2019
3304 Snow -1 993 92 8000 3.6 310 08:59 03.12.2019
3305 Snow -1 993 92 3500 5.1 290 08:39 03.12.2019
3306 Snow -1 993 92 2300 4.1 310 08:21 03.12.2019
3307 Snow 0 993 92 9000 5.7 310 07:53 03.12.2019
3308 Snow 0 993 92 9000 5.7 310 07:29 03.12.2019
3309 Clouds -1 993 86 10000 7.2 300 06:58 03.12.2019
3310 Snow -1 994 80 9000 8.2 320 06:21 03.12.2019
3311 Clouds 0 994 92 10000 10.8 330 05:56 03.12.2019
3312 Clouds 0 995 80 10000 13.4 330 03:45 03.12.2019
3313 Clouds 0 995 80 10000 13.4 330 03:23 03.12.2019
3314 Clouds 0 995 80 10000 13.4 330 02:58 03.12.2019
3315 Clouds 0 995 80 10000 14.9 320 02:40 03.12.2019
3316 Clouds 0 995 79 10000 14.9 320 02:21 03.12.2019
3317 Clouds -1 995 63 10000 17.5 320 01:41 03.12.2019
3318 Clouds -1 995 63 10000 17.5 320 01:21 03.12.2019
3319 Clouds -1 995 63 10000 19 320 00:43 03.12.2019
3320 Clouds -1 994 58 10000 18 320 00:25 03.12.2019
3321 Snow 0 994 68 10000 20.6 320 23:44 02.12.2019
3322 Snow 0 994 74 9000 20.6 320 23:23 02.12.2019
3323 Snow 0 994 74 9000 20.6 320 22:59 02.12.2019
3324 Snow 0 994 74 9000 17.5 320 22:39 02.12.2019
3325 Snow -1 993 80 9000 19 320 22:21 02.12.2019
3326 Snow 0 993 86 7000 17.5 320 21:57 02.12.2019
3327 Snow 0 993 86 7000 17.5 320 21:36 02.12.2019
3328 Clouds 0 993 86 8000 18 320 21:18 02.12.2019
3329 Snow 0 992 92 1000 10.3 340 20:55 02.12.2019
3330 Snow 0 992 92 1000 10.3 340 20:55 02.12.2019
3331 Snow 0 992 92 1000 10.3 340 20:55 02.12.2019
3332 Snow 0 992 92 1000 10.3 340 20:37 02.12.2019
3333 Snow -1 992 92 1000 10.3 340 20:18 02.12.2019
3334 Snow -1 992 92 2000 10.8 330 19:42 02.12.2019
3335 Snow -1 991 92 1800 13.9 350 19:21 02.12.2019
3336 Snow 1 991 55 10000 13.4 350 18:57 02.12.2019
3337 Snow 1 991 55 10000 13.4 350 18:57 02.12.2019
3338 Snow 0 991 55 10000 13.4 350 18:38 02.12.2019
3339 Clouds 0 990 55 10000 12.9 350 18:18 02.12.2019
3340 Clouds 0 990 55 10000 13.9 350 17:57 02.12.2019
3341 Clouds 0 990 55 10000 13.9 350 17:38 02.12.2019
3342 Rain 0 990 85 10000 13.4 360 17:19 02.12.2019
3343 Clouds 0 990 55 10000 17 350 16:40 02.12.2019
3344 Clouds 0 990 55 10000 16.5 350 16:19 02.12.2019
3345 Clouds 0 990 55 10000 16.5 350 16:19 02.12.2019
3346 Clouds 0 990 55 10000 16.5 350 15:58 02.12.2019
3347 Rain 0 989 55 10000 16.5 350 15:39 02.12.2019
3348 Rain 0 989 50 10000 17 340 15:21 02.12.2019
3349 Rain 0 989 50 10000 17 340 14:59 02.12.2019
3350 Rain 1 988 85 10000 18 340 14:38 02.12.2019
3351 Clouds 1 988 64 10000 18.5 350 14:20 02.12.2019
3352 Rain 1 987 64 10000 17 350 13:57 02.12.2019
3353 Rain 1 987 64 10000 17 350 13:39 02.12.2019
3354 Rain 1 987 64 10000 18 350 13:19 02.12.2019
3355 Rain 1 986 64 10000 18 350 12:55 02.12.2019
3356 Rain 1 986 64 10000 18 350 12:37 02.12.2019
3357 Rain 1 986 64 10000 15.4 350 12:18 02.12.2019
3358 Rain 0 985 68 10000 17.5 350 11:38 02.12.2019
3359 Rain 0 984 80 10000 14.4 350 11:20 02.12.2019
3360 Clouds 0 984 74 1500 14.9 360 10:58 02.12.2019
3361 Clouds 0 984 74 1500 14.9 360 10:40 02.12.2019
3362 Rain 1 983 86 10000 11.3 360 10:21 02.12.2019
3363 Rain 0 982 74 10000 10.8 360 09:56 02.12.2019
3364 Rain 0 982 74 10000 10.8 360 09:38 02.12.2019
3365 Clouds 1 981 80 10000 6.7 20 09:18 02.12.2019
3366 Clouds 1 981 80 10000 6.7 20 09:18 02.12.2019
3367 Clouds 1 980 86 10000 6.7 30 08:55 02.12.2019
3368 Clouds 1 980 86 10000 6.7 30 08:37 02.12.2019
3369 Snow 1 979 96 8000 7.7 20 08:18 02.12.2019
3370 Clouds 1 978 96 9000 10.3 0 07:39 02.12.2019
3371 Clouds 1 978 86 7000 8.2 0 07:20 02.12.2019
3372 Snow 1 978 86 2000 12.9 360 06:43 02.12.2019
3373 Clouds 1 978 86 10000 10.8 350 06:20 02.12.2019
3374 Snow 0 977 97 2500 20.1 350 05:19 02.12.2019
3375 Snow 0 977 97 2500 20.1 350 05:19 02.12.2019
3376 Snow 0 976 97 2000 21.1 340 04:19 02.12.2019
3377 Snow 0 977 97 5000 22.1 300 02:51 02.12.2019
3378 Snow 0 977 97 5000 22.1 300 02:51 02.12.2019
3379 Clouds 0 979 97 10000 15.4 290 01:50 02.12.2019
3380 Clouds 0 979 90 10000 15.4 290 01:21 02.12.2019
3381 Snow 0 979 90 1500 13.4 290 00:44 02.12.2019
3382 Clouds 1 980 64 10000 12.9 300 00:23 02.12.2019
3383 Clouds 0 980 90 10000 9.8 290 23:44 01.12.2019
3384 Clouds -1 980 63 10000 8.2 300 23:23 01.12.2019
3385 Clouds -1 980 63 10000 8.2 300 23:23 01.12.2019
3386 Clouds 0 981 63 10000 9.3 330 22:58 01.12.2019
3387 Clouds 0 981 63 10000 9.3 330 22:38 01.12.2019
3388 Clouds 0 981 63 10000 6.2 350 22:20 01.12.2019
3389 Clouds 0 981 63 10000 6.2 350 22:20 01.12.2019
3390 Clouds -1 981 63 10000 9.3 10 21:58 01.12.2019
3391 Clouds -1 981 63 10000 9.3 10 21:40 01.12.2019
3392 Clouds -1 981 68 10000 9.3 10 21:22 01.12.2019
3393 Clouds -1 981 68 10000 9.3 10 20:59 01.12.2019
3394 Rain -2 980 73 10000 10.3 30 20:41 01.12.2019
3395 Rain -3 979 73 10000 11.3 30 20:22 01.12.2019
3396 Rain -3 979 73 10000 11.3 30 19:59 01.12.2019
3397 Snow -4 979 73 10000 12.9 20 19:40 01.12.2019
3398 Clouds -3 978 73 10000 11.8 20 19:21 01.12.2019
3399 Clouds -3 978 73 10000 11.8 20 19:21 01.12.2019
3400 Clouds -3 978 79 10000 11.3 20 18:57 01.12.2019
3401 Clouds -3 978 79 10000 11.3 20 18:39 01.12.2019
3402 Clouds -1 977 86 10000 11.8 20 18:19 01.12.2019
3403 Clouds -1 977 86 10000 11.8 20 17:59 01.12.2019
3404 Snow -1 977 86 10000 11.8 20 17:41 01.12.2019
3405 Rain -1 975 92 10000 12.9 10 17:23 01.12.2019
3406 Rain -1 975 92 10000 12.9 10 17:23 01.12.2019
3407 Clouds -1 975 92 10000 9.8 40 16:56 01.12.2019
3408 Clouds -1 975 92 10000 9.8 40 16:38 01.12.2019
3409 Clouds -1 973 86 10000 13.4 40 16:20 01.12.2019
3410 Clouds 0 972 92 10000 12.3 30 15:46 01.12.2019
3411 Rain 0 971 86 4500 9.8 360 15:28 01.12.2019
3412 Snow 0 971 96 10000 5.1 300 14:43 01.12.2019
3413 Snow 0 970 98 7000 12.3 260 14:20 01.12.2019
3414 Snow 0 970 98 7000 12.3 260 13:59 01.12.2019
3415 Snow 0 970 98 2700 14.4 260 13:39 01.12.2019
3416 Snow 0 970 96 2800 18.5 280 13:19 01.12.2019
3417 Snow 0 970 96 2600 19 290 12:44 01.12.2019
3418 Snow 0 970 96 2500 23.1 290 11:58 01.12.2019
3419 Snow 0 970 96 2500 23.1 290 11:39 01.12.2019
3420 Drizzle 1 969 86 10000 19.5 290 11:21 01.12.2019
3421 Snow 0 969 78 5000 12.3 280 10:43 01.12.2019
3422 Snow 1 969 86 10000 9.3 290 10:21 01.12.2019
3423 Snow 1 969 86 10000 10.3 280 09:57 01.12.2019
3424 Snow 1 969 86 10000 10.3 280 09:38 01.12.2019
3425 Drizzle 1 968 78 10000 8.2 290 09:20 01.12.2019
3426 Snow 1 968 86 10000 9.3 250 08:44 01.12.2019
3427 Rain 1 968 79 10000 9.3 290 08:20 01.12.2019
3428 Snow 1 968 79 10000 12.3 260 07:51 01.12.2019
3429 Snow 1 968 79 10000 12.3 260 07:30 01.12.2019
3430 Snow 1 968 79 10000 8.7 240 06:56 01.12.2019
3431 Snow 1 968 79 10000 8.7 240 06:30 01.12.2019
3432 Drizzle 1 969 79 10000 9.8 250 05:47 01.12.2019
3433 Snow 0 969 94 7000 15.4 260 04:50 01.12.2019
3434 Snow 0 969 94 2000 21.6 260 02:54 01.12.2019
3435 Snow 0 969 94 2000 21.6 260 02:36 01.12.2019
3436 Snow 0 969 94 1600 19.5 250 02:18 01.12.2019
3437 Snow 0 970 94 300 23.1 250 01:50 01.12.2019
3438 Snow 0 970 93 2200 19 260 01:19 01.12.2019
3439 Snow 0 970 93 900 20.6 260 00:40 01.12.2019
3440 Snow 0 971 93 0 15.9 240 00:22 01.12.2019
3441 Snow -3 972 92 0 16.5 220 23:42 30.11.2019
3442 Snow -4 972 92 0 18.5 200 23:23 30.11.2019
3443 Snow -4 973 92 0 18 200 22:50 30.11.2019
3444 Snow -4 973 92 0 18 200 22:30 30.11.2019
3445 Snow -4 974 85 1200 19 200 21:59 30.11.2019
3446 Snow -4 975 79 9000 17 210 21:40 30.11.2019
3447 Snow -3 976 68 10000 15.4 210 21:20 30.11.2019
3448 Snow -3 977 63 10000 17 230 20:55 30.11.2019
3449 Snow -3 977 63 10000 17 230 20:37 30.11.2019
3450 Snow -3 977 73 2800 18.5 240 20:19 30.11.2019
3451 Snow -2 978 79 2000 18.5 250 19:55 30.11.2019
3452 Snow -2 978 79 2000 18.5 250 19:55 30.11.2019
3453 Snow -2 978 79 2000 18.5 250 19:36 30.11.2019
3454 Snow -3 978 79 5000 19 260 19:18 30.11.2019
3455 Snow -3 979 73 4800 21.6 260 18:55 30.11.2019
3456 Snow -3 979 73 4800 21.6 260 18:37 30.11.2019
3457 Snow -3 980 79 1900 20.6 260 18:18 30.11.2019
3458 Snow -4 980 92 450 23.1 260 17:56 30.11.2019
3459 Snow -4 980 92 450 23.1 260 17:56 30.11.2019
3460 Snow -4 980 92 450 23.1 260 17:37 30.11.2019
3461 Snow -3 980 79 650 24.7 270 17:19 30.11.2019
3462 Snow -3 980 86 2100 24.7 270 16:42 30.11.2019
3463 Snow -4 981 92 300 25.2 270 16:23 30.11.2019
3464 Snow -4 981 92 300 25.2 270 16:23 30.11.2019
3465 Snow -4 981 92 300 25.2 270 15:58 30.11.2019
3466 Snow -4 981 92 200 24.7 280 15:40 30.11.2019
3467 Snow -3 981 73 8000 24.7 270 15:19 30.11.2019
3468 Snow -3 981 73 8000 24.7 270 15:19 30.11.2019
3469 Snow -3 981 79 8000 15.4 240 14:56 30.11.2019
3470 Snow -3 981 79 8000 15.4 240 14:38 30.11.2019
3471 Snow -2 982 74 10000 13.9 250 14:18 30.11.2019
3472 Snow -3 982 73 8000 14.4 240 13:56 30.11.2019
3473 Snow -3 982 73 8000 14.4 240 13:36 30.11.2019
3474 Rain -3 982 73 10000 13.4 240 13:18 30.11.2019
3475 Snow -2 982 68 10000 10.8 250 12:43 30.11.2019
3476 Snow -3 982 86 10000 11.3 250 12:25 30.11.2019
3477 Clouds -2 982 79 4000 12.9 270 11:45 30.11.2019
3478 Snow -2 982 79 3000 12.3 270 11:20 30.11.2019
3479 Snow -2 982 79 4000 18.5 280 10:58 30.11.2019
3480 Snow -2 982 79 4000 18.5 280 10:39 30.11.2019
3481 Snow -2 982 86 1800 12.9 270 10:20 30.11.2019
3482 Clouds -2 981 86 7000 12.3 280 09:47 30.11.2019
3483 Clouds -1 981 80 10000 10.8 270 09:29 30.11.2019
3484 Rain -2 981 92 10000 18 280 08:55 30.11.2019
3485 Rain -2 981 92 10000 18 280 08:37 30.11.2019
3486 Clouds -1 981 80 6000 17 290 08:18 30.11.2019
3487 Snow -1 981 80 9000 10.3 270 07:42 30.11.2019
3488 Snow -1 981 80 8000 8.7 270 07:23 30.11.2019
3489 Rain -1 981 80 8000 23.1 310 06:45 30.11.2019
3490 Clouds -1 981 86 9000 23.1 310 06:26 30.11.2019
3491 Clouds 0 980 94 7000 21.1 310 03:56 30.11.2019
3492 Clouds 0 980 94 7000 21.1 310 03:37 30.11.2019
3493 Snow 0 980 94 3500 21.6 310 02:25 30.11.2019
3494 Snow 0 980 94 8000 20.6 330 01:50 30.11.2019
3495 Snow 0 980 94 8000 20.6 330 01:24 30.11.2019
3496 Snow -1 980 100 1800 23.1 330 00:38 30.11.2019
3497 Snow 1 980 92 1000 17 330 00:20 30.11.2019
3498 Clouds 1 980 95 4500 18 330 23:44 29.11.2019
3499 Snow 0 980 92 2300 21.1 340 23:23 29.11.2019
3500 Snow 0 980 92 2300 21.1 340 23:23 29.11.2019
3501 Clouds 1 980 95 8000 19.5 340 22:48 29.11.2019
3502 Rain 0 980 95 10000 15.4 320 22:27 29.11.2019
3503 Rain 1 980 95 10000 15.9 330 21:56 29.11.2019
3504 Rain 1 980 95 10000 15.9 330 21:38 29.11.2019
3505 Snow 0 980 95 10000 13.9 350 21:19 29.11.2019
3506 Clouds 0 980 92 1700 15.9 360 20:54 29.11.2019
3507 Clouds 0 980 92 1700 15.9 360 20:36 29.11.2019
3508 Rain 1 980 87 10000 16.5 330 20:18 29.11.2019
3509 Rain 1 980 87 10000 17 340 19:54 29.11.2019
3510 Rain 1 980 87 10000 17 340 19:36 29.11.2019
3511 Rain 1 980 74 10000 14.4 340 19:18 29.11.2019
3512 Rain 1 980 87 10000 13.9 360 18:41 29.11.2019
3513 Rain 1 980 87 10000 14.9 350 18:23 29.11.2019
3514 Rain 0 981 87 10000 12.3 360 17:56 29.11.2019
3515 Rain 0 981 87 10000 12.3 360 17:38 29.11.2019
3516 Snow 0 981 92 4000 10.3 20 17:19 29.11.2019
3517 Rain 0 981 88 10000 13.9 360 16:42 29.11.2019
3518 Rain -1 981 92 10000 9.8 10 16:21 29.11.2019
3519 Snow 0 981 92 1200 10.3 10 15:56 29.11.2019
3520 Snow 0 981 92 1200 10.3 10 15:37 29.11.2019
3521 Snow 1 981 88 1900 18 360 15:19 29.11.2019
3522 Snow 0 981 88 4500 19 360 14:40 29.11.2019
3523 Snow 1 982 97 4000 20.1 360 14:21 29.11.2019
3524 Snow 0 982 92 1800 17 360 13:56 29.11.2019
3525 Snow 0 982 92 1800 17 360 13:37 29.11.2019
3526 Snow -1 982 92 2500 15.9 360 13:19 29.11.2019
3527 Snow -1 983 92 4000 15.4 360 12:42 29.11.2019
3528 Snow -2 983 86 6000 11.8 360 12:24 29.11.2019
3529 Snow -2 983 86 5000 11.8 10 11:56 29.11.2019
3530 Snow -2 983 86 5000 11.8 10 11:38 29.11.2019
3531 Snow -2 984 86 4000 10.8 10 11:18 29.11.2019
3532 Snow -3 984 92 800 9.3 360 10:57 29.11.2019
3533 Snow -3 984 92 800 9.3 360 10:38 29.11.2019
3534 Snow -3 985 86 5000 8.2 10 10:19 29.11.2019
3535 Clouds -4 985 92 3000 7.2 10 09:57 29.11.2019
3536 Clouds -4 985 92 3000 7.2 10 09:38 29.11.2019
3537 Clouds -3 985 92 6000 6.2 30 09:19 29.11.2019
3538 Snow -4 986 86 3000 5.1 40 08:54 29.11.2019
3539 Snow -4 986 86 3000 5.1 40 08:36 29.11.2019
3540 Clouds -4 986 86 6000 5.1 50 08:18 29.11.2019
3541 Snow -5 986 92 7000 5.1 60 07:41 29.11.2019
3542 Snow -4 987 92 5000 5.1 60 07:22 29.11.2019
3543 Snow -4 987 92 5000 6.2 60 06:46 29.11.2019
3544 Snow -4 987 92 7000 7.2 80 06:23 29.11.2019
3545 Snow -4 988 92 5000 7.2 90 05:32 29.11.2019
3546 Snow -4 988 92 5000 7.2 90 05:32 29.11.2019
3547 Snow -5 989 85 4700 8.2 100 04:45 29.11.2019
3548 Clouds -5 990 79 10000 9.3 110 03:23 29.11.2019
3549 Clouds -6 991 85 10000 7.7 100 02:42 29.11.2019
3550 Clouds -6 991 85 10000 7.7 100 02:20 29.11.2019
3551 Clouds -6 991 73 10000 6.7 120 01:27 29.11.2019
3552 Clouds -7 992 79 10000 2.1 100 00:51 29.11.2019
3553 Clouds -7 992 79 10000 8.7 140 00:22 29.11.2019
3554 Clouds -7 992 73 10000 11.8 140 23:58 28.11.2019
3555 Clouds -4 992 73 10000 11.8 140 23:39 28.11.2019
3556 Clouds -4 993 73 10000 8.7 130 23:20 28.11.2019
3557 Clouds -4 993 73 10000 8.7 130 23:20 28.11.2019
3558 Clouds -5 993 73 10000 3.6 120 22:55 28.11.2019
3559 Clouds -5 993 73 10000 3.6 120 22:36 28.11.2019
3560 Clouds -5 993 72 10000 7.2 140 22:18 28.11.2019
3561 Clouds -4 994 67 10000 6.7 150 21:42 28.11.2019
3562 Clouds -4 994 73 10000 7.7 160 21:21 28.11.2019
3563 Clouds -4 994 73 10000 7.7 160 21:21 28.11.2019
3564 Clouds -4 994 73 10000 9.3 160 20:58 28.11.2019
3565 Clouds -4 994 73 10000 9.3 160 20:40 28.11.2019
3566 Clouds -5 994 67 10000 8.7 180 20:21 28.11.2019
3567 Clouds -5 994 67 10000 8.7 180 20:21 28.11.2019
3568 Clouds -4 995 62 10000 8.7 150 19:57 28.11.2019
3569 -273 0 0 0 0 0 19:38 28.11.2019
3570 Clouds -4 995 57 10000 9.3 170 19:19 28.11.2019
3571 Clouds -4 995 57 10000 9.3 170 19:19 28.11.2019
3572 Clouds -3 995 57 10000 8.7 160 18:57 28.11.2019
3573 Clouds -3 995 57 10000 8.7 160 18:39 28.11.2019
3574 Clouds -3 995 57 10000 10.8 170 18:18 28.11.2019
3575 Clouds -3 995 57 10000 11.8 180 17:56 28.11.2019
3576 Clouds -3 995 57 10000 11.8 180 17:38 28.11.2019
3577 Clouds -4 995 67 10000 12.3 180 17:20 28.11.2019
3578 Clouds -3 995 62 10000 12.3 180 16:40 28.11.2019
3579 Clouds -3 996 62 10000 12.9 180 16:19 28.11.2019
3580 Clouds -3 996 73 10000 13.4 180 15:58 28.11.2019
3581 Clouds -3 996 73 10000 13.4 180 15:39 28.11.2019
3582 Clouds -3 996 67 10000 12.9 180 15:19 28.11.2019
3583 Clouds -3 996 67 10000 9.3 170 14:58 28.11.2019
3584 Clouds -3 996 67 10000 9.3 170 14:39 28.11.2019
3585 Clouds -3 996 73 10000 12.3 190 14:19 28.11.2019
3586 Clouds -3 997 73 10000 12.3 180 13:42 28.11.2019
3587 Clouds -3 997 79 10000 13.9 180 13:23 28.11.2019
3588 Clouds -4 997 79 10000 11.3 180 12:56 28.11.2019
3589 Clouds -4 997 79 10000 11.3 180 12:38 28.11.2019
3590 Clouds -3 997 73 10000 13.4 180 12:20 28.11.2019
3591 Clouds -3 997 73 10000 13.4 180 11:55 28.11.2019
3592 Clouds -3 997 73 10000 13.4 180 11:55 28.11.2019
3593 Clouds -3 997 73 10000 13.4 180 11:37 28.11.2019
3594 Clouds -3 997 73 10000 13.4 180 11:37 28.11.2019
3595 Clouds -3 997 73 10000 11.8 180 11:18 28.11.2019
3596 Clouds -3 998 73 10000 13.4 180 10:42 28.11.2019
3597 Clouds -2 998 68 10000 12.3 180 10:21 28.11.2019
3598 Clouds -2 998 68 10000 13.4 180 09:56 28.11.2019
3599 Clouds -2 998 68 10000 13.4 180 09:38 28.11.2019
3600 Clouds -2 998 68 10000 13.4 180 09:38 28.11.2019
3601 Clouds -2 998 68 10000 12.9 180 09:19 28.11.2019
3602 Clouds -3 998 67 10000 12.9 180 08:41 28.11.2019
3603 Clouds -3 998 73 10000 12.3 180 08:22 28.11.2019
3604 Clouds -3 998 67 10000 11.3 180 07:56 28.11.2019
3605 Clouds -3 998 67 10000 11.3 180 07:38 28.11.2019
3606 Clouds -4 998 68 10000 8.7 160 07:18 28.11.2019
3607 Clouds -4 998 68 10000 11.3 160 06:40 28.11.2019
3608 Clouds -4 999 68 10000 7.7 180 05:56 28.11.2019
3609 Clouds -4 999 68 10000 7.7 180 05:38 28.11.2019
3610 Clouds -4 1000 68 10000 8.7 150 04:51 28.11.2019
3611 Clouds -5 1001 62 10000 11.3 160 02:32 28.11.2019
3612 Clouds -5 1001 62 10000 8.7 160 01:25 28.11.2019
3613 Clouds -5 1001 67 10000 8.2 170 00:42 28.11.2019
3614 Clouds -5 1001 62 10000 7.7 180 00:19 28.11.2019
3615 Clouds -5 1002 67 10000 7.2 180 23:39 27.11.2019
3616 Clouds -1 1002 68 10000 9.8 180 23:21 27.11.2019
3617 Clouds -2 1002 79 10000 7.7 170 22:56 27.11.2019
3618 Clouds -2 1002 79 10000 7.7 170 22:38 27.11.2019
3619 Clouds -2 1002 79 10000 7.7 170 22:19 27.11.2019
3620 Clouds -2 1002 79 10000 6.7 170 21:56 27.11.2019
3621 Clouds -2 1002 79 10000 6.7 170 21:56 27.11.2019
3622 Clouds -2 1002 79 10000 6.7 170 21:37 27.11.2019
3623 Clouds -2 1003 85 10000 4.1 160 21:19 27.11.2019
3624 Clouds -2 1003 85 10000 6.7 130 20:57 27.11.2019
3625 Clouds -2 1003 85 10000 6.7 130 20:37 27.11.2019
3626 Clouds -2 1003 79 10000 5.7 130 20:19 27.11.2019
3627 Clouds -2 1003 85 10000 5.7 130 19:56 27.11.2019
3628 Clouds -2 1003 85 10000 5.7 130 19:37 27.11.2019
3629 Clouds -2 1003 79 10000 5.7 110 19:18 27.11.2019
3630 -273 0 0 0 0 0 18:55 27.11.2019
3631 Clouds -2 1004 85 10000 5.7 110 18:36 27.11.2019
3632 Clouds -2 1004 79 10000 5.1 130 18:18 27.11.2019
3633 Clouds -2 1004 79 10000 5.7 140 17:55 27.11.2019
3634 Clouds -2 1004 79 10000 5.7 140 17:36 27.11.2019
3635 Clouds -2 1004 85 10000 4.6 160 17:18 27.11.2019
3636 Clouds -3 1005 86 10000 4.6 150 16:55 27.11.2019
3637 Clouds -3 1005 86 10000 4.6 150 16:36 27.11.2019
3638 Snow -3 1005 92 4000 2.6 160 16:18 27.11.2019
3639 Snow -2 1005 86 4000 3.6 160 15:55 27.11.2019
3640 Snow -2 1005 86 4000 3.6 160 15:37 27.11.2019
3641 Snow -3 1005 86 2800 3.1 180 15:18 27.11.2019
3642 Snow -3 1004 92 2500 5.1 190 14:41 27.11.2019
3643 Snow -3 1004 92 5000 3.6 170 14:23 27.11.2019
3644 Snow -3 1004 100 2500 5.7 170 13:59 27.11.2019
3645 Snow -3 1004 100 2500 5.7 170 13:40 27.11.2019
3646 Snow -4 1004 100 1400 4.1 150 13:19 27.11.2019
3647 Snow -4 1004 100 1400 4.1 150 13:19 27.11.2019
3648 Snow -3 1004 92 1300 3.1 240 12:59 27.11.2019
3649 Snow -3 1004 92 1300 3.1 240 12:40 27.11.2019
3650 Snow -3 1004 92 10000 6.7 250 12:20 27.11.2019
3651 Snow -2 1004 92 6000 4.1 240 11:54 27.11.2019
3652 Snow -2 1004 86 800 10.3 300 11:36 27.11.2019
3653 Snow -2 1004 86 800 10.3 300 11:18 27.11.2019
3654 Rain -3 1004 79 10000 10.8 300 10:42 27.11.2019
3655 Rain -3 1004 79 10000 10.8 300 10:42 27.11.2019
3656 Snow -2 1004 74 10000 11.3 300 10:23 27.11.2019
3657 Clouds -2 1004 68 10000 13.9 300 09:48 27.11.2019
3658 Clouds -2 1005 63 10000 13.4 310 09:26 27.11.2019
3659 Clouds -2 1005 63 10000 12.3 320 08:59 27.11.2019
3660 Clouds -2 1005 63 10000 12.3 320 08:41 27.11.2019
3661 Clouds -2 1005 63 10000 11.8 320 08:22 27.11.2019
3662 Clouds -2 1005 63 10000 11.8 320 08:22 27.11.2019
3663 Clouds -2 1005 63 10000 12.9 330 07:47 27.11.2019
3664 Clouds -2 1005 58 10000 13.4 320 07:28 27.11.2019
3665 Clouds -2 1005 54 10000 12.9 320 06:49 27.11.2019
3666 Clouds -2 1005 54 10000 11.8 320 06:30 27.11.2019
3667 Snow -2 1005 58 10000 10.8 320 05:45 27.11.2019
3668 Snow -2 1005 58 10000 10.8 320 05:45 27.11.2019
3669 Rain -2 1005 58 10000 10.8 320 05:19 27.11.2019
3670 Snow -2 1005 58 10000 12.3 320 04:43 27.11.2019
3671 Snow -2 1004 58 10000 11.8 320 03:55 27.11.2019
3672 Snow -2 1004 58 10000 11.8 320 03:36 27.11.2019
3673 Snow -2 1004 74 10000 10.3 330 03:18 27.11.2019
3674 Snow -2 1005 63 7000 10.3 350 01:48 27.11.2019
3675 Clouds -1 1004 63 10000 12.3 350 00:46 27.11.2019
3676 Clouds -1 1004 63 10000 14.4 340 00:27 27.11.2019
3677 Rain -1 1004 68 10000 13.4 350 23:54 26.11.2019
3678 Rain -1 1004 68 10000 13.4 350 23:54 26.11.2019
3679 Rain 0 1004 68 10000 13.4 350 23:36 26.11.2019
3680 Rain 0 1004 68 10000 13.4 350 23:18 26.11.2019
3681 Rain 0 1004 68 10000 13.4 350 23:18 26.11.2019
3682 Snow -1 1004 86 10000 11.8 360 22:39 26.11.2019
3683 Rain -1 1003 74 10000 10.8 360 22:19 26.11.2019
3684 Rain -1 1003 74 10000 10.8 360 22:19 26.11.2019
3685 Rain 0 1003 86 10000 10.8 360 21:59 26.11.2019
3686 Rain 0 1003 86 10000 10.8 360 21:38 26.11.2019
3687 Snow -1 1003 92 2800 15.4 360 21:20 26.11.2019
3688 Snow -1 1003 92 1500 9.8 350 20:57 26.11.2019
3689 Snow -1 1003 92 1500 9.8 350 20:57 26.11.2019
3690 Snow -1 1003 92 1500 9.8 350 20:57 26.11.2019
3691 Snow -1 1003 92 1500 9.8 350 20:37 26.11.2019
3692 Snow -1 1003 92 1500 9.8 350 20:37 26.11.2019
3693 Snow -1 1003 92 1500 9.8 350 20:37 26.11.2019
3694 Snow 0 1002 86 500 3.6 10 20:19 26.11.2019
3695 Snow 0 1003 86 2500 10.3 330 19:55 26.11.2019
3696 Snow 0 1003 86 2500 10.3 330 19:55 26.11.2019
3697 Snow 0 1003 86 2500 10.3 330 19:37 26.11.2019
3698 Rain 1 1002 80 10000 14.9 340 19:19 26.11.2019
3699 Clouds 1 1002 80 10000 10.8 330 18:57 26.11.2019
3700 Clouds 1 1002 80 10000 10.8 330 18:38 26.11.2019
3701 Clouds 1 1002 80 10000 10.3 320 18:20 26.11.2019
3702 Clouds 1 1002 80 10000 10.3 320 18:20 26.11.2019
3703 Clouds 0 1002 80 10000 11.8 320 17:57 26.11.2019
3704 Clouds 0 1002 80 10000 8.7 330 17:38 26.11.2019
3705 Clouds 0 1002 82 10000 8.7 330 17:20 26.11.2019
3706 Rain 0 1002 80 10000 8.7 350 16:56 26.11.2019
3707 Rain 0 1002 80 10000 8.7 350 16:37 26.11.2019
3708 Rain -1 1002 92 10000 7.7 350 16:18 26.11.2019
3709 Rain 0 1002 82 10000 13.4 350 15:58 26.11.2019
3710 Rain 0 1002 82 10000 13.4 350 15:37 26.11.2019
3711 Rain 0 1001 82 10000 11.3 340 15:19 26.11.2019
3712 Rain -1 1001 92 10000 10.3 340 14:46 26.11.2019
3713 Snow -1 1001 92 1000 9.3 300 14:25 26.11.2019
3714 Snow 0 1001 92 1200 11.8 320 13:56 26.11.2019
3715 Snow 0 1001 92 1200 11.8 320 13:37 26.11.2019
3716 Snow 0 1001 92 1500 12.9 330 13:18 26.11.2019
3717 Clouds 1 1001 91 10000 11.8 320 12:38 26.11.2019
3718 Snow 1 1001 91 10000 13.9 320 12:19 26.11.2019
3719 Rain 0 1001 91 10000 12.3 290 11:58 26.11.2019
3720 Rain 0 1001 91 10000 12.3 290 11:38 26.11.2019
3721 Rain 0 1001 86 10000 11.3 290 11:19 26.11.2019
3722 Rain 0 1001 86 10000 11.3 290 11:19 26.11.2019
3723 Rain 0 1001 88 10000 11.3 280 10:57 26.11.2019
3724 Rain 0 1001 88 10000 11.3 280 10:39 26.11.2019
3725 Rain 1 1001 88 10000 10.8 290 10:20 26.11.2019
3726 Rain 0 1002 86 10000 11.3 290 09:55 26.11.2019
3727 Rain 0 1002 86 10000 11.3 290 09:37 26.11.2019
3728 Rain 0 1002 92 10000 9.8 290 09:18 26.11.2019
3729 Clouds 1 1002 88 1800 9.8 300 08:43 26.11.2019
3730 Clouds 1 1002 86 10000 10.8 300 08:22 26.11.2019
3731 Clouds 1 1002 69 10000 11.8 290 07:44 26.11.2019
3732 Clouds 0 1002 86 10000 8.7 290 07:25 26.11.2019
3733 Snow 0 1002 86 10000 7.7 280 06:55 26.11.2019
3734 Snow 0 1002 86 9000 7.7 310 06:23 26.11.2019
3735 Snow 0 1002 86 10000 11.3 300 05:41 26.11.2019
3736 Snow 0 1003 98 1500 6.2 260 03:59 26.11.2019
3737 Snow 0 1004 98 3500 5.7 210 02:26 26.11.2019
3738 Snow 1 1004 86 10000 5.7 200 01:32 26.11.2019
3739 Clouds 1 1005 86 8000 4.6 190 00:50 26.11.2019
3740 Snow 1 1005 86 8000 6.2 230 00:25 26.11.2019
3741 Snow 1 1006 80 10000 4.1 250 23:40 25.11.2019
3742 Clouds 1 1006 80 10000 3.6 270 23:20 25.11.2019
3743 Clouds 1 1006 80 10000 5.7 280 22:58 25.11.2019
3744 Clouds 1 1006 80 10000 5.7 280 22:38 25.11.2019
3745 Clouds 2 1007 74 10000 5.7 280 22:18 25.11.2019
3746 Clouds 2 1007 74 10000 7.2 290 21:58 25.11.2019
3747 Clouds 2 1007 74 10000 7.2 290 21:39 25.11.2019
3748 Clouds 2 1007 80 10000 7.7 280 21:20 25.11.2019
3749 Clouds 2 1007 80 10000 8.7 290 20:56 25.11.2019
3750 Clouds 2 1007 80 10000 8.7 290 20:38 25.11.2019
3751 Clouds 2 1008 86 10000 6.2 0 20:19 25.11.2019
3752 Snow 2 1008 84 10000 8.7 280 19:56 25.11.2019
3753 Snow 2 1008 84 10000 8.7 280 19:56 25.11.2019
3754 Snow 2 1008 84 10000 8.7 280 19:37 25.11.2019
3755 Snow 2 1008 84 10000 8.7 280 19:37 25.11.2019
3756 Snow 2 1008 84 5000 8.2 270 19:18 25.11.2019
3757 Clouds 2 1008 80 10000 6.7 290 18:56 25.11.2019
3758 Clouds 2 1008 80 10000 6.7 290 18:38 25.11.2019
3759 Clouds 3 1008 74 10000 4.1 300 18:19 25.11.2019
3760 Clouds 2 1009 86 10000 7.2 290 17:57 25.11.2019
3761 Rain 2 1009 84 10000 8.7 310 17:37 25.11.2019
3762 Rain 2 1009 92 10000 8.7 310 17:19 25.11.2019
3763 Clouds 2 1009 92 8000 7.2 300 16:56 25.11.2019
3764 Clouds 2 1009 92 8000 7.2 300 16:37 25.11.2019
3765 Rain 2 1009 92 10000 5.1 300 16:19 25.11.2019
3766 Snow 2 1009 92 10000 7.2 300 15:42 25.11.2019
3767 Snow 2 1009 92 2000 8.7 290 15:21 25.11.2019
3768 Snow 2 1009 92 2000 8.7 290 15:21 25.11.2019
3769 Clouds 2 1009 92 5000 6.2 310 14:59 25.11.2019
3770 Clouds 2 1009 92 5000 6.2 310 14:40 25.11.2019
3771 Rain 3 1009 80 10000 6.2 340 14:22 25.11.2019
3772 Rain 2 1009 80 10000 7.7 330 13:54 25.11.2019
3773 Rain 2 1009 80 10000 7.7 330 13:36 25.11.2019
3774 Rain 2 1009 98 10000 10.3 320 13:18 25.11.2019
3775 Rain 2 1009 98 10000 10.3 320 13:18 25.11.2019
3776 Rain 3 1009 98 10000 10.8 320 12:41 25.11.2019
3777 Rain 3 1009 98 10000 11.3 310 12:22 25.11.2019
3778 Clouds 3 1009 74 10000 10.3 310 11:59 25.11.2019
3779 Clouds 3 1009 74 10000 10.3 310 11:39 25.11.2019
3780 Clouds 3 1009 74 10000 11.3 310 11:20 25.11.2019
3781 Rain 2 1009 98 10000 11.8 310 10:46 25.11.2019
3782 Rain 2 1009 98 10000 11.3 310 10:28 25.11.2019
3783 Rain 4 1009 86 10000 10.8 320 09:59 25.11.2019
3784 Rain 4 1009 86 10000 10.8 320 09:41 25.11.2019
3785 Rain 4 1009 86 10000 11.3 320 09:23 25.11.2019
3786 Rain 4 1008 93 4800 12.3 320 08:41 25.11.2019
3787 Clouds 4 1008 86 10000 10.3 320 08:22 25.11.2019
3788 Rain 4 1007 100 10000 9.8 310 07:45 25.11.2019
3789 Rain 3 1007 93 10000 10.8 320 07:25 25.11.2019
3790 Rain 3 1007 93 10000 12.3 310 06:51 25.11.2019
3791 Rain 3 1007 93 10000 14.4 270 06:23 25.11.2019
3792 Rain 3 1007 98 10000 9.8 230 05:50 25.11.2019
3793 Rain 3 1007 98 10000 9.8 230 05:29 25.11.2019
3794 Rain 2 1007 98 10000 9.3 230 04:35 25.11.2019
3795 Clouds 3 1009 69 10000 6.7 210 02:35 25.11.2019
3796 Clouds 3 1009 69 10000 6.2 220 01:43 25.11.2019
3797 Clouds 3 1009 69 10000 6.2 220 01:24 25.11.2019
3798 Clouds 3 1009 74 10000 5.1 220 00:39 25.11.2019
3799 Clouds 3 1010 69 10000 6.7 210 00:18 25.11.2019
3800 Clouds 3 1010 69 10000 6.2 210 23:44 24.11.2019
3801 Clouds 3 1010 74 10000 7.2 210 23:20 24.11.2019
3802 Clouds 3 1011 69 10000 5.7 210 22:57 24.11.2019
3803 Clouds 3 1011 69 10000 5.7 210 22:39 24.11.2019
3804 Clouds 3 1011 69 10000 6.7 200 22:19 24.11.2019
3805 Clouds 3 1011 74 10000 5.7 200 21:57 24.11.2019
3806 Clouds 3 1011 74 10000 5.7 200 21:38 24.11.2019
3807 Clouds 3 1011 82 10000 6.2 210 21:20 24.11.2019
3808 Clouds 3 1012 82 10000 6.2 210 20:56 24.11.2019
3809 Clouds 3 1012 82 10000 6.2 210 20:37 24.11.2019
3810 Clouds 3 1012 85 10000 6.2 220 20:18 24.11.2019
3811 Clouds 3 1012 85 10000 6.2 220 19:56 24.11.2019
3812 Clouds 3 1012 85 10000 6.2 220 19:56 24.11.2019
3813 Clouds 3 1012 85 10000 6.2 220 19:38 24.11.2019
3814 Clouds 3 1013 85 10000 6.7 240 19:19 24.11.2019
3815 Clouds 3 1013 86 10000 7.2 240 18:56 24.11.2019
3816 Clouds 3 1013 86 10000 7.2 240 18:36 24.11.2019
3817 Clouds 3 1013 86 10000 7.2 230 18:18 24.11.2019
3818 Clouds 3 1013 86 10000 7.2 240 17:55 24.11.2019
3819 Clouds 3 1014 86 10000 6.7 250 17:37 24.11.2019
3820 Clouds 3 1014 86 10000 6.7 250 17:37 24.11.2019
3821 Clouds 3 1014 86 10000 6.7 250 17:18 24.11.2019
3822 Clouds 3 1014 86 10000 6.7 250 17:18 24.11.2019
3823 Clouds 3 1014 86 10000 6.2 240 16:54 24.11.2019
3824 Clouds 3 1014 86 10000 6.2 240 16:36 24.11.2019
3825 Rain 3 1014 86 10000 7.7 240 16:18 24.11.2019
3826 Rain 4 1014 86 10000 8.2 240 15:43 24.11.2019
3827 Rain 4 1014 86 10000 7.7 230 15:24 24.11.2019
3828 Rain 4 1014 86 10000 6.2 250 14:57 24.11.2019
3829 Rain 4 1014 86 10000 6.2 250 14:38 24.11.2019
3830 Rain 4 1014 86 10000 6.2 250 14:38 24.11.2019
3831 Rain 3 1015 93 10000 5.1 250 14:18 24.11.2019
3832 Rain 3 1015 93 10000 6.2 260 13:40 24.11.2019
3833 Clouds 3 1015 93 10000 5.7 260 13:22 24.11.2019
3834 Drizzle 3 1015 86 10000 6.2 240 12:59 24.11.2019
3835 Drizzle 3 1015 86 10000 6.2 240 12:39 24.11.2019
3836 Clouds 3 1015 86 10000 6.2 250 12:18 24.11.2019
3837 Clouds 3 1015 86 10000 6.2 270 11:56 24.11.2019
3838 Snow 3 1015 86 10000 6.2 260 11:36 24.11.2019
3839 Snow 3 1015 86 10000 6.2 260 11:18 24.11.2019
3840 Snow 3 1016 86 10000 4.6 260 10:46 24.11.2019
3841 Snow 3 1016 86 10000 4.1 280 10:28 24.11.2019
3842 Snow 3 1016 86 10000 4.1 280 10:28 24.11.2019
3843 Drizzle 3 1016 86 10000 5.7 280 09:55 24.11.2019
3844 Drizzle 3 1016 86 10000 5.7 280 09:37 24.11.2019
3845 Drizzle 3 1016 86 10000 4.6 280 09:18 24.11.2019
3846 Drizzle 2 1016 93 10000 4.6 270 08:44 24.11.2019
3847 Snow 2 1016 93 10000 6.2 290 08:22 24.11.2019
3848 Rain 2 1016 93 10000 7.7 290 07:57 24.11.2019
3849 Rain 2 1016 93 10000 7.7 290 07:37 24.11.2019
3850 Rain 2 1015 93 10000 7.2 290 07:19 24.11.2019
3851 Snow 3 1015 86 10000 9.8 290 06:20 24.11.2019
3852 Rain 3 1015 86 10000 8.7 280 04:48 24.11.2019
3853 Snow 3 1015 86 10000 7.7 280 03:37 24.11.2019
3854 Drizzle 3 1016 93 10000 8.2 270 02:22 24.11.2019
3855 Snow 3 1016 93 10000 8.2 270 01:40 24.11.2019
3856 Snow 3 1016 86 10000 7.2 270 01:21 24.11.2019
3857 Snow 2 1016 93 10000 6.2 260 00:47 24.11.2019
3858 Snow 2 1016 96 10000 5.7 240 00:24 24.11.2019
3859 Snow 2 1016 96 10000 7.2 250 23:46 23.11.2019
3860 Snow 2 1016 94 10000 6.2 230 23:23 23.11.2019
3861 Drizzle 2 1016 94 10000 6.2 230 22:59 23.11.2019
3862 Drizzle 2 1016 94 10000 6.2 230 22:40 23.11.2019
3863 Snow 2 1016 94 10000 7.7 240 22:22 23.11.2019
3864 Snow 2 1016 94 10000 8.2 240 21:59 23.11.2019
3865 Snow 2 1016 94 10000 8.2 240 21:41 23.11.2019
3866 Snow 2 1016 94 10000 8.2 240 21:22 23.11.2019
3867 Snow 2 1016 80 10000 6.7 220 20:58 23.11.2019
3868 Snow 2 1016 80 10000 6.7 220 20:37 23.11.2019
3869 Snow 2 1016 80 10000 6.7 220 20:37 23.11.2019
3870 Clouds 2 1017 80 10000 5.7 220 20:18 23.11.2019
3871 Clouds 2 1017 80 10000 6.2 220 19:55 23.11.2019
3872 Clouds 2 1017 80 10000 6.2 220 19:36 23.11.2019
3873 Clouds 0 1016 83 10000 5.7 210 19:18 23.11.2019
3874 Clouds 0 1016 83 10000 5.1 210 18:40 23.11.2019
3875 Clouds 0 1017 83 10000 5.7 210 18:21 23.11.2019
3876 Clouds -1 1017 74 10000 5.1 210 17:55 23.11.2019
3877 Clouds -1 1017 74 10000 5.1 210 17:37 23.11.2019
3878 Clouds 0 1017 82 10000 5.7 210 17:19 23.11.2019
3879 Clouds 0 1017 82 10000 5.7 210 17:19 23.11.2019
3880 Clouds 0 1017 82 10000 5.7 210 17:19 23.11.2019
3881 Clouds -2 1017 86 10000 5.7 210 16:56 23.11.2019
3882 Clouds -2 1017 86 10000 5.7 210 16:56 23.11.2019
3883 Clouds -2 1017 86 10000 5.7 210 16:37 23.11.2019
3884 Clouds -2 1017 86 10000 5.7 210 16:19 23.11.2019
3885 Clouds 0 1017 82 10000 6.2 210 15:56 23.11.2019
3886 Clouds 0 1017 82 10000 6.2 210 15:38 23.11.2019
3887 Clouds 0 1017 82 10000 6.7 210 15:18 23.11.2019
3888 Clouds -1 1017 86 10000 5.1 210 14:43 23.11.2019
3889 Clouds 0 1017 84 10000 4.6 200 14:21 23.11.2019
3890 Clouds 0 1018 84 10000 6.2 210 13:59 23.11.2019
3891 Clouds 0 1018 84 10000 6.2 210 13:40 23.11.2019
3892 Clouds 1 1018 74 10000 6.7 210 13:19 23.11.2019
3893 Clouds 0 1018 84 10000 5.7 210 12:44 23.11.2019
3894 Clouds 0 1018 84 10000 6.7 210 12:24 23.11.2019
3895 Clouds -2 1018 74 10000 3.6 200 11:56 23.11.2019
3896 Clouds -2 1018 86 10000 3.1 200 11:38 23.11.2019
3897 Clouds -2 1018 86 10000 3.1 200 11:18 23.11.2019
3898 Clouds -1 1018 74 10000 5.1 210 10:43 23.11.2019
3899 Clouds -1 1018 80 10000 4.6 210 10:21 23.11.2019
3900 Clouds -3 1018 86 10000 4.6 220 09:41 23.11.2019
3901 Clouds -2 1018 86 10000 5.7 210 09:19 23.11.2019
3902 Clouds -3 1018 92 10000 4.1 210 08:42 23.11.2019
3903 Clouds -1 1018 80 10000 4.6 220 08:19 23.11.2019
3904 Clouds -2 1018 79 10000 5.1 220 07:52 23.11.2019
3905 Clouds -2 1018 79 10000 5.1 220 07:34 23.11.2019
3906 Clouds -2 1019 79 10000 5.1 210 06:43 23.11.2019
3907 Clouds -2 1019 86 10000 4.1 210 06:19 23.11.2019
3908 Clouds 0 1019 88 10000 5.1 220 05:46 23.11.2019
3909 Clouds 0 1019 88 10000 5.1 220 05:27 23.11.2019
3910 Clouds 0 1019 90 10000 5.1 210 04:47 23.11.2019
3911 Clouds 0 1019 90 10000 6.2 210 04:26 23.11.2019
3912 Clouds 1 1019 74 10000 8.2 200 02:39 23.11.2019
3913 Clouds 1 1019 74 10000 9.8 190 01:42 23.11.2019
3914 Clouds 2 1019 69 10000 6.7 180 00:57 23.11.2019
3915 Clouds 2 1019 69 10000 6.7 180 00:39 23.11.2019
3916 Clouds 1 1019 74 10000 6.7 170 00:18 23.11.2019
3917 Clouds 1 1019 74 10000 6.7 170 00:18 23.11.2019
3918 Clouds 2 1019 69 10000 7.7 180 23:39 22.11.2019
3919 Clear 2 1019 69 10000 6.2 160 23:20 22.11.2019
3920 Clear 1 1020 89 10000 5.1 170 22:57 22.11.2019
3921 Clear 1 1020 89 10000 5.1 170 22:38 22.11.2019
3922 Clear 1 1020 89 10000 5.1 170 22:38 22.11.2019
3923 Clear 1 1020 86 10000 5.1 160 22:20 22.11.2019
3924 Clear 1 1020 89 10000 3.1 120 21:58 22.11.2019
3925 Clear 1 1020 89 10000 3.1 120 21:39 22.11.2019
3926 Clear 1 1020 89 10000 6.2 70 21:19 22.11.2019
3927 Clear 1 1020 89 10000 3.6 80 20:43 22.11.2019
3928 Clouds 1 1020 78 10000 5.1 110 20:22 22.11.2019
3929 Clouds 1 1020 78 10000 6.2 100 19:55 22.11.2019
3930 Clouds 1 1020 78 10000 6.2 100 19:37 22.11.2019
3931 Clouds 1 1020 78 10000 5.1 100 19:18 22.11.2019
3932 Clouds 1 1020 78 10000 4.1 100 18:39 22.11.2019
3933 Clouds 1 1021 78 10000 5.1 100 18:21 22.11.2019
3934 Clouds 2 1021 86 10000 4.6 100 17:56 22.11.2019
3935 Clouds 2 1021 86 10000 4.6 100 17:56 22.11.2019
3936 Clouds 2 1021 86 10000 4.6 100 17:38 22.11.2019
3937 Clouds 3 1021 76 10000 5.1 100 17:20 22.11.2019
3938 Clouds 2 1021 76 10000 6.2 90 16:41 22.11.2019
3939 Clouds 2 1021 76 10000 5.1 90 16:23 22.11.2019
3940 Clouds 2 1021 76 10000 4.1 90 15:44 22.11.2019
3941 Clouds 1 1021 76 10000 2.1 100 15:24 22.11.2019
3942 Clouds 1 1021 76 10000 2.1 100 14:56 22.11.2019
3943 Clouds 2 1021 76 10000 2.1 100 14:38 22.11.2019
3944 Clouds 2 1022 80 10000 1 140 14:19 22.11.2019
3945 Clouds 3 1022 93 10000 1.5 350 13:57 22.11.2019
3946 Clouds 3 1022 93 10000 1.5 350 13:37 22.11.2019
3947 Clouds 2 1022 86 10000 1.5 0 13:18 22.11.2019
3948 Clouds 2 1022 93 10000 2.1 270 12:55 22.11.2019
3949 Clouds 3 1022 93 10000 2.1 270 12:36 22.11.2019
3950 Clouds 3 1022 93 10000 3.1 270 12:18 22.11.2019
3951 Clouds 3 1022 93 10000 3.6 250 11:40 22.11.2019
3952 Clouds 5 1022 100 10000 3.1 250 11:22 22.11.2019
3953 Clouds 4 1022 100 10000 4.1 260 10:59 22.11.2019
3954 Clouds 4 1022 100 10000 4.1 260 10:40 22.11.2019
3955 Clouds 4 1022 100 10000 4.1 260 10:40 22.11.2019
3956 Clouds 4 1022 100 10000 5.7 270 10:21 22.11.2019
3957 Clouds 4 1022 100 10000 6.2 260 09:55 22.11.2019
3958 Clouds 4 1022 100 10000 6.2 260 09:37 22.11.2019
3959 Drizzle 4 1022 100 10000 5.1 260 09:18 22.11.2019
3960 Drizzle 4 1022 100 10000 5.7 270 08:45 22.11.2019
3961 Drizzle 5 1021 93 6000 7.2 270 08:26 22.11.2019
3962 Drizzle 5 1021 93 10000 7.7 270 07:45 22.11.2019
3963 Drizzle 4 1021 93 10000 6.7 260 07:23 22.11.2019
3964 Clouds 4 1021 86 10000 6.2 260 06:49 22.11.2019
3965 Clouds 4 1021 86 10000 6.2 260 06:30 22.11.2019
3966 Clouds 5 1021 80 10000 10.3 270 05:49 22.11.2019
3967 Clouds 5 1021 80 10000 10.8 270 04:50 22.11.2019
3968 Clouds 5 1020 80 10000 13.4 270 02:53 22.11.2019
3969 Clouds 5 1020 80 10000 13.4 270 02:31 22.11.2019
3970 Rain 4 1021 86 10000 11.8 270 01:45 22.11.2019
3971 Rain 4 1021 86 10000 11.8 270 01:20 22.11.2019
3972 Clouds 4 1020 86 10000 10.8 260 00:53 22.11.2019
3973 Clouds 4 1020 86 10000 10.8 260 00:24 22.11.2019
3974 Clouds 5 1020 80 10000 10.8 260 23:49 21.11.2019
3975 Clouds 5 1020 80 10000 10.8 260 23:31 21.11.2019
3976 Clouds 5 1020 80 10000 11.3 260 22:59 21.11.2019
3977 Clouds 5 1020 80 10000 11.3 260 22:40 21.11.2019
3978 Clouds 5 1020 86 10000 12.3 260 22:22 21.11.2019
3979 Clouds 5 1020 86 10000 12.3 270 21:57 21.11.2019
3980 Clouds 5 1020 86 10000 12.3 270 21:38 21.11.2019
3981 Clouds 4 1019 80 10000 10.8 260 21:19 21.11.2019
3982 Clouds 5 1019 80 10000 11.3 270 20:58 21.11.2019
3983 Clouds 5 1019 80 10000 11.3 270 20:39 21.11.2019
3984 Clouds 6 1019 80 10000 10.8 270 20:19 21.11.2019
3985 Clouds 6 1019 80 10000 10.8 270 19:59 21.11.2019
3986 Rain 5 1019 86 10000 12.9 270 19:41 21.11.2019
3987 Rain 5 1019 86 10000 12.9 270 19:22 21.11.2019
3988 Clouds 6 1019 80 10000 11.3 260 18:57 21.11.2019
3989 Clouds 6 1019 80 10000 11.3 260 18:38 21.11.2019
3990 Clouds 6 1019 80 10000 11.8 270 18:19 21.11.2019
3991 Clouds 6 1019 80 10000 14.4 270 17:57 21.11.2019
3992 Clouds 6 1019 80 10000 14.4 270 17:38 21.11.2019
3993 Clouds 5 1018 80 10000 10.8 250 17:19 21.11.2019
3994 Clouds 5 1019 86 10000 9.8 250 16:42 21.11.2019
3995 Rain 5 1019 80 10000 9.3 260 16:22 21.11.2019
3996 Rain 5 1019 86 10000 7.2 270 15:58 21.11.2019
3997 Rain 5 1019 86 10000 7.2 270 15:39 21.11.2019
3998 Rain 5 1019 80 10000 7.2 260 15:19 21.11.2019
3999 Rain 5 1018 94 10000 6.2 240 14:56 21.11.2019
4000 Rain 5 1018 94 10000 6.2 240 14:56 21.11.2019
4001 Rain 5 1018 94 10000 6.2 240 14:36 21.11.2019
4002 Clouds 6 1018 88 10000 7.7 250 14:18 21.11.2019
4003 Clouds 6 1018 88 10000 6.7 220 13:40 21.11.2019
4004 Rain 5 1018 64 10000 7.2 210 13:20 21.11.2019
4005 Clouds 6 1018 60 10000 7.2 210 12:59 21.11.2019
4006 Clouds 6 1018 60 10000 7.2 210 12:38 21.11.2019
4007 Clouds 6 1018 60 10000 8.7 210 12:20 21.11.2019
4008 Clouds 6 1018 60 10000 9.3 200 11:41 21.11.2019
4009 Clouds 6 1018 56 10000 9.8 200 11:23 21.11.2019
4010 Clouds 5 1018 60 10000 8.7 200 10:59 21.11.2019
4011 Clouds 5 1018 60 10000 8.7 200 10:41 21.11.2019
4012 Clouds 6 1018 56 10000 8.7 200 10:23 21.11.2019
4013 Clouds 6 1018 56 10000 9.8 200 09:57 21.11.2019
4014 Clouds 6 1018 56 10000 9.8 200 09:57 21.11.2019
4015 Clouds 6 1018 56 10000 9.8 200 09:39 21.11.2019
4016 Clouds 6 1018 56 10000 10.3 200 09:20 21.11.2019
4017 Clouds 5 1018 60 10000 12.3 200 08:42 21.11.2019
4018 Clouds 5 1018 60 10000 10.3 200 08:21 21.11.2019
4019 Clouds 5 1018 60 10000 10.8 200 07:43 21.11.2019
4020 Clouds 4 1018 60 10000 9.3 200 07:19 21.11.2019
4021 Clouds 4 1018 64 10000 7.7 200 06:58 21.11.2019
4022 Clouds 4 1018 64 10000 7.7 200 06:34 21.11.2019
4023 Clouds 4 1018 64 10000 8.2 200 05:39 21.11.2019
4024 Clouds 4 1018 69 10000 7.2 200 03:34 21.11.2019
4025 Clouds 4 1018 69 10000 6.2 200 02:42 21.11.2019
4026 Clouds 2 1018 80 10000 5.7 210 02:23 21.11.2019
4027 Clouds 4 1018 69 10000 6.2 210 01:45 21.11.2019
4028 Clouds 3 1018 74 10000 7.2 210 01:19 21.11.2019
4029 Clouds 3 1018 81 10000 6.2 210 00:38 21.11.2019
4030 Clouds 3 1018 74 10000 5.1 200 00:18 21.11.2019
4031 Clouds 4 1018 81 10000 6.7 220 23:41 20.11.2019
4032 Clouds 4 1018 84 10000 5.7 220 23:21 20.11.2019
4033 Clouds 4 1017 84 10000 5.7 220 22:57 20.11.2019
4034 Clouds 4 1017 84 10000 5.7 220 22:37 20.11.2019
4035 Clouds 4 1017 84 10000 6.2 230 22:19 20.11.2019
4036 Clouds 4 1017 84 10000 6.2 240 21:57 20.11.2019
4037 Clouds 4 1017 84 10000 6.2 240 21:38 20.11.2019
4038 Clouds 3 1017 84 10000 5.7 240 21:19 20.11.2019
4039 Clouds 4 1017 84 10000 4.6 240 20:56 20.11.2019
4040 Clouds 4 1017 84 10000 4.6 240 20:37 20.11.2019
4041 Clouds 5 1017 88 10000 6.2 220 20:19 20.11.2019
4042 Clouds 4 1016 88 10000 6.2 220 19:55 20.11.2019
4043 Clouds 4 1016 88 10000 6.2 220 19:55 20.11.2019
4044 Clouds 4 1016 88 10000 6.2 220 19:36 20.11.2019
4045 Clouds 5 1016 88 10000 7.7 220 19:18 20.11.2019
4046 Clouds 5 1016 88 10000 7.7 220 18:57 20.11.2019
4047 Clouds 5 1016 88 10000 7.7 220 18:38 20.11.2019
4048 Clouds 5 1016 88 10000 7.2 210 18:20 20.11.2019
4049 Clouds 4 1016 88 10000 7.2 200 17:55 20.11.2019
4050 Clouds 4 1016 88 10000 7.2 200 17:37 20.11.2019
4051 Clouds 4 1016 84 10000 5.7 200 17:18 20.11.2019
4052 Clouds 4 1015 84 10000 8.2 200 16:41 20.11.2019
4053 Clouds 5 1016 84 10000 7.7 190 16:20 20.11.2019
4054 Clouds 5 1016 84 10000 7.7 200 15:58 20.11.2019
4055 Clouds 5 1016 84 10000 7.7 200 15:40 20.11.2019
4056 Clouds 5 1016 84 10000 8.2 210 15:20 20.11.2019
4057 Clouds 5 1016 65 10000 8.7 190 14:58 20.11.2019
4058 Clouds 5 1016 65 10000 8.7 190 14:39 20.11.2019
4059 Clouds 5 1016 65 10000 11.8 190 14:21 20.11.2019
4060 Clouds 5 1016 65 10000 10.3 190 13:57 20.11.2019
4061 Clouds 5 1016 65 10000 10.3 190 13:38 20.11.2019
4062 Clouds 5 1016 86 10000 8.7 190 13:19 20.11.2019
4063 Clouds 5 1016 86 10000 11.3 200 12:42 20.11.2019
4064 Clouds 5 1016 86 10000 9.3 200 12:24 20.11.2019
4065 Clouds 5 1016 86 10000 8.2 180 11:57 20.11.2019
4066 Clouds 5 1016 86 10000 8.2 180 11:38 20.11.2019
4067 Clear 5 1016 85 10000 9.8 190 11:20 20.11.2019
4068 Clear 5 1016 85 10000 11.8 200 10:55 20.11.2019
4069 Clear 5 1016 85 10000 11.8 200 10:36 20.11.2019
4070 Clear 4 1016 85 10000 8.7 200 10:18 20.11.2019
4071 Clear 4 1016 85 10000 9.3 200 09:43 20.11.2019
4072 Clear 4 1016 85 10000 9.3 190 09:21 20.11.2019
4073 Clear 4 1016 74 10000 11.8 190 08:56 20.11.2019
4074 Clear 4 1016 74 10000 11.8 190 08:37 20.11.2019
4075 Clouds 4 1016 74 10000 10.3 180 08:18 20.11.2019
4076 Clouds 4 1016 74 10000 9.8 190 07:42 20.11.2019
4077 -273 0 0 0 0 0 07:24 20.11.2019
4078 Clouds 3 1017 74 10000 11.8 190 06:47 20.11.2019
4079 Clouds 3 1017 74 10000 11.3 190 06:20 20.11.2019
4080 Clouds -1 1019 88 0 6.23 167 04:52 20.11.2019
4081 Clouds 3 1019 74 10000 19 180 03:28 20.11.2019
4082 Clouds 3 1019 74 10000 11.8 180 02:18 20.11.2019
4083 Clouds 4 1019 69 10000 13.9 190 01:32 20.11.2019
4084 Clouds 4 1019 84 10000 14.9 190 00:40 20.11.2019
4085 Clouds 3 1019 74 10000 14.9 190 23:52 19.11.2019
4086 Clouds 3 1019 74 10000 14.9 190 23:26 19.11.2019
4087 Clouds 4 1019 74 10000 11.8 180 22:57 19.11.2019
4088 Clouds 4 1019 74 10000 11.8 180 22:39 19.11.2019
4089 Clouds 4 1020 74 10000 11.8 190 22:19 19.11.2019
4090 Clouds 5 1020 74 10000 11.8 180 21:56 19.11.2019
4091 Clouds 5 1020 74 10000 11.8 180 21:37 19.11.2019
4092 Clouds 4 1020 74 10000 10.8 190 21:19 19.11.2019
4093 Clouds 4 1020 74 10000 9.8 190 20:56 19.11.2019
4094 Clouds 4 1020 74 10000 9.8 190 20:38 19.11.2019
4095 Clouds 4 1020 74 10000 10.3 190 20:19 19.11.2019
4096 Clouds 4 1020 74 10000 9.3 190 19:56 19.11.2019
4097 Clouds 4 1020 74 10000 9.3 190 19:38 19.11.2019
4098 Clouds 4 1021 74 10000 8.7 190 19:19 19.11.2019
4099 Clouds 4 1021 74 10000 9.3 190 18:55 19.11.2019
4100 Clouds 4 1021 74 10000 9.3 190 18:36 19.11.2019
4101 Clouds 4 1021 74 10000 8.7 190 18:18 19.11.2019
4102 Clouds 3 1021 74 10000 9.3 190 17:55 19.11.2019
4103 Clouds 3 1021 74 10000 9.3 190 17:36 19.11.2019
4104 Clouds 3 1021 74 10000 10.3 190 17:18 19.11.2019
4105 Clouds 3 1021 74 10000 9.3 190 16:42 19.11.2019
4106 Clouds 3 1021 74 10000 9.3 190 16:22 19.11.2019
4107 Clouds 3 1021 80 10000 8.7 190 15:56 19.11.2019
4108 Clouds 3 1021 80 10000 8.7 190 15:38 19.11.2019
4109 Clouds 3 1021 80 10000 8.7 190 15:38 19.11.2019
4110 Clouds 3 1021 80 10000 7.2 190 15:20 19.11.2019
4111 Clouds 3 1022 74 10000 7.7 200 14:55 19.11.2019
4112 Clouds 3 1022 74 10000 7.7 200 14:37 19.11.2019
4113 Clouds 3 1022 74 10000 7.7 200 14:37 19.11.2019
4114 Clouds 3 1021 74 10000 8.7 200 14:19 19.11.2019
4115 Clouds 3 1022 74 10000 8.2 200 13:40 19.11.2019
4116 Clouds 2 1022 74 10000 9.8 200 13:19 19.11.2019
4117 Clouds 2 1022 74 10000 9.8 190 12:40 19.11.2019
4118 Clouds 2 1022 80 10000 8.7 200 12:22 19.11.2019
4119 Clouds 1 1022 85 10000 10.3 190 11:58 19.11.2019
4120 Clouds 1 1022 85 10000 10.3 190 11:38 19.11.2019
4121 Clouds 1 1022 89 10000 10.8 200 11:19 19.11.2019
4122 Rain 1 1022 89 10000 10.3 200 10:48 19.11.2019
4123 Rain 1 1022 89 10000 11.3 200 10:23 19.11.2019
4124 Rain 1 1022 89 10000 10.3 200 09:58 19.11.2019
4125 Rain 1 1022 89 10000 10.3 200 09:40 19.11.2019
4126 Snow 1 1021 89 10000 9.8 200 09:19 19.11.2019
4127 Snow 1 1021 89 10000 10.3 190 08:41 19.11.2019
4128 Clouds 1 1021 74 10000 9.8 200 08:23 19.11.2019
4129 Clouds 2 1021 69 10000 9.8 200 07:57 19.11.2019
4130 Clouds 2 1021 69 10000 9.8 200 07:39 19.11.2019
4131 Clouds 0 1021 88 10000 11.3 190 07:20 19.11.2019
4132 Clouds 0 1021 88 10000 10.3 190 06:50 19.11.2019
4133 Clouds 0 1021 88 10000 10.3 190 06:30 19.11.2019
4134 Clouds 0 1021 88 10000 10.3 200 05:39 19.11.2019
4135 Clouds 0 1021 87 10000 9.8 190 04:22 19.11.2019
4136 Clouds -3 1022 79 10000 5.7 180 03:32 19.11.2019
4137 Clouds -4 1022 85 10000 3.1 150 02:56 19.11.2019
4138 Clouds -4 1022 85 10000 3.1 150 02:22 19.11.2019
4139 Clouds -3 1023 79 10000 6.2 200 01:27 19.11.2019
4140 Clouds -4 1023 79 10000 3.6 210 00:21 19.11.2019
4141 Clouds -2 1023 74 10000 4.1 210 23:57 18.11.2019
4142 Clouds -2 1023 74 10000 4.1 210 23:37 18.11.2019
4143 Clouds 0 1023 74 10000 6.2 210 23:18 18.11.2019
4144 Clouds 0 1023 74 10000 6.7 210 22:42 18.11.2019
4145 Clouds 0 1022 79 10000 5.1 210 22:23 18.11.2019
4146 Clouds -1 1022 79 10000 6.7 210 21:55 18.11.2019
4147 Clouds -1 1022 79 10000 6.7 210 21:37 18.11.2019
4148 Clouds -1 1022 79 10000 5.7 200 21:19 18.11.2019
4149 Clouds 0 1022 74 10000 7.7 210 20:56 18.11.2019
4150 Clouds 0 1022 74 10000 7.7 210 20:38 18.11.2019
4151 Clouds 0 1022 74 10000 10.3 200 20:18 18.11.2019
4152 Clouds 0 1022 68 10000 9.3 200 19:54 18.11.2019
4153 Clouds 0 1022 68 10000 9.3 200 19:36 18.11.2019
4154 Clouds 0 1022 74 10000 9.8 200 19:18 18.11.2019
4155 Clouds 0 1022 68 10000 10.3 200 18:54 18.11.2019
4156 Clouds 0 1022 68 10000 10.3 200 18:54 18.11.2019
4157 Clouds 0 1022 68 10000 10.3 200 18:36 18.11.2019
4158 Clouds 0 1022 74 10000 9.8 200 18:18 18.11.2019
4159 Clouds 0 1022 74 10000 8.2 200 17:38 18.11.2019
4160 Clouds 0 1021 74 10000 9.3 210 17:19 18.11.2019
4161 Clouds 0 1021 74 10000 9.8 200 16:54 18.11.2019
4162 -273 0 0 0 0 0 16:54 18.11.2019
4163 Clouds 0 1021 74 10000 9.8 200 16:36 18.11.2019
4164 Clouds 0 1022 74 10000 9.3 190 16:18 18.11.2019
4165 Clouds 0 1021 74 10000 9.3 200 15:54 18.11.2019
4166 Clouds 0 1021 74 10000 9.3 200 15:36 18.11.2019
4167 Clouds -1 1022 68 10000 9.8 200 15:18 18.11.2019
4168 Clouds -1 1022 68 10000 8.7 190 14:41 18.11.2019
4169 Clear -1 1022 73 10000 7.7 190 14:22 18.11.2019
4170 Clear -2 1021 73 10000 3.6 170 13:46 18.11.2019
4171 Clear -3 1022 79 10000 3.1 160 13:27 18.11.2019
4172 Clouds -3 1021 85 10000 1.5 150 12:57 18.11.2019
4173 Clouds -3 1021 85 10000 1.5 150 12:37 18.11.2019
4174 Clouds -3 1021 79 10000 3.6 200 12:18 18.11.2019
4175 Clouds -3 1021 79 10000 3.6 200 11:44 18.11.2019
4176 Clouds -3 1021 79 10000 3.1 190 11:25 18.11.2019
4177 Clouds -2 1021 85 10000 3.1 200 10:55 18.11.2019
4178 Clouds -2 1021 85 10000 3.1 200 10:37 18.11.2019
4179 Clouds -3 1021 79 10000 4.1 210 10:18 18.11.2019
4180 Clouds -2 1021 85 10000 5.7 210 09:54 18.11.2019
4181 Clouds -2 1021 85 10000 5.7 210 09:36 18.11.2019
4182 Clouds -2 1021 79 10000 5.7 210 09:18 18.11.2019
4183 Clouds -2 1021 79 10000 5.7 210 09:18 18.11.2019
4184 Clouds -2 1020 79 10000 5.7 220 08:42 18.11.2019
4185 Clouds -3 1020 79 10000 5.1 210 08:20 18.11.2019
4186 Clouds -2 1020 79 10000 5.7 200 07:47 18.11.2019
4187 Clouds -5 1020 85 10000 5.7 210 07:29 18.11.2019
4188 Clouds -3 1019 73 10000 6.2 210 06:56 18.11.2019
4189 Clouds -3 1019 73 10000 7.2 200 06:32 18.11.2019
4190 Clouds -3 1019 73 10000 5.7 200 05:48 18.11.2019
4191 Clouds -2 1019 74 10000 9.3 200 04:46 18.11.2019
4192 Clouds -2 1018 74 10000 7.7 200 01:56 18.11.2019
4193 Clouds -2 1018 74 10000 7.7 200 01:31 18.11.2019
4194 Clouds -2 1018 74 10000 8.7 190 00:24 18.11.2019
4195 Clouds -2 1018 74 10000 4.6 140 23:44 17.11.2019
4196 Clouds -2 1018 74 10000 9.3 190 23:24 17.11.2019
4197 Clouds -1 1018 79 10000 9.3 200 22:58 17.11.2019
4198 Clouds -1 1018 79 10000 9.3 200 22:40 17.11.2019
4199 Clouds -1 1018 68 10000 5.1 200 22:22 17.11.2019
4200 Clouds -1 1018 73 10000 5.7 190 21:58 17.11.2019
4201 Clouds -1 1018 73 10000 5.7 190 21:40 17.11.2019
4202 Clouds -1 1018 74 10000 6.7 200 21:19 17.11.2019
4203 Clouds -1 1018 68 10000 5.7 200 20:56 17.11.2019
4204 Clouds -1 1018 68 10000 5.7 200 20:38 17.11.2019
4205 Clouds -1 1018 68 10000 5.7 200 20:38 17.11.2019
4206 Clouds -2 1018 68 10000 5.7 190 20:19 17.11.2019
4207 Clouds -2 1018 68 10000 5.7 190 20:19 17.11.2019
4208 Clouds -2 1017 68 10000 7.7 190 19:56 17.11.2019
4209 Clouds -2 1017 68 10000 7.7 190 19:37 17.11.2019
4210 Clouds -2 1017 68 10000 13.9 190 19:19 17.11.2019
4211 Clouds -2 1017 68 10000 12.9 190 18:55 17.11.2019
4212 Clouds -2 1017 68 10000 12.9 190 18:37 17.11.2019
4213 Clouds -2 1018 68 10000 11.8 190 18:18 17.11.2019
4214 Clouds -2 1017 68 10000 10.3 190 17:57 17.11.2019
4215 Clouds -2 1017 68 10000 10.3 190 17:38 17.11.2019
4216 Clouds 0 1017 68 10000 11.8 190 17:20 17.11.2019
4217 Clouds 0 1018 63 10000 7.7 180 16:57 17.11.2019
4218 Clouds 0 1018 63 10000 7.7 180 16:39 17.11.2019
4219 Clouds -1 1018 68 10000 6.2 160 16:21 17.11.2019
4220 Clouds 0 1018 63 10000 12.9 180 15:55 17.11.2019
4221 Clouds 0 1018 63 10000 12.9 180 15:36 17.11.2019
4222 Clouds 0 1018 63 10000 12.9 180 15:36 17.11.2019
4223 Clouds 0 1018 63 10000 12.3 180 15:18 17.11.2019
4224 Clouds 0 1018 68 10000 15.9 190 14:55 17.11.2019
4225 Clouds 0 1018 68 10000 15.9 190 14:37 17.11.2019
4226 Clouds -2 1018 68 10000 14.4 190 14:18 17.11.2019
4227 Clouds -2 1018 68 10000 14.9 200 13:54 17.11.2019
4228 Clouds -2 1018 68 10000 14.9 200 13:36 17.11.2019
4229 Clouds -2 1018 74 10000 11.3 190 13:18 17.11.2019
4230 Clouds -1 1018 68 10000 12.3 190 12:39 17.11.2019
4231 Clouds -1 1018 68 10000 7.2 180 12:21 17.11.2019
4232 Clouds -1 1018 68 10000 7.2 180 12:21 17.11.2019
4233 Clouds -1 1018 68 10000 10.3 180 11:56 17.11.2019
4234 Clouds -1 1018 68 10000 10.3 180 11:38 17.11.2019
4235 Clouds -1 1018 68 10000 12.3 190 11:19 17.11.2019
4236 Clouds -1 1018 68 10000 12.3 190 11:19 17.11.2019
4237 Clouds -1 1018 68 10000 14.4 190 10:43 17.11.2019
4238 Clouds -1 1019 68 10000 16.5 190 10:23 17.11.2019
4239 Clouds -1 1019 68 10000 13.4 190 09:57 17.11.2019
4240 Clouds -1 1019 68 10000 13.4 190 09:39 17.11.2019
4241 Clouds -1 1019 68 10000 10.3 190 09:20 17.11.2019
4242 Clouds -2 1019 74 10000 9.8 180 08:39 17.11.2019
4243 Clouds -2 1019 74 10000 12.3 190 08:20 17.11.2019
4244 Clouds -3 1019 73 10000 10.8 170 07:46 17.11.2019
4245 Clouds -3 1019 73 10000 11.8 180 07:24 17.11.2019
4246 Clouds -3 1019 68 10000 11.3 180 06:57 17.11.2019
4247 Clouds -3 1019 68 10000 11.3 180 06:32 17.11.2019
4248 Clouds -2 1019 68 10000 10.3 180 05:40 17.11.2019
4249 Clouds -2 1019 68 10000 10.3 180 05:40 17.11.2019
4250 Clear -1 1018 68 10000 8.2 180 04:23 17.11.2019
4251 Clear -1 1018 68 10000 7.7 180 03:45 17.11.2019
4252 Clear -1 1018 68 10000 10.3 190 03:25 17.11.2019
4253 Clear -1 1019 68 10000 11.8 190 02:27 17.11.2019
4254 Clear -1 1019 74 10000 10.3 190 01:37 17.11.2019
4255 Clear -1 1019 68 10000 6.2 150 00:54 17.11.2019
4256 Clear 0 1019 88 10000 8.7 180 00:22 17.11.2019
4257 Clear 0 1019 88 10000 10.3 190 23:46 16.11.2019
4258 Clear 0 1019 84 10000 9.8 180 23:20 16.11.2019
4259 Clear 0 1019 84 10000 7.7 180 22:59 16.11.2019
4260 Clear 0 1019 84 10000 7.7 180 22:40 16.11.2019
4261 Clear 0 1019 84 10000 7.7 180 22:40 16.11.2019
4262 Clear -1 1020 68 10000 8.7 190 22:19 16.11.2019
4263 Clear -1 1020 68 10000 7.7 180 21:56 16.11.2019
4264 Clear -1 1020 68 10000 7.7 180 21:37 16.11.2019
4265 Clear 0 1020 84 10000 6.7 140 21:19 16.11.2019
4266 Clear 0 1020 84 10000 6.2 140 20:41 16.11.2019
4267 Clear 0 1020 78 10000 6.2 130 20:21 16.11.2019
4268 Clear 0 1020 78 10000 8.2 140 19:58 16.11.2019
4269 Clear 0 1020 78 10000 8.2 140 19:39 16.11.2019
4270 Clear -1 1020 74 10000 5.7 150 19:20 16.11.2019
4271 Clear -1 1020 80 10000 4.1 130 18:46 16.11.2019
4272 Clear 0 1020 78 10000 6.2 130 18:28 16.11.2019
4273 Clear 0 1020 78 10000 5.7 130 17:56 16.11.2019
4274 Clear 0 1020 78 10000 5.7 130 17:38 16.11.2019
4275 Clear -1 1020 80 10000 7.2 150 17:19 16.11.2019
4276 Clear 0 1020 83 10000 6.2 150 16:48 16.11.2019
4277 Clear 0 1020 83 10000 6.2 150 16:30 16.11.2019
4278 Clear 0 1020 83 10000 4.6 140 15:58 16.11.2019
4279 Clear 0 1020 83 10000 4.6 140 15:39 16.11.2019
4280 Clear 0 1020 83 10000 5.1 160 15:20 16.11.2019
4281 Clear 0 1020 83 10000 5.1 160 14:57 16.11.2019
4282 Clear 0 1020 83 10000 5.1 160 14:57 16.11.2019
4283 Clear 0 1020 83 10000 5.1 160 14:39 16.11.2019
4284 Clouds 1 1020 74 10000 3.6 130 14:20 16.11.2019
4285 Clouds 1 1020 80 10000 4.1 120 13:55 16.11.2019
4286 Clouds 1 1020 80 10000 4.1 120 13:37 16.11.2019
4287 Clouds 0 1020 88 10000 4.6 120 13:18 16.11.2019
4288 Clouds 0 1020 88 10000 4.6 120 13:18 16.11.2019
4289 Clouds 0 1020 88 10000 4.1 140 12:42 16.11.2019
4290 Clouds 0 1020 88 10000 5.1 150 12:23 16.11.2019
4291 Clouds 0 1020 88 10000 4.1 140 11:57 16.11.2019
4292 Clouds 0 1020 88 10000 4.1 140 11:38 16.11.2019
4293 Clouds -1 1020 80 10000 2.6 170 11:20 16.11.2019
4294 Clouds 0 1020 88 10000 3.1 180 10:44 16.11.2019
4295 Clouds -1 1020 86 10000 3.6 160 10:25 16.11.2019
4296 Clouds -1 1020 86 10000 3.6 160 09:59 16.11.2019
4297 Clouds -1 1020 86 10000 3.6 160 09:59 16.11.2019
4298 Clouds -1 1020 86 10000 4.6 160 09:40 16.11.2019
4299 Clouds 0 1020 88 10000 4.1 120 09:20 16.11.2019
4300 Clouds 0 1020 88 10000 3.1 90 08:56 16.11.2019
4301 Clouds 0 1020 88 10000 3.1 90 08:36 16.11.2019
4302 Clouds 0 1020 90 10000 3.6 90 08:18 16.11.2019
4303 Clouds 0 1020 90 10000 3.6 90 07:40 16.11.2019
4304 Clouds -2 1019 92 10000 2.6 160 07:18 16.11.2019
4305 Clouds -1 1019 86 10000 3.1 150 06:43 16.11.2019
4306 Clouds -2 1019 92 10000 2.6 110 06:20 16.11.2019
4307 Clouds -1 1019 100 10000 1 170 04:45 16.11.2019
4308 Snow 1 1019 94 5000 1.5 0 03:26 16.11.2019
4309 Snow 1 1019 94 6000 1 0 02:36 16.11.2019
4310 Snow 1 1019 94 6000 1 0 02:36 16.11.2019
4311 Clouds 1 1018 97 10000 1.5 280 01:41 16.11.2019
4312 Clouds 1 1018 95 10000 2.1 300 00:51 16.11.2019
4313 Clouds 1 1018 95 10000 2.1 300 00:31 16.11.2019
4314 Rain 1 1017 95 7000 2.1 330 23:58 15.11.2019
4315 Rain 2 1017 95 7000 2.1 330 23:38 15.11.2019
4316 Clouds 2 1017 94 10000 1 350 23:20 15.11.2019
4317 Rain 2 1017 86 10000 2.6 270 22:42 15.11.2019
4318 Clouds 2 1017 94 10000 2.1 290 22:20 15.11.2019
4319 Clouds 2 1017 94 10000 2.1 290 21:59 15.11.2019
4320 Clouds 2 1017 94 10000 3.1 330 21:40 15.11.2019
4321 Clouds 2 1017 94 10000 3.1 350 21:20 15.11.2019
4322 Clouds 2 1016 94 10000 3.1 30 20:57 15.11.2019
4323 Clouds 2 1016 94 10000 3.1 30 20:39 15.11.2019
4324 Clouds 2 1016 94 10000 3.1 30 20:39 15.11.2019
4325 Rain 2 1016 94 10000 4.6 20 20:21 15.11.2019
4326 Snow 2 1016 94 9000 3.1 10 19:57 15.11.2019
4327 Snow 2 1016 94 9000 3.1 10 19:39 15.11.2019
4328 Snow 2 1016 94 10000 2.1 320 19:20 15.11.2019
4329 Clouds 2 1015 94 10000 2.6 290 18:57 15.11.2019
4330 Clouds 2 1015 94 10000 2.6 290 18:39 15.11.2019
4331 Rain 2 1015 94 10000 3.6 300 18:21 15.11.2019
4332 Rain 3 1015 93 10000 4.6 290 17:42 15.11.2019
4333 Rain 2 1015 100 10000 4.1 290 17:24 15.11.2019
4334 Snow 3 1014 93 9000 5.1 280 16:56 15.11.2019
4335 Snow 3 1014 93 9000 5.1 280 16:37 15.11.2019
4336 Snow 3 1014 93 9000 5.1 280 16:19 15.11.2019
4337 Snow 3 1014 93 10000 6.2 310 15:38 15.11.2019
4338 Rain 3 1014 93 10000 6.2 310 15:20 15.11.2019
4339 Snow 2 1013 93 10000 7.7 300 14:57 15.11.2019
4340 Snow 2 1013 93 10000 7.7 300 14:38 15.11.2019
4341 Rain 2 1013 93 10000 7.7 320 14:19 15.11.2019
4342 Rain 2 1013 93 10000 6.7 280 13:58 15.11.2019
4343 Rain 2 1013 93 10000 6.7 280 13:39 15.11.2019
4344 Rain 2 1013 93 10000 7.2 280 13:20 15.11.2019
4345 Rain 1 1012 98 10000 9.3 290 12:58 15.11.2019
4346 Rain 1 1012 98 10000 9.3 290 12:39 15.11.2019
4347 Snow 2 1012 93 10000 7.2 280 12:20 15.11.2019
4348 Snow 2 1012 93 10000 8.2 280 11:57 15.11.2019
4349 Snow 2 1012 93 10000 8.2 280 11:38 15.11.2019
4350 Snow 3 1011 94 10000 5.7 270 11:20 15.11.2019
4351 Rain 3 1012 94 10000 7.7 290 10:56 15.11.2019
4352 Rain 3 1012 94 10000 7.7 290 10:38 15.11.2019
4353 Snow 3 1011 94 10000 7.7 280 10:18 15.11.2019
4354 Snow 3 1011 94 10000 7.7 280 10:18 15.11.2019
4355 Rain 3 1011 94 10000 8.2 290 09:40 15.11.2019
4356 Snow 3 1011 80 10000 9.3 300 09:19 15.11.2019
4357 Clouds 2 1010 86 10000 7.2 290 08:44 15.11.2019
4358 Clouds 2 1010 80 10000 7.2 290 08:23 15.11.2019
4359 Clouds 2 1010 80 10000 7.7 300 07:49 15.11.2019
4360 Clouds 1 1009 86 10000 6.7 290 07:28 15.11.2019
4361 Clouds 1 1009 86 10000 5.1 290 06:50 15.11.2019
4362 Clouds 1 1009 86 10000 5.1 290 06:31 15.11.2019
4363 Snow 2 1009 80 10000 6.7 330 05:42 15.11.2019
4364 Rain 2 1009 80 10000 9.3 320 05:23 15.11.2019
4365 Drizzle 2 1008 97 10000 6.7 280 03:56 15.11.2019
4366 Clouds 2 1008 97 10000 8.2 310 03:24 15.11.2019
4367 Rain 2 1008 97 10000 8.2 300 02:20 15.11.2019
4368 Rain 1 1007 98 10000 4.1 280 01:33 15.11.2019
4369 Clouds 1 1007 98 10000 6.7 280 00:54 15.11.2019
4370 Rain 1 1007 98 10000 5.7 290 00:33 15.11.2019
4371 Clouds 2 1007 80 10000 4.6 270 23:57 14.11.2019
4372 Clouds 2 1007 80 10000 4.6 270 23:38 14.11.2019
4373 Clouds 1 1007 96 10000 3.6 230 23:18 14.11.2019
4374 Clouds 2 1007 80 10000 1.5 250 22:40 14.11.2019
4375 Clouds 1 1007 96 10000 2.6 290 22:21 14.11.2019
4376 Clouds 2 1007 86 10000 3.1 280 21:56 14.11.2019
4377 Clouds 2 1007 86 10000 3.1 280 21:56 14.11.2019
4378 Clouds 2 1007 86 10000 3.1 280 21:38 14.11.2019
4379 Clouds 2 1007 86 10000 3.1 280 21:19 14.11.2019
4380 Clouds 2 1007 96 10000 3.1 280 20:42 14.11.2019
4381 Clouds 2 1007 96 10000 3.1 280 20:42 14.11.2019
4382 Clouds 2 1006 97 10000 3.1 280 20:24 14.11.2019
4383 Clouds 2 1006 94 10000 5.1 310 19:59 14.11.2019
4384 Clouds 2 1006 94 10000 5.1 310 19:41 14.11.2019
4385 Clouds 2 1006 86 10000 5.7 290 19:18 14.11.2019
4386 Clouds 2 1006 80 10000 5.7 310 18:56 14.11.2019
4387 Clouds 1 1006 94 10000 4.6 280 18:38 14.11.2019
4388 Clouds 1 1006 94 10000 4.6 280 18:20 14.11.2019
4389 Clouds 1 1006 94 10000 4.6 280 18:20 14.11.2019
4390 Clouds 1 1006 94 10000 4.6 280 17:55 14.11.2019
4391 Clouds 1 1005 74 10000 3.1 300 17:37 14.11.2019
4392 Clouds 1 1005 74 10000 3.1 300 17:18 14.11.2019
4393 Clouds 1 1005 86 10000 4.1 290 16:57 14.11.2019
4394 Clouds 1 1005 86 10000 4.1 290 16:36 14.11.2019
4395 Clouds 1 1005 86 10000 5.1 280 16:18 14.11.2019
4396 Rain -1 1005 92 10000 4.1 270 15:54 14.11.2019
4397 Rain -1 1005 92 10000 4.1 270 15:36 14.11.2019
4398 Snow 0 1005 86 10000 4.1 280 15:18 14.11.2019
4399 Clouds 0 1005 86 10000 3.6 290 14:43 14.11.2019
4400 Clouds 0 1005 80 10000 4.6 290 14:22 14.11.2019
4401 Clouds 0 1005 86 10000 3.6 290 13:56 14.11.2019
4402 Clouds 0 1005 86 10000 3.6 290 13:37 14.11.2019
4403 Clouds -2 1005 86 10000 2.6 280 13:19 14.11.2019
4404 Clouds -3 1005 79 10000 2.1 290 12:46 14.11.2019
4405 Clouds -4 1004 86 10000 1.5 240 12:26 14.11.2019
4406 Clouds -4 1004 79 10000 1.5 260 11:59 14.11.2019
4407 Clouds -4 1004 79 10000 1.5 260 11:38 14.11.2019
4408 Clouds -4 1004 86 10000 1.5 250 11:20 14.11.2019
4409 Clouds -4 1004 86 10000 2.1 260 10:58 14.11.2019
4410 Clouds -4 1004 86 10000 2.1 260 10:38 14.11.2019
4411 Clouds -4 1004 92 10000 3.1 240 10:19 14.11.2019
4412 Clouds -4 1004 86 10000 3.6 230 09:56 14.11.2019
4413 Clouds -4 1004 86 10000 3.6 230 09:37 14.11.2019
4414 Clouds -4 1004 79 10000 3.6 230 09:18 14.11.2019
4415 Clouds -4 1004 79 10000 3.6 230 08:46 14.11.2019
4416 Clouds -3 1003 86 10000 4.6 230 08:25 14.11.2019
4417 Clouds -2 1003 86 10000 4.1 220 07:43 14.11.2019
4418 Clouds -1 1003 80 10000 4.6 220 07:25 14.11.2019
4419 Clouds -1 1003 80 10000 5.7 210 06:55 14.11.2019
4420 Clouds -1 1003 80 10000 5.7 210 06:37 14.11.2019
4421 Clouds 0 1003 88 10000 6.2 200 06:18 14.11.2019
4422 Clear -2 1003 79 10000 4.6 180 04:40 14.11.2019
4423 Clear -2 1003 74 10000 4.6 190 03:59 14.11.2019
4424 Clear -3 1003 86 10000 2.1 180 02:43 14.11.2019
4425 Clear -2 1003 86 10000 2.6 190 01:41 14.11.2019
4426 Clear -2 1003 86 10000 2.6 190 01:20 14.11.2019
4427 Clear -2 1004 74 10000 4.1 190 00:48 14.11.2019
4428 Clear -2 1004 79 10000 4.6 200 00:25 14.11.2019
4429 Clear -1 1003 86 10000 4.1 190 23:41 13.11.2019
4430 Clear -1 1003 79 10000 4.1 190 23:21 13.11.2019
4431 Clouds -1 1003 79 10000 5.1 190 22:56 13.11.2019
4432 Clouds -1 1003 79 10000 5.1 190 22:38 13.11.2019
4433 Clouds -1 1003 80 10000 5.1 190 22:20 13.11.2019
4434 Clouds -1 1003 80 10000 7.2 200 21:55 13.11.2019
4435 Clouds -1 1003 80 10000 7.2 200 21:37 13.11.2019
4436 Clouds -1 1003 80 10000 8.2 200 21:19 13.11.2019
4437 Clouds -1 1003 74 10000 9.3 190 20:56 13.11.2019
4438 Clouds -1 1003 74 10000 9.3 190 20:37 13.11.2019
4439 Clouds -1 1003 74 10000 10.8 190 20:18 13.11.2019
4440 Clouds 0 1003 74 10000 13.9 190 19:44 13.11.2019
4441 Clouds 0 1003 74 10000 11.8 190 19:20 13.11.2019
4442 Clouds 0 1003 74 10000 11.3 180 18:58 13.11.2019
4443 Clouds 0 1003 74 10000 11.3 180 18:58 13.11.2019
4444 Clouds 0 1003 74 10000 11.3 180 18:39 13.11.2019
4445 Clouds 0 1003 74 10000 11.3 180 18:39 13.11.2019
4446 Clouds 0 1003 74 10000 9.8 180 18:21 13.11.2019
4447 Clouds 0 1004 74 10000 11.3 160 17:58 13.11.2019
4448 Clouds 0 1004 74 10000 11.3 160 17:40 13.11.2019
4449 Clouds -1 1004 74 10000 12.9 170 17:21 13.11.2019
4450 Clouds -1 1004 74 10000 12.9 180 16:58 13.11.2019
4451 Clouds -1 1004 74 10000 12.9 180 16:58 13.11.2019
4452 Clouds -1 1004 74 10000 12.9 180 16:40 13.11.2019
4453 Clouds -1 1004 74 10000 12.9 180 16:40 13.11.2019
4454 Clouds 0 1004 74 10000 12.3 180 16:21 13.11.2019
4455 Clouds -1 1005 68 10000 16.5 180 15:58 13.11.2019
4456 Clouds -1 1005 68 10000 16.5 180 15:39 13.11.2019
4457 Clouds -1 1005 68 10000 16.5 180 15:20 13.11.2019
4458 Clouds 0 1005 68 10000 14.4 180 14:43 13.11.2019
4459 Clouds 0 1005 68 10000 11.8 170 14:23 13.11.2019
4460 Clouds -1 1005 73 10000 16.5 160 13:59 13.11.2019
4461 Clouds 0 1006 74 10000 13.9 160 13:37 13.11.2019
4462 Clouds 0 1006 74 10000 13.9 160 13:19 13.11.2019
4463 Rain -1 1007 74 10000 13.4 160 12:57 13.11.2019
4464 Rain -1 1007 74 10000 13.4 160 12:38 13.11.2019
4465 Rain -1 1007 74 10000 13.4 160 12:38 13.11.2019
4466 Rain -1 1007 74 10000 17.5 160 12:19 13.11.2019
4467 Rain -1 1007 74 10000 15.4 150 11:41 13.11.2019
4468 Rain 0 1008 74 10000 15.9 170 11:21 13.11.2019
4469 Clouds 0 1008 74 10000 8.7 170 10:59 13.11.2019
4470 Clouds 0 1008 74 10000 8.7 170 10:41 13.11.2019
4471 Clouds 0 1008 68 10000 14.9 160 10:21 13.11.2019
4472 Clouds 0 1009 73 10000 10.3 160 09:59 13.11.2019
4473 Clouds 0 1009 73 10000 10.3 160 09:39 13.11.2019
4474 Clouds 0 1009 68 10000 11.8 150 09:20 13.11.2019
4475 Clouds 0 1009 68 10000 11.8 150 09:20 13.11.2019
4476 Clouds 0 1009 68 10000 9.3 120 08:40 13.11.2019
4477 Clouds -1 1009 73 10000 8.7 170 08:21 13.11.2019
4478 Clouds -1 1009 73 10000 13.9 190 07:43 13.11.2019
4479 Clouds -3 1010 73 10000 11.3 180 07:22 13.11.2019
4480 Clouds -2 1009 74 10000 13.4 190 06:58 13.11.2019
4481 Clouds -2 1009 74 10000 13.4 190 06:36 13.11.2019
4482 Clouds -2 1010 68 10000 14.4 200 06:18 13.11.2019
4483 Clouds -2 1010 74 10000 13.9 190 05:45 13.11.2019
4484 Clouds -3 1010 79 10000 12.3 180 04:56 13.11.2019
4485 Clouds -3 1010 73 10000 13.4 180 03:36 13.11.2019
4486 Clouds -3 1012 73 10000 20.1 190 01:48 13.11.2019
4487 Clouds -3 1012 73 10000 20.1 190 01:23 13.11.2019
4488 Clouds -3 1012 73 10000 11.3 170 00:37 13.11.2019
4489 Clouds -4 1013 73 10000 14.9 180 23:56 12.11.2019
4490 Clouds -1 1013 73 10000 14.9 180 23:37 12.11.2019
4491 Clouds -2 1012 73 10000 15.4 180 23:18 12.11.2019
4492 Snow -2 1012 73 10000 13.9 180 22:40 12.11.2019
4493 Clouds -2 1012 73 10000 15.9 190 22:18 12.11.2019
4494 Clouds -2 1012 73 10000 15.4 180 21:54 12.11.2019
4495 Clouds -2 1012 73 10000 15.4 180 21:36 12.11.2019
4496 Clouds -3 1013 73 10000 14.9 190 21:18 12.11.2019
4497 Clouds -3 1012 73 10000 15.9 190 20:54 12.11.2019
4498 Clouds -3 1012 73 10000 15.9 190 20:36 12.11.2019
4499 Clouds -3 1012 79 10000 17.5 190 20:18 12.11.2019
4500 Clouds -3 1013 73 10000 13.9 180 19:54 12.11.2019
4501 Clouds -3 1013 73 10000 13.9 180 19:36 12.11.2019
4502 Clouds -4 1013 79 10000 13.9 160 19:18 12.11.2019
4503 Clouds -3 1014 73 10000 15.9 160 18:41 12.11.2019
4504 Clouds -4 1014 73 10000 17 170 18:23 12.11.2019
4505 Clouds -4 1015 73 10000 15.9 170 17:58 12.11.2019
4506 Clouds -4 1015 73 10000 15.9 170 17:40 12.11.2019
4507 Clouds -3 1014 67 10000 12.9 180 17:21 12.11.2019
4508 Clouds -4 1015 73 10000 8.2 170 16:59 12.11.2019
4509 Clouds -4 1015 73 10000 8.2 170 16:40 12.11.2019
4510 Clouds -3 1015 73 10000 9.3 150 16:22 12.11.2019
4511 Clouds -2 1015 67 10000 10.8 170 15:42 12.11.2019
4512 Clouds -2 1015 67 10000 9.8 170 15:23 12.11.2019
4513 Clouds -3 1015 73 10000 10.3 170 14:58 12.11.2019
4514 Clouds -3 1015 73 10000 10.3 170 14:39 12.11.2019
4515 Clouds -2 1015 68 10000 11.8 170 14:19 12.11.2019
4516 Clouds -3 1015 73 10000 9.3 180 13:57 12.11.2019
4517 Clouds -3 1015 73 10000 9.3 180 13:39 12.11.2019
4518 Clouds -3 1015 73 10000 11.3 180 13:19 12.11.2019
4519 Clouds -2 1015 73 10000 10.8 170 12:55 12.11.2019
4520 Clouds -2 1015 73 10000 10.8 170 12:37 12.11.2019
4521 Clouds -3 1015 73 10000 11.3 170 12:18 12.11.2019
4522 Clouds -2 1016 67 10000 10.8 170 11:42 12.11.2019
4523 Clouds -3 1016 67 10000 12.9 150 11:22 12.11.2019
4524 Clouds -5 1016 67 10000 12.3 160 10:57 12.11.2019
4525 Clouds -2 1016 67 10000 12.3 160 10:39 12.11.2019
4526 Clouds -2 1016 67 10000 13.4 170 10:21 12.11.2019
4527 Clouds -3 1016 67 10000 10.3 160 09:57 12.11.2019
4528 Clouds -3 1016 67 10000 10.3 160 09:38 12.11.2019
4529 Clouds -3 1016 73 10000 11.8 170 09:18 12.11.2019
4530 Clouds -4 1016 73 10000 12.9 170 08:46 12.11.2019
4531 Clouds -4 1015 73 10000 12.3 150 08:27 12.11.2019
4532 Clouds -4 1015 73 10000 12.3 150 07:42 12.11.2019
4533 Clouds -6 1015 79 10000 12.9 130 07:23 12.11.2019
4534 Clouds -6 1015 73 10000 17 140 06:48 12.11.2019
4535 Clouds -6 1016 73 10000 16.5 140 06:24 12.11.2019
4536 Clouds -6 1016 73 10000 12.3 140 05:52 12.11.2019
4537 Clouds -6 1017 67 10000 6.7 120 04:51 12.11.2019
4538 Clouds -8 1017 72 10000 5.1 130 03:53 12.11.2019
4539 Clouds -7 1017 73 10000 5.1 120 01:53 12.11.2019
4540 Clouds -7 1017 67 10000 5.1 160 01:26 12.11.2019
4541 Clouds -6 1018 67 10000 3.6 170 00:52 12.11.2019
4542 Clouds -6 1018 67 10000 5.1 160 00:32 12.11.2019
4543 Clouds -6 1018 73 10000 5.1 180 23:50 11.11.2019
4544 Clouds -6 1018 73 10000 5.1 150 23:26 11.11.2019
4545 Clouds -2 1018 79 10000 7.7 160 22:59 11.11.2019
4546 Clouds -2 1018 79 10000 7.7 160 22:38 11.11.2019
4547 Clouds -3 1018 73 10000 7.7 160 22:19 11.11.2019
4548 Clouds -4 1018 85 10000 3.1 100 21:58 11.11.2019
4549 Clouds -4 1018 85 10000 3.1 100 21:39 11.11.2019
4550 Clouds -4 1018 78 10000 3.1 170 21:20 11.11.2019
4551 Clouds -2 1018 79 10000 4.6 140 20:55 11.11.2019
4552 Clouds -2 1018 79 10000 4.6 140 20:37 11.11.2019
4553 Clear -7 1018 79 10000 4.6 160 20:19 11.11.2019
4554 Clear -4 1018 79 10000 3.6 170 19:42 11.11.2019
4555 Clear -7 1018 79 10000 2.1 150 19:20 11.11.2019
4556 Clear -7 1018 79 10000 2.1 150 18:59 11.11.2019
4557 Clear -5 1018 73 10000 3.1 170 18:40 11.11.2019
4558 Clear -4 1018 79 10000 4.6 140 18:21 11.11.2019
4559 Clear -7 1018 79 10000 4.1 150 17:45 11.11.2019
4560 Clear -6 1018 79 10000 3.1 150 17:27 11.11.2019
4561 Clear -6 1018 79 10000 3.1 150 17:27 11.11.2019
4562 Clear -5 1019 79 10000 2.6 180 16:58 11.11.2019
4563 Clear -5 1019 79 10000 2.6 180 16:38 11.11.2019
4564 Clear -7 1019 79 10000 1.5 140 16:20 11.11.2019
4565 Clear -3 1019 73 10000 1.5 180 15:41 11.11.2019
4566 Clear -3 1019 79 10000 2.1 200 15:20 11.11.2019
4567 Clear -3 1019 79 10000 2.1 200 14:56 11.11.2019
4568 Clear -3 1019 85 10000 3.1 200 14:38 11.11.2019
4569 Clear -3 1019 79 10000 3.1 200 14:20 11.11.2019
4570 Clear -3 1019 79 10000 3.1 200 13:56 11.11.2019
4571 Clear -6 1019 79 10000 1.5 200 13:36 11.11.2019
4572 Clouds -5 1019 85 10000 2.1 230 13:18 11.11.2019
4573 Clouds -5 1019 79 10000 3.1 250 12:55 11.11.2019
4574 Clouds -5 1019 79 10000 3.1 250 12:37 11.11.2019
4575 Clouds -3 1019 79 10000 3.6 240 12:19 11.11.2019
4576 Clouds -3 1019 79 10000 4.1 220 11:41 11.11.2019
4577 Clouds -3 1019 79 10000 4.1 210 11:21 11.11.2019
4578 Clouds -3 1019 79 10000 5.1 230 10:44 11.11.2019
4579 Clouds -3 1019 79 10000 5.1 220 10:20 11.11.2019
4580 Clouds -3 1019 79 10000 5.1 220 09:59 11.11.2019
4581 Clouds -3 1019 79 10000 4.6 220 09:41 11.11.2019
4582 Clouds -2 1019 73 10000 5.7 220 09:20 11.11.2019
4583 Clouds -2 1019 79 10000 6.2 230 08:42 11.11.2019
4584 Clouds -2 1019 79 10000 6.7 230 08:23 11.11.2019
4585 Clouds -2 1019 79 10000 6.2 220 07:57 11.11.2019
4586 Clouds -2 1019 79 10000 6.2 220 07:38 11.11.2019
4587 Clouds -2 1019 79 10000 6.2 220 07:19 11.11.2019
4588 Clouds -2 1019 79 10000 5.7 220 06:55 11.11.2019
4589 Clouds -2 1019 79 10000 5.7 220 06:37 11.11.2019
4590 Clouds -2 1019 79 10000 5.1 220 06:18 11.11.2019
4591 Clouds -1 1019 74 10000 5.1 220 05:42 11.11.2019
4592 Clouds -2 1019 79 10000 6.2 220 03:27 11.11.2019
4593 Clouds -2 1019 79 10000 7.2 220 02:30 11.11.2019
4594 Clouds -2 1019 79 10000 7.2 220 01:58 11.11.2019
4595 Clouds -2 1019 79 10000 7.2 220 01:36 11.11.2019
4596 Clouds -1 1019 74 10000 7.7 230 00:54 11.11.2019
4597 Clouds -1 1019 74 10000 7.7 230 00:33 11.11.2019
4598 Clouds -2 1019 79 10000 7.2 220 23:58 10.11.2019
4599 Clouds -2 1019 74 10000 7.2 220 23:37 10.11.2019
4600 Clouds -1 1020 79 10000 7.7 230 23:19 10.11.2019
4601 Clouds -2 1020 79 10000 7.7 220 22:55 10.11.2019
4602 Clouds -2 1020 79 10000 7.7 220 22:37 10.11.2019
4603 Clouds -2 1020 79 10000 7.7 220 22:37 10.11.2019
4604 Clouds -2 1020 79 10000 7.7 230 22:18 10.11.2019
4605 Clouds -2 1020 79 10000 8.2 230 21:55 10.11.2019
4606 Clouds -2 1020 79 10000 8.2 230 21:36 10.11.2019
4607 Clouds -3 1020 79 10000 7.7 220 21:18 10.11.2019
4608 Clouds -3 1020 79 10000 8.2 220 20:41 10.11.2019
4609 Clouds -4 1020 79 10000 8.2 220 20:22 10.11.2019
4610 Clouds -4 1020 79 10000 8.2 220 19:56 10.11.2019
4611 Clouds -4 1020 79 10000 8.2 220 19:37 10.11.2019
4612 Clouds -3 1020 68 10000 7.2 220 19:18 10.11.2019
4613 Clouds -3 1020 68 10000 7.2 220 18:57 10.11.2019
4614 Clouds -3 1020 68 10000 7.2 220 18:57 10.11.2019
4615 Clouds -4 1020 73 10000 7.2 210 18:38 10.11.2019
4616 Clouds -4 1020 73 10000 7.2 220 18:19 10.11.2019
4617 Clouds -4 1020 68 10000 6.7 220 17:56 10.11.2019
4618 Clouds -4 1020 68 10000 6.7 220 17:38 10.11.2019
4619 Clear -3 1021 68 10000 7.2 220 17:19 10.11.2019
4620 Clear -3 1021 73 10000 7.2 230 16:57 10.11.2019
4621 Clear -3 1021 73 10000 7.2 230 16:38 10.11.2019
4622 Clear -4 1021 62 10000 6.7 220 16:19 10.11.2019
4623 Clear -4 1021 73 10000 7.2 220 15:55 10.11.2019
4624 Clear -4 1021 73 10000 7.2 220 15:36 10.11.2019
4625 Clear -5 1021 73 10000 6.7 220 15:18 10.11.2019
4626 Clear -5 1021 73 10000 6.7 220 15:18 10.11.2019
4627 Clear -5 1021 73 10000 6.2 230 14:41 10.11.2019
4628 Clear -5 1021 73 10000 7.7 230 14:22 10.11.2019
4629 Clear -5 1021 73 10000 7.7 230 13:58 10.11.2019
4630 Clear -5 1022 73 10000 6.7 230 13:40 10.11.2019
4631 Clear -5 1022 73 10000 7.2 230 13:20 10.11.2019
4632 Clear -5 1022 73 10000 7.2 220 12:43 10.11.2019
4633 Clear -5 1022 67 10000 6.7 220 12:21 10.11.2019
4634 Clear -5 1022 73 10000 7.7 230 11:57 10.11.2019
4635 Clear -5 1022 73 10000 7.7 230 11:39 10.11.2019
4636 Clear -5 1022 73 10000 7.7 230 11:20 10.11.2019
4637 Clear -5 1022 73 10000 7.7 230 11:20 10.11.2019
4638 Clear -5 1022 73 10000 7.7 230 10:59 10.11.2019
4639 Clear -5 1022 73 10000 7.7 230 10:40 10.11.2019
4640 Clear -5 1022 73 10000 7.7 230 10:40 10.11.2019
4641 Clear -5 1022 73 10000 7.2 230 10:20 10.11.2019
4642 Clear -5 1022 73 10000 7.2 230 10:20 10.11.2019
4643 Clear -6 1023 73 10000 7.7 220 09:43 10.11.2019
4644 Clear -6 1023 73 10000 7.7 220 09:43 10.11.2019
4645 Clear -6 1022 73 10000 7.2 230 09:23 10.11.2019
4646 Clear -5 1023 73 10000 7.2 230 08:41 10.11.2019
4647 Clear -6 1023 73 10000 6.7 230 08:21 10.11.2019
4648 Clear -6 1023 73 10000 6.7 230 07:58 10.11.2019
4649 Clear -9 1023 78 10000 6.2 230 07:40 10.11.2019
4650 Clear -9 1023 78 10000 6.2 230 07:21 10.11.2019
4651 Clear -9 1023 78 10000 6.2 230 07:21 10.11.2019
4652 Clear -6 1023 79 10000 5.1 230 06:26 10.11.2019
4653 Clear -9 1023 85 10000 5.7 230 04:46 10.11.2019
4654 Clear -9 1023 85 10000 4.6 220 03:19 10.11.2019
4655 Clear -8 1024 92 10000 4.1 210 01:45 10.11.2019
4656 Clear -7 1024 85 10000 5.1 210 01:19 10.11.2019
4657 Clear -8 1024 78 10000 5.7 210 00:40 10.11.2019
4658 Clear -10 1024 78 10000 3.1 200 23:46 09.11.2019
4659 Clear -9 1024 78 10000 3.6 200 23:21 09.11.2019
4660 Clear -9 1024 78 10000 3.6 200 22:59 09.11.2019
4661 Clear -8 1024 85 10000 2.1 180 22:40 09.11.2019
4662 Clear -10 1024 85 10000 3.1 200 22:20 09.11.2019
4663 Clear -10 1024 85 10000 1.5 210 21:55 09.11.2019
4664 Clear -10 1024 85 10000 1.5 210 21:37 09.11.2019
4665 Clear -9 1024 85 10000 2.1 210 21:19 09.11.2019
4666 Clear -10 1024 78 10000 1.5 200 20:41 09.11.2019
4667 Clear -10 1024 78 10000 1.5 200 20:41 09.11.2019
4668 Clear -9 1024 85 10000 2.6 200 20:22 09.11.2019
4669 Clear -9 1024 85 10000 2.6 200 19:57 09.11.2019
4670 Clear -8 1024 72 10000 2.6 200 19:38 09.11.2019
4671 Clear -8 1024 78 10000 4.1 210 19:20 09.11.2019
4672 Clear -7 1024 85 10000 4.1 210 18:41 09.11.2019
4673 Clear -10 1024 72 10000 4.6 200 18:19 09.11.2019
4674 Clear -10 1024 72 10000 4.6 200 17:59 09.11.2019
4675 Clear -8 1024 85 10000 4.6 200 17:40 09.11.2019
4676 Clear -11 1024 85 10000 4.6 200 17:22 09.11.2019
4677 Clear -11 1024 85 10000 4.6 200 16:43 09.11.2019
4678 Clear -10 1024 78 10000 4.1 200 16:22 09.11.2019
4679 Clear -10 1024 78 10000 4.1 200 15:58 09.11.2019
4680 Clear -9 1024 78 10000 4.6 190 15:40 09.11.2019
4681 Clear -9 1023 85 10000 4.6 200 15:21 09.11.2019
4682 Clear -9 1023 85 10000 4.6 200 14:43 09.11.2019
4683 Clear -8 1023 85 10000 5.1 210 14:22 09.11.2019
4684 Clear -8 1023 85 10000 5.1 210 13:57 09.11.2019
4685 Clear -9 1023 85 10000 5.7 210 13:39 09.11.2019
4686 Clear -7 1023 79 10000 4.6 210 13:19 09.11.2019
4687 Clear -7 1023 85 10000 4.6 200 12:55 09.11.2019
4688 Clear -7 1023 85 10000 4.6 200 12:37 09.11.2019
4689 Clear -8 1023 85 10000 5.1 200 12:18 09.11.2019
4690 Clear -8 1023 85 10000 4.1 210 11:47 09.11.2019
4691 Clear -8 1023 92 10000 3.6 200 11:20 09.11.2019
4692 Clear -9 1023 92 10000 4.1 190 10:56 09.11.2019
4693 Clear -9 1023 92 10000 4.1 190 10:37 09.11.2019
4694 Clear -9 1023 92 10000 2.6 180 10:18 09.11.2019
4695 Clear -9 1022 92 10000 3.1 170 09:42 09.11.2019
4696 Clouds -8 1022 92 10000 2.1 180 09:20 09.11.2019
4697 Clouds -8 1022 92 10000 2.6 190 08:45 09.11.2019
4698 Clouds -7 1022 92 10000 1.5 0 08:25 09.11.2019
4699 Clouds -8 1021 92 10000 1 0 07:57 09.11.2019
4700 Clouds -8 1021 92 10000 1 0 07:38 09.11.2019
4701 Clouds -8 1021 92 10000 1 0 07:19 09.11.2019
4702 Clouds -8 1021 92 10000 3.08 178 06:45 09.11.2019
4703 Clouds -8 1021 92 10000 3.08 178 06:27 09.11.2019
4704 Clouds -7 1021 92 10000 1 320 05:40 09.11.2019
4705 Clouds -7 1021 92 10000 2.1 320 04:30 09.11.2019
4706 Clear -10 1022 87 0 3.28 183 02:55 09.11.2019
4707 Clear -10 1022 87 0 3.28 183 02:36 09.11.2019
4708 Clear -7 1020 85 10000 3.15 183 01:18 09.11.2019
4709 Clear -6 1020 92 10000 1 180 00:43 09.11.2019
4710 Clouds -6 1020 92 10000 1 0 00:25 09.11.2019
4711 Clouds -6 1020 85 10000 2.1 220 23:41 08.11.2019
4712 Clouds -4 1019 85 10000 3.1 200 23:22 08.11.2019
4713 Clouds -4 1019 92 10000 2.6 190 22:59 08.11.2019
4714 Clouds -4 1019 92 10000 2.6 190 22:40 08.11.2019
4715 Clouds -4 1019 85 10000 2.1 190 22:21 08.11.2019
4716 Clouds -4 1019 92 10000 3.1 200 21:42 08.11.2019
4717 Clouds -4 1019 85 10000 4.1 200 21:24 08.11.2019
4718 Clouds -3 1019 85 10000 2.1 190 20:58 08.11.2019
4719 Clouds -3 1019 85 10000 2.1 190 20:40 08.11.2019
4720 Rain -2 1018 85 10000 2.6 190 20:20 08.11.2019
4721 Rain -2 1018 92 10000 2.6 190 19:55 08.11.2019
4722 Rain -2 1018 92 10000 2.6 190 19:37 08.11.2019
4723 Snow -2 1018 92 9000 3.1 190 19:18 08.11.2019
4724 Snow -2 1018 92 8000 2.6 0 18:54 08.11.2019
4725 Snow -2 1018 92 8000 2.6 0 18:36 08.11.2019
4726 Snow -2 1018 92 2400 3.6 210 18:18 08.11.2019
4727 Snow -3 1018 92 3000 3.1 210 17:54 08.11.2019
4728 Snow -3 1018 92 3000 3.1 210 17:36 08.11.2019
4729 Snow -3 1018 92 2500 3.6 210 17:18 08.11.2019
4730 Snow -4 1018 100 1500 4.6 210 16:57 08.11.2019
4731 Snow -4 1018 100 1500 4.6 210 16:38 08.11.2019
4732 Snow -4 1018 100 2500 5.1 220 16:18 08.11.2019
4733 Snow -4 1018 100 7000 5.1 220 15:42 08.11.2019
4734 Snow -5 1017 100 3300 2.6 220 15:23 08.11.2019
4735 Snow -5 1017 92 6000 3.6 230 14:58 08.11.2019
4736 Snow -5 1017 92 6000 3.6 230 14:58 08.11.2019
4737 Snow -5 1017 92 6000 3.6 230 14:39 08.11.2019
4738 Snow -5 1017 92 6000 3.6 230 14:39 08.11.2019
4739 Snow -6 1017 92 10000 3.6 240 14:20 08.11.2019
4740 Snow -6 1017 92 10000 3.6 240 13:59 08.11.2019
4741 Rain -5 1017 92 10000 1.5 240 13:41 08.11.2019
4742 Rain -5 1017 92 10000 2.6 250 13:22 08.11.2019
4743 Snow -5 1018 92 400 3.1 280 12:48 08.11.2019
4744 Snow -4 1017 92 400 3.1 0 12:29 08.11.2019
4745 Rain -5 1017 85 10000 4.1 250 11:59 08.11.2019
4746 Rain -5 1017 85 10000 4.1 250 11:59 08.11.2019
4747 Rain -5 1017 85 10000 4.1 250 11:41 08.11.2019
4748 Clouds -5 1017 92 10000 2.6 260 11:21 08.11.2019
4749 Clouds -5 1017 85 10000 2.1 290 10:59 08.11.2019
4750 Clouds -5 1017 85 10000 2.1 290 10:41 08.11.2019
4751 Clouds -4 1017 85 10000 1 310 10:21 08.11.2019
4752 Clouds -5 1017 85 10000 1 0 09:58 08.11.2019
4753 Clouds -5 1017 85 10000 1 0 09:38 08.11.2019
4754 Clouds -5 1017 92 10000 1.5 330 09:19 08.11.2019
4755 Clear -5 1017 85 10000 2.1 50 08:45 08.11.2019
4756 Clear -5 1016 79 10000 1.5 40 08:23 08.11.2019
4757 Clouds -5 1016 79 10000 2.1 40 07:45 08.11.2019
4758 Snow -5 1016 79 10000 2.1 50 07:24 08.11.2019
4759 Snow -5 1016 79 10000 2.1 50 07:24 08.11.2019
4760 Clouds -5 1016 73 10000 2.1 70 06:58 08.11.2019
4761 Clouds -5 1016 73 10000 2.1 70 06:38 08.11.2019
4762 Clouds -6 1016 79 10000 2.6 70 06:19 08.11.2019
4763 Clouds -6 1016 79 10000 2.6 70 05:36 08.11.2019
4764 Clouds -8 1016 85 10000 2.1 110 04:29 08.11.2019
4765 Clear -8 1016 72 10000 3.1 70 03:43 08.11.2019
4766 Clear -8 1016 72 10000 3.1 70 03:19 08.11.2019
4767 Clear -7 1016 79 10000 2.6 190 01:57 08.11.2019
4768 Clear -7 1016 79 10000 2.6 190 01:37 08.11.2019
4769 Clear -8 1016 78 10000 2.6 180 00:59 08.11.2019
4770 Clear -9 1016 78 10000 2.6 160 00:23 08.11.2019
4771 Clear -7 1016 79 10000 3.1 100 23:55 07.11.2019
4772 Clear -3 1016 79 10000 3.1 100 23:33 07.11.2019
4773 Clear -4 1016 85 10000 3.6 170 22:59 07.11.2019
4774 Clear -4 1016 79 10000 5.7 190 22:41 07.11.2019
4775 Clear -4 1016 73 10000 4.6 190 22:21 07.11.2019
4776 Clear -4 1016 73 10000 4.1 180 21:55 07.11.2019
4777 Clear -4 1016 73 10000 4.1 180 21:36 07.11.2019
4778 Clear -3 1015 79 10000 4.6 180 21:18 07.11.2019
4779 Clear -3 1015 79 10000 4.1 180 20:55 07.11.2019
4780 Clear -3 1015 79 10000 4.1 180 20:36 07.11.2019
4781 Clear -3 1015 73 10000 6.2 160 20:18 07.11.2019
4782 Clear -3 1015 79 10000 5.1 160 19:40 07.11.2019
4783 Clear -4 1015 73 10000 4.6 140 19:21 07.11.2019
4784 Clear -3 1015 79 10000 5.1 150 18:58 07.11.2019
4785 Clear -3 1015 79 10000 5.1 150 18:39 07.11.2019
4786 Clear -3 1015 79 10000 5.1 150 18:39 07.11.2019
4787 Clear -3 1015 79 10000 5.1 150 18:39 07.11.2019
4788 Clear -3 1015 73 10000 4.1 170 18:19 07.11.2019
4789 Clear -4 1015 79 10000 5.7 150 17:59 07.11.2019
4790 Clear -4 1015 79 10000 5.7 150 17:38 07.11.2019
4791 Clear -4 1015 79 10000 5.7 150 17:20 07.11.2019
4792 Clear -5 1015 78 10000 5.1 130 16:56 07.11.2019
4793 Clear -4 1014 85 10000 4.6 120 16:37 07.11.2019
4794 Clear -4 1014 85 10000 4.6 120 16:19 07.11.2019
4795 Clear -5 1014 79 10000 4.1 150 15:54 07.11.2019
4796 Clear -4 1014 79 10000 3.1 180 15:36 07.11.2019
4797 Clear -4 1014 79 10000 3.1 180 15:18 07.11.2019
4798 Clear -6 1014 79 10000 2.6 170 14:41 07.11.2019
4799 Clouds -6 1014 79 10000 2.6 170 14:23 07.11.2019
4800 Clouds -7 1014 79 10000 3.6 190 13:56 07.11.2019
4801 Clouds -7 1014 85 10000 2.1 170 13:37 07.11.2019
4802 Clouds -2 1014 85 10000 2.1 170 13:19 07.11.2019
4803 Clouds -3 1014 79 10000 2.1 160 12:57 07.11.2019
4804 Clouds -3 1014 85 10000 2.1 130 12:39 07.11.2019
4805 Clouds -3 1014 85 10000 2.1 130 12:20 07.11.2019
4806 Clouds -3 1014 85 10000 2.1 120 11:43 07.11.2019
4807 Clouds -3 1014 85 10000 2.1 120 11:23 07.11.2019
4808 Clouds -3 1014 73 10000 2.6 100 10:57 07.11.2019
4809 Clouds -3 1014 73 10000 2.6 100 10:55 07.11.2019
4810 Clouds -3 1013 73 10000 3.1 130 10:37 07.11.2019
4811 Clouds -3 1013 73 10000 3.1 130 10:18 07.11.2019
4812 Clouds -4 1013 85 10000 3.1 160 09:42 07.11.2019
4813 Clouds -4 1013 85 10000 3.1 160 09:21 07.11.2019
4814 Clouds -4 1013 85 10000 3.1 160 09:21 07.11.2019
4815 Clouds -3 1013 79 10000 5.1 150 08:48 07.11.2019
4816 Clouds -3 1013 79 10000 5.1 150 08:47 07.11.2019
4817 Clouds -3 1013 79 10000 5.1 150 08:46 07.11.2019
4818 Clouds -3 1013 79 10000 4.6 150 08:25 07.11.2019
4819 Clouds -3 1013 79 10000 4.6 150 08:25 07.11.2019
4820 Clouds -2 1013 79 10000 3.6 170 07:59 07.11.2019
4821 Clouds -3 1012 73 10000 5.1 160 07:41 07.11.2019
4822 Clouds -3 1012 73 10000 5.1 160 07:21 07.11.2019
4823 Clouds -3 1012 73 10000 5.1 160 07:21 07.11.2019
4824 Clouds -4 1012 73 10000 3.6 170 06:48 07.11.2019
4825 Clouds -4 1012 73 10000 3.6 170 06:48 07.11.2019
4826 Clouds -5 1012 79 10000 5.1 150 06:27 07.11.2019
4827 Clouds -7 1012 79 10000 3.1 170 05:52 07.11.2019
4828 Clouds -7 1012 79 10000 3.1 170 05:33 07.11.2019
4829 Clouds -7 1012 85 10000 3.6 140 04:57 07.11.2019
4830 Clouds -7 1012 85 10000 3.6 140 04:38 07.11.2019
4831 Clouds -8 1012 78 10000 3.6 150 01:54 07.11.2019
4832 Clouds -7 1012 85 10000 2.6 150 00:46 07.11.2019
4833 Clouds -9 1012 85 10000 3.1 170 00:19 07.11.2019
4834 Clouds -3 1012 85 10000 2.6 160 23:47 06.11.2019
4835 Clouds -3 1012 85 10000 2.6 160 23:21 06.11.2019
4836 Clouds -3 1011 85 10000 2.6 160 22:55 06.11.2019
4837 Clouds -4 1011 85 10000 2.6 160 22:37 06.11.2019
4838 Clouds -4 1011 85 10000 2.6 160 22:18 06.11.2019
4839 Clouds -3 1011 73 10000 3.1 150 21:42 06.11.2019
4840 Clouds -3 1011 73 10000 3.1 150 21:20 06.11.2019
4841 Clouds -3 1011 85 10000 3.6 140 20:58 06.11.2019
4842 Clouds -3 1011 85 10000 3.6 140 20:40 06.11.2019
4843 Clouds -3 1011 85 10000 3.6 140 20:40 06.11.2019
4844 Clear -4 1011 85 10000 3.6 140 20:21 06.11.2019
4845 Clear -4 1011 92 10000 4.1 130 19:58 06.11.2019
4846 Clear -3 1011 85 10000 3.6 140 19:39 06.11.2019
4847 Clear -3 1011 85 10000 3.6 140 19:21 06.11.2019
4848 Clear -3 1011 85 10000 3.6 140 19:21 06.11.2019
4849 Clear -3 1011 85 10000 3.6 140 18:58 06.11.2019
4850 Clear -3 1011 79 10000 4.1 160 18:38 06.11.2019
4851 Clear -3 1011 85 10000 4.1 150 18:19 06.11.2019
4852 Clear -4 1011 79 10000 3.6 170 17:56 06.11.2019
4853 Clear -4 1011 79 10000 3.6 170 17:56 06.11.2019
4854 Clear -4 1011 79 10000 3.6 170 17:37 06.11.2019
4855 Clear -3 1011 79 10000 4.1 160 17:18 06.11.2019
4856 Clear -4 1011 85 10000 3.6 150 16:54 06.11.2019
4857 Clear -4 1011 85 10000 3.6 150 16:36 06.11.2019
4858 Clear -4 1011 92 10000 3.1 150 16:18 06.11.2019
4859 Clear -4 1010 85 10000 2.6 160 15:54 06.11.2019
4860 Clear -4 1010 85 10000 2.6 160 15:36 06.11.2019
4861 Clear -3 1010 85 10000 2.6 170 15:18 06.11.2019
4862 Clear -2 1010 85 10000 3.1 130 14:55 06.11.2019
4863 Clear -2 1010 85 10000 3.1 130 14:37 06.11.2019
4864 Clear -7 1010 85 10000 3.1 120 14:18 06.11.2019
4865 Clear -1 1010 79 10000 3.1 110 13:39 06.11.2019
4866 Clear -1 1010 79 10000 3.1 110 13:39 06.11.2019
4867 Clear -1 1010 85 10000 3.6 100 13:21 06.11.2019
4868 Clear -2 1010 79 10000 3.1 110 12:58 06.11.2019
4869 Clear -2 1010 79 10000 3.1 110 12:39 06.11.2019
4870 Clear -2 1010 79 10000 2.6 100 12:20 06.11.2019
4871 Clear -1 1010 79 10000 2.6 130 11:58 06.11.2019
4872 Clear -2 1010 79 10000 2.6 130 11:37 06.11.2019
4873 Clear -2 1010 85 10000 2.6 130 11:18 06.11.2019
4874 Clear -1 1010 79 10000 2.1 160 10:56 06.11.2019
4875 Clear -2 1010 79 10000 2.1 160 10:38 06.11.2019
4876 Clear -2 1010 79 10000 2.6 160 10:19 06.11.2019
4877 Clear -3 1010 85 10000 3.1 140 09:44 06.11.2019
4878 Clear -1 1009 92 10000 3.1 150 09:23 06.11.2019
4879 Clear -2 1009 85 10000 3.1 150 08:59 06.11.2019
4880 Clear -2 1009 85 10000 3.1 150 08:38 06.11.2019
4881 Clear -2 1009 85 10000 3.1 120 08:20 06.11.2019
4882 Clear -2 1009 85 10000 4.1 110 07:57 06.11.2019
4883 Clear -2 1009 85 10000 4.1 110 07:39 06.11.2019
4884 Clear -4 1009 85 10000 3.6 130 07:19 06.11.2019
4885 Clear -6 1009 92 10000 3.6 140 06:44 06.11.2019
4886 Clouds -6 1009 92 10000 4.1 130 06:24 06.11.2019
4887 Clouds -6 1008 92 10000 2.6 130 04:18 06.11.2019
4888 Clouds -4 1008 92 10000 1 0 02:20 06.11.2019
4889 Clouds -5 1008 92 10000 1 200 01:31 06.11.2019
4890 Clouds -5 1008 92 10000 2.6 80 00:37 06.11.2019
4891 Clouds -4 1008 92 10000 2.1 120 23:58 05.11.2019
4892 Clouds -4 1008 92 10000 2.1 120 23:58 05.11.2019
4893 Clouds -1 1008 92 10000 2.1 120 23:38 05.11.2019
4894 Clouds -1 1008 92 10000 2.1 120 23:38 05.11.2019
4895 Clouds -1 1008 100 10000 2.6 120 23:20 05.11.2019
4896 Snow -1 1008 92 4000 3.1 120 22:43 05.11.2019
4897 Rain -2 1008 92 10000 1.5 120 22:20 05.11.2019
4898 Rain -2 1008 92 10000 1.5 120 21:59 05.11.2019
4899 Rain -2 1008 92 10000 1.5 120 21:59 05.11.2019
4900 Snow -1 1007 100 6000 1.5 110 21:41 05.11.2019
4901 Rain -1 1007 92 10000 3.1 60 21:20 05.11.2019
4902 Rain -1 1007 100 10000 1.5 80 20:57 05.11.2019
4903 Rain -1 1007 100 10000 1.5 80 20:38 05.11.2019
4904 Rain 0 1007 92 10000 1 0 20:20 05.11.2019
4905 Snow 0 1007 92 800 2.1 80 19:56 05.11.2019
4906 Snow 0 1007 92 800 2.1 80 19:37 05.11.2019
4907 Rain -1 1007 92 10000 0.5 0 19:19 05.11.2019
4908 Rain -2 1006 92 10000 1.5 110 18:56 05.11.2019
4909 Rain -2 1006 92 10000 1.5 110 18:38 05.11.2019
4910 Rain -2 1006 92 10000 2.6 90 18:19 05.11.2019
4911 Rain -2 1006 92 10000 3.6 80 17:56 05.11.2019
4912 Rain -2 1006 92 10000 3.6 80 17:37 05.11.2019
4913 Snow -2 1006 100 3500 4.6 60 17:18 05.11.2019
4914 Snow -2 1006 92 10000 8.2 60 16:42 05.11.2019
4915 Clouds -2 1005 92 10000 3.1 70 16:21 05.11.2019
4916 Clouds -2 1005 92 10000 3.1 70 15:59 05.11.2019
4917 Clouds -1 1005 92 10000 2.6 110 15:37 05.11.2019
4918 Clouds 0 1005 100 10000 4.6 90 15:18 05.11.2019
4919 Rain 0 1005 100 10000 4.6 80 14:55 05.11.2019
4920 Rain 0 1005 100 10000 4.6 80 14:55 05.11.2019
4921 Rain 0 1005 100 10000 4.6 80 14:36 05.11.2019
4922 Rain 0 1004 100 9000 6.7 80 14:18 05.11.2019
4923 Snow 0 1004 97 5000 6.2 80 13:43 05.11.2019
4924 Rain 0 1004 92 10000 2.6 60 13:24 05.11.2019
4925 Clouds -1 1003 92 10000 3.1 90 12:42 05.11.2019
4926 Snow -1 1003 92 10000 1.5 60 12:23 05.11.2019
4927 Snow -1 1003 92 10000 1.5 60 12:23 05.11.2019
4928 Rain -1 1003 92 10000 4.6 80 11:59 05.11.2019
4929 Rain -1 1003 92 10000 4.6 80 11:40 05.11.2019
4930 Rain 0 1002 96 10000 3.6 50 11:21 05.11.2019
4931 Rain -1 1002 92 10000 2.6 10 10:59 05.11.2019
4932 Rain -1 1002 92 10000 2.6 10 10:40 05.11.2019
4933 Rain -1 1002 92 10000 3.6 20 10:22 05.11.2019
4934 Rain 0 1001 100 10000 3.6 60 09:55 05.11.2019
4935 Rain 0 1001 100 10000 3.6 60 09:37 05.11.2019
4936 Clouds 0 1001 96 10000 4.6 60 09:18 05.11.2019
4937 Clouds 0 1001 100 10000 4.1 70 08:39 05.11.2019
4938 Clouds 0 1000 100 10000 5.1 70 08:20 05.11.2019
4939 Clouds 0 1000 100 10000 6.2 50 07:58 05.11.2019
4940 Clouds 0 1000 100 10000 6.2 50 07:40 05.11.2019
4941 Snow 0 999 89 4000 6.2 50 07:22 05.11.2019
4942 Snow 0 999 89 1500 5.1 50 06:50 05.11.2019
4943 Snow 0 998 89 2500 4.1 310 05:51 05.11.2019
4944 Snow 0 998 89 2500 4.1 310 05:51 05.11.2019
4945 Snow 0 998 97 2500 4.1 310 05:23 05.11.2019
4946 Snow 0 998 97 1100 12.3 280 04:38 05.11.2019
4947 Snow 0 998 97 1200 15.4 280 03:56 05.11.2019
4948 Rain 0 998 97 10000 17 270 02:51 05.11.2019
4949 Rain 0 998 97 10000 17 270 02:29 05.11.2019
4950 Rain 0 998 97 10000 17 270 02:29 05.11.2019
4951 Snow 1 998 80 10000 12.9 280 01:25 05.11.2019
4952 Snow 0 998 91 10000 13.9 280 00:38 05.11.2019
4953 Snow 0 998 91 10000 13.9 280 00:38 05.11.2019
4954 Snow 0 998 91 10000 14.9 290 23:59 04.11.2019
4955 Snow 0 998 91 10000 14.9 290 23:38 04.11.2019
4956 Clouds 0 998 91 10000 15.9 290 23:18 04.11.2019
4957 Clouds 0 998 91 10000 15.9 290 23:18 04.11.2019
4958 Clouds 0 998 91 10000 15.9 290 23:18 04.11.2019
4959 Clouds 0 998 91 10000 14.9 290 22:43 04.11.2019
4960 -273 0 0 0 0 0 22:24 04.11.2019
4961 Clouds -1 998 91 10000 18 310 22:24 04.11.2019
4962 Clouds 1 998 91 10000 14.4 300 21:56 04.11.2019
4963 Clouds 1 998 91 10000 14.4 300 21:38 04.11.2019
4964 Clouds 1 998 91 10000 14.9 300 21:20 04.11.2019
4965 Clouds 1 998 91 10000 14.9 300 20:59 04.11.2019
4966 Clouds 1 998 91 10000 14.4 300 20:40 04.11.2019
4967 Snow -1 998 80 10000 13.9 300 20:21 04.11.2019
4968 Snow -1 998 80 10000 13.9 300 20:21 04.11.2019
4969 Snow 0 998 87 8000 16.5 310 19:59 04.11.2019
4970 Snow 0 998 87 8000 16.5 310 19:41 04.11.2019
4971 Snow 0 998 87 10000 14.9 300 19:22 04.11.2019
4972 Clouds 0 998 87 10000 13.9 290 18:58 04.11.2019
4973 Clouds 0 998 87 10000 13.9 290 18:39 04.11.2019
4974 Clouds -1 998 68 10000 14.4 300 18:19 04.11.2019
4975 Snow -1 998 63 10000 14.9 300 17:56 04.11.2019
4976 Snow 0 998 63 10000 14.9 300 17:36 04.11.2019
4977 Snow 0 998 63 10000 14.9 300 17:18 04.11.2019
4978 Clouds 0 998 58 10000 14.4 300 16:41 04.11.2019
4979 Snow 0 999 77 10000 15.4 310 16:23 04.11.2019
4980 Clouds 0 999 77 10000 14.9 300 15:58 04.11.2019
4981 Clouds 0 999 77 10000 14.9 300 15:39 04.11.2019
4982 Rain 0 999 77 10000 14.4 310 15:21 04.11.2019
4983 Clouds 1 999 77 10000 14.9 310 14:57 04.11.2019
4984 Clouds 1 999 77 10000 14.9 310 14:39 04.11.2019
4985 Clouds 1 999 79 10000 14.9 320 14:20 04.11.2019
4986 Clouds 1 998 79 10000 14.4 310 13:57 04.11.2019
4987 Clouds 1 998 79 10000 14.4 310 13:39 04.11.2019
4988 Clouds 1 999 77 10000 14.4 320 13:20 04.11.2019
4989 Clouds 0 999 77 10000 14.9 310 12:49 04.11.2019
4990 Clouds 1 999 77 10000 14.4 310 12:29 04.11.2019
4991 Clouds 1 999 77 10000 15.9 320 11:59 04.11.2019
4992 Clouds 1 999 77 10000 15.9 320 11:41 04.11.2019
4993 Clouds 1 999 72 10000 15.4 320 11:22 04.11.2019
4994 Clouds 1 999 72 10000 14.9 310 10:56 04.11.2019
4995 Clouds 1 999 72 10000 14.9 310 10:38 04.11.2019
4996 Clouds 1 999 72 10000 13.4 320 10:18 04.11.2019
4997 Clouds 0 999 72 10000 14.4 320 09:40 04.11.2019
4998 Clouds 0 998 72 10000 13.9 320 09:20 04.11.2019
4999 Clouds 0 998 72 10000 13.9 320 08:55 04.11.2019
5000 Clouds 0 998 72 10000 13.9 320 08:37 04.11.2019
5001 Clouds 1 998 74 10000 15.4 320 08:18 04.11.2019
5002 Clouds 0 998 74 10000 14.4 320 07:42 04.11.2019
5003 Clouds 0 998 74 10000 13.9 320 07:20 04.11.2019
5004 Clouds 0 998 74 10000 14.4 320 06:49 04.11.2019
5005 Clouds 0 998 74 10000 13.4 320 06:18 04.11.2019
5006 Snow 0 998 74 10000 14.4 320 05:37 04.11.2019
5007 Snow 0 998 72 10000 14.9 320 04:37 04.11.2019
5008 Snow 0 998 72 10000 15.9 330 03:42 04.11.2019
5009 Snow 0 997 74 10000 15.4 340 01:45 04.11.2019
5010 Snow 0 997 72 10000 15.9 350 01:19 04.11.2019
5011 Rain 0 997 72 10000 13.9 340 00:39 04.11.2019
5012 Clouds 0 997 72 10000 11.8 360 00:19 04.11.2019
5013 Clouds 1 997 72 10000 14.9 340 23:40 03.11.2019
5014 Clouds 1 997 73 10000 15.4 350 23:21 03.11.2019
5015 Clouds 1 997 73 10000 12.3 360 22:57 03.11.2019
5016 Clouds 1 997 73 10000 12.3 360 22:39 03.11.2019
5017 Rain 2 996 59 10000 13.9 350 22:19 03.11.2019
5018 Snow 1 997 73 4500 13.4 360 21:44 03.11.2019
5019 Rain 1 996 73 10000 14.4 360 21:22 03.11.2019
5020 Rain 1 996 73 10000 14.4 360 20:59 03.11.2019
5021 Rain 1 996 73 10000 12.9 360 20:38 03.11.2019
5022 Clouds 0 996 88 10000 12.3 360 20:20 03.11.2019
5023 Rain 0 996 88 10000 12.9 10 19:58 03.11.2019
5024 Rain 0 996 88 10000 12.9 10 19:39 03.11.2019
5025 Rain -1 995 80 10000 7.2 10 19:21 03.11.2019
5026 Rain -1 995 80 10000 7.2 10 18:59 03.11.2019
5027 Clouds -1 995 80 10000 10.3 20 18:38 03.11.2019
5028 Snow 0 995 88 10000 9.3 360 18:18 03.11.2019
5029 Rain -2 995 92 10000 6.7 20 17:56 03.11.2019
5030 Rain -2 995 92 10000 6.7 20 17:37 03.11.2019
5031 Snow -2 994 92 10000 6.7 10 17:18 03.11.2019
5032 Rain -3 994 92 10000 5.7 350 16:54 03.11.2019
5033 Rain -3 994 92 10000 5.7 350 16:36 03.11.2019
5034 Rain -2 994 92 10000 2.6 320 16:18 03.11.2019
5035 Rain -4 994 79 10000 2.6 300 15:43 03.11.2019
5036 Snow -5 994 73 10000 4.1 270 15:24 03.11.2019
5037 Rain -5 994 73 10000 4.6 270 14:56 03.11.2019
5038 Rain -5 994 73 10000 4.6 270 14:38 03.11.2019
5039 Rain -5 994 79 10000 5.1 280 14:18 03.11.2019
5040 Rain -5 994 79 10000 5.1 280 14:18 03.11.2019
5041 Rain -5 993 79 10000 4.1 290 13:43 03.11.2019
5042 Rain -4 993 73 10000 3.6 270 13:20 03.11.2019
5043 Clouds -5 993 79 10000 1.5 0 12:58 03.11.2019
5044 Clouds -5 993 79 10000 1.5 0 12:37 03.11.2019
5045 Clouds -7 993 79 10000 1 140 12:18 03.11.2019
5046 Clouds -5 992 73 10000 2.1 120 11:43 03.11.2019
5047 Clouds -8 992 67 10000 3.1 100 11:22 03.11.2019
5048 Clouds -7 992 73 10000 5.7 90 10:58 03.11.2019
5049 Clouds -7 992 73 10000 5.7 90 10:39 03.11.2019
5050 Clouds -5 992 67 10000 6.2 90 10:21 03.11.2019
5051 Clouds -5 992 67 10000 6.2 90 10:21 03.11.2019
5052 Clouds -4 992 62 10000 6.7 90 09:55 03.11.2019
5053 Clouds -4 992 62 10000 6.7 90 09:37 03.11.2019
5054 Clouds -4 992 62 10000 6.7 90 09:37 03.11.2019
5055 Clouds -5 991 73 10000 6.2 90 09:19 03.11.2019
5056 Clouds -5 991 73 10000 6.2 80 08:38 03.11.2019
5057 Clouds -6 991 73 10000 8.2 80 08:20 03.11.2019
5058 Clouds -6 990 73 10000 5.1 90 07:45 03.11.2019
5059 Clouds -6 990 73 10000 5.7 90 07:23 03.11.2019
5060 Clouds -5 990 73 10000 6.7 80 06:46 03.11.2019
5061 Clouds -5 990 73 10000 6.7 80 06:46 03.11.2019
5062 Clouds -6 989 73 10000 6.2 90 06:28 03.11.2019
5063 Clouds -5 989 62 10000 4.1 110 05:38 03.11.2019
5064 Clouds -4 989 68 10000 5.1 90 04:56 03.11.2019
5065 Clouds -4 989 68 10000 5.1 90 04:33 03.11.2019
5066 Clouds -4 988 58 10000 4.1 160 03:30 03.11.2019
5067 Clouds -4 988 58 10000 4.1 150 02:30 03.11.2019
5068 Clouds -5 988 67 10000 4.1 150 01:59 03.11.2019
5069 Clouds -5 988 67 10000 3.1 120 01:38 03.11.2019
5070 Clouds -4 988 62 10000 2.6 130 01:19 03.11.2019
5071 Clouds -5 988 67 10000 3.1 110 00:42 03.11.2019
5072 Clouds -5 988 67 10000 3.6 200 00:23 03.11.2019
5073 Clouds -5 988 67 10000 3.1 180 23:57 02.11.2019
5074 Clouds -5 988 67 10000 3.1 180 23:37 02.11.2019
5075 Snow -6 988 67 10000 2.1 160 23:18 02.11.2019
5076 Snow -3 988 63 10000 2.6 130 22:55 02.11.2019
5077 Snow -3 988 63 10000 2.6 130 22:37 02.11.2019
5078 Snow -3 988 63 10000 2.6 130 22:37 02.11.2019
5079 Snow -3 988 63 10000 2.6 140 22:18 02.11.2019
5080 Clouds -2 988 63 10000 3.6 200 21:55 02.11.2019
5081 Clouds -2 988 63 10000 3.6 200 21:55 02.11.2019
5082 Clouds -2 988 63 10000 3.6 200 21:37 02.11.2019
5083 Clouds -1 988 58 10000 4.6 200 21:18 02.11.2019
5084 Clouds -2 989 63 10000 4.1 190 20:57 02.11.2019
5085 Clouds -2 989 63 10000 4.1 190 20:38 02.11.2019
5086 Clouds -2 989 63 10000 3.1 200 20:19 02.11.2019
5087 Clouds -1 989 54 10000 4.1 180 19:40 02.11.2019
5088 Clouds -2 989 58 10000 4.6 170 19:22 02.11.2019
5089 Clouds -2 989 58 10000 8.7 190 18:56 02.11.2019
5090 Clouds -2 989 58 10000 8.7 190 18:37 02.11.2019
5091 Clouds -2 989 58 10000 9.3 200 18:19 02.11.2019
5092 Clouds -2 989 58 10000 10.3 200 17:56 02.11.2019
5093 Clouds -2 989 58 10000 10.3 200 17:37 02.11.2019
5094 Clouds -3 990 63 10000 8.2 190 17:19 02.11.2019
5095 Clouds -2 990 58 10000 10.8 200 16:57 02.11.2019
5096 Clouds -2 990 58 10000 10.8 200 16:36 02.11.2019
5097 Clouds -2 990 58 10000 12.3 200 16:18 02.11.2019
5098 Clouds -2 990 58 10000 12.3 200 16:18 02.11.2019
5099 Clouds -2 990 58 10000 12.3 200 16:18 02.11.2019
5100 Clouds -2 990 63 10000 12.3 200 15:41 02.11.2019
5101 Clouds -2 990 63 10000 11.3 200 15:19 02.11.2019
5102 Clouds -2 990 68 10000 10.3 190 14:43 02.11.2019
5103 Clouds -2 991 68 10000 10.3 190 14:23 02.11.2019
5104 Clouds -2 991 68 10000 10.8 200 13:57 02.11.2019
5105 Clouds -2 991 68 10000 10.8 200 13:38 02.11.2019
5106 Clouds -2 991 74 10000 11.8 200 13:18 02.11.2019
5107 Clouds -1 991 63 10000 12.9 200 12:41 02.11.2019
5108 Clouds -2 992 68 10000 12.3 200 12:22 02.11.2019
5109 Clouds -2 992 68 10000 12.3 200 12:22 02.11.2019
5110 Clouds -1 992 63 10000 9.3 200 11:57 02.11.2019
5111 Clouds -1 992 63 10000 9.3 200 11:39 02.11.2019
5112 Clouds -2 992 68 10000 9.8 200 11:20 02.11.2019
5113 Clouds -2 992 68 10000 9.8 200 10:48 02.11.2019
5114 Clouds -2 992 68 10000 9.8 200 10:28 02.11.2019
5115 Clouds -2 992 74 10000 9.8 200 09:58 02.11.2019
5116 Clouds -2 992 74 10000 9.8 200 09:39 02.11.2019
5117 Clouds -2 993 74 10000 9.3 200 09:19 02.11.2019
5118 Clouds -2 993 74 10000 7.7 200 08:46 02.11.2019
5119 Snow -1 993 68 10000 12.3 230 08:22 02.11.2019
5120 Snow -1 993 74 10000 10.8 230 07:50 02.11.2019
5121 Snow -1 993 74 10000 10.8 230 07:32 02.11.2019
5122 Clouds 0 994 82 10000 10.8 220 06:55 02.11.2019
5123 Clouds 0 994 82 10000 10.8 220 06:37 02.11.2019
5124 Snow -2 994 79 10000 9.3 200 05:59 02.11.2019
5125 Clouds -1 995 80 10000 10.8 220 05:25 02.11.2019
5126 Snow -2 995 92 2000 11.8 230 04:23 02.11.2019
5127 Snow -1 996 92 200 12.9 230 03:50 02.11.2019
5128 Snow -1 995 86 6000 12.3 240 02:44 02.11.2019
5129 Snow -1 996 92 10000 11.8 230 01:55 02.11.2019
5130 Snow -1 996 92 1800 10.8 240 01:24 02.11.2019
5131 Snow -1 996 86 1500 12.3 250 00:51 02.11.2019
5132 Rain -1 997 92 10000 9.8 250 00:26 02.11.2019
5133 Snow -2 997 92 10000 11.3 240 23:48 01.11.2019
5134 Snow -2 997 100 5000 14.4 260 23:23 01.11.2019
5135 Snow -2 997 100 800 13.4 250 22:58 01.11.2019
5136 Snow -2 997 100 800 13.4 250 22:39 01.11.2019
5137 Rain -1 997 92 8000 13.4 240 22:20 01.11.2019
5138 Snow -1 997 92 2500 13.4 240 21:41 01.11.2019
5139 Rain -1 997 92 10000 8.7 250 21:23 01.11.2019
5140 Snow -1 998 100 1800 12.9 250 20:57 01.11.2019
5141 Snow -1 998 100 1800 12.9 250 20:39 01.11.2019
5142 Snow -1 998 92 4000 11.3 240 20:19 01.11.2019
5143 Snow -1 998 92 500 9.8 240 19:56 01.11.2019
5144 Snow -1 998 92 500 9.8 240 19:37 01.11.2019
5145 Snow 0 998 92 10000 9.3 240 19:19 01.11.2019
5146 Snow 0 999 92 3500 11.8 260 18:39 01.11.2019
5147 Snow 0 999 92 3500 11.8 260 18:39 01.11.2019
5148 Snow 1 999 93 4000 12.9 260 18:21 01.11.2019
5149 Snow 0 999 86 10000 10.8 250 17:55 01.11.2019
5150 Snow 0 999 86 10000 10.8 250 17:37 01.11.2019
5151 Snow 0 999 92 2500 13.4 240 17:19 01.11.2019
5152 Snow 0 999 92 2500 13.4 240 17:19 01.11.2019
5153 Snow 1 999 85 1200 13.9 250 16:38 01.11.2019
5154 Snow 1 999 85 1200 13.9 250 16:38 01.11.2019
5155 Snow 1 999 85 1200 13.9 250 16:38 01.11.2019
5156 Rain 0 999 86 10000 11.8 240 16:19 01.11.2019
5157 Rain 1 1000 85 10000 12.3 260 15:54 01.11.2019
5158 Rain 1 1000 85 10000 12.3 260 15:36 01.11.2019
5159 Rain 1 1000 85 10000 11.3 250 15:18 01.11.2019
5160 Clouds 0 1000 85 10000 14.4 260 14:41 01.11.2019
5161 Rain 0 1000 86 10000 12.3 270 14:23 01.11.2019
5162 Rain 0 1000 86 10000 15.9 270 13:57 01.11.2019
5163 Rain 0 1000 86 10000 15.9 270 13:38 01.11.2019
5164 Rain 0 1000 86 10000 8.7 250 13:19 01.11.2019
5165 Rain 0 1000 86 10000 8.7 250 13:19 01.11.2019
5166 Rain 0 1000 86 10000 10.8 270 12:43 01.11.2019
5167 Rain 0 1000 100 10000 12.9 270 12:25 01.11.2019
5168 Snow -1 1001 100 1700 10.8 260 11:56 01.11.2019
5169 Snow 0 1001 100 1700 10.8 260 11:38 01.11.2019
5170 Snow 0 1001 100 1300 12.3 270 11:19 01.11.2019
5171 Snow 0 1001 100 1300 12.3 270 10:41 01.11.2019
5172 Snow 0 1001 93 500 8.2 220 10:21 01.11.2019
5173 Snow 0 1001 100 2500 9.3 240 09:57 01.11.2019
5174 Snow 0 1001 100 2500 9.3 240 09:38 01.11.2019
5175 Snow 0 1001 93 700 11.8 230 09:19 01.11.2019
5176 Snow 0 1001 93 10000 12.9 230 08:43 01.11.2019
5177 Rain 1 1001 92 10000 9.3 200 08:22 01.11.2019
5178 Rain 1 1001 92 10000 9.3 200 08:22 01.11.2019
5179 Rain 1 1001 92 10000 7.2 200 07:56 01.11.2019
5180 Rain 1 1001 92 10000 7.2 200 07:37 01.11.2019
5181 Clouds -1 1001 86 10000 7.2 200 07:18 01.11.2019
5182 Clouds -1 1002 92 10000 5.7 200 06:40 01.11.2019
5183 Clouds -1 1002 100 10000 6.7 200 06:21 01.11.2019
5184 Snow 0 1002 92 4600 6.2 250 05:43 01.11.2019
5185 Rain -1 1003 100 9000 6.2 240 03:42 01.11.2019
5186 Snow -1 1003 100 8000 5.7 220 02:49 01.11.2019
5187 Snow -1 1003 92 6000 7.7 230 01:28 01.11.2019
5188 Snow -2 1003 92 6000 7.2 220 00:39 01.11.2019
5189 Snow -3 1003 92 3000 10.8 210 00:18 01.11.2019
5190 Snow -2 1003 73 10000 10.3 210 23:42 31.10.2019
5191 Rain -2 1003 73 9000 11.3 210 23:22 31.10.2019
5192 Clouds -2 1003 73 10000 9.3 210 22:55 31.10.2019
5193 Clouds -2 1003 73 10000 9.3 210 22:36 31.10.2019
5194 Snow -2 1004 73 10000 10.8 210 22:18 31.10.2019
5195 Snow -2 1004 73 10000 10.3 210 21:41 31.10.2019
5196 Snow -1 1004 68 10000 11.3 200 21:20 31.10.2019
5197 Snow -1 1004 68 10000 11.3 190 20:56 31.10.2019
5198 Snow -1 1004 68 10000 11.3 190 20:37 31.10.2019
5199 Clouds -1 1004 68 10000 9.3 190 20:19 31.10.2019
5200 Clouds -1 1004 63 10000 10.8 190 19:40 31.10.2019
5201 Clouds -1 1004 68 10000 11.3 190 19:21 31.10.2019
5202 Clouds -1 1004 68 10000 11.8 190 18:56 31.10.2019
5203 Clouds -1 1004 68 10000 11.8 190 18:38 31.10.2019
5204 Clouds -2 1004 73 10000 10.8 200 18:19 31.10.2019
5205 Clouds -2 1004 68 10000 9.3 190 17:41 31.10.2019
5206 Clouds -2 1005 68 10000 8.7 190 17:22 31.10.2019
5207 Clouds -2 1005 68 10000 8.2 190 16:58 31.10.2019
5208 Clouds -2 1005 68 10000 8.2 190 16:58 31.10.2019
5209 Clouds -2 1005 68 10000 8.2 190 16:40 31.10.2019
5210 Clouds -2 1005 68 10000 8.2 190 16:40 31.10.2019
5211 Clouds -2 1005 68 10000 8.7 190 16:20 31.10.2019
5212 Clouds -2 1005 68 10000 8.2 200 15:54 31.10.2019
5213 Clouds -2 1005 68 10000 8.2 200 15:36 31.10.2019
5214 Clouds -2 1005 68 10000 7.7 190 15:18 31.10.2019
5215 Clouds -2 1005 68 10000 8.2 190 14:54 31.10.2019
5216 Clouds -2 1005 68 10000 8.2 190 14:36 31.10.2019
5217 Clouds -2 1005 68 10000 8.2 200 14:18 31.10.2019
5218 Clouds -1 1005 68 10000 8.2 190 13:40 31.10.2019
5219 Clouds -1 1005 68 10000 8.2 190 13:40 31.10.2019
5220 Clouds -1 1005 73 10000 8.7 190 13:20 31.10.2019
5221 Clouds -1 1005 73 10000 8.7 190 12:59 31.10.2019
5222 Clouds -1 1005 73 10000 9.8 190 12:41 31.10.2019
5223 Clouds -1 1006 73 10000 8.7 190 12:22 31.10.2019
5224 Clouds -3 1006 73 10000 7.7 190 11:55 31.10.2019
5225 Clouds -1 1006 73 10000 7.7 190 11:36 31.10.2019
5226 Clouds -1 1006 79 10000 7.7 180 11:18 31.10.2019
5227 Clouds -1 1006 79 10000 7.7 180 10:40 31.10.2019
5228 Clouds -1 1006 79 10000 6.2 180 10:21 31.10.2019
5229 Clouds -2 1006 79 10000 8.2 190 09:59 31.10.2019
5230 Clouds -2 1006 79 10000 8.2 190 09:39 31.10.2019
5231 Clouds -2 1006 79 10000 9.3 190 09:18 31.10.2019
5232 Clouds -2 1006 79 10000 9.8 190 08:48 31.10.2019
5233 Clouds -2 1006 79 10000 9.8 190 08:29 31.10.2019
5234 Clouds -1 1006 79 10000 6.7 180 07:54 31.10.2019
5235 Clouds -1 1006 79 10000 6.7 180 07:36 31.10.2019
5236 Clouds -3 1005 79 10000 6.7 180 07:18 31.10.2019
5237 Clouds -3 1005 79 10000 8.7 180 06:38 31.10.2019
5238 Clouds -2 1006 74 10000 7.2 180 06:18 31.10.2019
5239 Clouds -3 1006 79 10000 8.2 180 03:30 31.10.2019
5240 Clouds -3 1006 73 10000 6.2 150 02:38 31.10.2019
5241 Clouds -3 1005 79 10000 4.6 120 01:50 31.10.2019
5242 Clouds -4 1006 79 10000 10.8 190 00:37 31.10.2019
5243 Clouds -4 1006 73 10000 9.3 190 00:18 31.10.2019
5244 Clouds -4 1006 73 10000 8.7 180 23:30 30.10.2019
5245 Clouds -2 1006 73 10000 8.7 180 22:43 30.10.2019
5246 Clouds -2 1006 73 10000 9.3 180 22:23 30.10.2019
5247 Clouds -3 1007 73 10000 7.7 160 21:56 30.10.2019
5248 Clouds -3 1007 73 10000 7.7 160 21:37 30.10.2019
5249 Clouds -3 1007 73 10000 6.7 160 21:19 30.10.2019
5250 Clouds -5 1007 73 10000 9.3 130 20:59 30.10.2019
5251 Clouds -2 1007 73 10000 9.3 130 20:41 30.10.2019
5252 Clouds -2 1007 73 10000 9.3 130 20:41 30.10.2019
5253 Clouds -2 1007 68 10000 9.3 140 20:22 30.10.2019
5254 Clouds -2 1007 68 10000 11.3 170 19:58 30.10.2019
5255 Clouds -2 1007 68 10000 11.3 170 19:39 30.10.2019
5256 Clouds -2 1008 68 10000 9.8 160 19:20 30.10.2019
5257 Clouds -2 1008 68 10000 8.2 140 18:58 30.10.2019
5258 Clouds -2 1008 68 10000 8.2 140 18:37 30.10.2019
5259 Clouds -2 1008 68 10000 8.2 140 18:37 30.10.2019
5260 Clouds -3 1008 73 10000 4.6 130 18:18 30.10.2019
5261 Clouds -3 1009 73 10000 5.1 130 17:41 30.10.2019
5262 Clouds -2 1009 73 10000 8.7 150 17:20 30.10.2019
5263 Clouds -5 1009 73 10000 7.2 170 16:59 30.10.2019
5264 Clouds -1 1009 73 10000 7.2 170 16:40 30.10.2019
5265 Clouds -1 1009 68 10000 9.3 150 16:22 30.10.2019
5266 Clouds -2 1010 73 10000 6.7 150 15:57 30.10.2019
5267 Clouds -2 1010 73 10000 6.7 150 15:38 30.10.2019
5268 Clouds -2 1010 67 10000 4.1 150 15:19 30.10.2019
5269 Clouds -1 1010 62 10000 4.6 170 14:56 30.10.2019
5270 Clouds -1 1010 62 10000 4.6 170 14:38 30.10.2019
5271 Clouds -1 1011 62 10000 4.1 180 14:18 30.10.2019
5272 Clouds -1 1011 68 10000 4.1 170 13:42 30.10.2019
5273 Clouds -1 1012 63 10000 3.1 170 13:21 30.10.2019
5274 Clouds -1 1012 68 10000 2.6 170 12:59 30.10.2019
5275 Clouds -1 1012 68 10000 2.6 170 12:59 30.10.2019
5276 Clouds -1 1012 68 10000 2.6 170 12:41 30.10.2019
5277 Clouds -1 1012 68 10000 2.6 160 12:23 30.10.2019
5278 Clouds -1 1013 73 10000 4.1 190 11:43 30.10.2019
5279 Rain -2 1013 73 10000 4.1 190 11:25 30.10.2019
5280 Rain 0 1013 68 10000 3.6 190 10:59 30.10.2019
5281 Rain 0 1013 68 10000 3.6 190 10:41 30.10.2019
5282 Clouds 0 1013 74 10000 4.6 190 10:22 30.10.2019
5283 Clouds -1 1014 74 10000 2.6 180 09:41 30.10.2019
5284 Clouds -1 1014 79 10000 4.1 190 09:22 30.10.2019
5285 Clouds -2 1014 86 10000 3.1 200 08:56 30.10.2019
5286 Clouds -2 1014 86 10000 3.1 200 08:38 30.10.2019
5287 Clouds -3 1014 85 10000 3.6 210 08:18 30.10.2019
5288 Clouds -3 1015 92 10000 2.1 210 07:43 30.10.2019
5289 Rain -4 1015 92 10000 2.1 300 06:59 30.10.2019
5290 Rain -4 1015 92 10000 2.1 300 06:40 30.10.2019
5291 Clouds -4 1015 85 10000 3.1 310 05:58 30.10.2019
5292 Clouds -4 1015 85 10000 3.1 310 05:39 30.10.2019
5293 Snow -2 1016 79 10000 3.6 280 04:26 30.10.2019
5294 Snow -2 1016 79 10000 3.6 280 04:26 30.10.2019
5295 Snow -2 1016 86 10000 6.2 290 03:39 30.10.2019
5296 Snow -3 1016 86 3000 5.1 300 02:49 30.10.2019
5297 Snow -2 1016 79 10000 3.6 320 01:51 30.10.2019
5298 Rain -2 1017 68 10000 5.7 330 00:49 30.10.2019
5299 Rain -2 1017 74 10000 9.3 350 00:28 30.10.2019
5300 Snow -1 1017 92 10000 8.7 350 23:41 29.10.2019
5301 Snow -1 1017 86 5000 5.1 340 23:22 29.10.2019
5302 Snow -1 1017 92 10000 5.7 360 22:45 29.10.2019
5303 Snow -1 1017 79 10000 10.8 330 22:20 29.10.2019
5304 Rain -1 1017 74 10000 9.8 340 21:56 29.10.2019
5305 Rain -1 1017 74 10000 9.8 340 21:38 29.10.2019
5306 Snow -2 1017 74 10000 6.7 330 21:20 29.10.2019
5307 Rain -2 1017 92 10000 4.1 320 20:54 29.10.2019
5308 Rain -2 1017 92 10000 4.1 320 20:36 29.10.2019
5309 Snow -1 1017 79 10000 7.2 360 20:18 29.10.2019
5310 Rain -1 1017 79 10000 9.3 360 19:55 29.10.2019
5311 Rain -1 1017 79 10000 9.3 360 19:36 29.10.2019
5312 Snow -1 1017 86 1500 10.3 360 19:18 29.10.2019
5313 Rain -1 1017 79 10000 10.3 360 18:54 29.10.2019
5314 Rain -1 1017 79 10000 10.3 360 18:36 29.10.2019
5315 Snow 0 1017 58 10000 8.7 340 18:18 29.10.2019
5316 Clouds 0 1017 63 10000 10.3 340 17:40 29.10.2019
5317 Rain -1 1017 86 10000 8.7 360 17:21 29.10.2019
5318 Rain 0 1016 63 10000 9.8 350 16:58 29.10.2019
5319 Rain 0 1016 63 10000 9.8 350 16:38 29.10.2019
5320 Rain 0 1016 74 10000 12.3 350 16:19 29.10.2019
5321 Rain 0 1016 74 10000 12.3 350 15:54 29.10.2019
5322 Rain 0 1016 74 10000 12.3 350 15:36 29.10.2019
5323 Snow -1 1016 92 5000 8.7 360 15:18 29.10.2019
5324 Snow -1 1016 92 5000 6.2 10 14:42 29.10.2019
5325 Snow -1 1016 92 4000 8.7 20 14:24 29.10.2019
5326 Snow -1 1016 86 1500 9.8 20 13:58 29.10.2019
5327 Snow -1 1016 86 1500 9.8 20 13:39 29.10.2019
5328 Rain -1 1015 86 10000 6.7 10 13:21 29.10.2019
5329 Rain -1 1015 91 10000 7.2 20 12:44 29.10.2019
5330 Rain 1 1015 91 8000 8.7 360 12:25 29.10.2019
5331 Rain 0 1015 91 10000 8.7 350 11:57 29.10.2019
5332 Rain 0 1015 91 10000 8.7 350 11:38 29.10.2019
5333 Rain 0 1015 91 10000 9.8 360 11:19 29.10.2019
5334 Rain 0 1015 91 10000 9.8 360 10:57 29.10.2019
5335 Rain 0 1015 91 10000 9.8 360 10:38 29.10.2019
5336 Rain -1 1014 91 10000 8.7 10 10:19 29.10.2019
5337 Rain 0 1014 91 10000 8.7 10 09:44 29.10.2019
5338 Rain 0 1014 80 10000 8.2 20 09:23 29.10.2019
5339 Rain 0 1014 80 10000 8.2 20 09:23 29.10.2019
5340 Rain 0 1014 80 10000 9.3 20 08:58 29.10.2019
5341 Rain 0 1014 80 10000 9.3 20 08:39 29.10.2019
5342 Rain 0 1013 80 10000 8.7 30 08:21 29.10.2019
5343 Rain 0 1013 92 10000 9.3 30 07:49 29.10.2019
5344 Snow -2 1012 100 400 12.9 20 07:22 29.10.2019
5345 Snow -1 1012 92 400 13.9 20 06:59 29.10.2019
5346 Snow -1 1012 92 400 13.9 20 06:41 29.10.2019
5347 Snow -1 1012 92 1500 13.9 360 06:19 29.10.2019
5348 Snow -1 1011 92 500 13.9 340 05:49 29.10.2019
5349 Clouds 0 1011 80 10000 13.9 340 05:19 29.10.2019
5350 Rain -1 1011 86 10000 10.3 320 03:55 29.10.2019
5351 Rain -1 1011 86 10000 11.8 350 02:32 29.10.2019
5352 Clouds -1 1010 74 10000 9.3 320 01:43 29.10.2019
5353 Rain -2 1010 79 10000 6.7 330 00:57 29.10.2019
5354 Rain -2 1010 79 10000 6.7 330 00:30 29.10.2019
5355 Rain -1 1010 86 10000 4.1 340 23:42 28.10.2019
5356 Snow -1 1010 86 3500 6.7 340 23:20 28.10.2019
5357 Snow -1 1009 86 10000 11.8 330 22:57 28.10.2019
5358 Snow -1 1009 86 10000 11.8 330 22:37 28.10.2019
5359 Rain -1 1009 63 10000 7.7 330 22:18 28.10.2019
5360 Clouds 0 1009 63 10000 10.3 340 21:54 28.10.2019
5361 Clouds 0 1009 63 10000 10.3 340 21:54 28.10.2019
5362 Clouds 0 1009 63 10000 10.3 340 21:36 28.10.2019
5363 Rain 0 1009 63 10000 10.8 340 21:18 28.10.2019
5364 Snow 0 1008 80 10000 10.3 340 20:44 28.10.2019
5365 Snow -1 1009 92 1300 6.7 20 20:24 28.10.2019
5366 Snow 0 1008 86 10000 10.8 20 19:58 28.10.2019
5367 Snow 0 1008 86 10000 10.8 20 19:39 28.10.2019
5368 Snow 1 1008 86 5000 11.8 10 19:20 28.10.2019
5369 Snow 1 1008 86 5000 11.8 10 19:20 28.10.2019
5370 Rain 0 1008 92 10000 12.3 10 18:58 28.10.2019
5371 Rain 0 1008 92 10000 12.3 10 18:39 28.10.2019
5372 Snow 0 1008 92 5000 16.5 360 18:21 28.10.2019
5373 Snow 0 1008 92 5000 16.5 360 18:21 28.10.2019
5374 Snow 0 1008 80 8000 15.9 350 17:56 28.10.2019
5375 Snow 0 1008 80 8000 15.9 350 17:38 28.10.2019
5376 Snow 0 1007 92 2300 17 350 17:19 28.10.2019
5377 Snow -1 1007 92 300 16.5 350 16:56 28.10.2019
5378 Snow -1 1007 92 300 16.5 350 16:38 28.10.2019
5379 Snow -1 1007 92 500 16.5 350 16:19 28.10.2019
5380 Snow 0 1007 92 10000 15.4 360 15:56 28.10.2019
5381 Snow 0 1007 92 10000 15.4 360 15:38 28.10.2019
5382 Snow 0 1007 92 800 15.9 340 15:18 28.10.2019
5383 Rain 0 1006 80 10000 13.9 340 14:55 28.10.2019
5384 Rain 0 1006 80 10000 13.9 340 14:37 28.10.2019
5385 Snow -1 1006 92 3000 12.3 350 14:18 28.10.2019
5386 Snow -1 1006 92 3000 12.3 350 14:18 28.10.2019
5387 Rain 0 1006 86 10000 15.9 340 13:54 28.10.2019
5388 Rain 0 1006 86 10000 15.9 340 13:36 28.10.2019
5389 Rain 0 1006 86 10000 15.9 340 13:36 28.10.2019
5390 Rain 0 1005 74 10000 12.9 360 13:18 28.10.2019
5391 Clouds 0 1005 95 800 14.9 340 12:40 28.10.2019
5392 Rain 0 1005 95 10000 13.4 350 12:20 28.10.2019
5393 Rain 0 1005 95 10000 13.4 350 12:20 28.10.2019
5394 Rain 0 1004 80 10000 13.4 340 11:40 28.10.2019
5395 Snow 0 1004 80 5000 17.5 350 11:21 28.10.2019
5396 Rain -1 1004 79 10000 10.8 10 10:57 28.10.2019
5397 Rain -1 1004 79 10000 10.8 10 10:38 28.10.2019
5398 Rain 0 1004 74 10000 15.9 360 10:19 28.10.2019
5399 Snow 1 1003 95 10000 14.4 340 09:55 28.10.2019
5400 Snow 1 1003 95 10000 14.4 340 09:55 28.10.2019
5401 Snow 1 1003 95 10000 14.4 340 09:36 28.10.2019
5402 Rain 1 1003 95 10000 13.9 340 09:18 28.10.2019
5403 Rain 0 1003 95 10000 14.9 350 08:56 28.10.2019
5404 Rain 0 1003 95 10000 14.9 350 08:37 28.10.2019
5405 Rain 0 1003 86 10000 15.4 360 08:18 28.10.2019
5406 Rain 0 1002 92 10000 20.1 350 07:43 28.10.2019
5407 Rain -1 1002 86 10000 5.7 20 07:23 28.10.2019
5408 Snow -1 1002 92 4100 4.6 360 06:59 28.10.2019
5409 Snow -1 1002 92 4100 4.6 360 06:37 28.10.2019
5410 Snow -1 1001 92 8000 6.2 20 05:19 28.10.2019
5411 Snow -1 1001 92 250 12.3 260 03:44 28.10.2019
5412 Clouds -1 1001 80 10000 11.8 240 02:45 28.10.2019
5413 Clear -2 1002 79 10000 8.2 220 01:52 28.10.2019
5414 Clear -2 1002 79 10000 8.2 220 01:52 28.10.2019
5415 Clouds -2 1002 79 10000 5.7 220 00:47 28.10.2019
5416 Clouds -3 1002 86 10000 6.2 220 00:25 28.10.2019
5417 Clouds -4 1002 85 10000 5.7 220 23:44 27.10.2019
5418 Clouds -2 1003 85 10000 5.7 230 23:22 27.10.2019
5419 Clouds -3 1002 79 10000 5.7 230 22:57 27.10.2019
5420 Clouds -3 1002 79 10000 5.7 230 22:37 27.10.2019
5421 Clouds -4 1003 85 10000 5.1 220 22:19 27.10.2019
5422 Clouds -5 1003 85 10000 4.6 230 21:56 27.10.2019
5423 Clouds -5 1003 85 10000 4.6 230 21:38 27.10.2019
5424 Clouds -6 1002 92 10000 4.1 220 21:20 27.10.2019
5425 Clouds -5 1002 85 10000 4.1 230 20:42 27.10.2019
5426 Clouds -8 1002 85 10000 3.1 220 20:24 27.10.2019
5427 Clouds -8 1002 85 10000 3.1 220 19:59 27.10.2019
5428 Clouds -7 1002 85 10000 3.1 240 19:39 27.10.2019
5429 Clouds -7 1002 85 10000 3.1 240 19:20 27.10.2019
5430 Clouds -5 1002 79 10000 4.6 210 18:57 27.10.2019
5431 Clouds -5 1002 79 10000 4.6 210 18:39 27.10.2019
5432 Clouds -5 1002 79 10000 4.6 210 18:21 27.10.2019
5433 Clouds -5 1002 73 10000 4.6 210 17:56 27.10.2019
5434 Clouds -6 1002 73 10000 4.6 210 17:37 27.10.2019
5435 Clouds -5 1002 68 10000 4.6 200 17:19 27.10.2019
5436 Clouds -6 1002 73 10000 4.6 210 16:56 27.10.2019
5437 Clouds -6 1002 73 10000 4.6 210 16:56 27.10.2019
5438 Clouds -6 1002 73 10000 4.6 210 16:38 27.10.2019
5439 Clouds -6 1002 73 10000 3.6 210 16:19 27.10.2019
5440 Clouds -5 1002 67 10000 1.5 0 15:55 27.10.2019
5441 Clouds -5 1002 67 10000 1.5 0 15:37 27.10.2019
5442 Clouds -4 1002 73 10000 2.6 180 15:18 27.10.2019
5443 Clouds -3 1002 67 10000 3.6 190 14:41 27.10.2019
5444 Clouds -4 1002 62 10000 4.1 190 14:20 27.10.2019
5445 Clouds -3 1002 63 10000 5.1 200 13:56 27.10.2019
5446 Clouds -3 1002 63 10000 5.1 200 13:38 27.10.2019
5447 Clouds -3 1002 68 10000 3.6 180 13:19 27.10.2019
5448 Clouds -3 1002 68 10000 4.6 180 12:45 27.10.2019
5449 Clouds -3 1002 68 10000 5.1 190 12:24 27.10.2019
5450 Clouds -3 1002 68 10000 5.1 190 12:24 27.10.2019
5451 Clouds -3 1002 68 10000 5.7 190 11:59 27.10.2019
5452 Clouds -3 1002 68 10000 5.7 190 11:40 27.10.2019
5453 Clouds -3 1002 68 10000 6.7 190 11:21 27.10.2019
5454 Clouds -2 1002 58 10000 5.1 190 10:44 27.10.2019
5455 Clouds -3 1002 68 10000 5.1 190 10:24 27.10.2019
5456 Clouds -3 1002 63 10000 5.7 190 09:56 27.10.2019
5457 Clouds -3 1002 63 10000 5.7 190 09:38 27.10.2019
5458 Clouds -3 1002 63 10000 6.7 200 09:18 27.10.2019
5459 Clouds -3 1002 63 10000 6.7 200 09:18 27.10.2019
5460 Clouds -3 1002 63 10000 5.1 200 08:42 27.10.2019
5461 Clouds -3 1002 63 10000 6.2 200 08:22 27.10.2019
5462 Clouds -3 1002 68 10000 6.2 200 07:59 27.10.2019
5463 Clouds -3 1002 68 10000 6.2 200 07:41 27.10.2019
5464 Clouds -3 1002 68 10000 6.7 200 07:20 27.10.2019
5465 Clouds -3 1002 73 10000 5.7 190 06:47 27.10.2019
5466 Clouds -3 1002 73 10000 5.7 190 06:26 27.10.2019
5467 Clouds -3 1002 73 10000 5.1 200 05:39 27.10.2019
5468 Clouds -3 1002 68 10000 5.1 200 04:50 27.10.2019
5469 Clouds -3 1003 79 10000 5.1 210 02:54 27.10.2019
5470 Clouds -4 1003 79 10000 4.6 200 01:49 27.10.2019
5471 Clouds -5 1003 79 10000 4.1 200 01:20 27.10.2019
5472 Clouds -4 1003 85 10000 3.6 200 00:43 27.10.2019
5473 Clouds -5 1003 85 10000 3.1 210 00:22 27.10.2019
5474 Clouds -6 1003 92 10000 3.6 210 23:55 26.10.2019
5475 Clouds -6 1003 92 10000 3.6 210 23:36 26.10.2019
5476 Clouds -5 1003 85 10000 3.6 210 23:18 26.10.2019
5477 Clouds -6 1003 92 10000 3.1 200 22:55 26.10.2019
5478 Clouds -6 1003 92 10000 3.1 200 22:36 26.10.2019
5479 Clouds -6 1003 85 10000 2.6 210 22:18 26.10.2019
5480 Clouds -6 1003 85 10000 2.6 200 21:42 26.10.2019
5481 Clouds -4 1003 79 10000 1.5 190 21:21 26.10.2019
5482 Clouds -5 1003 73 10000 1.5 170 20:46 26.10.2019
5483 Clouds -5 1003 73 10000 1.5 170 20:46 26.10.2019
5484 Clouds -4 1003 79 10000 2.1 170 20:20 26.10.2019
5485 Clouds -3 1003 79 10000 1.5 170 19:59 26.10.2019
5486 Clouds -3 1003 79 10000 1.5 170 19:40 26.10.2019
5487 Clouds -4 1003 79 10000 1.5 130 19:20 26.10.2019
5488 Clouds -6 1003 85 10000 2.1 140 18:56 26.10.2019
5489 Clouds -6 1003 85 10000 2.1 140 18:38 26.10.2019
5490 Clouds -4 1003 79 10000 2.6 110 18:19 26.10.2019
5491 Clouds -4 1003 85 10000 3.1 120 17:56 26.10.2019
5492 Clouds -4 1003 85 10000 3.1 120 17:37 26.10.2019
5493 Clouds -5 1003 85 10000 3.1 110 17:18 26.10.2019
5494 Clouds -5 1003 85 10000 3.1 110 16:43 26.10.2019
5495 Clouds -5 1003 85 10000 3.6 110 16:24 26.10.2019
5496 Clouds -4 1003 79 10000 4.1 100 15:44 26.10.2019
5497 Clouds -3 1003 86 10000 5.7 100 15:22 26.10.2019
5498 Clouds -3 1003 86 10000 5.7 100 14:59 26.10.2019
5499 Clouds -3 1003 86 10000 4.6 100 14:37 26.10.2019
5500 Snow -3 1003 86 5000 4.6 110 14:19 26.10.2019
5501 Clouds -7 1004 87 0 1.41 130 13:42 26.10.2019
5502 Clouds -7 1004 87 0 1.41 130 13:23 26.10.2019
5503 Clouds -2 1002 79 10000 5.1 100 12:50 26.10.2019
5504 Clouds -7 1004 87 0 1.41 130 12:27 26.10.2019
5505 Clouds -1 1002 74 10000 7.2 60 11:58 26.10.2019
5506 Clouds -1 1002 74 10000 7.2 60 11:40 26.10.2019
5507 Clouds -1 1002 74 10000 7.2 60 11:22 26.10.2019
5508 Clouds -1 1002 63 10000 6.2 80 10:46 26.10.2019
5509 Clouds -1 1002 68 10000 6.7 70 10:25 26.10.2019
5510 Clouds -1 1001 68 10000 7.7 80 09:48 26.10.2019
5511 Rain -1 1001 74 10000 8.7 80 09:29 26.10.2019
5512 Snow -1 1001 74 10000 10.3 80 08:48 26.10.2019
5513 Clouds -1 1001 74 10000 10.8 70 08:27 26.10.2019
5514 Clouds -1 1001 74 10000 11.3 70 07:57 26.10.2019
5515 Clouds -1 1001 74 10000 11.3 70 07:34 26.10.2019
5516 Clouds -1 1000 74 10000 12.9 80 06:56 26.10.2019
5517 Clouds -1 1000 74 10000 12.9 80 06:38 26.10.2019
5518 Clouds -1 1000 74 10000 11.3 90 05:24 26.10.2019
5519 Clouds -1 1000 74 10000 11.3 90 04:59 26.10.2019
5520 Clouds 0 1000 86 10000 13.4 80 03:31 26.10.2019
5521 Clouds 0 1000 87 10000 15.4 90 02:28 26.10.2019
5522 Snow 0 1000 87 9000 14.4 90 01:45 26.10.2019
5523 Snow 0 1000 87 6000 16.5 80 00:50 26.10.2019
5524 Snow 0 1000 93 7000 18.5 90 23:48 25.10.2019
5525 Snow 0 1000 93 8000 19 100 23:22 25.10.2019
5526 Snow 0 1000 93 7000 19.5 100 22:58 25.10.2019
5527 Snow 0 1000 93 7000 19.5 100 22:58 25.10.2019
5528 Snow 1 1000 93 7000 19.5 100 22:39 25.10.2019
5529 Snow 1 1000 93 7000 19.5 100 22:39 25.10.2019
5530 Snow 1 1000 93 5000 20.6 100 22:21 25.10.2019
5531 Snow 1 1000 92 3000 19 100 21:55 25.10.2019
5532 Snow 1 1000 93 3000 19 100 21:37 25.10.2019
5533 Snow 1 1000 85 5000 18 90 21:19 25.10.2019
5534 Snow 1 1001 85 8000 16.5 100 20:43 25.10.2019
5535 Snow 1 1001 85 10000 17 100 20:19 25.10.2019
5536 Snow 2 1001 80 10000 15.9 90 19:47 25.10.2019
5537 Clouds 2 1001 80 10000 14.9 90 19:27 25.10.2019
5538 Clouds 1 1001 80 10000 15.9 100 18:56 25.10.2019
5539 Clouds 1 1001 80 10000 15.9 100 18:37 25.10.2019
5540 Clouds 1 1001 91 10000 17 100 18:19 25.10.2019
5541 Clouds 1 1002 91 10000 15.9 100 17:39 25.10.2019
5542 Clouds 1 1002 91 10000 17 100 17:20 25.10.2019
5543 Clouds 1 1002 91 10000 16.5 100 16:46 25.10.2019
5544 Clouds 1 1002 91 10000 15.9 100 16:23 25.10.2019
5545 Snow 1 1002 91 10000 18.5 100 15:57 25.10.2019
5546 Snow 1 1002 91 10000 18.5 100 15:38 25.10.2019
5547 Snow 1 1002 89 10000 18.5 100 15:20 25.10.2019
5548 Snow 1 1002 89 10000 18.5 100 15:20 25.10.2019
5549 Snow 1 1002 89 10000 18 100 14:42 25.10.2019
5550 Snow 1 1002 89 10000 19.5 100 14:23 25.10.2019
5551 Snow 1 1002 89 10000 19.5 100 13:59 25.10.2019
5552 Snow 1 1003 89 10000 18 100 13:39 25.10.2019
5553 Snow 1 1003 89 10000 20.1 100 13:21 25.10.2019
5554 Snow 1 1003 89 10000 20.1 110 12:54 25.10.2019
5555 Snow 1 1003 89 10000 20.1 110 12:36 25.10.2019
5556 Snow 1 1003 91 7000 19 100 12:18 25.10.2019
5557 Snow 1 1003 91 10000 19 100 11:39 25.10.2019
5558 Snow 1 1003 91 10000 19 100 11:39 25.10.2019
5559 Snow 1 1003 91 10000 17 100 11:20 25.10.2019
5560 Clouds 1 1003 91 10000 15.9 100 10:41 25.10.2019
5561 Clouds 1 1003 91 10000 16.5 100 10:23 25.10.2019
5562 Clouds 1 1003 91 10000 14.9 100 09:59 25.10.2019
5563 Clouds 1 1003 91 10000 14.9 100 09:39 25.10.2019
5564 Snow 1 1003 94 9000 15.4 100 09:20 25.10.2019
5565 Clouds 0 1003 92 10000 15.4 110 08:51 25.10.2019
5566 Clouds 0 1003 92 10000 15.4 110 08:33 25.10.2019
5567 Snow 0 1003 92 3000 14.9 100 07:58 25.10.2019
5568 Snow 0 1003 92 3000 14.9 100 07:40 25.10.2019
5569 Snow -1 1003 92 4000 14.4 100 07:22 25.10.2019
5570 Snow -1 1003 92 2500 15.4 100 06:36 25.10.2019
5571 Snow -1 1003 92 2500 15.9 100 05:48 25.10.2019
5572 Snow -1 1003 92 1700 15.4 100 05:21 25.10.2019
5573 Snow -2 1003 92 2200 14.4 100 03:59 25.10.2019
5574 Snow -1 1003 86 8000 11.8 100 02:34 25.10.2019
5575 Snow -2 1004 92 3600 11.8 100 01:52 25.10.2019
5576 Snow -2 1004 92 5000 10.8 110 00:30 25.10.2019
5577 Snow -2 1005 86 10000 10.8 100 23:42 24.10.2019
5578 Snow -2 1005 86 10000 11.8 110 23:24 24.10.2019
5579 Snow -1 1005 79 9000 11.3 110 22:57 24.10.2019
5580 Snow -1 1005 79 9000 11.3 110 22:38 24.10.2019
5581 Snow -1 1005 86 8000 10.8 100 22:19 24.10.2019
5582 Clouds -1 1005 86 10000 9.8 100 21:57 24.10.2019
5583 Clouds -1 1005 86 10000 9.8 100 21:38 24.10.2019
5584 Clouds -1 1005 86 10000 9.8 100 21:38 24.10.2019
5585 Clouds -1 1005 86 10000 9.8 110 21:19 24.10.2019
5586 Clouds -1 1006 86 10000 9.8 110 20:57 24.10.2019
5587 Clouds -1 1006 86 10000 9.8 110 20:38 24.10.2019
5588 Clouds -1 1006 86 10000 8.7 110 20:20 24.10.2019
5589 Clouds -2 1006 79 10000 9.3 110 19:55 24.10.2019
5590 Clouds -2 1006 79 10000 9.3 110 19:37 24.10.2019
5591 Clouds -2 1006 86 10000 9.3 120 19:18 24.10.2019
5592 Snow 0 1006 80 10000 8.2 110 18:41 24.10.2019
5593 Snow 0 1007 80 10000 8.7 110 18:23 24.10.2019
5594 Clouds 0 1007 80 10000 9.3 100 17:59 24.10.2019
5595 Clouds 0 1007 80 10000 9.3 100 17:40 24.10.2019
5596 Clouds 0 1007 80 10000 9.3 100 17:20 24.10.2019
5597 Clouds -1 1007 86 10000 8.7 100 16:56 24.10.2019
5598 Clouds -1 1007 86 10000 8.7 100 16:37 24.10.2019
5599 Clouds 0 1007 79 10000 7.7 110 16:19 24.10.2019
5600 Clouds 0 1008 80 10000 8.7 110 15:56 24.10.2019
5601 Clouds 0 1008 80 10000 8.7 110 15:38 24.10.2019
5602 Clouds 0 1008 80 10000 6.2 100 15:19 24.10.2019
5603 Clouds 0 1008 79 10000 5.7 100 14:55 24.10.2019
5604 Clouds 0 1008 79 10000 5.7 100 14:36 24.10.2019
5605 Clouds -1 1008 74 10000 5.7 110 14:18 24.10.2019
5606 Clouds -1 1008 74 10000 4.1 110 13:40 24.10.2019
5607 Clouds -1 1008 80 10000 4.1 90 13:19 24.10.2019
5608 Clouds -2 1008 86 10000 5.1 100 12:57 24.10.2019
5609 Clouds -2 1008 86 10000 5.1 100 12:38 24.10.2019
5610 Clouds -2 1008 86 10000 6.7 100 12:19 24.10.2019
5611 Clouds -2 1008 86 10000 5.7 100 11:56 24.10.2019
5612 Clouds -2 1008 86 10000 5.7 100 11:37 24.10.2019
5613 Clouds -2 1008 86 10000 5.7 100 11:37 24.10.2019
5614 Clouds 1 1008 86 10000 5.7 100 11:19 24.10.2019
5615 Clouds 1 1008 86 10000 6.7 110 10:55 24.10.2019
5616 Clouds 1 1008 86 10000 6.7 110 10:36 24.10.2019
5617 Clouds 0 1008 86 10000 7.2 100 10:18 24.10.2019
5618 Clouds 0 1008 86 10000 6.7 100 09:37 24.10.2019
5619 Clouds 0 1008 86 10000 5.7 110 09:18 24.10.2019
5620 Rain 0 1007 92 10000 5.7 100 08:44 24.10.2019
5621 Rain -1 1007 100 10000 3.6 110 08:20 24.10.2019
5622 Snow -1 1007 92 5000 4.6 100 07:56 24.10.2019
5623 Snow -1 1007 92 5000 4.6 100 07:38 24.10.2019
5624 Snow -1 1007 92 1500 3.6 90 07:20 24.10.2019
5625 Snow -1 1007 100 10000 4.1 110 06:39 24.10.2019
5626 Snow -1 1007 92 3500 1.5 100 05:57 24.10.2019
5627 Snow -1 1007 92 3500 1.5 100 05:39 24.10.2019
5628 Rain -2 1007 100 10000 3.6 80 04:49 24.10.2019
5629 Snow -2 1006 92 10000 3.6 30 03:36 24.10.2019
5630 Clouds -3 1005 92 10000 3.1 60 02:51 24.10.2019
5631 Clouds -3 1005 92 10000 3.1 60 02:22 24.10.2019
5632 Snow -2 1005 100 10000 5.7 50 01:33 24.10.2019
5633 Rain -1 1004 86 10000 2.6 60 00:57 24.10.2019
5634 Rain -1 1004 86 10000 2.6 60 00:38 24.10.2019
5635 Clouds -1 1004 86 10000 3.6 60 00:18 24.10.2019
5636 Clouds -1 1003 92 10000 5.1 50 23:42 23.10.2019
5637 Snow -1 1003 92 10000 6.7 80 23:23 23.10.2019
5638 Clouds -1 1003 100 10000 6.7 70 22:57 23.10.2019
5639 Clouds -1 1003 100 10000 6.7 70 22:38 23.10.2019
5640 Snow -1 1002 97 5000 7.7 70 22:18 23.10.2019
5641 Snow -1 1002 100 3700 7.2 70 21:57 23.10.2019
5642 Snow -1 1002 100 3700 7.2 70 21:38 23.10.2019
5643 Snow -1 1002 97 5000 8.2 90 21:19 23.10.2019
5644 Snow 0 1001 97 4000 8.7 90 20:56 23.10.2019
5645 Snow 0 1001 97 4000 8.7 90 20:37 23.10.2019
5646 Snow 0 1001 97 4000 9.3 90 20:19 23.10.2019
5647 Snow 0 1000 100 5000 9.3 100 19:54 23.10.2019
5648 Snow 0 1000 100 5000 9.3 100 19:36 23.10.2019
5649 Snow 0 1000 97 5000 9.3 100 19:18 23.10.2019
5650 Snow 0 1000 100 7000 9.3 100 18:39 23.10.2019
5651 Snow 0 1000 92 4000 8.2 100 18:19 23.10.2019
5652 Snow 0 1000 92 5000 7.7 110 17:59 23.10.2019
5653 Snow 0 1000 92 5000 7.7 110 17:41 23.10.2019
5654 Snow 0 1000 92 5000 8.7 120 17:19 23.10.2019
5655 Snow 0 1000 96 7000 9.3 120 16:54 23.10.2019
5656 Snow 0 1000 96 7000 9.3 120 16:36 23.10.2019
5657 Snow 1 1000 96 7000 9.8 120 16:18 23.10.2019
5658 Snow 1 1000 96 9000 9.8 120 15:41 23.10.2019
5659 Rain 1 1000 94 10000 8.7 120 15:21 23.10.2019
5660 Rain 1 1000 94 10000 9.8 120 14:58 23.10.2019
5661 Rain 1 1000 94 10000 9.8 120 14:38 23.10.2019
5662 Rain 1 1000 94 10000 8.2 120 14:19 23.10.2019
5663 Rain 1 1000 94 10000 8.2 120 13:57 23.10.2019
5664 Rain 1 1000 94 10000 8.2 120 13:38 23.10.2019
5665 Rain 1 1000 94 10000 9.8 120 13:20 23.10.2019
5666 Rain 1 1000 94 10000 11.8 130 12:54 23.10.2019
5667 Rain 1 1000 94 10000 11.8 130 12:54 23.10.2019
5668 Rain 1 1000 94 10000 11.8 130 12:36 23.10.2019
5669 Rain 1 1000 85 10000 8.7 140 12:18 23.10.2019
5670 Snow 1 1000 85 10000 8.7 130 11:54 23.10.2019
5671 Snow 1 1000 85 10000 8.7 130 11:36 23.10.2019
5672 Rain 1 999 69 10000 9.8 120 11:18 23.10.2019
5673 Rain 1 999 69 10000 10.8 120 10:42 23.10.2019
5674 Rain 2 998 69 10000 9.8 120 10:23 23.10.2019
5675 Rain 2 998 69 10000 10.3 110 09:41 23.10.2019
5676 Rain 1 997 64 10000 10.8 110 09:23 23.10.2019
5677 Rain 1 997 64 10000 10.8 110 09:23 23.10.2019
5678 Rain 2 997 64 10000 10.8 110 08:59 23.10.2019
5679 Rain 2 997 64 10000 10.8 110 08:41 23.10.2019
5680 Rain 2 997 64 10000 11.3 110 08:22 23.10.2019
5681 Clouds 2 996 64 10000 10.8 110 07:45 23.10.2019
5682 Clouds 1 996 64 10000 10.8 110 07:21 23.10.2019
5683 Clouds 1 996 69 10000 11.3 110 06:46 23.10.2019
5684 Clouds 1 996 69 10000 11.8 100 06:20 23.10.2019
5685 Clouds 1 994 80 10000 11.8 90 05:24 23.10.2019
5686 Snow 1 993 80 10000 10.8 100 04:34 23.10.2019
5687 Snow 1 992 80 10000 11.3 80 03:33 23.10.2019
5688 Snow 1 991 86 5000 12.3 80 02:37 23.10.2019
5689 Snow 1 989 95 4000 13.4 100 01:26 23.10.2019
5690 Snow 1 988 86 6000 12.3 100 00:48 23.10.2019
5691 Snow 1 987 86 7000 12.3 100 00:28 23.10.2019
5692 Snow 0 987 93 10000 12.9 90 23:39 22.10.2019
5693 Snow 1 986 93 10000 12.9 90 23:18 22.10.2019
5694 Rain 1 985 93 10000 12.9 100 22:56 22.10.2019
5695 Rain 1 985 93 10000 12.9 100 22:37 22.10.2019
5696 Snow 1 984 93 9000 15.9 110 22:19 22.10.2019
5697 Snow 1 984 93 7000 16.5 110 21:56 22.10.2019
5698 Snow 1 984 93 7000 16.5 110 21:37 22.10.2019
5699 Snow 0 984 92 2900 15.9 100 21:18 22.10.2019
5700 Snow 0 984 92 2900 15.9 100 21:18 22.10.2019
5701 Snow 1 983 92 2500 14.4 100 20:55 22.10.2019
5702 Snow 1 983 92 2500 14.4 100 20:37 22.10.2019
5703 Snow 0 983 100 2800 12.3 100 20:19 22.10.2019
5704 Snow 0 983 92 3000 11.8 110 19:45 22.10.2019
5705 Snow 0 983 92 3000 10.8 100 19:26 22.10.2019
5706 Snow 0 983 92 2600 13.4 110 18:58 22.10.2019
5707 Snow 0 983 92 2600 13.4 110 18:40 22.10.2019
5708 Snow 0 983 92 2500 11.8 110 18:21 22.10.2019
5709 Snow -1 983 86 3400 13.4 110 17:57 22.10.2019
5710 Snow -1 983 86 3400 13.4 110 17:38 22.10.2019
5711 Snow 0 983 92 4000 12.9 100 17:19 22.10.2019
5712 Snow 1 983 86 6000 12.3 110 16:57 22.10.2019
5713 Snow 1 983 86 6000 12.3 110 16:37 22.10.2019
5714 Snow 1 984 86 3500 12.3 120 16:18 22.10.2019
5715 Snow 0 984 86 4000 12.9 120 15:44 22.10.2019
5716 Snow 0 985 92 2100 17 120 15:21 22.10.2019
5717 Snow 0 986 86 1900 15.9 120 14:58 22.10.2019
5718 Snow 0 986 86 1900 15.9 120 14:39 22.10.2019
5719 Snow -2 986 86 1500 16.5 130 14:19 22.10.2019
5720 Snow -2 987 86 10000 14.9 130 13:42 22.10.2019
5721 Rain -1 988 80 10000 17 130 13:21 22.10.2019
5722 Clouds -1 989 80 10000 13.4 130 12:58 22.10.2019
5723 Clouds -1 989 80 10000 13.4 130 12:39 22.10.2019
5724 Clouds -1 989 80 10000 14.9 130 12:20 22.10.2019
5725 Clouds -1 989 80 10000 14.9 130 12:20 22.10.2019
5726 Clouds -1 990 80 10000 17 130 11:54 22.10.2019
5727 Clouds -1 990 80 10000 17 130 11:36 22.10.2019
5728 Clouds -1 990 80 10000 13.9 130 11:18 22.10.2019
5729 Clouds -1 991 80 10000 13.4 130 10:38 22.10.2019
5730 Clouds -1 992 80 10000 13.4 120 10:20 22.10.2019
5731 Clouds -1 992 80 10000 13.4 120 10:00 22.10.2019
5732 Clouds -1 992 80 10000 13.4 120 10:00 22.10.2019
5733 Clouds -1 992 80 10000 13.4 120 09:59 22.10.2019
5734 Clouds -1 992 80 10000 13.4 120 09:59 22.10.2019
5735 Clouds 0 992 74 10000 10.8 110 09:41 22.10.2019
5736 Clouds 0 993 74 10000 11.8 120 09:22 22.10.2019
5737 Clouds 0 994 74 10000 9.8 110 08:59 22.10.2019
5738 Clouds 0 994 74 10000 9.8 110 08:40 22.10.2019
5739 Clouds 0 995 79 10000 9.8 110 08:19 22.10.2019
5740 Clouds 0 996 74 10000 8.7 110 07:44 22.10.2019
5741 Clouds -2 997 74 10000 8.7 120 07:25 22.10.2019
5742 Clouds -1 997 68 10000 9.3 130 06:45 22.10.2019
5743 Clouds -6 995 87 0 5.58 137 06:27 22.10.2019
5744 Clouds -2 999 74 10000 3.6 110 05:48 22.10.2019
5745 Clouds -3 1001 86 10000 1.5 170 04:50 22.10.2019
5746 Clouds -1 1003 86 10000 2.1 210 02:31 22.10.2019
5747 Rain -2 1003 86 10000 3.6 280 01:39 22.10.2019
5748 Rain -2 1003 86 10000 3.6 280 01:19 22.10.2019
5749 Snow 0 1003 89 10000 5.1 270 00:43 22.10.2019
5750 Rain -2 1004 86 10000 4.1 270 00:24 22.10.2019
5751 Snow -1 1004 92 10000 5.1 250 23:59 21.10.2019
5752 Snow -1 1004 92 10000 5.1 250 23:38 21.10.2019
5753 Snow 0 1004 92 10000 5.7 280 23:19 21.10.2019
5754 Snow 0 1004 86 10000 6.7 300 22:58 21.10.2019
5755 Snow 0 1004 86 10000 6.7 300 22:39 21.10.2019
5756 Snow 0 1005 86 7000 9.8 300 22:20 21.10.2019
5757 Rain 1 1005 92 10000 10.3 290 21:58 21.10.2019
5758 Rain 1 1005 91 10000 10.3 290 21:38 21.10.2019
5759 Snow 0 1005 92 9000 7.7 290 21:20 21.10.2019
5760 Snow 1 1005 91 10000 7.2 280 20:57 21.10.2019
5761 Snow 1 1005 91 10000 7.2 280 20:39 21.10.2019
5762 Snow 0 1006 91 7000 8.2 270 20:20 21.10.2019
5763 Snow 0 1006 91 10000 6.7 270 19:56 21.10.2019
5764 Snow 0 1006 91 10000 6.7 270 19:37 21.10.2019
5765 Rain -1 1006 86 10000 7.7 280 19:19 21.10.2019
5766 Rain -2 1006 92 10000 5.1 270 18:55 21.10.2019
5767 Rain -2 1006 92 10000 5.1 270 18:36 21.10.2019
5768 Snow 0 1006 89 8000 8.7 290 18:18 21.10.2019
5769 Rain 0 1006 92 10000 5.1 260 17:39 21.10.2019
5770 Snow 1 1007 89 800 10.3 290 17:20 21.10.2019
5771 Snow 0 1007 86 7000 7.7 290 16:59 21.10.2019
5772 Snow 0 1007 86 7000 7.7 290 16:40 21.10.2019
5773 Rain 0 1007 86 10000 4.1 270 16:22 21.10.2019
5774 Rain 0 1007 86 10000 7.2 290 15:58 21.10.2019
5775 Rain 0 1007 86 10000 7.2 290 15:39 21.10.2019
5776 Rain 1 1007 90 10000 7.7 290 15:20 21.10.2019
5777 Rain 1 1007 86 10000 6.7 290 14:55 21.10.2019
5778 Rain 1 1007 86 10000 6.7 290 14:36 21.10.2019
5779 Snow 1 1008 94 8000 8.7 300 14:18 21.10.2019
5780 Snow 1 1008 94 10000 8.7 290 13:42 21.10.2019
5781 Rain 1 1008 94 10000 5.1 270 13:20 21.10.2019
5782 Snow 1 1008 94 10000 8.2 280 12:59 21.10.2019
5783 Snow 1 1008 94 10000 8.2 280 12:40 21.10.2019
5784 Rain 1 1008 68 10000 5.7 300 12:20 21.10.2019
5785 Snow 1 1007 68 10000 7.7 300 11:55 21.10.2019
5786 Snow 1 1007 68 10000 7.7 300 11:36 21.10.2019
5787 Snow 1 1007 68 5000 8.2 300 11:18 21.10.2019
5788 Snow 1 1007 68 10000 10.3 300 10:54 21.10.2019
5789 Snow 1 1007 68 10000 10.3 300 10:54 21.10.2019
5790 Snow 1 1007 68 10000 10.3 300 10:54 21.10.2019
5791 Snow 1 1007 68 10000 10.3 300 10:36 21.10.2019
5792 Snow 0 1007 68 10000 6.7 300 10:18 21.10.2019
5793 Rain 1 1007 68 10000 8.7 300 09:41 21.10.2019
5794 Rain 1 1006 69 10000 8.7 310 09:22 21.10.2019
5795 Snow 2 1006 74 2000 11.8 320 08:42 21.10.2019
5796 Rain 2 1006 74 10000 8.7 320 08:23 21.10.2019
5797 Clouds 2 1006 80 5000 9.8 340 07:56 21.10.2019
5798 Clouds 2 1006 80 5000 9.8 340 07:37 21.10.2019
5799 Clouds 1 1005 80 10000 12.9 340 07:18 21.10.2019
5800 Rain 2 1005 69 10000 11.3 340 06:44 21.10.2019
5801 Clouds 2 1005 74 10000 4.1 10 06:25 21.10.2019
5802 Clouds 1 1004 74 1800 12.9 310 05:41 21.10.2019
5803 Clouds 3 1003 69 10000 10.3 250 03:42 21.10.2019
5804 Clouds 3 1003 69 10000 11.3 260 02:41 21.10.2019
5805 Clouds 2 1003 64 10000 10.3 220 02:21 21.10.2019
5806 Clouds 2 1004 64 10000 10.8 210 01:49 21.10.2019
5807 Clouds 1 1004 64 10000 9.8 220 01:20 21.10.2019
5808 Clouds 1 1004 64 10000 11.3 220 00:41 21.10.2019
5809 Clouds 0 1004 72 10000 10.8 200 00:22 21.10.2019
5810 Clouds 1 1005 64 10000 11.3 210 23:40 20.10.2019
5811 Clouds 3 1005 72 10000 9.3 210 23:21 20.10.2019
5812 Clouds 3 1006 64 10000 8.7 210 22:55 20.10.2019
5813 Clouds 3 1006 64 10000 8.7 210 22:36 20.10.2019
5814 Clouds 3 1006 64 10000 8.7 210 22:18 20.10.2019
5815 Clear 3 1006 72 10000 8.7 210 21:41 20.10.2019
5816 Clear 3 1006 72 10000 8.7 210 21:41 20.10.2019
5817 Clear 2 1007 63 10000 8.7 200 21:22 20.10.2019
5818 Clear 2 1007 62 10000 8.7 200 20:59 20.10.2019
5819 Clear 2 1008 62 10000 10.3 210 20:39 20.10.2019
5820 Clear 0 1008 62 10000 9.3 200 20:18 20.10.2019
5821 Clear 0 1008 62 10000 9.3 200 20:18 20.10.2019
5822 Clear 0 1008 62 10000 9.8 200 19:56 20.10.2019
5823 Clear 0 1008 62 10000 9.8 200 19:37 20.10.2019
5824 Clear 0 1009 62 10000 9.8 200 19:19 20.10.2019
5825 Clear 0 1009 62 10000 8.7 190 18:42 20.10.2019
5826 Clear 0 1009 62 10000 8.7 190 18:23 20.10.2019
5827 Clear 0 1010 62 10000 9.3 200 17:59 20.10.2019
5828 Clear 1 1010 62 10000 9.3 200 17:40 20.10.2019
5829 Clear 1 1010 62 10000 7.7 190 17:22 20.10.2019
5830 Clear 1 1010 62 10000 6.7 190 16:56 20.10.2019
5831 Clear 1 1010 62 10000 6.7 190 16:37 20.10.2019
5832 Clear 1 1011 63 10000 7.7 210 16:18 20.10.2019
5833 Clear 1 1011 63 10000 6.2 190 15:55 20.10.2019
5834 Clear 1 1011 63 10000 6.2 190 15:36 20.10.2019
5835 Clear 1 1012 63 10000 6.7 190 15:18 20.10.2019
5836 Clear 1 1012 63 10000 8.2 180 14:41 20.10.2019
5837 Clear -1 1012 68 10000 70.5 190 14:23 20.10.2019
5838 Clear -1 1013 68 10000 8.7 180 13:56 20.10.2019
5839 Clear -1 1013 68 10000 8.7 180 13:37 20.10.2019
5840 Clear -1 1013 63 10000 8.2 180 13:19 20.10.2019
5841 Clear -1 1014 63 10000 10.8 180 12:58 20.10.2019
5842 Clear -1 1014 63 10000 10.8 180 12:39 20.10.2019
5843 Clear -1 1014 63 10000 8.2 180 12:21 20.10.2019
5844 Clear -1 1014 68 10000 8.2 170 11:59 20.10.2019
5845 Clear -1 1014 68 10000 8.2 170 11:40 20.10.2019
5846 Clear -1 1014 68 10000 7.2 170 11:22 20.10.2019
5847 Clouds 2 1014 63 0 6.86 196.082 10:58 20.10.2019
5848 Clouds 2 1014 63 0 6.86 196.082 10:39 20.10.2019
5849 Clouds 2 1014 63 0 6.86 196.082 10:39 20.10.2019
5850 Clouds 2 1014 63 0 6.86 196.082 10:20 20.10.2019
5851 Clouds 2 1014 63 0 6.86 196.082 09:55 20.10.2019
5852 Clouds 2 1014 63 0 6.86 196.082 09:37 20.10.2019
5853 Clouds 2 1016 64 0 6.38 204.686 09:18 20.10.2019
5854 Clouds 2 1016 62 0 6.1 203.259 08:39 20.10.2019
5855 Clouds 2 1016 62 0 6.1 203.259 08:20 20.10.2019
5856 Clouds 2 1016 62 0 6.1 203.259 07:47 20.10.2019
5857 Clouds 2 1016 62 0 6.1 203.259 07:26 20.10.2019
5858 Clouds 2 1016 62 0 6.1 203.259 06:30 20.10.2019
5859 Clouds 1 1017 54 0 1.53 221.069 04:29 20.10.2019
5860 Clouds 1 1017 54 0 1.53 221.069 03:51 20.10.2019
5861 Clouds 1 1017 56 0 2.54 333.536 03:22 20.10.2019
5862 Clouds 1 1017 56 0 2.54 333.536 02:49 20.10.2019
5863 Clouds 1 1017 56 0 2.54 333.536 02:22 20.10.2019
5864 Clouds 1 1017 56 0 2.54 333.536 01:49 20.10.2019
5865 Clouds 1 1017 54 0 2.81 311.676 01:21 20.10.2019
5866 Clouds 1 1017 54 0 2.81 311.676 00:48 20.10.2019
5867 Clouds 1 1016 55 0 4.08 329.378 00:20 20.10.2019
5868 Clouds 1 1016 55 0 4.08 329.378 23:54 19.10.2019
5869 Clouds 1 1016 55 0 4.08 329.378 23:54 19.10.2019
5870 Clouds 1 1016 55 0 4.08 329.378 23:36 19.10.2019
5871 Clouds 1 1016 55 0 4.08 329.378 23:18 19.10.2019
5872 Clouds 1 1016 55 0 4.08 329.378 22:40 19.10.2019
5873 Clouds 1 1016 55 0 4.08 329.378 22:21 19.10.2019
5874 Clouds 1 1016 55 0 4.08 329.378 21:55 19.10.2019
5875 Clouds 1 1016 55 0 4.08 329.378 21:37 19.10.2019
5876 Clouds 1 1016 56 0 5.23 336.742 21:19 19.10.2019
5877 Clouds 2 1016 56 0 5.41 325.173 20:41 19.10.2019
5878 Clouds 2 1016 56 0 5.41 325.173 20:20 19.10.2019
5879 Clouds 2 1016 56 0 5.41 325.173 19:42 19.10.2019
5880 Clouds 2 1016 56 0 5.41 325.173 19:24 19.10.2019
5881 Clouds 2 1016 56 0 5.41 325.173 18:56 19.10.2019
5882 Clouds 2 1016 56 0 5.41 325.173 18:37 19.10.2019
5883 Clouds 2 1016 56 0 5.41 325.173 18:37 19.10.2019
5884 Clouds 2 1015 53 0 6.13 330.719 18:19 19.10.2019
5885 Clouds 2 1015 53 0 6.13 330.719 17:41 19.10.2019
5886 Clouds 2 1015 53 0 6.13 330.719 17:21 19.10.2019
5887 Clouds 2 1015 53 0 6.13 330.719 16:57 19.10.2019
5888 Snow 1 1012 69 10000 9.8 300 16:37 19.10.2019
5889 Snow 1 1012 69 10000 9.8 300 16:19 19.10.2019
5890 Snow 1 1012 69 10000 9.8 300 15:42 19.10.2019
5891 Rain 0 1012 53 10000 7.7 280 15:24 19.10.2019
5892 Rain -1 1012 86 10000 6.7 270 14:39 19.10.2019
5893 Rain -2 1012 86 10000 5.7 290 14:21 19.10.2019
5894 Rain -2 1012 86 10000 5.7 290 14:20 19.10.2019
5895 Rain -1 1012 80 10000 6.2 330 13:58 19.10.2019
5896 Rain -1 1012 80 10000 6.2 330 13:40 19.10.2019
5897 Snow -1 1012 86 10000 10.8 330 13:19 19.10.2019
5898 Snow -1 1012 86 10000 10.8 330 13:19 19.10.2019
5899 Snow -1 1012 86 500 9.8 300 12:57 19.10.2019
5900 Snow -1 1012 86 500 9.8 300 12:37 19.10.2019
5901 Rain 1 1011 64 10000 7.7 340 12:19 19.10.2019
5902 Rain 1 1011 59 10000 6.2 300 11:41 19.10.2019
5903 Rain 1 1010 55 10000 6.7 310 11:23 19.10.2019
5904 Rain 1 1010 55 10000 6.7 310 10:56 19.10.2019
5905 Clouds 0 1010 56 10000 6.7 320 10:38 19.10.2019
5906 Clouds 0 1010 56 10000 8.7 340 10:20 19.10.2019
5907 Clouds 0 1010 56 10000 9.8 340 09:43 19.10.2019
5908 Clouds 0 1010 56 10000 9.8 340 09:25 19.10.2019
5909 Rain 1 1010 64 10000 9.8 320 08:59 19.10.2019
5910 Clouds 2 1012 55 0 8.03 329.631 08:40 19.10.2019
5911 Clouds 2 1012 55 0 8.03 329.631 08:40 19.10.2019
5912 Clouds 2 1012 55 0 8.03 329.631 08:21 19.10.2019
5913 Clouds 2 1012 55 0 8.03 329.631 07:44 19.10.2019
5914 Clouds 2 1012 55 0 8.03 329.631 07:25 19.10.2019
5915 Clouds 2 1012 55 0 8.03 329.631 06:47 19.10.2019
5916 Clouds 2 1012 55 0 8.03 329.631 06:28 19.10.2019
5917 Clouds 3 1010 60 0 8.24 335.974 05:34 19.10.2019
5918 Clouds 3 1010 60 0 8.24 335.974 04:24 19.10.2019
5919 Snow 0 1007 62 1800 9.8 300 02:49 19.10.2019
5920 Clouds 0 1007 62 10000 4.6 280 01:54 19.10.2019
5921 Clouds 0 1007 62 10000 4.6 280 01:33 19.10.2019
5922 Clouds 0 1007 63 10000 6.2 280 00:49 19.10.2019
5923 Snow 0 1007 63 10000 9.3 280 00:27 19.10.2019
5924 Clouds 1 1007 74 10000 6.7 320 23:56 18.10.2019
5925 Clouds 1 1007 74 10000 6.7 320 23:36 18.10.2019
5926 Rain 2 1006 64 10000 7.7 320 23:18 18.10.2019
5927 Snow 2 1006 74 10000 7.7 320 22:43 18.10.2019
5928 Snow 2 1006 74 10000 7.7 320 22:43 18.10.2019
5929 Rain 2 1006 64 10000 8.7 310 22:21 18.10.2019
5930 Snow 2 1006 64 10000 7.7 300 21:59 18.10.2019
5931 Snow 2 1006 64 10000 7.7 300 21:59 18.10.2019
5932 Snow 2 1006 64 10000 7.7 300 21:39 18.10.2019
5933 Snow 2 1006 64 10000 6.2 300 21:20 18.10.2019
5934 Clouds 2 1006 64 10000 7.2 320 20:59 18.10.2019
5935 Clouds 2 1006 64 10000 7.2 320 20:41 18.10.2019
5936 Clouds 2 1006 64 10000 6.7 320 20:22 18.10.2019
5937 Rain 2 1006 64 10000 7.2 320 19:58 18.10.2019
5938 Rain 2 1006 64 10000 7.2 320 19:58 18.10.2019
5939 Rain 2 1006 64 10000 7.2 320 19:39 18.10.2019
5940 Rain 2 1006 64 10000 7.2 320 19:39 18.10.2019
5941 Rain 2 1006 64 10000 6.7 320 19:21 18.10.2019
5942 Clouds 3 1006 64 10000 6.7 330 18:57 18.10.2019
5943 Clouds 3 1006 64 10000 6.7 330 18:39 18.10.2019
5944 Rain 3 1005 69 10000 7.7 320 18:20 18.10.2019
5945 Rain 3 1005 69 10000 7.7 320 18:20 18.10.2019
5946 Rain 3 1005 69 10000 9.3 340 17:39 18.10.2019
5947 Rain 3 1005 80 10000 7.7 350 17:21 18.10.2019
5948 Snow 2 1005 69 10000 8.7 350 16:59 18.10.2019
5949 Snow 3 1005 69 10000 8.7 350 16:38 18.10.2019
5950 Rain 2 1005 69 10000 6.7 350 16:19 18.10.2019
5951 Snow 2 1004 69 5000 5.7 240 15:54 18.10.2019
5952 Snow 2 1004 69 5000 5.7 240 15:36 18.10.2019
5953 Snow 2 1004 93 10000 6.7 260 15:18 18.10.2019
5954 Snow 2 1004 93 10000 6.7 260 15:18 18.10.2019
5955 Snow 2 1004 85 10000 8.2 260 14:54 18.10.2019
5956 Snow 2 1004 85 10000 8.2 260 14:36 18.10.2019
5957 Snow 2 1004 85 10000 8.2 260 14:36 18.10.2019
5958 Clouds 2 1004 85 10000 8.7 240 14:18 18.10.2019
5959 Rain 2 1004 85 10000 8.7 250 13:41 18.10.2019
5960 Rain 3 1004 74 10000 6.7 250 13:23 18.10.2019
5961 Rain 3 1004 80 10000 7.7 260 12:58 18.10.2019
5962 Rain 3 1004 80 10000 7.7 260 12:39 18.10.2019
5963 Rain 3 1004 80 10000 6.2 260 12:21 18.10.2019
5964 Rain 3 1004 74 10000 7.7 250 11:56 18.10.2019
5965 Rain 3 1004 74 10000 7.7 250 11:38 18.10.2019
5966 Rain 2 1004 74 10000 7.2 230 11:19 18.10.2019
5967 Rain 2 1004 74 10000 7.2 230 11:19 18.10.2019
5968 Rain 2 1004 74 10000 6.2 220 10:56 18.10.2019
5969 Rain 2 1004 74 10000 6.2 220 10:55 18.10.2019
5970 -273 0 0 0 0 0 10:55 18.10.2019
5971 Rain 2 1004 74 10000 6.2 220 10:55 18.10.2019
5972 Rain 2 1004 74 10000 6.2 220 10:36 18.10.2019
5973 Rain 2 1004 74 10000 5.7 210 10:18 18.10.2019
5974 Rain 1 1004 71 10000 6.2 220 09:54 18.10.2019
5975 Rain 1 1004 71 10000 6.2 220 09:54 18.10.2019
5976 -273 0 0 0 0 0 09:54 18.10.2019
5977 Rain 1 1004 71 10000 6.2 220 09:36 18.10.2019
5978 Rain 1 1004 68 10000 5.7 220 09:18 18.10.2019
5979 Rain 1 1004 68 10000 5.7 240 08:42 18.10.2019
5980 Clouds 1 1004 68 10000 5.1 210 08:21 18.10.2019
5981 Clouds 1 1004 68 10000 5.1 210 07:42 18.10.2019
5982 Clouds 0 1004 68 10000 4.1 200 07:24 18.10.2019
5983 Snow 0 1004 68 10000 4.6 190 06:40 18.10.2019
5984 Clear 0 1004 71 10000 5.7 210 06:21 18.10.2019
5985 Clear -1 1005 68 10000 6.7 210 05:56 18.10.2019
5986 Clear -1 1005 68 10000 6.7 210 05:23 18.10.2019
5987 Clouds -1 1005 63 10000 3.6 200 04:41 18.10.2019
5988 Clear -2 1006 68 10000 3.6 190 03:32 18.10.2019
5989 Clear -4 1006 79 10000 4.6 210 02:34 18.10.2019
5990 Clear -4 1007 79 10000 4.1 200 01:46 18.10.2019
5991 Clear -4 1007 79 10000 4.1 200 01:28 18.10.2019
5992 Clear -3 1007 73 10000 6.7 210 00:46 18.10.2019
5993 Clear -3 1007 73 10000 6.2 220 00:21 18.10.2019
5994 Clear -3 1008 73 10000 8.2 220 23:57 17.10.2019
5995 Clear -3 1008 73 10000 8.2 220 23:38 17.10.2019
5996 Clear -1 1008 74 10000 6.2 230 23:19 17.10.2019
5997 Clear -1 1008 74 10000 5.1 220 22:55 17.10.2019
5998 Clear -1 1008 74 10000 5.1 220 22:37 17.10.2019
5999 Clear -1 1008 74 10000 5.7 210 22:18 17.10.2019
6000 Clear -1 1008 79 10000 5.1 210 21:55 17.10.2019
6001 Clear -1 1008 79 10000 5.1 210 21:37 17.10.2019
6002 Clear -1 1008 79 10000 6.2 210 21:19 17.10.2019
6003 Clear 0 1009 74 10000 6.2 210 20:56 17.10.2019
6004 Clear 0 1009 74 10000 6.2 210 20:56 17.10.2019
6005 Clear 0 1009 74 10000 6.2 210 20:37 17.10.2019
6006 Clear 0 1009 74 10000 5.7 210 20:18 17.10.2019
6007 Clear 0 1009 74 10000 5.7 210 19:42 17.10.2019
6008 Clear 0 1009 74 10000 5.7 210 19:42 17.10.2019
6009 Clear 0 1009 74 10000 5.7 210 19:42 17.10.2019
6010 Clear 0 1009 74 10000 5.1 210 19:21 17.10.2019
6011 Clear 0 1009 68 10000 5.1 210 18:59 17.10.2019
6012 Clear 0 1009 68 10000 5.1 210 18:39 17.10.2019
6013 Clear 0 1010 63 10000 6.7 210 18:21 17.10.2019
6014 Clear 0 1010 63 10000 6.7 210 18:21 17.10.2019
6015 Clear 0 1010 63 10000 7.7 210 17:54 17.10.2019
6016 Clouds 0 1010 73 10000 7.7 210 17:36 17.10.2019
6017 Clouds 0 1010 73 10000 8.7 210 17:18 17.10.2019
6018 Clouds 1 1010 73 10000 8.7 210 16:41 17.10.2019
6019 Clouds 2 1010 69 10000 9.3 200 16:19 17.10.2019
6020 Clouds 2 1010 69 10000 9.3 200 16:19 17.10.2019
6021 Clouds 2 1010 69 10000 8.7 200 15:59 17.10.2019
6022 Clouds 2 1010 69 10000 8.7 200 15:40 17.10.2019
6023 Clouds 2 1011 69 10000 8.2 190 15:20 17.10.2019
6024 Clouds 3 1011 59 10000 7.7 190 14:58 17.10.2019
6025 Clouds 3 1011 59 10000 7.7 190 14:39 17.10.2019
6026 Clouds 3 1011 59 10000 7.7 190 14:20 17.10.2019
6027 Clouds 3 1012 59 10000 7.7 180 13:41 17.10.2019
6028 Clouds 3 1012 59 10000 7.7 180 13:41 17.10.2019
6029 Clouds 3 1012 55 10000 4.6 170 13:21 17.10.2019
6030 Clouds 3 1013 69 10000 4.1 140 12:58 17.10.2019
6031 Clouds 3 1013 69 10000 4.1 140 12:39 17.10.2019
6032 Clouds 2 1013 69 10000 4.1 160 12:20 17.10.2019
6033 Clouds 2 1013 74 10000 3.6 160 11:56 17.10.2019
6034 Clouds 2 1013 74 10000 3.6 160 11:38 17.10.2019
6035 Clouds 1 1014 71 10000 4.1 150 11:18 17.10.2019
6036 Clouds 1 1014 86 10000 3.6 180 10:42 17.10.2019
6037 Clouds 1 1014 80 10000 3.6 180 10:20 17.10.2019
6038 Clouds 0 1014 86 10000 3.6 180 09:58 17.10.2019
6039 Clouds 0 1014 86 10000 3.6 180 09:38 17.10.2019
6040 Clouds -1 1014 86 10000 3.1 180 09:20 17.10.2019
6041 Clouds 0 1015 86 10000 2.6 170 08:57 17.10.2019
6042 Clouds 0 1015 86 10000 2.6 170 08:38 17.10.2019
6043 Clouds 0 1015 86 10000 2.6 180 08:18 17.10.2019
6044 Clouds 0 1015 86 10000 1 0 07:48 17.10.2019
6045 Clouds -2 1015 86 10000 3.954 168 07:21 17.10.2019
6046 Clouds -2 1015 86 10000 3.954 168 07:21 17.10.2019
6047 Clouds -2 1015 86 10000 3.954 168 07:21 17.10.2019
6048 Clouds -3 1015 86 10000 2.1 210 06:58 17.10.2019
6049 Clouds -3 1015 86 10000 2.1 210 06:39 17.10.2019
6050 Clouds -3 1015 86 10000 2.1 210 06:39 17.10.2019
6051 Clear -2 1015 86 10000 2.1 230 06:19 17.10.2019
6052 Clear -1 1016 80 10000 3.1 250 05:46 17.10.2019
6053 Clear -1 1016 80 10000 3.1 250 05:28 17.10.2019
6054 Clear -2 1016 86 10000 3.1 230 04:50 17.10.2019
6055 Clear -1 1016 86 10000 4.6 220 03:50 17.10.2019
6056 Clear 0 1016 77 10000 5.1 220 02:35 17.10.2019
6057 Clear 0 1017 77 10000 5.1 230 00:54 17.10.2019
6058 Clear 0 1017 77 10000 5.1 230 00:36 17.10.2019
6059 Clouds 0 1017 80 10000 4.6 230 00:18 17.10.2019
6060 Clouds 0 1017 80 10000 5.1 230 23:42 16.10.2019
6061 Clouds 2 1017 80 10000 5.1 220 23:20 16.10.2019
6062 Clear 1 1017 86 10000 5.7 220 22:55 16.10.2019
6063 Clear 1 1017 86 10000 5.7 220 22:36 16.10.2019
6064 Clear 1 1017 80 10000 4.6 210 22:18 16.10.2019
6065 Clouds 2 1017 80 10000 5.1 210 21:55 16.10.2019
6066 Clouds 2 1017 80 10000 5.1 210 21:37 16.10.2019
6067 Clouds 2 1017 79 10000 4.6 220 21:18 16.10.2019
6068 Clouds 2 1017 79 10000 4.6 220 20:56 16.10.2019
6069 Clouds 2 1017 79 10000 4.6 220 20:56 16.10.2019
6070 Clouds 2 1017 79 10000 4.6 220 20:38 16.10.2019
6071 Clouds 2 1017 79 10000 4.1 220 20:20 16.10.2019
6072 Clouds 2 1017 79 10000 4.6 220 19:56 16.10.2019
6073 Clouds 2 1017 79 10000 4.6 220 19:38 16.10.2019
6074 Clouds 2 1017 79 10000 5.1 220 19:19 16.10.2019
6075 Clouds 2 1017 79 10000 5.1 220 18:39 16.10.2019
6076 Clouds 2 1017 80 10000 5.1 230 18:19 16.10.2019
6077 -273 0 0 0 0 0 17:56 16.10.2019
6078 Clouds 2 1017 80 10000 5.7 220 17:38 16.10.2019
6079 Clouds 2 1017 80 10000 4.6 210 17:19 16.10.2019
6080 Clouds 2 1017 80 10000 3.1 190 16:58 16.10.2019
6081 Clouds 2 1017 80 10000 3.1 190 16:39 16.10.2019
6082 Clouds 2 1017 80 10000 4.1 200 16:20 16.10.2019
6083 Clouds 3 1017 80 10000 4.1 200 15:56 16.10.2019
6084 Clouds 3 1017 80 10000 4.1 200 15:37 16.10.2019
6085 Clouds 3 1017 74 10000 4.1 210 15:18 16.10.2019
6086 Clouds 3 1017 74 10000 4.1 210 14:56 16.10.2019
6087 Clouds 3 1017 74 10000 4.1 210 14:38 16.10.2019
6088 Clouds 3 1017 74 10000 4.1 200 14:18 16.10.2019
6089 Clouds 3 1017 74 10000 2.6 190 13:56 16.10.2019
6090 Clouds 3 1017 74 10000 2.6 190 13:37 16.10.2019
6091 Clouds 3 1017 74 10000 3.1 200 13:18 16.10.2019
6092 Clouds 3 1017 74 10000 4.1 210 12:41 16.10.2019
6093 Clouds 2 1017 69 10000 4.1 200 12:18 16.10.2019
6094 Clouds 3 1017 69 10000 3.6 200 11:43 16.10.2019
6095 Clouds 3 1017 69 10000 4.1 200 11:18 16.10.2019
6096 Clouds 2 1017 74 10000 3.6 200 10:40 16.10.2019
6097 Rain 1 1017 74 10000 3.1 200 10:22 16.10.2019
6098 Rain 0 1017 83 10000 3.6 210 09:56 16.10.2019
6099 Rain 0 1017 81 10000 3.6 210 09:38 16.10.2019
6100 Rain 1 1017 85 10000 3.6 200 09:19 16.10.2019
6101 Rain 0 1017 86 10000 3.1 210 08:43 16.10.2019
6102 Rain 1 1017 85 10000 2.6 200 08:24 16.10.2019
6103 Clouds 0 1017 85 10000 2.6 200 07:55 16.10.2019
6104 Clouds 0 1017 85 10000 2.6 200 07:37 16.10.2019
6105 Clouds 0 1017 85 10000 3.1 210 07:18 16.10.2019
6106 Clouds 1 1017 74 10000 3.6 220 06:40 16.10.2019
6107 Clouds 1 1017 69 10000 3.6 220 05:55 16.10.2019
6108 Clouds 1 1016 74 10000 3.1 200 03:27 16.10.2019
6109 Clouds 0 1016 88 10000 4.1 210 02:49 16.10.2019
6110 Clouds 2 1016 69 10000 2.6 200 01:19 16.10.2019
6111 Clouds 2 1016 74 10000 3.1 190 00:52 16.10.2019
6112 Clouds 2 1016 74 10000 3.1 190 00:32 16.10.2019
6113 Clouds 2 1016 74 10000 3.6 200 23:41 15.10.2019
6114 Clouds 2 1016 74 10000 3.6 200 23:41 15.10.2019
6115 Clouds 1 1016 74 10000 3.6 190 23:22 15.10.2019
6116 Clouds 1 1016 74 10000 4.1 200 22:56 15.10.2019
6117 Clouds 1 1016 74 10000 4.1 200 22:38 15.10.2019
6118 Clouds 1 1016 74 10000 3.6 190 22:20 15.10.2019
6119 Clouds 1 1016 80 10000 2.6 180 21:56 15.10.2019
6120 Clouds 1 1016 80 10000 2.6 180 21:56 15.10.2019
6121 Clouds 1 1016 80 10000 2.6 180 21:38 15.10.2019
6122 Clouds 2 1016 86 10000 2.1 160 21:20 15.10.2019
6123 Clouds 2 1016 86 10000 2.1 150 20:57 15.10.2019
6124 Clouds 2 1016 86 10000 2.1 150 20:39 15.10.2019
6125 Clouds 2 1016 86 10000 2.1 150 20:39 15.10.2019
6126 Clouds 2 1016 86 10000 2.6 180 20:20 15.10.2019
6127 Clouds 1 1016 86 10000 1.5 180 19:59 15.10.2019
6128 Clouds 1 1016 86 10000 1.5 180 19:40 15.10.2019
6129 Clouds 1 1016 86 10000 2.1 160 19:20 15.10.2019
6130 Clouds 1 1016 86 10000 1.5 140 18:48 15.10.2019
6131 Clouds 1 1015 86 10000 1.5 140 18:30 15.10.2019
6132 Clouds 1 1015 86 10000 2.6 150 17:59 15.10.2019
6133 Clouds 2 1015 86 10000 2.6 150 17:41 15.10.2019
6134 Clouds 2 1015 86 10000 2.6 150 17:41 15.10.2019
6135 Clouds 2 1015 86 10000 2.6 150 17:41 15.10.2019
6136 Clouds 2 1015 86 10000 3.1 190 17:20 15.10.2019
6137 Clouds 2 1015 86 10000 3.1 190 17:20 15.10.2019
6138 Clouds 2 1015 74 10000 3.1 180 16:58 15.10.2019
6139 Clouds 2 1015 74 10000 3.1 180 16:39 15.10.2019
6140 Clouds 2 1015 74 10000 2.1 170 16:20 15.10.2019
6141 Clouds 3 1015 80 10000 3.1 190 15:55 15.10.2019
6142 Clouds 3 1015 80 10000 3.1 190 15:55 15.10.2019
6143 Clouds 3 1015 80 10000 3.1 190 15:36 15.10.2019
6144 Clouds 3 1015 80 10000 3.6 180 15:18 15.10.2019
6145 Clouds 3 1015 74 10000 5.1 190 14:38 15.10.2019
6146 Clouds 3 1015 74 10000 3.6 180 14:20 15.10.2019
6147 Clouds 3 1015 74 10000 4.1 150 13:58 15.10.2019
6148 Clouds 3 1015 74 10000 4.1 150 13:40 15.10.2019
6149 Clouds 2 1015 80 10000 4.6 140 13:19 15.10.2019
6150 Clouds 2 1015 80 10000 5.7 140 12:44 15.10.2019
6151 Rain 2 1015 80 10000 5.1 140 12:22 15.10.2019
6152 Rain 2 1015 80 10000 5.1 140 11:57 15.10.2019
6153 Rain 2 1015 80 10000 5.1 140 11:57 15.10.2019
6154 Rain 2 1015 80 10000 5.1 140 11:38 15.10.2019
6155 Rain 2 1015 80 10000 4.6 130 11:19 15.10.2019
6156 Rain 2 1015 80 10000 5.1 130 10:45 15.10.2019
6157 Rain 2 1014 80 10000 5.1 150 10:22 15.10.2019
6158 Snow 2 1014 80 10000 6.2 150 09:58 15.10.2019
6159 -273 0 0 0 0 0 09:39 15.10.2019
6160 Rain 2 1014 80 10000 5.7 140 09:20 15.10.2019
6161 Rain 2 1014 86 10000 5.7 150 08:56 15.10.2019
6162 Drizzle 2 1014 80 10000 4.1 130 08:37 15.10.2019
6163 Drizzle 2 1014 80 10000 4.1 130 08:18 15.10.2019
6164 Drizzle 2 1013 80 10000 3.6 140 07:42 15.10.2019
6165 Clouds 2 1013 80 10000 3.6 160 07:21 15.10.2019
6166 Clouds 1 1013 86 10000 3.6 170 06:54 15.10.2019
6167 Clouds 1 1013 86 10000 3.6 170 06:36 15.10.2019
6168 Snow 1 1013 86 10000 2.6 200 05:54 15.10.2019
6169 Snow 1 1013 86 10000 2.6 200 05:35 15.10.2019
6170 Clouds 3 1015 66 0 1.96 173.273 04:40 15.10.2019
6171 Clouds 0 1013 66 10000 3.1 200 03:58 15.10.2019
6172 Clouds 0 1013 66 10000 3.1 200 03:30 15.10.2019
6173 Clouds 0 1012 66 10000 2.1 180 01:51 15.10.2019
6174 Clouds 0 1012 67 10000 2.1 180 01:24 15.10.2019
6175 Clouds 0 1012 67 10000 2.1 190 00:58 15.10.2019
6176 -273 0 0 0 0 0 00:24 15.10.2019
6177 Clouds -1 1012 86 10000 1 130 23:55 14.10.2019
6178 Clouds -1 1012 86 10000 1 130 23:36 14.10.2019
6179 Rain 1 1012 79 10000 1.5 210 23:18 14.10.2019
6180 Rain 1 1012 79 10000 1.5 190 22:39 14.10.2019
6181 Rain 0 1012 79 10000 1.5 160 22:19 14.10.2019
6182 Rain 1 1012 80 10000 1 0 21:57 14.10.2019
6183 Rain 1 1012 80 10000 1 0 21:39 14.10.2019
6184 Rain 0 1012 79 10000 1 0 21:20 14.10.2019
6185 Rain 0 1012 79 10000 1 0 21:20 14.10.2019
6186 Rain 1 1012 80 10000 1 170 20:56 14.10.2019
6187 Rain 1 1012 80 10000 1 170 20:37 14.10.2019
6188 Clouds 0 1011 64 10000 1 160 20:18 14.10.2019
6189 Clouds 1 1011 74 10000 1 160 19:43 14.10.2019
6190 Clouds 0 1011 85 10000 1.5 160 19:24 14.10.2019
6191 Clouds 0 1011 85 10000 1.5 160 19:24 14.10.2019
6192 Clouds 0 1011 64 10000 2.1 200 18:59 14.10.2019
6193 Clouds 0 1011 64 10000 2.1 200 18:39 14.10.2019
6194 Clouds 1 1011 74 10000 1.5 180 18:20 14.10.2019
6195 Clouds 1 1011 74 10000 1.5 180 18:20 14.10.2019
6196 Clouds 1 1011 74 10000 2.1 170 17:58 14.10.2019
6197 Clouds 3 1011 74 10000 2.1 170 17:40 14.10.2019
6198 Clouds 3 1011 64 10000 2.1 170 17:21 14.10.2019
6199 Clouds 3 1011 64 10000 2.1 170 17:21 14.10.2019
6200 Clouds 2 1011 64 10000 2.6 180 16:44 14.10.2019
6201 Clouds 2 1010 80 10000 1.5 180 16:22 14.10.2019
6202 -273 0 0 0 0 0 15:57 14.10.2019
6203 Clouds 2 1010 86 10000 2.1 160 15:38 14.10.2019
6204 Clouds 3 1010 80 10000 1.5 160 15:20 14.10.2019
6205 Clouds 3 1010 80 10000 1.5 190 14:43 14.10.2019
6206 Clouds 3 1010 80 10000 1 0 14:24 14.10.2019
6207 Clouds 2 1010 80 10000 1 0 13:56 14.10.2019
6208 Clouds 2 1010 80 10000 1 0 13:37 14.10.2019
6209 Clouds 3 1010 86 10000 1 0 13:18 14.10.2019
6210 Clouds 3 1010 86 10000 2.1 170 12:40 14.10.2019
6211 Clouds 3 1010 86 10000 2.1 170 12:40 14.10.2019
6212 Clouds 3 1010 86 10000 1.5 0 12:19 14.10.2019
6213 Clouds 1 1010 86 10000 1 190 11:46 14.10.2019
6214 Clouds 1 1010 86 10000 1.5 160 11:27 14.10.2019
6215 Clouds 2 1010 86 10000 2.1 150 10:59 14.10.2019
6216 Clouds 2 1010 86 10000 2.1 150 10:39 14.10.2019
6217 Clouds 2 1010 86 10000 1.5 170 10:20 14.10.2019
6218 Clouds 0 1009 63 10000 2.6 150 09:56 14.10.2019
6219 Clouds 1 1009 63 10000 2.6 150 09:37 14.10.2019
6220 Clouds 1 1009 61 10000 2.1 140 09:18 14.10.2019
6221 Clouds 1 1009 61 10000 2.6 110 08:44 14.10.2019
6222 Clouds 1 1009 61 10000 2.1 110 08:22 14.10.2019
6223 Clouds 0 1009 92 10000 3.1 80 07:42 14.10.2019
6224 -273 0 0 0 0 0 07:42 14.10.2019
6225 Rain -1 1009 92 10000 1.5 40 07:19 14.10.2019
6226 Rain -1 1009 92 10000 1 20 06:48 14.10.2019
6227 Clouds -1 1009 92 10000 1 360 06:20 14.10.2019
6228 Clouds -1 1009 92 10000 1.5 110 05:49 14.10.2019
6229 Clouds -2 1009 92 10000 2.6 100 04:43 14.10.2019
6230 Clouds 4 1010 65 0 3.3 85.693 03:27 14.10.2019
6231 Clouds 0 1008 70 10000 3.1 120 02:42 14.10.2019
6232 Rain 0 1008 70 10000 4.6 110 01:23 14.10.2019
6233 Rain 0 1008 70 10000 7.2 110 00:58 14.10.2019
6234 Rain 1 1008 71 10000 6.7 100 00:20 14.10.2019
6235 Snow 1 1008 71 10000 6.2 90 23:45 13.10.2019
6236 Rain 1 1007 71 10000 7.2 90 23:20 13.10.2019
6237 Rain 1 1007 71 10000 6.2 90 22:58 13.10.2019
6238 Rain 1 1007 71 10000 6.2 90 22:40 13.10.2019
6239 Rain 1 1007 71 10000 5.1 90 22:21 13.10.2019
6240 Rain 1 1007 71 10000 5.1 90 22:21 13.10.2019
6241 Rain 1 1007 71 10000 4.6 80 21:58 13.10.2019
6242 Rain 1 1007 71 10000 4.6 80 21:38 13.10.2019
6243 Rain 1 1006 72 10000 5.1 70 21:19 13.10.2019
6244 Rain 1 1006 72 10000 4.6 40 20:58 13.10.2019
6245 Rain 1 1006 71 10000 4.6 40 20:39 13.10.2019
6246 Clouds 1 1006 71 10000 4.1 50 20:21 13.10.2019
6247 Rain 0 1006 71 10000 4.1 60 19:59 13.10.2019
6248 Rain 0 1006 71 10000 4.1 60 19:39 13.10.2019
6249 Rain 0 1006 71 10000 4.1 50 19:21 13.10.2019
6250 Clouds 1 1006 86 10000 3.1 70 18:57 13.10.2019
6251 Clouds 1 1006 86 10000 3.1 70 18:55 13.10.2019
6252 Clouds 1 1006 86 10000 3.1 70 18:36 13.10.2019
6253 Clouds 1 1005 86 10000 4.1 70 18:18 13.10.2019
6254 Rain 2 1005 86 10000 5.7 70 17:43 13.10.2019
6255 Rain 3 1005 69 10000 6.2 50 17:25 13.10.2019
6256 Rain 2 1005 74 10000 5.1 30 16:58 13.10.2019
6257 Rain 2 1005 74 10000 5.1 30 16:40 13.10.2019
6258 Rain 3 1005 69 10000 5.1 30 16:18 13.10.2019
6259 Clouds 3 1005 80 10000 5.1 30 15:56 13.10.2019
6260 Clouds 3 1005 80 10000 5.1 30 15:56 13.10.2019
6261 Clouds 3 1005 80 10000 5.1 30 15:37 13.10.2019
6262 Clouds 4 1004 74 10000 3.6 40 15:18 13.10.2019
6263 Clouds 3 1004 80 10000 4.6 40 14:56 13.10.2019
6264 -273 0 0 0 0 0 14:56 13.10.2019
6265 Clouds 3 1004 80 10000 4.6 40 14:37 13.10.2019
6266 Clouds 3 1004 74 10000 4.6 30 14:18 13.10.2019
6267 Clouds 2 1004 80 10000 4.6 30 13:39 13.10.2019
6268 Clouds 2 1004 80 10000 4.6 30 13:21 13.10.2019
6269 Clouds 2 1003 80 10000 4.1 40 12:57 13.10.2019
6270 Clouds 2 1003 80 10000 4.1 40 12:39 13.10.2019
6271 Clouds 3 1003 74 10000 4.6 50 12:20 13.10.2019
6272 Clouds 2 1003 80 10000 5.1 50 11:58 13.10.2019
6273 Clouds 2 1003 80 10000 5.1 50 11:38 13.10.2019
6274 Clouds 2 1003 80 10000 5.1 50 11:38 13.10.2019
6275 Clouds 2 1003 80 10000 5.7 50 11:19 13.10.2019
6276 Clouds 2 1003 80 10000 5.1 60 10:42 13.10.2019
6277 Clouds 1 1002 86 10000 4.1 60 10:23 13.10.2019
6278 Clouds 1 1002 86 10000 4.6 70 09:58 13.10.2019
6279 Clouds 1 1002 86 10000 4.6 70 09:39 13.10.2019
6280 Clouds 1 1002 80 10000 4.6 70 09:20 13.10.2019
6281 Clouds 0 1002 67 10000 4.1 80 08:43 13.10.2019
6282 -273 0 0 0 0 0 08:43 13.10.2019
6283 Clouds 1 1002 80 10000 3.1 110 08:23 13.10.2019
6284 Clouds 0 1001 67 10000 3.1 120 07:50 13.10.2019
6285 Clouds 1 1001 80 10000 4.1 110 07:30 13.10.2019
6286 Clouds 0 1001 67 10000 4.1 100 06:48 13.10.2019
6287 Clouds 1 1001 86 10000 4.6 110 05:57 13.10.2019
6288 Clouds 1 1000 71 10000 6.2 110 04:59 13.10.2019
6289 Clouds 1 1000 71 10000 6.2 110 04:33 13.10.2019
6290 Clouds 1 1000 75 10000 4.6 110 02:48 13.10.2019
6291 Clouds 1 1000 75 10000 4.6 120 02:25 13.10.2019
6292 Clouds 1 1000 75 10000 4.1 130 01:34 13.10.2019
6293 Clouds 1 999 75 10000 6.2 120 00:53 13.10.2019
6294 Clouds 1 999 83 10000 6.7 120 00:23 13.10.2019
6295 Clouds 1 999 83 10000 6.2 110 23:59 12.10.2019
6296 Clouds 1 999 83 10000 6.2 110 23:40 12.10.2019
6297 Drizzle 1 999 83 10000 5.1 110 23:22 12.10.2019
6298 Rain 1 999 83 10000 5.1 110 22:58 12.10.2019
6299 Rain 1 999 83 10000 5.1 110 22:40 12.10.2019
6300 Drizzle 1 999 100 10000 4.6 110 22:21 12.10.2019
6301 Drizzle 1 998 100 10000 5.7 110 21:57 12.10.2019
6302 Drizzle 1 998 100 10000 5.7 110 21:38 12.10.2019
6303 Drizzle 1 998 82 10000 6.2 100 21:20 12.10.2019
6304 Drizzle 1 998 82 10000 6.2 100 21:20 12.10.2019
6305 Drizzle 1 998 89 10000 5.1 110 20:45 12.10.2019
6306 Drizzle 1 998 89 10000 5.1 110 20:45 12.10.2019
6307 Rain 1 998 100 10000 3.1 110 20:27 12.10.2019
6308 Rain 1 998 100 10000 3.1 130 19:56 12.10.2019
6309 Rain 1 998 100 10000 3.1 130 19:36 12.10.2019
6310 Drizzle 1 998 100 10000 3.6 120 19:18 12.10.2019
6311 Mist 1 998 100 8000 4.1 120 18:41 12.10.2019
6312 Clouds 1 998 100 10000 4.6 110 18:23 12.10.2019
6313 Clouds 1 997 92 10000 4.6 100 17:45 12.10.2019
6314 Clouds 1 997 100 10000 2.6 110 17:21 12.10.2019
6315 Drizzle 1 997 92 10000 2.1 70 16:58 12.10.2019
6316 Drizzle 1 997 92 10000 2.1 70 16:40 12.10.2019
6317 Clouds 2 997 92 10000 1.5 80 16:19 12.10.2019
6318 Rain 2 997 92 10000 2.1 90 15:45 12.10.2019
6319 Clouds 2 997 92 10000 2.1 90 15:26 12.10.2019
6320 Clouds 2 997 91 10000 2.1 90 14:59 12.10.2019
6321 Rain 2 997 91 10000 1.5 70 14:38 12.10.2019
6322 Clouds 3 997 74 10000 2.6 70 14:20 12.10.2019
6323 Clouds 2 997 80 10000 1.5 70 13:49 12.10.2019
6324 Clouds 2 997 80 10000 1.5 70 13:31 12.10.2019
6325 -273 0 0 0 0 0 12:55 12.10.2019
6326 Clouds 3 997 74 10000 1 100 12:37 12.10.2019
6327 Clouds 2 997 78 10000 0.5 0 12:18 12.10.2019
6328 Clouds 1 996 86 10000 0.5 0 11:41 12.10.2019
6329 Clouds 0 996 78 10000 0.5 0 11:22 12.10.2019
6330 Clouds 0 996 78 10000 0.5 0 10:58 12.10.2019
6331 Clouds 0 996 78 10000 0.5 0 10:38 12.10.2019
6332 Clouds 0 996 78 10000 1 0 10:19 12.10.2019
6333 Clouds 0 996 78 10000 1 0 09:56 12.10.2019
6334 Clouds 0 996 78 10000 1 0 09:56 12.10.2019
6335 Clouds 0 996 78 10000 1 0 09:37 12.10.2019
6336 Clouds -1 996 92 10000 1.5 60 09:19 12.10.2019
6337 Clouds -1 996 92 10000 1 100 08:43 12.10.2019
6338 Clouds -1 996 92 10000 1 0 08:23 12.10.2019
6339 Clouds 0 996 71 10000 1.5 150 07:49 12.10.2019
6340 Clouds 0 996 71 10000 1.5 150 07:30 12.10.2019
6341 Clouds -2 996 92 10000 1.5 90 05:54 12.10.2019
6342 Clouds -2 996 92 10000 1.5 90 05:26 12.10.2019
6343 Clear -1 996 92 10000 1.5 100 04:31 12.10.2019
6344 Clear -2 996 92 10000 2.6 80 03:53 12.10.2019
6345 Clear -2 996 92 10000 1.5 110 02:37 12.10.2019
6346 Clear -2 996 92 10000 2.6 80 01:32 12.10.2019
6347 Clear 0 996 70 10000 1 0 00:54 12.10.2019
6348 Clear 0 996 70 10000 1 0 00:35 12.10.2019
6349 Clear 0 996 68 10000 1.5 130 23:54 11.10.2019
6350 Clear 0 996 68 10000 1.5 130 23:36 11.10.2019
6351 Clear 0 996 68 10000 1.5 130 23:36 11.10.2019
6352 Clear 1 996 68 10000 2.1 110 23:18 11.10.2019
6353 Clear 1 996 68 10000 2.1 110 23:18 11.10.2019
6354 Clouds 1 996 68 10000 1.5 120 22:37 11.10.2019
6355 Clouds 1 996 68 10000 2.6 100 22:18 11.10.2019
6356 Clouds 1 996 68 10000 3.1 110 21:42 11.10.2019
6357 Clouds 2 996 70 10000 2.6 140 21:21 11.10.2019
6358 Clouds 2 996 86 10000 3.6 140 20:57 11.10.2019
6359 Clouds 2 996 86 10000 3.6 140 20:38 11.10.2019
6360 Clouds 1 996 86 10000 4.1 140 20:19 11.10.2019
6361 Clouds 2 996 73 10000 3.6 120 19:55 11.10.2019
6362 Clouds 2 996 73 10000 3.6 120 19:36 11.10.2019
6363 Rain 2 996 93 10000 3.6 130 19:18 11.10.2019
6364 Rain 2 996 93 10000 3.6 130 19:18 11.10.2019
6365 Rain 2 996 93 10000 3.6 130 19:18 11.10.2019
6366 Rain 2 996 93 10000 4.1 110 18:54 11.10.2019
6367 Rain 2 996 93 10000 4.1 110 18:36 11.10.2019
6368 Rain 1 996 74 10000 4.1 110 18:18 11.10.2019
6369 Rain 2 996 93 10000 3.1 90 17:54 11.10.2019
6370 Rain 2 996 93 10000 3.1 90 17:36 11.10.2019
6371 Rain 2 995 74 10000 1.5 0 17:18 11.10.2019
6372 Rain 2 995 93 10000 1.5 90 16:39 11.10.2019
6373 Rain 3 995 93 10000 1 180 16:19 11.10.2019
6374 Clouds 3 995 86 10000 1.5 170 15:58 11.10.2019
6375 Rain 4 995 86 10000 1.5 170 15:38 11.10.2019
6376 Rain 4 995 93 10000 1.5 180 15:18 11.10.2019
6377 Rain 4 995 93 10000 1.5 170 14:46 11.10.2019
6378 Drizzle 3 995 93 10000 2.6 180 14:28 11.10.2019
6379 Clouds 3 995 86 10000 1.5 180 13:56 11.10.2019
6380 Clouds 3 995 86 10000 1.5 180 13:37 11.10.2019
6381 Drizzle 3 995 93 10000 1.5 190 13:18 11.10.2019
6382 Drizzle 3 995 86 10000 1.5 190 12:42 11.10.2019
6383 Drizzle 2 995 93 10000 3.1 190 12:22 11.10.2019
6384 Rain 2 995 100 10000 2.6 210 12:00 11.10.2019
6385 Rain 3 995 100 10000 2.6 210 11:40 11.10.2019
6386 Rain 3 995 93 10000 2.6 220 11:21 11.10.2019
6387 Rain 3 995 93 10000 2.1 260 10:56 11.10.2019
6388 Rain 3 995 93 10000 2.1 260 10:38 11.10.2019
6389 Snow 3 995 93 10000 2.1 250 10:20 11.10.2019
6390 Snow 3 995 93 10000 2.1 250 10:20 11.10.2019
6391 Snow 0 995 100 10000 2.1 260 09:55 11.10.2019
6392 Snow 0 995 100 10000 2.1 260 09:37 11.10.2019
6393 Snow 0 995 100 10000 2.1 250 09:18 11.10.2019
6394 Snow 0 995 100 10000 2.1 250 09:18 11.10.2019
6395 Snow 1 995 93 10000 2.6 230 08:54 11.10.2019
6396 Snow 1 995 93 10000 2.6 230 08:36 11.10.2019
6397 Rain 0 995 100 10000 3.1 240 08:18 11.10.2019
6398 Clouds 0 995 75 10000 2.6 260 07:41 11.10.2019
6399 Rain 1 995 75 10000 2.1 260 07:22 11.10.2019
6400 Rain 1 995 100 10000 2.1 280 06:47 11.10.2019
6401 Rain 1 995 100 10000 1 0 06:22 11.10.2019
6402 Clouds 1 995 100 10000 1.5 310 05:37 11.10.2019
6403 Rain 2 995 93 10000 1 0 04:59 11.10.2019
6404 Drizzle 1 995 100 10000 2.1 270 04:24 11.10.2019
6405 Rain 1 996 100 10000 2.6 50 02:19 11.10.2019
6406 Clouds 1 996 100 10000 3.6 50 00:47 11.10.2019
6407 Rain 1 996 100 10000 3.6 60 00:27 11.10.2019
6408 Rain 2 996 93 10000 3.6 40 23:44 10.10.2019
6409 Rain 1 996 100 7000 3.1 40 23:22 10.10.2019
6410 Rain 1 996 76 10000 2.1 40 22:57 10.10.2019
6411 Rain 0 996 76 10000 2.1 40 22:39 10.10.2019
6412 Clouds 0 996 100 10000 2.6 50 22:20 10.10.2019
6413 Clouds 1 996 93 10000 3.6 70 21:57 10.10.2019
6414 Clouds 1 996 93 10000 3.6 70 21:39 10.10.2019
6415 Clouds 1 996 93 10000 4.1 80 21:20 10.10.2019
6416 Drizzle 2 996 100 10000 4.1 80 20:43 10.10.2019
6417 Drizzle 3 996 86 10000 5.1 50 20:22 10.10.2019
6418 Drizzle 3 996 93 10000 2.6 10 19:59 10.10.2019
6419 Drizzle 3 996 93 10000 2.6 10 19:41 10.10.2019
6420 Drizzle 3 996 93 10000 2.6 10 19:41 10.10.2019
6421 Drizzle 3 996 93 10000 3.1 360 19:20 10.10.2019
6422 Clouds 3 997 93 10000 3.6 350 18:59 10.10.2019
6423 Clouds 3 997 93 10000 3.6 350 18:39 10.10.2019
6424 Clouds 3 997 93 10000 3.1 360 18:20 10.10.2019
6425 Clouds 3 997 93 10000 1.5 320 17:55 10.10.2019
6426 Clouds 3 997 93 10000 1.5 320 17:36 10.10.2019
6427 Clouds 3 997 93 10000 4.1 350 17:18 10.10.2019
6428 Clouds 3 997 93 10000 6.2 350 16:44 10.10.2019
6429 Rain 4 997 86 10000 8.2 350 16:26 10.10.2019
6430 Clouds 5 997 86 10000 5.1 340 15:57 10.10.2019
6431 Clouds 5 997 86 10000 5.1 340 15:37 10.10.2019
6432 Rain 5 997 75 10000 5.7 350 15:19 10.10.2019
6433 Rain 5 997 75 10000 4.1 330 14:54 10.10.2019
6434 Rain 5 997 75 10000 4.1 330 14:36 10.10.2019
6435 Clouds 5 997 80 10000 3.6 340 14:18 10.10.2019
6436 Clouds 6 998 75 10000 3.6 10 13:41 10.10.2019
6437 Rain 6 998 80 10000 2.6 20 13:23 10.10.2019
6438 Rain 5 998 80 10000 4.1 20 12:57 10.10.2019
6439 Rain 5 998 80 10000 4.1 20 12:39 10.10.2019
6440 Rain 5 998 86 10000 4.6 50 12:20 10.10.2019
6441 Clouds 5 998 80 10000 6.2 50 11:56 10.10.2019
6442 Clouds 5 998 80 10000 6.2 50 11:38 10.10.2019
6443 Rain 5 998 86 10000 4.1 50 11:19 10.10.2019
6444 Rain 4 998 86 10000 5.1 60 10:44 10.10.2019
6445 Rain 4 998 86 10000 6.2 50 10:26 10.10.2019
6446 Rain 1 998 72 10000 3.6 40 09:56 10.10.2019
6447 Rain 1 998 72 10000 3.6 40 09:38 10.10.2019
6448 Clouds 4 998 68 10000 2.6 60 09:20 10.10.2019
6449 Clouds 3 998 68 10000 2.6 90 08:57 10.10.2019
6450 Clouds 3 998 68 10000 2.6 90 08:37 10.10.2019
6451 Clouds 3 998 68 10000 3.6 80 08:18 10.10.2019
6452 Clouds 3 998 68 10000 4.6 80 07:44 10.10.2019
6453 Clouds 1 998 68 10000 5.7 80 07:21 10.10.2019
6454 Clouds 1 998 68 10000 6.2 80 06:48 10.10.2019
6455 Clouds 2 998 93 10000 6.2 80 06:29 10.10.2019
6456 Clouds 3 998 86 10000 6.2 90 05:28 10.10.2019
6457 Clouds 3 998 86 10000 5.7 80 04:47 10.10.2019
6458 Clouds 3 998 86 10000 5.7 80 04:26 10.10.2019
6459 Rain 4 997 86 10000 4.6 20 01:43 10.10.2019
6460 Rain 4 997 86 10000 4.6 20 01:43 10.10.2019
6461 Rain 4 998 86 10000 8.2 10 01:25 10.10.2019
6462 Rain 4 998 86 10000 8.2 10 00:54 10.10.2019
6463 Rain 4 998 86 10000 8.7 10 00:22 10.10.2019
6464 Rain 4 998 86 10000 7.7 10 23:40 09.10.2019
6465 Rain 4 999 86 10000 9.8 10 23:21 09.10.2019
6466 Rain 4 999 86 10000 9.3 10 22:56 09.10.2019
6467 Rain 4 999 86 10000 9.3 10 22:37 09.10.2019
6468 Rain 5 999 86 10000 9.3 20 22:19 09.10.2019
6469 Rain 4 999 93 10000 8.2 20 21:40 09.10.2019
6470 Clouds 5 999 86 10000 8.2 20 21:21 09.10.2019
6471 Rain 5 999 86 10000 8.2 30 20:56 09.10.2019
6472 Rain 5 999 86 10000 8.2 30 20:38 09.10.2019
6473 Clouds 4 999 86 10000 7.7 40 20:19 09.10.2019
6474 Rain 4 1000 86 10000 7.7 40 19:58 09.10.2019
6475 Rain 4 1000 86 10000 7.7 40 19:40 09.10.2019
6476 Rain 4 1000 86 10000 7.2 30 19:21 09.10.2019
6477 Rain 5 1000 86 10000 7.2 20 18:38 09.10.2019
6478 Rain 5 1000 86 10000 7.2 30 18:20 09.10.2019
6479 Rain 5 1000 80 10000 6.7 40 17:57 09.10.2019
6480 Rain 5 1000 80 10000 6.7 40 17:37 09.10.2019
6481 Rain 5 1000 86 10000 6.2 40 17:19 09.10.2019
6482 Clouds 5 1000 86 10000 6.2 20 16:55 09.10.2019
6483 Clouds 5 1000 86 10000 6.2 20 16:37 09.10.2019
6484 Rain 5 1000 86 10000 8.7 20 16:18 09.10.2019
6485 Rain 5 1001 80 10000 7.2 30 15:55 09.10.2019
6486 Rain 5 1001 80 10000 7.2 30 15:36 09.10.2019
6487 Clouds 5 1001 80 10000 6.7 40 15:18 09.10.2019
6488 Rain 5 1001 80 10000 7.2 30 14:44 09.10.2019
6489 Rain 5 1001 80 10000 5.7 30 14:18 09.10.2019
6490 Clouds 4 1001 80 10000 5.7 30 13:58 09.10.2019
6491 Rain 5 1001 80 10000 5.7 30 13:36 09.10.2019
6492 Rain 5 1002 80 10000 6.7 50 13:18 09.10.2019
6493 Rain 5 1002 80 10000 7.2 50 12:42 09.10.2019
6494 Rain 5 1002 80 10000 6.2 60 12:22 09.10.2019
6495 Rain 5 1002 80 10000 6.7 60 11:58 09.10.2019
6496 Rain 5 1002 80 10000 6.7 60 11:39 09.10.2019
6497 Rain 5 1002 80 10000 7.7 60 11:20 09.10.2019
6498 Rain 5 1003 80 10000 8.2 60 10:57 09.10.2019
6499 Rain 5 1003 80 10000 8.2 60 10:57 09.10.2019
6500 Rain 5 1003 80 10000 8.2 60 10:39 09.10.2019
6501 Rain 4 1003 80 10000 10.3 60 10:18 09.10.2019
6502 Rain 3 1003 80 10000 8.7 60 09:42 09.10.2019
6503 Rain 3 1003 86 10000 10.3 60 09:20 09.10.2019
6504 Rain 4 1003 86 10000 9.3 60 08:57 09.10.2019
6505 Rain 4 1003 86 10000 9.3 60 08:37 09.10.2019
6506 Clouds 2 1003 86 10000 8.2 60 08:18 09.10.2019
6507 Clouds 4 1004 86 10000 7.2 60 07:46 09.10.2019
6508 Clouds 3 1004 86 10000 6.2 70 07:24 09.10.2019
6509 Clouds 3 1004 86 10000 6.2 70 07:24 09.10.2019
6510 Clouds 3 1004 86 10000 5.7 60 06:54 09.10.2019
6511 Clouds 3 1005 86 10000 6.2 50 06:25 09.10.2019
6512 Rain 5 1006 74 0 8.74 73.469 05:47 09.10.2019
6513 Clouds 2 1006 74 10000 4.6 60 04:41 09.10.2019
6514 Clouds 2 1006 74 10000 5.1 70 03:43 09.10.2019
6515 Clouds 2 1007 75 10000 5.1 80 01:55 09.10.2019
6516 Clouds 2 1007 73 10000 5.1 80 01:22 09.10.2019
6517 Clouds 2 1007 73 10000 5.1 80 01:22 09.10.2019
6518 Clouds 2 1008 73 10000 5.7 100 00:59 09.10.2019
6519 Clouds 2 1008 73 10000 5.7 100 00:40 09.10.2019
6520 Clouds 2 1008 70 10000 5.1 100 00:22 09.10.2019
6521 Clouds 1 1008 86 10000 5.7 100 23:58 08.10.2019
6522 Clouds 1 1008 86 10000 5.7 100 23:37 08.10.2019
6523 Clouds 3 1008 70 10000 6.2 110 23:18 08.10.2019
6524 Clouds 3 1009 70 10000 6.2 100 22:41 08.10.2019
6525 Clouds 3 1009 70 10000 6.2 100 22:41 08.10.2019
6526 Clouds 2 1009 70 10000 5.1 110 22:21 08.10.2019
6527 Clouds 4 1009 86 10000 5.7 110 21:58 08.10.2019
6528 Clouds 4 1009 86 10000 5.7 110 21:39 08.10.2019
6529 Clouds 4 1009 86 10000 5.7 110 21:39 08.10.2019
6530 Clouds 3 1010 70 10000 7.2 100 21:20 08.10.2019
6531 Clouds 3 1010 70 10000 6.7 100 20:58 08.10.2019
6532 Clouds 3 1010 68 10000 6.7 100 20:39 08.10.2019
6533 Clouds 3 1010 86 10000 5.1 100 20:21 08.10.2019
6534 Clouds 3 1010 68 10000 6.7 110 19:59 08.10.2019
6535 Clouds 3 1010 68 10000 6.7 110 19:41 08.10.2019
6536 Clouds 3 1010 86 10000 6.2 110 19:23 08.10.2019
6537 Clouds 4 1011 68 10000 8.2 120 18:57 08.10.2019
6538 Clouds 4 1011 68 10000 8.2 120 18:39 08.10.2019
6539 Clouds 4 1011 69 10000 7.2 110 18:19 08.10.2019
6540 Clouds 3 1011 69 10000 7.2 110 17:55 08.10.2019
6541 Clouds 3 1011 69 10000 7.2 110 17:36 08.10.2019
6542 Clouds 2 1011 69 10000 7.7 100 17:18 08.10.2019
6543 Rain 4 1011 69 10000 6.2 120 16:41 08.10.2019
6544 Clouds 4 1011 69 10000 8.2 110 16:22 08.10.2019
6545 Clouds 4 1012 74 10000 10.8 110 15:57 08.10.2019
6546 Clouds 4 1012 74 10000 10.8 110 15:37 08.10.2019
6547 Clouds 4 1012 74 10000 10.3 110 15:19 08.10.2019
6548 Clouds 4 1012 74 10000 10.3 110 15:19 08.10.2019
6549 Clouds 4 1012 74 10000 9.8 110 14:42 08.10.2019
6550 Clouds 4 1012 74 10000 8.2 110 14:21 08.10.2019
6551 Clouds 5 1013 74 10000 9.3 110 13:59 08.10.2019
6552 Clouds 5 1013 74 10000 9.3 110 13:39 08.10.2019
6553 Clouds 5 1013 74 10000 9.3 110 13:39 08.10.2019
6554 Clouds 5 1013 74 10000 10.3 100 13:21 08.10.2019
6555 Clouds 4 1013 74 10000 8.2 110 12:59 08.10.2019
6556 Clouds 4 1013 74 10000 8.2 110 12:39 08.10.2019
6557 Clouds 4 1013 74 10000 6.7 110 12:20 08.10.2019
6558 Clouds 4 1014 74 10000 5.7 110 11:56 08.10.2019
6559 Clouds 4 1014 74 10000 5.7 110 11:37 08.10.2019
6560 Clouds 4 1014 74 10000 7.7 120 11:19 08.10.2019
6561 Clouds 4 1014 74 10000 6.7 110 10:40 08.10.2019
6562 Clouds 4 1014 69 10000 6.2 110 10:22 08.10.2019
6563 Clouds 4 1015 80 10000 6.7 120 09:58 08.10.2019
6564 Clouds 4 1015 80 10000 6.7 120 09:40 08.10.2019
6565 Clouds 3 1015 86 10000 5.1 120 09:20 08.10.2019
6566 Clouds 3 1015 86 10000 5.1 120 08:44 08.10.2019
6567 Rain 3 1015 86 10000 6.7 120 08:25 08.10.2019
6568 Rain 3 1016 86 10000 7.2 120 07:47 08.10.2019
6569 Clouds 1 1016 86 10000 8.2 130 07:23 08.10.2019
6570 Clouds 1 1016 86 10000 8.7 120 06:57 08.10.2019
6571 Clouds 1 1016 86 10000 8.7 120 06:35 08.10.2019
6572 Clouds 1 1016 77 10000 9.3 110 05:59 08.10.2019
6573 Clouds 1 1016 77 10000 9.3 110 05:40 08.10.2019
6574 Clouds 1 1017 86 10000 8.7 120 04:55 08.10.2019
6575 Clouds 1 1017 86 10000 7.7 120 03:30 08.10.2019
6576 Clouds 1 1017 86 10000 7.7 120 03:30 08.10.2019
6577 Clouds 1 1017 86 10000 7.2 120 02:40 08.10.2019
6578 Clouds 2 1018 75 10000 5.1 120 01:56 08.10.2019
6579 Clouds 2 1018 75 10000 5.1 120 01:38 08.10.2019
6580 Clouds 2 1018 80 10000 6.2 120 00:55 08.10.2019
6581 Clouds 2 1018 80 10000 6.2 120 00:23 08.10.2019
6582 Clouds 3 1018 74 10000 6.2 120 23:44 07.10.2019
6583 Clouds 4 1018 74 10000 7.7 120 23:21 07.10.2019
6584 Clouds 4 1018 74 10000 7.7 120 23:21 07.10.2019
6585 Clouds 4 1019 80 10000 7.2 120 22:59 07.10.2019
6586 Clouds 4 1019 80 10000 7.2 120 22:40 07.10.2019
6587 Clouds 4 1019 80 10000 8.2 120 22:21 07.10.2019
6588 Clouds 4 1019 75 10000 6.2 120 21:59 07.10.2019
6589 Clouds 4 1019 75 10000 6.2 120 21:40 07.10.2019
6590 Clouds 3 1019 86 10000 5.1 120 21:20 07.10.2019
6591 Clouds 3 1019 86 10000 5.1 120 21:20 07.10.2019
6592 Clouds 3 1019 86 10000 5.7 110 20:59 07.10.2019
6593 Clouds 4 1019 86 10000 5.7 110 20:39 07.10.2019
6594 Clouds 4 1019 86 10000 5.7 110 20:39 07.10.2019
6595 Clouds 4 1019 78 10000 5.1 110 20:21 07.10.2019
6596 Clouds 4 1019 78 10000 6.2 120 19:59 07.10.2019
6597 Clouds 4 1019 78 10000 6.2 120 19:41 07.10.2019
6598 Clouds 3 1019 86 10000 6.2 130 19:20 07.10.2019
6599 Clouds 3 1019 86 10000 6.2 120 18:59 07.10.2019
6600 Clouds 4 1019 86 10000 6.2 120 18:40 07.10.2019
6601 Clouds 4 1019 93 10000 5.7 120 18:19 07.10.2019
6602 Clouds 4 1019 93 10000 5.1 110 17:54 07.10.2019
6603 Clouds 4 1019 93 10000 5.1 110 17:54 07.10.2019
6604 Clouds 4 1019 93 10000 5.1 110 17:36 07.10.2019
6605 Clouds 5 1019 86 10000 4.6 90 17:18 07.10.2019
6606 Clouds 5 1019 86 10000 4.1 110 16:43 07.10.2019
6607 Clouds 6 1018 80 10000 4.6 100 16:25 07.10.2019
6608 Clouds 6 1018 86 10000 3.1 100 15:46 07.10.2019
6609 Clouds 6 1018 75 10000 2.6 110 15:26 07.10.2019
6610 Clouds 6 1018 80 10000 1.5 150 14:59 07.10.2019
6611 Clouds 6 1018 80 10000 1.5 150 14:40 07.10.2019
6612 Clouds 6 1018 86 10000 1.5 0 14:22 07.10.2019
6613 Clouds 6 1018 86 10000 1.5 190 13:44 07.10.2019
6614 Clouds 6 1018 86 10000 1.5 0 13:21 07.10.2019
6615 Rain 6 1018 86 10000 1 0 12:57 07.10.2019
6616 Rain 6 1018 86 10000 1 0 12:39 07.10.2019
6617 Rain 5 1018 80 10000 1.5 0 12:20 07.10.2019
6618 Rain 5 1018 80 10000 1.5 0 12:20 07.10.2019
6619 Rain 5 1018 80 10000 1.5 0 11:59 07.10.2019
6620 Rain 5 1018 80 10000 1.5 0 11:39 07.10.2019
6621 Rain 5 1018 80 10000 1.5 90 11:20 07.10.2019
6622 Rain 5 1017 93 10000 2.1 20 10:42 07.10.2019
6623 Rain 5 1017 86 10000 3.1 360 10:23 07.10.2019
6624 Rain 4 1017 86 10000 4.1 360 09:57 07.10.2019
6625 Rain 4 1017 86 10000 4.1 360 09:38 07.10.2019
6626 Rain 4 1017 86 10000 4.1 360 09:38 07.10.2019
6627 Rain 4 1017 86 10000 5.1 360 09:20 07.10.2019
6628 Drizzle 4 1016 86 10000 5.1 10 08:43 07.10.2019
6629 Rain 4 1016 86 10000 6.2 360 08:20 07.10.2019
6630 Rain 4 1016 93 10000 5.7 360 07:49 07.10.2019
6631 Rain 4 1016 80 10000 6.2 330 07:28 07.10.2019
6632 Clouds 4 1016 80 10000 6.7 340 06:58 07.10.2019
6633 Clouds 4 1016 80 10000 6.7 340 06:38 07.10.2019
6634 Rain 4 1016 86 10000 7.7 360 06:19 07.10.2019
6635 Clouds 4 1015 80 10000 7.7 340 05:26 07.10.2019
6636 Clouds 4 1015 86 10000 6.2 350 04:50 07.10.2019
6637 Clouds 4 1015 80 10000 8.7 340 03:48 07.10.2019
6638 Clouds 4 1015 80 10000 8.7 340 03:48 07.10.2019
6639 Clouds 4 1015 80 10000 8.7 340 03:30 07.10.2019
6640 Clouds 4 1015 80 10000 11.8 340 02:39 07.10.2019
6641 Clouds 4 1015 80 10000 11.8 340 02:19 07.10.2019
6642 Clouds 4 1015 80 10000 11.8 340 02:19 07.10.2019
6643 Rain 5 1014 75 10000 11.3 340 01:24 07.10.2019
6644 Rain 4 1014 80 10000 12.9 340 00:53 07.10.2019
6645 Rain 5 1014 75 10000 10.8 330 00:26 07.10.2019
6646 Rain 5 1014 80 10000 11.8 340 23:59 06.10.2019
6647 Rain 5 1014 80 10000 11.8 340 23:40 06.10.2019
6648 Rain 6 1014 86 10000 11.8 330 23:20 06.10.2019
6649 Rain 5 1014 86 10000 12.3 330 22:57 06.10.2019
6650 Rain 5 1014 86 10000 12.3 330 22:39 06.10.2019
6651 Rain 5 1013 86 10000 10.3 320 22:20 06.10.2019
6652 Rain 5 1013 86 10000 10.3 320 22:20 06.10.2019
6653 Drizzle 6 1013 86 10000 12.3 330 21:55 06.10.2019
6654 Drizzle 6 1013 86 10000 12.3 330 21:37 06.10.2019
6655 Rain 6 1013 80 10000 9.8 320 21:18 06.10.2019
6656 Rain 6 1013 80 10000 10.8 330 20:56 06.10.2019
6657 Rain 6 1013 80 10000 10.8 330 20:38 06.10.2019
6658 Rain 6 1013 80 10000 10.8 330 20:38 06.10.2019
6659 Clouds 5 1013 80 10000 13.4 340 20:19 06.10.2019
6660 Clouds 5 1013 80 10000 13.4 340 20:19 06.10.2019
6661 Clouds 5 1013 80 10000 12.9 330 19:56 06.10.2019
6662 Clouds 5 1013 80 10000 12.9 330 19:37 06.10.2019
6663 Rain 5 1013 86 10000 12.9 330 19:18 06.10.2019
6664 Drizzle 5 1013 86 10000 14.4 330 18:55 06.10.2019
6665 Drizzle 5 1013 86 10000 14.4 330 18:37 06.10.2019
6666 Drizzle 5 1012 80 10000 14.4 320 18:18 06.10.2019
6667 Drizzle 5 1012 80 10000 14.4 320 18:18 06.10.2019
6668 Rain 6 1012 81 10000 14.9 320 17:43 06.10.2019
6669 Rain 6 1012 86 10000 15.4 320 17:20 06.10.2019
6670 Rain 6 1012 81 10000 13.9 310 16:56 06.10.2019
6671 Rain 6 1012 81 10000 13.9 310 16:38 06.10.2019
6672 Drizzle 6 1012 81 10000 15.4 310 16:19 06.10.2019
6673 Rain 6 1012 80 10000 14.4 310 15:44 06.10.2019
6674 Rain 7 1012 81 10000 15.9 310 15:22 06.10.2019
6675 Rain 6 1012 86 10000 14.9 310 14:58 06.10.2019
6676 Rain 6 1012 86 10000 14.9 310 14:40 06.10.2019
6677 Rain 5 1012 86 10000 14.9 310 14:21 06.10.2019
6678 Rain 6 1012 81 10000 15.4 310 13:55 06.10.2019
6679 Rain 6 1012 81 10000 15.4 310 13:37 06.10.2019
6680 Rain 5 1012 86 10000 14.9 310 13:18 06.10.2019
6681 Rain 5 1012 86 10000 15.9 310 12:55 06.10.2019
6682 Rain 5 1012 86 10000 15.9 310 12:55 06.10.2019
6683 Rain 5 1012 86 10000 15.9 310 12:37 06.10.2019
6684 Rain 5 1012 86 10000 14.9 310 12:19 06.10.2019
6685 Rain 5 1012 86 10000 14.4 300 11:43 06.10.2019
6686 -273 0 0 0 0 0 11:24 06.10.2019
6687 Rain 5 1012 86 10000 14.9 310 10:58 06.10.2019
6688 Rain 5 1012 86 10000 14.9 310 10:39 06.10.2019
6689 Rain 5 1012 86 10000 14.9 310 10:21 06.10.2019
6690 Rain 5 1012 86 10000 13.9 300 09:41 06.10.2019
6691 Rain 5 1012 86 10000 15.9 300 09:21 06.10.2019
6692 Rain 5 1012 86 10000 14.9 310 08:57 06.10.2019
6693 Rain 5 1012 86 10000 14.9 310 08:38 06.10.2019
6694 Drizzle 5 1012 86 10000 13.4 300 08:19 06.10.2019
6695 Rain 5 1012 80 10000 15.9 310 07:40 06.10.2019
6696 Rain 5 1012 86 10000 15.9 300 06:59 06.10.2019
6697 Drizzle 5 1012 86 10000 15.4 310 05:57 06.10.2019
6698 Rain 5 1013 86 10000 13.4 300 04:44 06.10.2019
6699 Rain 5 1013 86 10000 13.4 300 04:44 06.10.2019
6700 Rain 5 1013 86 10000 13.4 300 04:44 06.10.2019
6701 Rain 6 1014 81 10000 11.3 300 02:56 06.10.2019
6702 Rain 6 1014 81 10000 11.3 300 02:37 06.10.2019
6703 Clouds 5 1015 86 10000 11.3 290 01:50 06.10.2019
6704 Clouds 5 1015 86 10000 11.3 290 01:31 06.10.2019
6705 Clouds 5 1015 80 10000 10.3 300 00:59 06.10.2019
6706 Clouds 5 1015 80 10000 10.3 300 00:40 06.10.2019
6707 Rain 5 1015 86 10000 10.8 310 00:20 06.10.2019
6708 Rain 5 1015 80 10000 10.3 300 23:42 05.10.2019
6709 Rain 5 1015 80 10000 11.8 300 23:21 05.10.2019
6710 Rain 5 1016 80 10000 11.3 310 22:56 05.10.2019
6711 Rain 5 1016 80 10000 11.3 310 22:38 05.10.2019
6712 Rain 5 1016 80 10000 11.3 310 22:38 05.10.2019<